<?xml version="1.0" encoding="UTF-8" standalone="no" ?>
<gpx xmlns="http://www.topografix.com/GPX/1/1" xmlns:xsi="http://www.w3.org/2001/XMLSchema-instance" xsi:schemaLocation="http://www.topografix.com/GPX/1/1 http://www.topografix.com/GPX/1/1/gpx.xsd" version="1.1" creator="VisuGPX - https://www.visugpx.com">
  <metadata>
    <name>Grotte des fours</name>
    <desc><![CDATA[Depuis Viuz la Chiesaz]]></desc>
  </metadata>
  <trk>
    <name><![CDATA[2016-01-17 14:36:31]]></name>
    <trkseg>
      <trkpt lat="45.81615" lon="6.06906">
        <ele>717.05</ele>
        <time>2016-01-17T09:45:27Z</time>
      </trkpt>
      <trkpt lat="45.81615" lon="6.06905">
        <ele>717.05</ele>
        <time>2016-01-17T09:45:28Z</time>
      </trkpt>
      <trkpt lat="45.81615" lon="6.06905">
        <ele>578.71</ele>
        <time>2016-01-17T09:45:33Z</time>
      </trkpt>
      <trkpt lat="45.81615" lon="6.06905">
        <ele>578.77</ele>
        <time>2016-01-17T09:45:34Z</time>
      </trkpt>
      <trkpt lat="45.81614" lon="6.06906">
        <ele>578.95</ele>
        <time>2016-01-17T09:45:36Z</time>
      </trkpt>
      <trkpt lat="45.81614" lon="6.06906">
        <ele>578.95</ele>
        <time>2016-01-17T09:45:37Z</time>
      </trkpt>
      <trkpt lat="45.81612" lon="6.0691">
        <ele>580.29</ele>
        <time>2016-01-17T09:46:05Z</time>
      </trkpt>
      <trkpt lat="45.8162" lon="6.06904">
        <ele>581.39</ele>
        <time>2016-01-17T09:46:26Z</time>
      </trkpt>
      <trkpt lat="45.81621" lon="6.0689">
        <ele>579.92</ele>
        <time>2016-01-17T09:46:47Z</time>
      </trkpt>
      <trkpt lat="45.81621" lon="6.06888">
        <ele>579.21</ele>
        <time>2016-01-17T09:46:49Z</time>
      </trkpt>
      <trkpt lat="45.81605" lon="6.06888">
        <ele>578.47</ele>
        <time>2016-01-17T09:47:07Z</time>
      </trkpt>
      <trkpt lat="45.81587" lon="6.06894">
        <ele>577.39</ele>
        <time>2016-01-17T09:47:26Z</time>
      </trkpt>
      <trkpt lat="45.81571" lon="6.06886">
        <ele>576.52</ele>
        <time>2016-01-17T09:47:42Z</time>
      </trkpt>
      <trkpt lat="45.81565" lon="6.0686">
        <ele>576.5</ele>
        <time>2016-01-17T09:47:59Z</time>
      </trkpt>
      <trkpt lat="45.81565" lon="6.06859">
        <ele>575.7</ele>
        <time>2016-01-17T09:48:00Z</time>
      </trkpt>
      <trkpt lat="45.81567" lon="6.06835">
        <ele>574.17</ele>
        <time>2016-01-17T09:48:15Z</time>
      </trkpt>
      <trkpt lat="45.81572" lon="6.06815">
        <ele>573.29</ele>
        <time>2016-01-17T09:48:31Z</time>
      </trkpt>
      <trkpt lat="45.81574" lon="6.06802">
        <ele>572.67</ele>
        <time>2016-01-17T09:48:40Z</time>
      </trkpt>
      <trkpt lat="45.81571" lon="6.06771">
        <ele>571.49</ele>
        <time>2016-01-17T09:48:56Z</time>
      </trkpt>
      <trkpt lat="45.81567" lon="6.06755">
        <ele>569.75</ele>
        <time>2016-01-17T09:49:06Z</time>
      </trkpt>
      <trkpt lat="45.81565" lon="6.06735">
        <ele>569.61</ele>
        <time>2016-01-17T09:49:20Z</time>
      </trkpt>
      <trkpt lat="45.81563" lon="6.0672">
        <ele>569.2</ele>
        <time>2016-01-17T09:49:33Z</time>
      </trkpt>
      <trkpt lat="45.81557" lon="6.06698">
        <ele>568.93</ele>
        <time>2016-01-17T09:49:47Z</time>
      </trkpt>
      <trkpt lat="45.81552" lon="6.06689">
        <ele>571.65</ele>
        <time>2016-01-17T09:49:56Z</time>
      </trkpt>
      <trkpt lat="45.81542" lon="6.06663">
        <ele>572.5</ele>
        <time>2016-01-17T09:50:15Z</time>
      </trkpt>
      <trkpt lat="45.81535" lon="6.06646">
        <ele>574.16</ele>
        <time>2016-01-17T09:50:27Z</time>
      </trkpt>
      <trkpt lat="45.81521" lon="6.06631">
        <ele>575.97</ele>
        <time>2016-01-17T09:50:44Z</time>
      </trkpt>
      <trkpt lat="45.81503" lon="6.06618">
        <ele>578.55</ele>
        <time>2016-01-17T09:51:03Z</time>
      </trkpt>
      <trkpt lat="45.81487" lon="6.06609">
        <ele>580.17</ele>
        <time>2016-01-17T09:51:21Z</time>
      </trkpt>
      <trkpt lat="45.81469" lon="6.06603">
        <ele>580.79</ele>
        <time>2016-01-17T09:51:38Z</time>
      </trkpt>
      <trkpt lat="45.81454" lon="6.06599">
        <ele>581.38</ele>
        <time>2016-01-17T09:51:55Z</time>
      </trkpt>
      <trkpt lat="45.81438" lon="6.06597">
        <ele>582.87</ele>
        <time>2016-01-17T09:52:12Z</time>
      </trkpt>
      <trkpt lat="45.81421" lon="6.066">
        <ele>583.36</ele>
        <time>2016-01-17T09:52:29Z</time>
      </trkpt>
      <trkpt lat="45.81406" lon="6.06609">
        <ele>583.72</ele>
        <time>2016-01-17T09:52:46Z</time>
      </trkpt>
      <trkpt lat="45.81388" lon="6.06615">
        <ele>584.05</ele>
        <time>2016-01-17T09:53:03Z</time>
      </trkpt>
      <trkpt lat="45.81371" lon="6.06626">
        <ele>585.42</ele>
        <time>2016-01-17T09:53:23Z</time>
      </trkpt>
      <trkpt lat="45.81356" lon="6.06638">
        <ele>586.86</ele>
        <time>2016-01-17T09:53:40Z</time>
      </trkpt>
      <trkpt lat="45.81333" lon="6.06645">
        <ele>588.07</ele>
        <time>2016-01-17T09:54:00Z</time>
      </trkpt>
      <trkpt lat="45.81308" lon="6.06636">
        <ele>589.4</ele>
        <time>2016-01-17T09:54:18Z</time>
      </trkpt>
      <trkpt lat="45.81293" lon="6.06618">
        <ele>587.58</ele>
        <time>2016-01-17T09:54:32Z</time>
      </trkpt>
      <trkpt lat="45.81279" lon="6.06607">
        <ele>587.01</ele>
        <time>2016-01-17T09:54:47Z</time>
      </trkpt>
      <trkpt lat="45.81261" lon="6.06594">
        <ele>586.79</ele>
        <time>2016-01-17T09:55:06Z</time>
      </trkpt>
      <trkpt lat="45.81249" lon="6.06575">
        <ele>586.29</ele>
        <time>2016-01-17T09:55:21Z</time>
      </trkpt>
      <trkpt lat="45.81239" lon="6.06551">
        <ele>583.99</ele>
        <time>2016-01-17T09:55:37Z</time>
      </trkpt>
      <trkpt lat="45.81227" lon="6.06532">
        <ele>582.25</ele>
        <time>2016-01-17T09:55:52Z</time>
      </trkpt>
      <trkpt lat="45.81217" lon="6.06516">
        <ele>581.96</ele>
        <time>2016-01-17T09:56:08Z</time>
      </trkpt>
      <trkpt lat="45.81201" lon="6.06496">
        <ele>579.97</ele>
        <time>2016-01-17T09:56:25Z</time>
      </trkpt>
      <trkpt lat="45.81183" lon="6.06473">
        <ele>578.06</ele>
        <time>2016-01-17T09:56:46Z</time>
      </trkpt>
      <trkpt lat="45.81166" lon="6.06461">
        <ele>574.56</ele>
        <time>2016-01-17T09:57:03Z</time>
      </trkpt>
      <trkpt lat="45.81146" lon="6.06468">
        <ele>570.89</ele>
        <time>2016-01-17T09:57:23Z</time>
      </trkpt>
      <trkpt lat="45.81135" lon="6.06472">
        <ele>568.54</ele>
        <time>2016-01-17T09:57:33Z</time>
      </trkpt>
      <trkpt lat="45.81111" lon="6.0648">
        <ele>566.9</ele>
        <time>2016-01-17T09:57:55Z</time>
      </trkpt>
      <trkpt lat="45.81108" lon="6.06479">
        <ele>566.98</ele>
        <time>2016-01-17T09:57:58Z</time>
      </trkpt>
      <trkpt lat="45.81105" lon="6.06476">
        <ele>566.12</ele>
        <time>2016-01-17T09:58:01Z</time>
      </trkpt>
      <trkpt lat="45.81099" lon="6.0645">
        <ele>563.94</ele>
        <time>2016-01-17T09:58:18Z</time>
      </trkpt>
      <trkpt lat="45.81091" lon="6.06421">
        <ele>560.53</ele>
        <time>2016-01-17T09:58:37Z</time>
      </trkpt>
      <trkpt lat="45.81081" lon="6.06393">
        <ele>559.35</ele>
        <time>2016-01-17T09:58:54Z</time>
      </trkpt>
      <trkpt lat="45.8107" lon="6.06363">
        <ele>557.09</ele>
        <time>2016-01-17T09:59:14Z</time>
      </trkpt>
      <trkpt lat="45.81059" lon="6.06336">
        <ele>553.88</ele>
        <time>2016-01-17T09:59:32Z</time>
      </trkpt>
      <trkpt lat="45.81052" lon="6.06319">
        <ele>552.37</ele>
        <time>2016-01-17T09:59:46Z</time>
      </trkpt>
      <trkpt lat="45.8104" lon="6.06295">
        <ele>550.69</ele>
        <time>2016-01-17T10:00:03Z</time>
      </trkpt>
      <trkpt lat="45.81036" lon="6.06287">
        <ele>549.81</ele>
        <time>2016-01-17T10:00:09Z</time>
      </trkpt>
      <trkpt lat="45.81039" lon="6.06255">
        <ele>547.8</ele>
        <time>2016-01-17T10:00:30Z</time>
      </trkpt>
      <trkpt lat="45.81043" lon="6.06232">
        <ele>547.34</ele>
        <time>2016-01-17T10:00:45Z</time>
      </trkpt>
      <trkpt lat="45.81028" lon="6.06216">
        <ele>545.14</ele>
        <time>2016-01-17T10:01:04Z</time>
      </trkpt>
      <trkpt lat="45.81027" lon="6.06216">
        <ele>545.17</ele>
        <time>2016-01-17T10:01:05Z</time>
      </trkpt>
      <trkpt lat="45.81011" lon="6.06216">
        <ele>543.8</ele>
        <time>2016-01-17T10:01:20Z</time>
      </trkpt>
      <trkpt lat="45.80995" lon="6.06199">
        <ele>542.3</ele>
        <time>2016-01-17T10:01:35Z</time>
      </trkpt>
      <trkpt lat="45.80982" lon="6.06201">
        <ele>542.73</ele>
        <time>2016-01-17T10:01:50Z</time>
      </trkpt>
      <trkpt lat="45.80974" lon="6.06209">
        <ele>543.36</ele>
        <time>2016-01-17T10:02:13Z</time>
      </trkpt>
      <trkpt lat="45.80972" lon="6.06223">
        <ele>544.51</ele>
        <time>2016-01-17T10:03:02Z</time>
      </trkpt>
      <trkpt lat="45.80969" lon="6.06213">
        <ele>545.31</ele>
        <time>2016-01-17T10:03:34Z</time>
      </trkpt>
      <trkpt lat="45.8097" lon="6.06215">
        <ele>546.07</ele>
        <time>2016-01-17T10:04:03Z</time>
      </trkpt>
      <trkpt lat="45.80966" lon="6.06214">
        <ele>546.4</ele>
        <time>2016-01-17T10:04:15Z</time>
      </trkpt>
      <trkpt lat="45.8096" lon="6.06215">
        <ele>546.87</ele>
        <time>2016-01-17T10:04:32Z</time>
      </trkpt>
      <trkpt lat="45.80956" lon="6.06223">
        <ele>547.46</ele>
        <time>2016-01-17T10:04:55Z</time>
      </trkpt>
      <trkpt lat="45.80946" lon="6.06221">
        <ele>547.93</ele>
        <time>2016-01-17T10:05:11Z</time>
      </trkpt>
      <trkpt lat="45.80936" lon="6.06214">
        <ele>548.29</ele>
        <time>2016-01-17T10:05:24Z</time>
      </trkpt>
      <trkpt lat="45.80922" lon="6.06206">
        <ele>548.71</ele>
        <time>2016-01-17T10:05:38Z</time>
      </trkpt>
      <trkpt lat="45.80912" lon="6.06195">
        <ele>551.68</ele>
        <time>2016-01-17T10:05:51Z</time>
      </trkpt>
      <trkpt lat="45.80895" lon="6.06188">
        <ele>551.99</ele>
        <time>2016-01-17T10:06:06Z</time>
      </trkpt>
      <trkpt lat="45.80879" lon="6.06205">
        <ele>554.7</ele>
        <time>2016-01-17T10:06:25Z</time>
      </trkpt>
      <trkpt lat="45.80868" lon="6.06219">
        <ele>557.7</ele>
        <time>2016-01-17T10:06:40Z</time>
      </trkpt>
      <trkpt lat="45.80856" lon="6.06233">
        <ele>560.79</ele>
        <time>2016-01-17T10:06:56Z</time>
      </trkpt>
      <trkpt lat="45.8085" lon="6.06241">
        <ele>562.25</ele>
        <time>2016-01-17T10:07:04Z</time>
      </trkpt>
      <trkpt lat="45.80835" lon="6.06256">
        <ele>564.6</ele>
        <time>2016-01-17T10:07:21Z</time>
      </trkpt>
      <trkpt lat="45.80821" lon="6.06269">
        <ele>568.45</ele>
        <time>2016-01-17T10:07:35Z</time>
      </trkpt>
      <trkpt lat="45.80802" lon="6.06291">
        <ele>570.59</ele>
        <time>2016-01-17T10:07:57Z</time>
      </trkpt>
      <trkpt lat="45.80787" lon="6.06308">
        <ele>572.55</ele>
        <time>2016-01-17T10:08:15Z</time>
      </trkpt>
      <trkpt lat="45.80779" lon="6.06314">
        <ele>573.92</ele>
        <time>2016-01-17T10:08:23Z</time>
      </trkpt>
      <trkpt lat="45.80764" lon="6.06327">
        <ele>574.18</ele>
        <time>2016-01-17T10:08:41Z</time>
      </trkpt>
      <trkpt lat="45.80737" lon="6.06334">
        <ele>575.37</ele>
        <time>2016-01-17T10:09:02Z</time>
      </trkpt>
      <trkpt lat="45.80714" lon="6.06326">
        <ele>577.53</ele>
        <time>2016-01-17T10:09:22Z</time>
      </trkpt>
      <trkpt lat="45.80688" lon="6.06316">
        <ele>578.78</ele>
        <time>2016-01-17T10:09:42Z</time>
      </trkpt>
      <trkpt lat="45.80666" lon="6.0631">
        <ele>579.13</ele>
        <time>2016-01-17T10:10:00Z</time>
      </trkpt>
      <trkpt lat="45.80647" lon="6.06305">
        <ele>580.67</ele>
        <time>2016-01-17T10:10:15Z</time>
      </trkpt>
      <trkpt lat="45.80622" lon="6.06298">
        <ele>582.11</ele>
        <time>2016-01-17T10:10:35Z</time>
      </trkpt>
      <trkpt lat="45.80611" lon="6.06297">
        <ele>583.61</ele>
        <time>2016-01-17T10:10:44Z</time>
      </trkpt>
      <trkpt lat="45.80599" lon="6.06304">
        <ele>584.98</ele>
        <time>2016-01-17T10:10:57Z</time>
      </trkpt>
      <trkpt lat="45.80596" lon="6.06311">
        <ele>585.92</ele>
        <time>2016-01-17T10:11:02Z</time>
      </trkpt>
      <trkpt lat="45.80594" lon="6.06318">
        <ele>586</ele>
        <time>2016-01-17T10:11:06Z</time>
      </trkpt>
      <trkpt lat="45.80581" lon="6.06347">
        <ele>589.24</ele>
        <time>2016-01-17T10:11:24Z</time>
      </trkpt>
      <trkpt lat="45.80571" lon="6.06365">
        <ele>592.09</ele>
        <time>2016-01-17T10:11:38Z</time>
      </trkpt>
      <trkpt lat="45.80568" lon="6.06372">
        <ele>593.03</ele>
        <time>2016-01-17T10:11:44Z</time>
      </trkpt>
      <trkpt lat="45.80563" lon="6.0639">
        <ele>595.3</ele>
        <time>2016-01-17T10:11:56Z</time>
      </trkpt>
      <trkpt lat="45.80559" lon="6.06404">
        <ele>596.32</ele>
        <time>2016-01-17T10:12:05Z</time>
      </trkpt>
      <trkpt lat="45.80565" lon="6.06423">
        <ele>598.46</ele>
        <time>2016-01-17T10:12:19Z</time>
      </trkpt>
      <trkpt lat="45.80569" lon="6.06439">
        <ele>599.64</ele>
        <time>2016-01-17T10:12:30Z</time>
      </trkpt>
      <trkpt lat="45.80567" lon="6.06457">
        <ele>603.37</ele>
        <time>2016-01-17T10:12:45Z</time>
      </trkpt>
      <trkpt lat="45.80565" lon="6.06473">
        <ele>605.35</ele>
        <time>2016-01-17T10:13:00Z</time>
      </trkpt>
      <trkpt lat="45.8056" lon="6.06497">
        <ele>607.42</ele>
        <time>2016-01-17T10:13:16Z</time>
      </trkpt>
      <trkpt lat="45.80556" lon="6.06513">
        <ele>610.52</ele>
        <time>2016-01-17T10:13:29Z</time>
      </trkpt>
      <trkpt lat="45.80548" lon="6.06529">
        <ele>613.92</ele>
        <time>2016-01-17T10:13:46Z</time>
      </trkpt>
      <trkpt lat="45.80534" lon="6.0654">
        <ele>616.95</ele>
        <time>2016-01-17T10:14:02Z</time>
      </trkpt>
      <trkpt lat="45.80532" lon="6.0654">
        <ele>617.75</ele>
        <time>2016-01-17T10:14:04Z</time>
      </trkpt>
      <trkpt lat="45.80521" lon="6.0654">
        <ele>619.12</ele>
        <time>2016-01-17T10:14:14Z</time>
      </trkpt>
      <trkpt lat="45.80507" lon="6.06542">
        <ele>620.84</ele>
        <time>2016-01-17T10:14:29Z</time>
      </trkpt>
      <trkpt lat="45.80501" lon="6.06558">
        <ele>622.52</ele>
        <time>2016-01-17T10:14:41Z</time>
      </trkpt>
      <trkpt lat="45.80511" lon="6.06574">
        <ele>624.73</ele>
        <time>2016-01-17T10:14:55Z</time>
      </trkpt>
      <trkpt lat="45.80523" lon="6.06578">
        <ele>626.69</ele>
        <time>2016-01-17T10:15:08Z</time>
      </trkpt>
      <trkpt lat="45.80531" lon="6.06581">
        <ele>627.72</ele>
        <time>2016-01-17T10:15:19Z</time>
      </trkpt>
      <trkpt lat="45.80545" lon="6.06587">
        <ele>629.84</ele>
        <time>2016-01-17T10:15:32Z</time>
      </trkpt>
      <trkpt lat="45.80551" lon="6.06589">
        <ele>630.92</ele>
        <time>2016-01-17T10:15:38Z</time>
      </trkpt>
      <trkpt lat="45.80567" lon="6.06598">
        <ele>632.89</ele>
        <time>2016-01-17T10:15:54Z</time>
      </trkpt>
      <trkpt lat="45.80581" lon="6.06607">
        <ele>634.77</ele>
        <time>2016-01-17T10:16:09Z</time>
      </trkpt>
      <trkpt lat="45.80591" lon="6.06613">
        <ele>636.52</ele>
        <time>2016-01-17T10:16:22Z</time>
      </trkpt>
      <trkpt lat="45.80593" lon="6.06616">
        <ele>638.07</ele>
        <time>2016-01-17T10:16:26Z</time>
      </trkpt>
      <trkpt lat="45.80607" lon="6.06624">
        <ele>640.01</ele>
        <time>2016-01-17T10:16:41Z</time>
      </trkpt>
      <trkpt lat="45.80617" lon="6.06632">
        <ele>640.93</ele>
        <time>2016-01-17T10:16:50Z</time>
      </trkpt>
      <trkpt lat="45.80634" lon="6.06645">
        <ele>642.91</ele>
        <time>2016-01-17T10:17:06Z</time>
      </trkpt>
      <trkpt lat="45.80648" lon="6.06659">
        <ele>644.85</ele>
        <time>2016-01-17T10:17:21Z</time>
      </trkpt>
      <trkpt lat="45.80659" lon="6.06672">
        <ele>646.52</ele>
        <time>2016-01-17T10:17:34Z</time>
      </trkpt>
      <trkpt lat="45.80674" lon="6.0669">
        <ele>648.28</ele>
        <time>2016-01-17T10:17:51Z</time>
      </trkpt>
      <trkpt lat="45.80681" lon="6.06703">
        <ele>650.5</ele>
        <time>2016-01-17T10:18:02Z</time>
      </trkpt>
      <trkpt lat="45.80685" lon="6.06709">
        <ele>652.02</ele>
        <time>2016-01-17T10:18:08Z</time>
      </trkpt>
      <trkpt lat="45.80694" lon="6.06721">
        <ele>653.58</ele>
        <time>2016-01-17T10:18:21Z</time>
      </trkpt>
      <trkpt lat="45.807" lon="6.06727">
        <ele>655.35</ele>
        <time>2016-01-17T10:18:27Z</time>
      </trkpt>
      <trkpt lat="45.80713" lon="6.06743">
        <ele>655.55</ele>
        <time>2016-01-17T10:18:42Z</time>
      </trkpt>
      <trkpt lat="45.80724" lon="6.06759">
        <ele>657.79</ele>
        <time>2016-01-17T10:18:58Z</time>
      </trkpt>
      <trkpt lat="45.80734" lon="6.06773">
        <ele>659.66</ele>
        <time>2016-01-17T10:19:13Z</time>
      </trkpt>
      <trkpt lat="45.80736" lon="6.06776">
        <ele>660.77</ele>
        <time>2016-01-17T10:19:16Z</time>
      </trkpt>
      <trkpt lat="45.80737" lon="6.06778">
        <ele>660.77</ele>
        <time>2016-01-17T10:19:17Z</time>
      </trkpt>
      <trkpt lat="45.80737" lon="6.06779">
        <ele>660.76</ele>
        <time>2016-01-17T10:19:18Z</time>
      </trkpt>
      <trkpt lat="45.80738" lon="6.0678">
        <ele>660.78</ele>
        <time>2016-01-17T10:19:19Z</time>
      </trkpt>
      <trkpt lat="45.80739" lon="6.06781">
        <ele>660.78</ele>
        <time>2016-01-17T10:19:20Z</time>
      </trkpt>
      <trkpt lat="45.8074" lon="6.06782">
        <ele>660.81</ele>
        <time>2016-01-17T10:19:21Z</time>
      </trkpt>
      <trkpt lat="45.80741" lon="6.06784">
        <ele>660.84</ele>
        <time>2016-01-17T10:19:22Z</time>
      </trkpt>
      <trkpt lat="45.80741" lon="6.06785">
        <ele>660.85</ele>
        <time>2016-01-17T10:19:23Z</time>
      </trkpt>
      <trkpt lat="45.80742" lon="6.06786">
        <ele>660.86</ele>
        <time>2016-01-17T10:19:24Z</time>
      </trkpt>
      <trkpt lat="45.80743" lon="6.06787">
        <ele>660.87</ele>
        <time>2016-01-17T10:19:25Z</time>
      </trkpt>
      <trkpt lat="45.80744" lon="6.06788">
        <ele>660.9</ele>
        <time>2016-01-17T10:19:26Z</time>
      </trkpt>
      <trkpt lat="45.80745" lon="6.06788">
        <ele>661.69</ele>
        <time>2016-01-17T10:19:27Z</time>
      </trkpt>
      <trkpt lat="45.80746" lon="6.06789">
        <ele>661.69</ele>
        <time>2016-01-17T10:19:28Z</time>
      </trkpt>
      <trkpt lat="45.80747" lon="6.0679">
        <ele>661.72</ele>
        <time>2016-01-17T10:19:29Z</time>
      </trkpt>
      <trkpt lat="45.80747" lon="6.06791">
        <ele>661.71</ele>
        <time>2016-01-17T10:19:30Z</time>
      </trkpt>
      <trkpt lat="45.80748" lon="6.06792">
        <ele>662.6</ele>
        <time>2016-01-17T10:19:31Z</time>
      </trkpt>
      <trkpt lat="45.80749" lon="6.06793">
        <ele>662.62</ele>
        <time>2016-01-17T10:19:32Z</time>
      </trkpt>
      <trkpt lat="45.80749" lon="6.06794">
        <ele>662.62</ele>
        <time>2016-01-17T10:19:33Z</time>
      </trkpt>
      <trkpt lat="45.8075" lon="6.06795">
        <ele>662.62</ele>
        <time>2016-01-17T10:19:34Z</time>
      </trkpt>
      <trkpt lat="45.80751" lon="6.06796">
        <ele>662.64</ele>
        <time>2016-01-17T10:19:35Z</time>
      </trkpt>
      <trkpt lat="45.80751" lon="6.06797">
        <ele>662.65</ele>
        <time>2016-01-17T10:19:36Z</time>
      </trkpt>
      <trkpt lat="45.80752" lon="6.06798">
        <ele>662.65</ele>
        <time>2016-01-17T10:19:37Z</time>
      </trkpt>
      <trkpt lat="45.80753" lon="6.06799">
        <ele>663.47</ele>
        <time>2016-01-17T10:19:38Z</time>
      </trkpt>
      <trkpt lat="45.80754" lon="6.068">
        <ele>663.47</ele>
        <time>2016-01-17T10:19:39Z</time>
      </trkpt>
      <trkpt lat="45.80755" lon="6.06801">
        <ele>663.51</ele>
        <time>2016-01-17T10:19:40Z</time>
      </trkpt>
      <trkpt lat="45.80756" lon="6.06802">
        <ele>663.5</ele>
        <time>2016-01-17T10:19:41Z</time>
      </trkpt>
      <trkpt lat="45.80757" lon="6.06803">
        <ele>663.52</ele>
        <time>2016-01-17T10:19:42Z</time>
      </trkpt>
      <trkpt lat="45.80758" lon="6.06805">
        <ele>663.54</ele>
        <time>2016-01-17T10:19:43Z</time>
      </trkpt>
      <trkpt lat="45.80758" lon="6.06805">
        <ele>663.59</ele>
        <time>2016-01-17T10:19:44Z</time>
      </trkpt>
      <trkpt lat="45.80759" lon="6.06806">
        <ele>666.77</ele>
        <time>2016-01-17T10:19:45Z</time>
      </trkpt>
      <trkpt lat="45.80759" lon="6.06807">
        <ele>664.23</ele>
        <time>2016-01-17T10:19:46Z</time>
      </trkpt>
      <trkpt lat="45.8076" lon="6.06808">
        <ele>664.24</ele>
        <time>2016-01-17T10:19:47Z</time>
      </trkpt>
      <trkpt lat="45.80761" lon="6.06809">
        <ele>664.31</ele>
        <time>2016-01-17T10:19:48Z</time>
      </trkpt>
      <trkpt lat="45.80761" lon="6.0681">
        <ele>664.32</ele>
        <time>2016-01-17T10:19:49Z</time>
      </trkpt>
      <trkpt lat="45.80762" lon="6.06811">
        <ele>664.32</ele>
        <time>2016-01-17T10:19:50Z</time>
      </trkpt>
      <trkpt lat="45.80763" lon="6.06812">
        <ele>664.33</ele>
        <time>2016-01-17T10:19:51Z</time>
      </trkpt>
      <trkpt lat="45.80764" lon="6.06813">
        <ele>664.34</ele>
        <time>2016-01-17T10:19:52Z</time>
      </trkpt>
      <trkpt lat="45.80764" lon="6.06814">
        <ele>664.37</ele>
        <time>2016-01-17T10:19:53Z</time>
      </trkpt>
      <trkpt lat="45.80765" lon="6.06816">
        <ele>664.38</ele>
        <time>2016-01-17T10:19:54Z</time>
      </trkpt>
      <trkpt lat="45.80765" lon="6.06817">
        <ele>664.39</ele>
        <time>2016-01-17T10:19:55Z</time>
      </trkpt>
      <trkpt lat="45.80766" lon="6.06818">
        <ele>664.41</ele>
        <time>2016-01-17T10:19:56Z</time>
      </trkpt>
      <trkpt lat="45.80767" lon="6.06819">
        <ele>664.5</ele>
        <time>2016-01-17T10:19:57Z</time>
      </trkpt>
      <trkpt lat="45.80768" lon="6.0682">
        <ele>664.5</ele>
        <time>2016-01-17T10:19:58Z</time>
      </trkpt>
      <trkpt lat="45.80768" lon="6.06821">
        <ele>664.53</ele>
        <time>2016-01-17T10:19:59Z</time>
      </trkpt>
      <trkpt lat="45.80769" lon="6.06822">
        <ele>666.87</ele>
        <time>2016-01-17T10:20:00Z</time>
      </trkpt>
      <trkpt lat="45.8077" lon="6.06823">
        <ele>666.77</ele>
        <time>2016-01-17T10:20:01Z</time>
      </trkpt>
      <trkpt lat="45.80771" lon="6.06824">
        <ele>667.86</ele>
        <time>2016-01-17T10:20:02Z</time>
      </trkpt>
      <trkpt lat="45.80772" lon="6.06825">
        <ele>667.87</ele>
        <time>2016-01-17T10:20:03Z</time>
      </trkpt>
      <trkpt lat="45.80772" lon="6.06827">
        <ele>667.9</ele>
        <time>2016-01-17T10:20:04Z</time>
      </trkpt>
      <trkpt lat="45.80772" lon="6.06828">
        <ele>667.88</ele>
        <time>2016-01-17T10:20:05Z</time>
      </trkpt>
      <trkpt lat="45.80773" lon="6.06829">
        <ele>667.91</ele>
        <time>2016-01-17T10:20:06Z</time>
      </trkpt>
      <trkpt lat="45.80774" lon="6.0683">
        <ele>667.92</ele>
        <time>2016-01-17T10:20:07Z</time>
      </trkpt>
      <trkpt lat="45.80774" lon="6.06831">
        <ele>667.94</ele>
        <time>2016-01-17T10:20:08Z</time>
      </trkpt>
      <trkpt lat="45.80775" lon="6.06832">
        <ele>667.95</ele>
        <time>2016-01-17T10:20:09Z</time>
      </trkpt>
      <trkpt lat="45.80776" lon="6.06833">
        <ele>667.97</ele>
        <time>2016-01-17T10:20:10Z</time>
      </trkpt>
      <trkpt lat="45.80776" lon="6.06834">
        <ele>667.95</ele>
        <time>2016-01-17T10:20:11Z</time>
      </trkpt>
      <trkpt lat="45.80777" lon="6.06835">
        <ele>667.97</ele>
        <time>2016-01-17T10:20:12Z</time>
      </trkpt>
      <trkpt lat="45.80777" lon="6.06836">
        <ele>667.99</ele>
        <time>2016-01-17T10:20:13Z</time>
      </trkpt>
      <trkpt lat="45.80779" lon="6.06838">
        <ele>669.33</ele>
        <time>2016-01-17T10:20:15Z</time>
      </trkpt>
      <trkpt lat="45.80784" lon="6.06848">
        <ele>670.67</ele>
        <time>2016-01-17T10:20:25Z</time>
      </trkpt>
      <trkpt lat="45.80795" lon="6.06867">
        <ele>672.69</ele>
        <time>2016-01-17T10:20:43Z</time>
      </trkpt>
      <trkpt lat="45.808" lon="6.06878">
        <ele>675.12</ele>
        <time>2016-01-17T10:20:53Z</time>
      </trkpt>
      <trkpt lat="45.80808" lon="6.06896">
        <ele>677.06</ele>
        <time>2016-01-17T10:21:09Z</time>
      </trkpt>
      <trkpt lat="45.80817" lon="6.06917">
        <ele>679.85</ele>
        <time>2016-01-17T10:21:27Z</time>
      </trkpt>
      <trkpt lat="45.80823" lon="6.0693">
        <ele>682.34</ele>
        <time>2016-01-17T10:21:41Z</time>
      </trkpt>
      <trkpt lat="45.80825" lon="6.06941">
        <ele>683.32</ele>
        <time>2016-01-17T10:21:54Z</time>
      </trkpt>
      <trkpt lat="45.80824" lon="6.06943">
        <ele>684.24</ele>
        <time>2016-01-17T10:22:15Z</time>
      </trkpt>
      <trkpt lat="45.80824" lon="6.06943">
        <ele>684.5</ele>
        <time>2016-01-17T10:22:50Z</time>
      </trkpt>
      <trkpt lat="45.8082" lon="6.06942">
        <ele>684.88</ele>
        <time>2016-01-17T10:23:27Z</time>
      </trkpt>
      <trkpt lat="45.8082" lon="6.06942">
        <ele>685.27</ele>
        <time>2016-01-17T10:23:58Z</time>
      </trkpt>
      <trkpt lat="45.80822" lon="6.06943">
        <ele>685.72</ele>
        <time>2016-01-17T10:24:32Z</time>
      </trkpt>
      <trkpt lat="45.80824" lon="6.06944">
        <ele>686.06</ele>
        <time>2016-01-17T10:24:57Z</time>
      </trkpt>
      <trkpt lat="45.80823" lon="6.06945">
        <ele>686.46</ele>
        <time>2016-01-17T10:25:29Z</time>
      </trkpt>
      <trkpt lat="45.80827" lon="6.06947">
        <ele>686.65</ele>
        <time>2016-01-17T10:25:45Z</time>
      </trkpt>
      <trkpt lat="45.80826" lon="6.06963">
        <ele>688.01</ele>
        <time>2016-01-17T10:26:04Z</time>
      </trkpt>
      <trkpt lat="45.80827" lon="6.06979">
        <ele>690.83</ele>
        <time>2016-01-17T10:26:18Z</time>
      </trkpt>
      <trkpt lat="45.80826" lon="6.06983">
        <ele>690.83</ele>
        <time>2016-01-17T10:26:21Z</time>
      </trkpt>
      <trkpt lat="45.80824" lon="6.06992">
        <ele>692.3</ele>
        <time>2016-01-17T10:26:29Z</time>
      </trkpt>
      <trkpt lat="45.80818" lon="6.07012">
        <ele>693.89</ele>
        <time>2016-01-17T10:26:42Z</time>
      </trkpt>
      <trkpt lat="45.80823" lon="6.07029">
        <ele>695.83</ele>
        <time>2016-01-17T10:26:56Z</time>
      </trkpt>
      <trkpt lat="45.80826" lon="6.0705">
        <ele>698.31</ele>
        <time>2016-01-17T10:27:09Z</time>
      </trkpt>
      <trkpt lat="45.80825" lon="6.07071">
        <ele>700.24</ele>
        <time>2016-01-17T10:27:25Z</time>
      </trkpt>
      <trkpt lat="45.80824" lon="6.0709">
        <ele>702.21</ele>
        <time>2016-01-17T10:27:38Z</time>
      </trkpt>
      <trkpt lat="45.80824" lon="6.07095">
        <ele>703.46</ele>
        <time>2016-01-17T10:27:42Z</time>
      </trkpt>
      <trkpt lat="45.80824" lon="6.07116">
        <ele>705.16</ele>
        <time>2016-01-17T10:27:57Z</time>
      </trkpt>
      <trkpt lat="45.80823" lon="6.07131">
        <ele>707.84</ele>
        <time>2016-01-17T10:28:08Z</time>
      </trkpt>
      <trkpt lat="45.80822" lon="6.07151">
        <ele>709.52</ele>
        <time>2016-01-17T10:28:22Z</time>
      </trkpt>
      <trkpt lat="45.8082" lon="6.07169">
        <ele>711.11</ele>
        <time>2016-01-17T10:28:34Z</time>
      </trkpt>
      <trkpt lat="45.80816" lon="6.07184">
        <ele>713.09</ele>
        <time>2016-01-17T10:28:47Z</time>
      </trkpt>
      <trkpt lat="45.80815" lon="6.07212">
        <ele>715.62</ele>
        <time>2016-01-17T10:29:06Z</time>
      </trkpt>
      <trkpt lat="45.80818" lon="6.07236">
        <ele>719.52</ele>
        <time>2016-01-17T10:29:25Z</time>
      </trkpt>
      <trkpt lat="45.80807" lon="6.07254">
        <ele>722.38</ele>
        <time>2016-01-17T10:29:44Z</time>
      </trkpt>
      <trkpt lat="45.80801" lon="6.07257">
        <ele>724.06</ele>
        <time>2016-01-17T10:29:53Z</time>
      </trkpt>
      <trkpt lat="45.80799" lon="6.07258">
        <ele>724.07</ele>
        <time>2016-01-17T10:29:58Z</time>
      </trkpt>
      <trkpt lat="45.80804" lon="6.07264">
        <ele>724.06</ele>
        <time>2016-01-17T10:30:16Z</time>
      </trkpt>
      <trkpt lat="45.80797" lon="6.07276">
        <ele>724.94</ele>
        <time>2016-01-17T10:30:37Z</time>
      </trkpt>
      <trkpt lat="45.80786" lon="6.07294">
        <ele>727.87</ele>
        <time>2016-01-17T10:30:58Z</time>
      </trkpt>
      <trkpt lat="45.80778" lon="6.07301">
        <ele>729.77</ele>
        <time>2016-01-17T10:31:09Z</time>
      </trkpt>
      <trkpt lat="45.80767" lon="6.07313">
        <ele>733.07</ele>
        <time>2016-01-17T10:31:25Z</time>
      </trkpt>
      <trkpt lat="45.80754" lon="6.07325">
        <ele>735.7</ele>
        <time>2016-01-17T10:31:44Z</time>
      </trkpt>
      <trkpt lat="45.80742" lon="6.07336">
        <ele>739.04</ele>
        <time>2016-01-17T10:32:03Z</time>
      </trkpt>
      <trkpt lat="45.80727" lon="6.07349">
        <ele>741.93</ele>
        <time>2016-01-17T10:32:22Z</time>
      </trkpt>
      <trkpt lat="45.80719" lon="6.07359">
        <ele>744.89</ele>
        <time>2016-01-17T10:32:40Z</time>
      </trkpt>
      <trkpt lat="45.80719" lon="6.0736">
        <ele>745.03</ele>
        <time>2016-01-17T10:32:41Z</time>
      </trkpt>
      <trkpt lat="45.80711" lon="6.0737">
        <ele>747.95</ele>
        <time>2016-01-17T10:33:00Z</time>
      </trkpt>
      <trkpt lat="45.80702" lon="6.07384">
        <ele>751.67</ele>
        <time>2016-01-17T10:33:20Z</time>
      </trkpt>
      <trkpt lat="45.80695" lon="6.07401">
        <ele>755.64</ele>
        <time>2016-01-17T10:33:40Z</time>
      </trkpt>
      <trkpt lat="45.80694" lon="6.07406">
        <ele>756.96</ele>
        <time>2016-01-17T10:33:47Z</time>
      </trkpt>
      <trkpt lat="45.80688" lon="6.07419">
        <ele>759.98</ele>
        <time>2016-01-17T10:34:05Z</time>
      </trkpt>
      <trkpt lat="45.80683" lon="6.07434">
        <ele>763.53</ele>
        <time>2016-01-17T10:34:23Z</time>
      </trkpt>
      <trkpt lat="45.80679" lon="6.07443">
        <ele>765.27</ele>
        <time>2016-01-17T10:34:35Z</time>
      </trkpt>
      <trkpt lat="45.80674" lon="6.07451">
        <ele>767.09</ele>
        <time>2016-01-17T10:34:56Z</time>
      </trkpt>
      <trkpt lat="45.80674" lon="6.07459">
        <ele>768.35</ele>
        <time>2016-01-17T10:35:05Z</time>
      </trkpt>
      <trkpt lat="45.80672" lon="6.07463">
        <ele>769.74</ele>
        <time>2016-01-17T10:35:09Z</time>
      </trkpt>
      <trkpt lat="45.80661" lon="6.0747">
        <ele>771.2</ele>
        <time>2016-01-17T10:35:26Z</time>
      </trkpt>
      <trkpt lat="45.80659" lon="6.07471">
        <ele>772.16</ele>
        <time>2016-01-17T10:35:30Z</time>
      </trkpt>
      <trkpt lat="45.80654" lon="6.07473">
        <ele>773.54</ele>
        <time>2016-01-17T10:35:38Z</time>
      </trkpt>
      <trkpt lat="45.80637" lon="6.07479">
        <ele>775.38</ele>
        <time>2016-01-17T10:36:00Z</time>
      </trkpt>
      <trkpt lat="45.8063" lon="6.0748">
        <ele>777.78</ele>
        <time>2016-01-17T10:36:08Z</time>
      </trkpt>
      <trkpt lat="45.80615" lon="6.07472">
        <ele>780.57</ele>
        <time>2016-01-17T10:36:28Z</time>
      </trkpt>
      <trkpt lat="45.80601" lon="6.07467">
        <ele>782.98</ele>
        <time>2016-01-17T10:36:47Z</time>
      </trkpt>
      <trkpt lat="45.80588" lon="6.07469">
        <ele>786.28</ele>
        <time>2016-01-17T10:37:07Z</time>
      </trkpt>
      <trkpt lat="45.80583" lon="6.0747">
        <ele>787</ele>
        <time>2016-01-17T10:37:29Z</time>
      </trkpt>
      <trkpt lat="45.80581" lon="6.07472">
        <ele>788.01</ele>
        <time>2016-01-17T10:37:52Z</time>
      </trkpt>
      <trkpt lat="45.8058" lon="6.07472">
        <ele>788.11</ele>
        <time>2016-01-17T10:38:13Z</time>
      </trkpt>
      <trkpt lat="45.8058" lon="6.07472">
        <ele>788.14</ele>
        <time>2016-01-17T10:38:19Z</time>
      </trkpt>
      <trkpt lat="45.8058" lon="6.07473">
        <ele>788.15</ele>
        <time>2016-01-17T10:38:20Z</time>
      </trkpt>
      <trkpt lat="45.8058" lon="6.07473">
        <ele>788.15</ele>
        <time>2016-01-17T10:38:21Z</time>
      </trkpt>
      <trkpt lat="45.8058" lon="6.07473">
        <ele>788.15</ele>
        <time>2016-01-17T10:38:22Z</time>
      </trkpt>
      <trkpt lat="45.8058" lon="6.07473">
        <ele>788.15</ele>
        <time>2016-01-17T10:38:23Z</time>
      </trkpt>
      <trkpt lat="45.8058" lon="6.07473">
        <ele>788.15</ele>
        <time>2016-01-17T10:38:24Z</time>
      </trkpt>
      <trkpt lat="45.80579" lon="6.07474">
        <ele>788.16</ele>
        <time>2016-01-17T10:38:25Z</time>
      </trkpt>
      <trkpt lat="45.80579" lon="6.07474">
        <ele>788.17</ele>
        <time>2016-01-17T10:38:26Z</time>
      </trkpt>
      <trkpt lat="45.80579" lon="6.07474">
        <ele>788.2</ele>
        <time>2016-01-17T10:38:27Z</time>
      </trkpt>
      <trkpt lat="45.80579" lon="6.07474">
        <ele>788.17</ele>
        <time>2016-01-17T10:38:28Z</time>
      </trkpt>
      <trkpt lat="45.80579" lon="6.07474">
        <ele>788.17</ele>
        <time>2016-01-17T10:38:29Z</time>
      </trkpt>
      <trkpt lat="45.80579" lon="6.07474">
        <ele>788.19</ele>
        <time>2016-01-17T10:38:30Z</time>
      </trkpt>
      <trkpt lat="45.80579" lon="6.07474">
        <ele>788.18</ele>
        <time>2016-01-17T10:38:31Z</time>
      </trkpt>
      <trkpt lat="45.80579" lon="6.07474">
        <ele>788.2</ele>
        <time>2016-01-17T10:38:32Z</time>
      </trkpt>
      <trkpt lat="45.80579" lon="6.07475">
        <ele>788.19</ele>
        <time>2016-01-17T10:38:33Z</time>
      </trkpt>
      <trkpt lat="45.80579" lon="6.07475">
        <ele>788.19</ele>
        <time>2016-01-17T10:38:34Z</time>
      </trkpt>
      <trkpt lat="45.8058" lon="6.07475">
        <ele>788.19</ele>
        <time>2016-01-17T10:38:35Z</time>
      </trkpt>
      <trkpt lat="45.8058" lon="6.07475">
        <ele>788.24</ele>
        <time>2016-01-17T10:38:36Z</time>
      </trkpt>
      <trkpt lat="45.8058" lon="6.07475">
        <ele>788.2</ele>
        <time>2016-01-17T10:38:37Z</time>
      </trkpt>
      <trkpt lat="45.8058" lon="6.07474">
        <ele>788.21</ele>
        <time>2016-01-17T10:38:39Z</time>
      </trkpt>
      <trkpt lat="45.80581" lon="6.07474">
        <ele>785.72</ele>
        <time>2016-01-17T10:38:40Z</time>
      </trkpt>
      <trkpt lat="45.8058" lon="6.07474">
        <ele>785.77</ele>
        <time>2016-01-17T10:38:41Z</time>
      </trkpt>
      <trkpt lat="45.8058" lon="6.07474">
        <ele>785.73</ele>
        <time>2016-01-17T10:38:42Z</time>
      </trkpt>
      <trkpt lat="45.8058" lon="6.07474">
        <ele>785.73</ele>
        <time>2016-01-17T10:38:43Z</time>
      </trkpt>
      <trkpt lat="45.8058" lon="6.07474">
        <ele>785.74</ele>
        <time>2016-01-17T10:38:44Z</time>
      </trkpt>
      <trkpt lat="45.8058" lon="6.07474">
        <ele>785.74</ele>
        <time>2016-01-17T10:38:45Z</time>
      </trkpt>
      <trkpt lat="45.8058" lon="6.07475">
        <ele>785.75</ele>
        <time>2016-01-17T10:38:46Z</time>
      </trkpt>
      <trkpt lat="45.8058" lon="6.07474">
        <ele>785.81</ele>
        <time>2016-01-17T10:38:47Z</time>
      </trkpt>
      <trkpt lat="45.8058" lon="6.07474">
        <ele>785.81</ele>
        <time>2016-01-17T10:38:48Z</time>
      </trkpt>
      <trkpt lat="45.8058" lon="6.07473">
        <ele>785.86</ele>
        <time>2016-01-17T10:38:49Z</time>
      </trkpt>
      <trkpt lat="45.8058" lon="6.07472">
        <ele>785.76</ele>
        <time>2016-01-17T10:38:50Z</time>
      </trkpt>
      <trkpt lat="45.8058" lon="6.07472">
        <ele>785.84</ele>
        <time>2016-01-17T10:38:51Z</time>
      </trkpt>
      <trkpt lat="45.8058" lon="6.07471">
        <ele>785.77</ele>
        <time>2016-01-17T10:38:52Z</time>
      </trkpt>
      <trkpt lat="45.8058" lon="6.07471">
        <ele>785.8</ele>
        <time>2016-01-17T10:38:53Z</time>
      </trkpt>
      <trkpt lat="45.8058" lon="6.0747">
        <ele>785.78</ele>
        <time>2016-01-17T10:38:54Z</time>
      </trkpt>
      <trkpt lat="45.8058" lon="6.0747">
        <ele>785.84</ele>
        <time>2016-01-17T10:38:55Z</time>
      </trkpt>
      <trkpt lat="45.8058" lon="6.0747">
        <ele>785.84</ele>
        <time>2016-01-17T10:38:56Z</time>
      </trkpt>
      <trkpt lat="45.80579" lon="6.07469">
        <ele>785.85</ele>
        <time>2016-01-17T10:38:57Z</time>
      </trkpt>
      <trkpt lat="45.80579" lon="6.07469">
        <ele>785.8</ele>
        <time>2016-01-17T10:38:58Z</time>
      </trkpt>
      <trkpt lat="45.80579" lon="6.0747">
        <ele>785.86</ele>
        <time>2016-01-17T10:38:59Z</time>
      </trkpt>
      <trkpt lat="45.80579" lon="6.07469">
        <ele>785.81</ele>
        <time>2016-01-17T10:39:00Z</time>
      </trkpt>
      <trkpt lat="45.80579" lon="6.07469">
        <ele>785.87</ele>
        <time>2016-01-17T10:39:01Z</time>
      </trkpt>
      <trkpt lat="45.80578" lon="6.07469">
        <ele>785.88</ele>
        <time>2016-01-17T10:39:02Z</time>
      </trkpt>
      <trkpt lat="45.80578" lon="6.07469">
        <ele>785.82</ele>
        <time>2016-01-17T10:39:03Z</time>
      </trkpt>
      <trkpt lat="45.80578" lon="6.07469">
        <ele>785.83</ele>
        <time>2016-01-17T10:39:04Z</time>
      </trkpt>
      <trkpt lat="45.80578" lon="6.07469">
        <ele>785.83</ele>
        <time>2016-01-17T10:39:05Z</time>
      </trkpt>
      <trkpt lat="45.80578" lon="6.07469">
        <ele>785.84</ele>
        <time>2016-01-17T10:39:06Z</time>
      </trkpt>
      <trkpt lat="45.80578" lon="6.07469">
        <ele>785.89</ele>
        <time>2016-01-17T10:39:07Z</time>
      </trkpt>
      <trkpt lat="45.80578" lon="6.07469">
        <ele>785.9</ele>
        <time>2016-01-17T10:39:08Z</time>
      </trkpt>
      <trkpt lat="45.80578" lon="6.07469">
        <ele>785.85</ele>
        <time>2016-01-17T10:39:09Z</time>
      </trkpt>
      <trkpt lat="45.80578" lon="6.0747">
        <ele>785.92</ele>
        <time>2016-01-17T10:39:10Z</time>
      </trkpt>
      <trkpt lat="45.80579" lon="6.07469">
        <ele>785.86</ele>
        <time>2016-01-17T10:39:11Z</time>
      </trkpt>
      <trkpt lat="45.80579" lon="6.07469">
        <ele>785.87</ele>
        <time>2016-01-17T10:39:12Z</time>
      </trkpt>
      <trkpt lat="45.80579" lon="6.07469">
        <ele>785.88</ele>
        <time>2016-01-17T10:39:13Z</time>
      </trkpt>
      <trkpt lat="45.80579" lon="6.07469">
        <ele>785.88</ele>
        <time>2016-01-17T10:39:14Z</time>
      </trkpt>
      <trkpt lat="45.80579" lon="6.07469">
        <ele>785.92</ele>
        <time>2016-01-17T10:39:15Z</time>
      </trkpt>
      <trkpt lat="45.8058" lon="6.07469">
        <ele>785.96</ele>
        <time>2016-01-17T10:39:16Z</time>
      </trkpt>
      <trkpt lat="45.8058" lon="6.07468">
        <ele>785.94</ele>
        <time>2016-01-17T10:39:17Z</time>
      </trkpt>
      <trkpt lat="45.8058" lon="6.07468">
        <ele>785.94</ele>
        <time>2016-01-17T10:39:18Z</time>
      </trkpt>
      <trkpt lat="45.8058" lon="6.07468">
        <ele>785.95</ele>
        <time>2016-01-17T10:39:19Z</time>
      </trkpt>
      <trkpt lat="45.8058" lon="6.07467">
        <ele>785.95</ele>
        <time>2016-01-17T10:39:20Z</time>
      </trkpt>
      <trkpt lat="45.80581" lon="6.07467">
        <ele>785.95</ele>
        <time>2016-01-17T10:39:21Z</time>
      </trkpt>
      <trkpt lat="45.80581" lon="6.07467">
        <ele>785.93</ele>
        <time>2016-01-17T10:39:22Z</time>
      </trkpt>
      <trkpt lat="45.80581" lon="6.07466">
        <ele>785.96</ele>
        <time>2016-01-17T10:39:23Z</time>
      </trkpt>
      <trkpt lat="45.80581" lon="6.07466">
        <ele>785.97</ele>
        <time>2016-01-17T10:39:24Z</time>
      </trkpt>
      <trkpt lat="45.80581" lon="6.07466">
        <ele>785.98</ele>
        <time>2016-01-17T10:39:25Z</time>
      </trkpt>
      <trkpt lat="45.80581" lon="6.07465">
        <ele>785.95</ele>
        <time>2016-01-17T10:39:26Z</time>
      </trkpt>
      <trkpt lat="45.80581" lon="6.07465">
        <ele>785.95</ele>
        <time>2016-01-17T10:39:27Z</time>
      </trkpt>
      <trkpt lat="45.80581" lon="6.07465">
        <ele>785.96</ele>
        <time>2016-01-17T10:39:28Z</time>
      </trkpt>
      <trkpt lat="45.80581" lon="6.07465">
        <ele>785.96</ele>
        <time>2016-01-17T10:39:29Z</time>
      </trkpt>
      <trkpt lat="45.80581" lon="6.07465">
        <ele>785.97</ele>
        <time>2016-01-17T10:39:30Z</time>
      </trkpt>
      <trkpt lat="45.80582" lon="6.07465">
        <ele>785.97</ele>
        <time>2016-01-17T10:39:31Z</time>
      </trkpt>
      <trkpt lat="45.80582" lon="6.07465">
        <ele>785.98</ele>
        <time>2016-01-17T10:39:32Z</time>
      </trkpt>
      <trkpt lat="45.80582" lon="6.07465">
        <ele>785.98</ele>
        <time>2016-01-17T10:39:33Z</time>
      </trkpt>
      <trkpt lat="45.80582" lon="6.07465">
        <ele>785.99</ele>
        <time>2016-01-17T10:39:34Z</time>
      </trkpt>
      <trkpt lat="45.80582" lon="6.07465">
        <ele>785.99</ele>
        <time>2016-01-17T10:39:35Z</time>
      </trkpt>
      <trkpt lat="45.80582" lon="6.07465">
        <ele>786</ele>
        <time>2016-01-17T10:39:36Z</time>
      </trkpt>
      <trkpt lat="45.80581" lon="6.07465">
        <ele>786</ele>
        <time>2016-01-17T10:39:37Z</time>
      </trkpt>
      <trkpt lat="45.80582" lon="6.07466">
        <ele>786.01</ele>
        <time>2016-01-17T10:39:38Z</time>
      </trkpt>
      <trkpt lat="45.80582" lon="6.07466">
        <ele>786.01</ele>
        <time>2016-01-17T10:39:39Z</time>
      </trkpt>
      <trkpt lat="45.80582" lon="6.07466">
        <ele>786.02</ele>
        <time>2016-01-17T10:39:40Z</time>
      </trkpt>
      <trkpt lat="45.80582" lon="6.07466">
        <ele>786.05</ele>
        <time>2016-01-17T10:39:41Z</time>
      </trkpt>
      <trkpt lat="45.80582" lon="6.07466">
        <ele>786.03</ele>
        <time>2016-01-17T10:39:42Z</time>
      </trkpt>
      <trkpt lat="45.80582" lon="6.07466">
        <ele>786.03</ele>
        <time>2016-01-17T10:39:43Z</time>
      </trkpt>
      <trkpt lat="45.80582" lon="6.07466">
        <ele>786.04</ele>
        <time>2016-01-17T10:39:44Z</time>
      </trkpt>
      <trkpt lat="45.80582" lon="6.07466">
        <ele>786.04</ele>
        <time>2016-01-17T10:39:45Z</time>
      </trkpt>
      <trkpt lat="45.80582" lon="6.07466">
        <ele>786.05</ele>
        <time>2016-01-17T10:39:46Z</time>
      </trkpt>
      <trkpt lat="45.80582" lon="6.07467">
        <ele>786.05</ele>
        <time>2016-01-17T10:39:47Z</time>
      </trkpt>
      <trkpt lat="45.80582" lon="6.07467">
        <ele>786.06</ele>
        <time>2016-01-17T10:39:48Z</time>
      </trkpt>
      <trkpt lat="45.80582" lon="6.07467">
        <ele>786.06</ele>
        <time>2016-01-17T10:39:49Z</time>
      </trkpt>
      <trkpt lat="45.80582" lon="6.07467">
        <ele>786.04</ele>
        <time>2016-01-17T10:39:50Z</time>
      </trkpt>
      <trkpt lat="45.80583" lon="6.07467">
        <ele>786.07</ele>
        <time>2016-01-17T10:39:51Z</time>
      </trkpt>
      <trkpt lat="45.80583" lon="6.07467">
        <ele>786.04</ele>
        <time>2016-01-17T10:39:52Z</time>
      </trkpt>
      <trkpt lat="45.80583" lon="6.07466">
        <ele>786.04</ele>
        <time>2016-01-17T10:39:53Z</time>
      </trkpt>
      <trkpt lat="45.80583" lon="6.07466">
        <ele>786.08</ele>
        <time>2016-01-17T10:39:54Z</time>
      </trkpt>
      <trkpt lat="45.80583" lon="6.07466">
        <ele>786.09</ele>
        <time>2016-01-17T10:39:55Z</time>
      </trkpt>
      <trkpt lat="45.80583" lon="6.07466">
        <ele>786.1</ele>
        <time>2016-01-17T10:39:56Z</time>
      </trkpt>
      <trkpt lat="45.80583" lon="6.07466">
        <ele>786.1</ele>
        <time>2016-01-17T10:39:57Z</time>
      </trkpt>
      <trkpt lat="45.80583" lon="6.07467">
        <ele>786.11</ele>
        <time>2016-01-17T10:39:58Z</time>
      </trkpt>
      <trkpt lat="45.80583" lon="6.07467">
        <ele>786.07</ele>
        <time>2016-01-17T10:39:59Z</time>
      </trkpt>
      <trkpt lat="45.80584" lon="6.07467">
        <ele>786.07</ele>
        <time>2016-01-17T10:40:00Z</time>
      </trkpt>
      <trkpt lat="45.80584" lon="6.07467">
        <ele>786.08</ele>
        <time>2016-01-17T10:40:01Z</time>
      </trkpt>
      <trkpt lat="45.80584" lon="6.07467">
        <ele>786.13</ele>
        <time>2016-01-17T10:40:02Z</time>
      </trkpt>
      <trkpt lat="45.80584" lon="6.07467">
        <ele>786.11</ele>
        <time>2016-01-17T10:40:03Z</time>
      </trkpt>
      <trkpt lat="45.80584" lon="6.07467">
        <ele>786.14</ele>
        <time>2016-01-17T10:40:04Z</time>
      </trkpt>
      <trkpt lat="45.80585" lon="6.07467">
        <ele>786.15</ele>
        <time>2016-01-17T10:40:05Z</time>
      </trkpt>
      <trkpt lat="45.80585" lon="6.07467">
        <ele>786.15</ele>
        <time>2016-01-17T10:40:06Z</time>
      </trkpt>
      <trkpt lat="45.80585" lon="6.07467">
        <ele>786.16</ele>
        <time>2016-01-17T10:40:07Z</time>
      </trkpt>
      <trkpt lat="45.80586" lon="6.07467">
        <ele>786.16</ele>
        <time>2016-01-17T10:40:08Z</time>
      </trkpt>
      <trkpt lat="45.80586" lon="6.07467">
        <ele>786.17</ele>
        <time>2016-01-17T10:40:09Z</time>
      </trkpt>
      <trkpt lat="45.80586" lon="6.07467">
        <ele>786.17</ele>
        <time>2016-01-17T10:40:10Z</time>
      </trkpt>
      <trkpt lat="45.80587" lon="6.07467">
        <ele>786.18</ele>
        <time>2016-01-17T10:40:11Z</time>
      </trkpt>
      <trkpt lat="45.80587" lon="6.07467">
        <ele>786.2</ele>
        <time>2016-01-17T10:40:12Z</time>
      </trkpt>
      <trkpt lat="45.80587" lon="6.07467">
        <ele>786.19</ele>
        <time>2016-01-17T10:40:13Z</time>
      </trkpt>
      <trkpt lat="45.80587" lon="6.07467">
        <ele>786.2</ele>
        <time>2016-01-17T10:40:14Z</time>
      </trkpt>
      <trkpt lat="45.80587" lon="6.07467">
        <ele>786.21</ele>
        <time>2016-01-17T10:40:15Z</time>
      </trkpt>
      <trkpt lat="45.80587" lon="6.07468">
        <ele>786.21</ele>
        <time>2016-01-17T10:40:16Z</time>
      </trkpt>
      <trkpt lat="45.80587" lon="6.07468">
        <ele>786.22</ele>
        <time>2016-01-17T10:40:17Z</time>
      </trkpt>
      <trkpt lat="45.80587" lon="6.07468">
        <ele>786.25</ele>
        <time>2016-01-17T10:40:18Z</time>
      </trkpt>
      <trkpt lat="45.80586" lon="6.07469">
        <ele>786.28</ele>
        <time>2016-01-17T10:40:19Z</time>
      </trkpt>
      <trkpt lat="45.80586" lon="6.07469">
        <ele>786.29</ele>
        <time>2016-01-17T10:40:20Z</time>
      </trkpt>
      <trkpt lat="45.80585" lon="6.07469">
        <ele>786.3</ele>
        <time>2016-01-17T10:40:21Z</time>
      </trkpt>
      <trkpt lat="45.80585" lon="6.07469">
        <ele>786.31</ele>
        <time>2016-01-17T10:40:22Z</time>
      </trkpt>
      <trkpt lat="45.80586" lon="6.07468">
        <ele>786.27</ele>
        <time>2016-01-17T10:40:23Z</time>
      </trkpt>
      <trkpt lat="45.80586" lon="6.07468">
        <ele>786.32</ele>
        <time>2016-01-17T10:40:24Z</time>
      </trkpt>
      <trkpt lat="45.80586" lon="6.07469">
        <ele>786.27</ele>
        <time>2016-01-17T10:40:25Z</time>
      </trkpt>
      <trkpt lat="45.80586" lon="6.07469">
        <ele>786.28</ele>
        <time>2016-01-17T10:40:26Z</time>
      </trkpt>
      <trkpt lat="45.80586" lon="6.07469">
        <ele>786.29</ele>
        <time>2016-01-17T10:40:27Z</time>
      </trkpt>
      <trkpt lat="45.80586" lon="6.07469">
        <ele>786.29</ele>
        <time>2016-01-17T10:40:28Z</time>
      </trkpt>
      <trkpt lat="45.80586" lon="6.07469">
        <ele>786.3</ele>
        <time>2016-01-17T10:40:29Z</time>
      </trkpt>
      <trkpt lat="45.80585" lon="6.07469">
        <ele>786.3</ele>
        <time>2016-01-17T10:40:30Z</time>
      </trkpt>
      <trkpt lat="45.80585" lon="6.07469">
        <ele>786.34</ele>
        <time>2016-01-17T10:40:31Z</time>
      </trkpt>
      <trkpt lat="45.80585" lon="6.07468">
        <ele>786.32</ele>
        <time>2016-01-17T10:40:32Z</time>
      </trkpt>
      <trkpt lat="45.80585" lon="6.07468">
        <ele>786.32</ele>
        <time>2016-01-17T10:40:33Z</time>
      </trkpt>
      <trkpt lat="45.80585" lon="6.07468">
        <ele>786.32</ele>
        <time>2016-01-17T10:40:34Z</time>
      </trkpt>
      <trkpt lat="45.80585" lon="6.07468">
        <ele>786.36</ele>
        <time>2016-01-17T10:40:35Z</time>
      </trkpt>
      <trkpt lat="45.80585" lon="6.07468">
        <ele>786.36</ele>
        <time>2016-01-17T10:40:36Z</time>
      </trkpt>
      <trkpt lat="45.80584" lon="6.07468">
        <ele>786.35</ele>
        <time>2016-01-17T10:40:37Z</time>
      </trkpt>
      <trkpt lat="45.80584" lon="6.07468">
        <ele>786.31</ele>
        <time>2016-01-17T10:40:38Z</time>
      </trkpt>
      <trkpt lat="45.80584" lon="6.07468">
        <ele>786.33</ele>
        <time>2016-01-17T10:40:39Z</time>
      </trkpt>
      <trkpt lat="45.80584" lon="6.07468">
        <ele>786.37</ele>
        <time>2016-01-17T10:40:40Z</time>
      </trkpt>
      <trkpt lat="45.80584" lon="6.07468">
        <ele>786.37</ele>
        <time>2016-01-17T10:40:41Z</time>
      </trkpt>
      <trkpt lat="45.80584" lon="6.07469">
        <ele>786.38</ele>
        <time>2016-01-17T10:40:42Z</time>
      </trkpt>
      <trkpt lat="45.80584" lon="6.07469">
        <ele>786.37</ele>
        <time>2016-01-17T10:40:43Z</time>
      </trkpt>
      <trkpt lat="45.80583" lon="6.07469">
        <ele>786.35</ele>
        <time>2016-01-17T10:40:44Z</time>
      </trkpt>
      <trkpt lat="45.80583" lon="6.07469">
        <ele>786.39</ele>
        <time>2016-01-17T10:40:45Z</time>
      </trkpt>
      <trkpt lat="45.80583" lon="6.07469">
        <ele>786.39</ele>
        <time>2016-01-17T10:40:46Z</time>
      </trkpt>
      <trkpt lat="45.80583" lon="6.0747">
        <ele>786.41</ele>
        <time>2016-01-17T10:40:47Z</time>
      </trkpt>
      <trkpt lat="45.80583" lon="6.0747">
        <ele>786.4</ele>
        <time>2016-01-17T10:40:48Z</time>
      </trkpt>
      <trkpt lat="45.80583" lon="6.0747">
        <ele>786.39</ele>
        <time>2016-01-17T10:40:49Z</time>
      </trkpt>
      <trkpt lat="45.80582" lon="6.0747">
        <ele>786.42</ele>
        <time>2016-01-17T10:40:50Z</time>
      </trkpt>
      <trkpt lat="45.80582" lon="6.0747">
        <ele>786.43</ele>
        <time>2016-01-17T10:40:51Z</time>
      </trkpt>
      <trkpt lat="45.80582" lon="6.0747">
        <ele>786.44</ele>
        <time>2016-01-17T10:40:52Z</time>
      </trkpt>
      <trkpt lat="45.80582" lon="6.0747">
        <ele>786.45</ele>
        <time>2016-01-17T10:40:53Z</time>
      </trkpt>
      <trkpt lat="45.80582" lon="6.0747">
        <ele>786.45</ele>
        <time>2016-01-17T10:40:54Z</time>
      </trkpt>
      <trkpt lat="45.80582" lon="6.0747">
        <ele>786.46</ele>
        <time>2016-01-17T10:40:55Z</time>
      </trkpt>
      <trkpt lat="45.80582" lon="6.0747">
        <ele>786.47</ele>
        <time>2016-01-17T10:40:56Z</time>
      </trkpt>
      <trkpt lat="45.80582" lon="6.0747">
        <ele>786.47</ele>
        <time>2016-01-17T10:40:57Z</time>
      </trkpt>
      <trkpt lat="45.80582" lon="6.07471">
        <ele>786.48</ele>
        <time>2016-01-17T10:40:58Z</time>
      </trkpt>
      <trkpt lat="45.80582" lon="6.07471">
        <ele>786.48</ele>
        <time>2016-01-17T10:40:59Z</time>
      </trkpt>
      <trkpt lat="45.80582" lon="6.07471">
        <ele>786.49</ele>
        <time>2016-01-17T10:41:00Z</time>
      </trkpt>
      <trkpt lat="45.80582" lon="6.07471">
        <ele>786.5</ele>
        <time>2016-01-17T10:41:01Z</time>
      </trkpt>
      <trkpt lat="45.80582" lon="6.07471">
        <ele>786.5</ele>
        <time>2016-01-17T10:41:02Z</time>
      </trkpt>
      <trkpt lat="45.80582" lon="6.07471">
        <ele>786.54</ele>
        <time>2016-01-17T10:41:03Z</time>
      </trkpt>
      <trkpt lat="45.80582" lon="6.07471">
        <ele>786.52</ele>
        <time>2016-01-17T10:41:04Z</time>
      </trkpt>
      <trkpt lat="45.80582" lon="6.07471">
        <ele>786.52</ele>
        <time>2016-01-17T10:41:05Z</time>
      </trkpt>
      <trkpt lat="45.80582" lon="6.07471">
        <ele>786.53</ele>
        <time>2016-01-17T10:41:06Z</time>
      </trkpt>
      <trkpt lat="45.80582" lon="6.07472">
        <ele>786.53</ele>
        <time>2016-01-17T10:41:07Z</time>
      </trkpt>
      <trkpt lat="45.80582" lon="6.07471">
        <ele>786.54</ele>
        <time>2016-01-17T10:41:08Z</time>
      </trkpt>
      <trkpt lat="45.80582" lon="6.07472">
        <ele>786.55</ele>
        <time>2016-01-17T10:41:09Z</time>
      </trkpt>
      <trkpt lat="45.80582" lon="6.07471">
        <ele>786.55</ele>
        <time>2016-01-17T10:41:10Z</time>
      </trkpt>
      <trkpt lat="45.80582" lon="6.07471">
        <ele>786.56</ele>
        <time>2016-01-17T10:41:11Z</time>
      </trkpt>
      <trkpt lat="45.80582" lon="6.07471">
        <ele>786.57</ele>
        <time>2016-01-17T10:41:12Z</time>
      </trkpt>
      <trkpt lat="45.80582" lon="6.07471">
        <ele>786.57</ele>
        <time>2016-01-17T10:41:13Z</time>
      </trkpt>
      <trkpt lat="45.80582" lon="6.07472">
        <ele>786.58</ele>
        <time>2016-01-17T10:41:14Z</time>
      </trkpt>
      <trkpt lat="45.80582" lon="6.07472">
        <ele>786.58</ele>
        <time>2016-01-17T10:41:15Z</time>
      </trkpt>
      <trkpt lat="45.80582" lon="6.07472">
        <ele>786.59</ele>
        <time>2016-01-17T10:41:16Z</time>
      </trkpt>
      <trkpt lat="45.80582" lon="6.07472">
        <ele>786.6</ele>
        <time>2016-01-17T10:41:17Z</time>
      </trkpt>
      <trkpt lat="45.80582" lon="6.07472">
        <ele>786.61</ele>
        <time>2016-01-17T10:41:18Z</time>
      </trkpt>
      <trkpt lat="45.80582" lon="6.07471">
        <ele>786.61</ele>
        <time>2016-01-17T10:41:19Z</time>
      </trkpt>
      <trkpt lat="45.80582" lon="6.07471">
        <ele>786.61</ele>
        <time>2016-01-17T10:41:20Z</time>
      </trkpt>
      <trkpt lat="45.80583" lon="6.07471">
        <ele>786.62</ele>
        <time>2016-01-17T10:41:21Z</time>
      </trkpt>
      <trkpt lat="45.80583" lon="6.07471">
        <ele>786.63</ele>
        <time>2016-01-17T10:41:22Z</time>
      </trkpt>
      <trkpt lat="45.8058" lon="6.07472">
        <ele>786.77</ele>
        <time>2016-01-17T10:41:46Z</time>
      </trkpt>
      <trkpt lat="45.80579" lon="6.07473">
        <ele>789.12</ele>
        <time>2016-01-17T10:41:48Z</time>
      </trkpt>
      <trkpt lat="45.80575" lon="6.07482">
        <ele>791.86</ele>
        <time>2016-01-17T10:42:07Z</time>
      </trkpt>
      <trkpt lat="45.8057" lon="6.07495">
        <ele>794.82</ele>
        <time>2016-01-17T10:42:27Z</time>
      </trkpt>
      <trkpt lat="45.80569" lon="6.07497">
        <ele>795.72</ele>
        <time>2016-01-17T10:42:29Z</time>
      </trkpt>
      <trkpt lat="45.80566" lon="6.07501">
        <ele>795.68</ele>
        <time>2016-01-17T10:42:36Z</time>
      </trkpt>
      <trkpt lat="45.80564" lon="6.07503">
        <ele>796.91</ele>
        <time>2016-01-17T10:42:40Z</time>
      </trkpt>
      <trkpt lat="45.80561" lon="6.07509">
        <ele>799.4</ele>
        <time>2016-01-17T10:42:49Z</time>
      </trkpt>
      <trkpt lat="45.80561" lon="6.07513">
        <ele>800.42</ele>
        <time>2016-01-17T10:42:57Z</time>
      </trkpt>
      <trkpt lat="45.80556" lon="6.07522">
        <ele>803.02</ele>
        <time>2016-01-17T10:43:17Z</time>
      </trkpt>
      <trkpt lat="45.80551" lon="6.07532">
        <ele>805.69</ele>
        <time>2016-01-17T10:43:32Z</time>
      </trkpt>
      <trkpt lat="45.80541" lon="6.07551">
        <ele>809.1</ele>
        <time>2016-01-17T10:43:50Z</time>
      </trkpt>
      <trkpt lat="45.80538" lon="6.07563">
        <ele>810.59</ele>
        <time>2016-01-17T10:44:04Z</time>
      </trkpt>
      <trkpt lat="45.80537" lon="6.07565">
        <ele>810.61</ele>
        <time>2016-01-17T10:44:06Z</time>
      </trkpt>
      <trkpt lat="45.80536" lon="6.07567">
        <ele>811.85</ele>
        <time>2016-01-17T10:44:09Z</time>
      </trkpt>
      <trkpt lat="45.80536" lon="6.07573">
        <ele>812.55</ele>
        <time>2016-01-17T10:44:15Z</time>
      </trkpt>
      <trkpt lat="45.80519" lon="6.07599">
        <ele>815.16</ele>
        <time>2016-01-17T10:44:33Z</time>
      </trkpt>
      <trkpt lat="45.80501" lon="6.07627">
        <ele>818.38</ele>
        <time>2016-01-17T10:44:53Z</time>
      </trkpt>
      <trkpt lat="45.80484" lon="6.07649">
        <ele>820.59</ele>
        <time>2016-01-17T10:45:14Z</time>
      </trkpt>
      <trkpt lat="45.80465" lon="6.07651">
        <ele>822.94</ele>
        <time>2016-01-17T10:45:39Z</time>
      </trkpt>
      <trkpt lat="45.80464" lon="6.0765">
        <ele>824.35</ele>
        <time>2016-01-17T10:45:41Z</time>
      </trkpt>
      <trkpt lat="45.80444" lon="6.07661">
        <ele>826.27</ele>
        <time>2016-01-17T10:45:56Z</time>
      </trkpt>
      <trkpt lat="45.80424" lon="6.07672">
        <ele>827.68</ele>
        <time>2016-01-17T10:46:12Z</time>
      </trkpt>
      <trkpt lat="45.80421" lon="6.07671">
        <ele>828.94</ele>
        <time>2016-01-17T10:46:15Z</time>
      </trkpt>
      <trkpt lat="45.80414" lon="6.07669">
        <ele>831.47</ele>
        <time>2016-01-17T10:46:32Z</time>
      </trkpt>
      <trkpt lat="45.80411" lon="6.0767">
        <ele>832.4</ele>
        <time>2016-01-17T10:46:37Z</time>
      </trkpt>
      <trkpt lat="45.80399" lon="6.07678">
        <ele>832.68</ele>
        <time>2016-01-17T10:47:03Z</time>
      </trkpt>
      <trkpt lat="45.80394" lon="6.0767">
        <ele>833.5</ele>
        <time>2016-01-17T10:47:13Z</time>
      </trkpt>
      <trkpt lat="45.80391" lon="6.07665">
        <ele>834.17</ele>
        <time>2016-01-17T10:47:19Z</time>
      </trkpt>
      <trkpt lat="45.80385" lon="6.07667">
        <ele>834.85</ele>
        <time>2016-01-17T10:47:25Z</time>
      </trkpt>
      <trkpt lat="45.80372" lon="6.07678">
        <ele>838.14</ele>
        <time>2016-01-17T10:47:43Z</time>
      </trkpt>
      <trkpt lat="45.80371" lon="6.07679">
        <ele>838.13</ele>
        <time>2016-01-17T10:47:44Z</time>
      </trkpt>
      <trkpt lat="45.80353" lon="6.07682">
        <ele>841.55</ele>
        <time>2016-01-17T10:48:06Z</time>
      </trkpt>
      <trkpt lat="45.80341" lon="6.07671">
        <ele>843.53</ele>
        <time>2016-01-17T10:48:24Z</time>
      </trkpt>
      <trkpt lat="45.80331" lon="6.07662">
        <ele>844.37</ele>
        <time>2016-01-17T10:48:39Z</time>
      </trkpt>
      <trkpt lat="45.80323" lon="6.07655">
        <ele>847.35</ele>
        <time>2016-01-17T10:49:01Z</time>
      </trkpt>
      <trkpt lat="45.8032" lon="6.07664">
        <ele>849.59</ele>
        <time>2016-01-17T10:49:19Z</time>
      </trkpt>
      <trkpt lat="45.80322" lon="6.07675">
        <ele>851.38</ele>
        <time>2016-01-17T10:49:32Z</time>
      </trkpt>
      <trkpt lat="45.80322" lon="6.0768">
        <ele>852.65</ele>
        <time>2016-01-17T10:49:36Z</time>
      </trkpt>
      <trkpt lat="45.8032" lon="6.07697">
        <ele>854.58</ele>
        <time>2016-01-17T10:49:50Z</time>
      </trkpt>
      <trkpt lat="45.8032" lon="6.07701">
        <ele>855.32</ele>
        <time>2016-01-17T10:49:54Z</time>
      </trkpt>
      <trkpt lat="45.80312" lon="6.07728">
        <ele>857.09</ele>
        <time>2016-01-17T10:50:11Z</time>
      </trkpt>
      <trkpt lat="45.80308" lon="6.07741">
        <ele>857.99</ele>
        <time>2016-01-17T10:50:26Z</time>
      </trkpt>
      <trkpt lat="45.80308" lon="6.07743">
        <ele>858.87</ele>
        <time>2016-01-17T10:50:28Z</time>
      </trkpt>
      <trkpt lat="45.80308" lon="6.07746">
        <ele>858.84</ele>
        <time>2016-01-17T10:50:31Z</time>
      </trkpt>
      <trkpt lat="45.80308" lon="6.0775">
        <ele>859.72</ele>
        <time>2016-01-17T10:50:35Z</time>
      </trkpt>
      <trkpt lat="45.80308" lon="6.07753">
        <ele>859.64</ele>
        <time>2016-01-17T10:50:39Z</time>
      </trkpt>
      <trkpt lat="45.80308" lon="6.07758">
        <ele>860.68</ele>
        <time>2016-01-17T10:50:43Z</time>
      </trkpt>
      <trkpt lat="45.80283" lon="6.07782">
        <ele>863.07</ele>
        <time>2016-01-17T10:51:03Z</time>
      </trkpt>
      <trkpt lat="45.8027" lon="6.07796">
        <ele>864.28</ele>
        <time>2016-01-17T10:51:20Z</time>
      </trkpt>
      <trkpt lat="45.8027" lon="6.07797">
        <ele>864.22</ele>
        <time>2016-01-17T10:51:23Z</time>
      </trkpt>
      <trkpt lat="45.80269" lon="6.07797">
        <ele>865.05</ele>
        <time>2016-01-17T10:51:25Z</time>
      </trkpt>
      <trkpt lat="45.80261" lon="6.07804">
        <ele>865.75</ele>
        <time>2016-01-17T10:51:32Z</time>
      </trkpt>
      <trkpt lat="45.80259" lon="6.07803">
        <ele>865.54</ele>
        <time>2016-01-17T10:51:44Z</time>
      </trkpt>
      <trkpt lat="45.80257" lon="6.07804">
        <ele>866.37</ele>
        <time>2016-01-17T10:51:53Z</time>
      </trkpt>
      <trkpt lat="45.80253" lon="6.07815">
        <ele>868.17</ele>
        <time>2016-01-17T10:52:16Z</time>
      </trkpt>
      <trkpt lat="45.8024" lon="6.07828">
        <ele>872.22</ele>
        <time>2016-01-17T10:52:34Z</time>
      </trkpt>
      <trkpt lat="45.8024" lon="6.07828">
        <ele>872.19</ele>
        <time>2016-01-17T10:52:35Z</time>
      </trkpt>
      <trkpt lat="45.80236" lon="6.07831">
        <ele>872.13</ele>
        <time>2016-01-17T10:52:41Z</time>
      </trkpt>
      <trkpt lat="45.8023" lon="6.07835">
        <ele>872.06</ele>
        <time>2016-01-17T10:52:45Z</time>
      </trkpt>
      <trkpt lat="45.80217" lon="6.07843">
        <ele>872.73</ele>
        <time>2016-01-17T10:53:12Z</time>
      </trkpt>
      <trkpt lat="45.80216" lon="6.07841">
        <ele>872.75</ele>
        <time>2016-01-17T10:53:38Z</time>
      </trkpt>
      <trkpt lat="45.80214" lon="6.0784">
        <ele>872.81</ele>
        <time>2016-01-17T10:54:08Z</time>
      </trkpt>
      <trkpt lat="45.80215" lon="6.07841">
        <ele>872.88</ele>
        <time>2016-01-17T10:54:20Z</time>
      </trkpt>
      <trkpt lat="45.80215" lon="6.07841">
        <ele>872.87</ele>
        <time>2016-01-17T10:54:21Z</time>
      </trkpt>
      <trkpt lat="45.80215" lon="6.07841">
        <ele>872.89</ele>
        <time>2016-01-17T10:54:22Z</time>
      </trkpt>
      <trkpt lat="45.80218" lon="6.07844">
        <ele>872.98</ele>
        <time>2016-01-17T10:54:47Z</time>
      </trkpt>
      <trkpt lat="45.80219" lon="6.07845">
        <ele>873.06</ele>
        <time>2016-01-17T10:55:10Z</time>
      </trkpt>
      <trkpt lat="45.80217" lon="6.07845">
        <ele>873.2</ele>
        <time>2016-01-17T10:55:47Z</time>
      </trkpt>
      <trkpt lat="45.80213" lon="6.07851">
        <ele>874.32</ele>
        <time>2016-01-17T10:56:05Z</time>
      </trkpt>
      <trkpt lat="45.802" lon="6.07866">
        <ele>876.28</ele>
        <time>2016-01-17T10:56:26Z</time>
      </trkpt>
      <trkpt lat="45.80188" lon="6.07877">
        <ele>877.93</ele>
        <time>2016-01-17T10:56:45Z</time>
      </trkpt>
      <trkpt lat="45.80172" lon="6.07888">
        <ele>880.33</ele>
        <time>2016-01-17T10:57:03Z</time>
      </trkpt>
      <trkpt lat="45.80161" lon="6.07911">
        <ele>882.15</ele>
        <time>2016-01-17T10:57:23Z</time>
      </trkpt>
      <trkpt lat="45.80165" lon="6.07926">
        <ele>884.1</ele>
        <time>2016-01-17T10:57:40Z</time>
      </trkpt>
      <trkpt lat="45.80164" lon="6.07929">
        <ele>885.48</ele>
        <time>2016-01-17T10:57:44Z</time>
      </trkpt>
      <trkpt lat="45.80162" lon="6.07953">
        <ele>887.52</ele>
        <time>2016-01-17T10:58:04Z</time>
      </trkpt>
      <trkpt lat="45.80152" lon="6.07968">
        <ele>889.26</ele>
        <time>2016-01-17T10:58:23Z</time>
      </trkpt>
      <trkpt lat="45.80146" lon="6.07981">
        <ele>891.1</ele>
        <time>2016-01-17T10:58:43Z</time>
      </trkpt>
      <trkpt lat="45.80131" lon="6.08001">
        <ele>893.98</ele>
        <time>2016-01-17T10:59:03Z</time>
      </trkpt>
      <trkpt lat="45.80122" lon="6.08011">
        <ele>897.31</ele>
        <time>2016-01-17T10:59:18Z</time>
      </trkpt>
      <trkpt lat="45.80115" lon="6.08023">
        <ele>899.01</ele>
        <time>2016-01-17T10:59:36Z</time>
      </trkpt>
      <trkpt lat="45.80112" lon="6.08035">
        <ele>901.39</ele>
        <time>2016-01-17T10:59:54Z</time>
      </trkpt>
      <trkpt lat="45.80111" lon="6.08055">
        <ele>904.04</ele>
        <time>2016-01-17T11:00:14Z</time>
      </trkpt>
      <trkpt lat="45.80111" lon="6.08056">
        <ele>904.02</ele>
        <time>2016-01-17T11:00:15Z</time>
      </trkpt>
      <trkpt lat="45.80111" lon="6.0806">
        <ele>904.01</ele>
        <time>2016-01-17T11:00:17Z</time>
      </trkpt>
      <trkpt lat="45.80111" lon="6.08062">
        <ele>904</ele>
        <time>2016-01-17T11:00:19Z</time>
      </trkpt>
      <trkpt lat="45.80114" lon="6.08057">
        <ele>904.76</ele>
        <time>2016-01-17T11:00:44Z</time>
      </trkpt>
      <trkpt lat="45.80114" lon="6.08056">
        <ele>904.73</ele>
        <time>2016-01-17T11:00:50Z</time>
      </trkpt>
      <trkpt lat="45.80113" lon="6.08054">
        <ele>904.72</ele>
        <time>2016-01-17T11:01:22Z</time>
      </trkpt>
      <trkpt lat="45.80111" lon="6.08066">
        <ele>905.56</ele>
        <time>2016-01-17T11:01:45Z</time>
      </trkpt>
      <trkpt lat="45.80101" lon="6.08079">
        <ele>908.37</ele>
        <time>2016-01-17T11:02:08Z</time>
      </trkpt>
      <trkpt lat="45.80091" lon="6.08092">
        <ele>910.28</ele>
        <time>2016-01-17T11:02:25Z</time>
      </trkpt>
      <trkpt lat="45.80079" lon="6.08105">
        <ele>910.17</ele>
        <time>2016-01-17T11:02:43Z</time>
      </trkpt>
      <trkpt lat="45.80071" lon="6.08112">
        <ele>912.9</ele>
        <time>2016-01-17T11:03:03Z</time>
      </trkpt>
      <trkpt lat="45.80069" lon="6.08114">
        <ele>912.68</ele>
        <time>2016-01-17T11:03:07Z</time>
      </trkpt>
      <trkpt lat="45.80061" lon="6.08123">
        <ele>914.47</ele>
        <time>2016-01-17T11:03:20Z</time>
      </trkpt>
      <trkpt lat="45.80052" lon="6.08131">
        <ele>915.82</ele>
        <time>2016-01-17T11:03:37Z</time>
      </trkpt>
      <trkpt lat="45.80038" lon="6.08135">
        <ele>918.86</ele>
        <time>2016-01-17T11:03:57Z</time>
      </trkpt>
      <trkpt lat="45.80036" lon="6.08134">
        <ele>918.82</ele>
        <time>2016-01-17T11:04:00Z</time>
      </trkpt>
      <trkpt lat="45.80028" lon="6.08131">
        <ele>919.36</ele>
        <time>2016-01-17T11:04:14Z</time>
      </trkpt>
      <trkpt lat="45.80024" lon="6.08133">
        <ele>919.28</ele>
        <time>2016-01-17T11:04:18Z</time>
      </trkpt>
      <trkpt lat="45.80018" lon="6.08136">
        <ele>920.02</ele>
        <time>2016-01-17T11:04:23Z</time>
      </trkpt>
      <trkpt lat="45.80014" lon="6.08138">
        <ele>919.9</ele>
        <time>2016-01-17T11:04:30Z</time>
      </trkpt>
      <trkpt lat="45.80011" lon="6.0814">
        <ele>920.66</ele>
        <time>2016-01-17T11:04:34Z</time>
      </trkpt>
      <trkpt lat="45.80002" lon="6.08148">
        <ele>921.37</ele>
        <time>2016-01-17T11:04:46Z</time>
      </trkpt>
      <trkpt lat="45.8" lon="6.08147">
        <ele>921.31</ele>
        <time>2016-01-17T11:04:50Z</time>
      </trkpt>
      <trkpt lat="45.79995" lon="6.0815">
        <ele>921.95</ele>
        <time>2016-01-17T11:04:57Z</time>
      </trkpt>
      <trkpt lat="45.79991" lon="6.08155">
        <ele>923.76</ele>
        <time>2016-01-17T11:05:06Z</time>
      </trkpt>
      <trkpt lat="45.79988" lon="6.08155">
        <ele>923.72</ele>
        <time>2016-01-17T11:05:10Z</time>
      </trkpt>
      <trkpt lat="45.79981" lon="6.08153">
        <ele>925.11</ele>
        <time>2016-01-17T11:05:24Z</time>
      </trkpt>
      <trkpt lat="45.79973" lon="6.08152">
        <ele>928.02</ele>
        <time>2016-01-17T11:05:38Z</time>
      </trkpt>
      <trkpt lat="45.79967" lon="6.08154">
        <ele>929.88</ele>
        <time>2016-01-17T11:05:54Z</time>
      </trkpt>
      <trkpt lat="45.79967" lon="6.08154">
        <ele>929.86</ele>
        <time>2016-01-17T11:05:55Z</time>
      </trkpt>
      <trkpt lat="45.79963" lon="6.08153">
        <ele>930.54</ele>
        <time>2016-01-17T11:06:03Z</time>
      </trkpt>
      <trkpt lat="45.79954" lon="6.08155">
        <ele>933.13</ele>
        <time>2016-01-17T11:06:17Z</time>
      </trkpt>
      <trkpt lat="45.79944" lon="6.08155">
        <ele>936.27</ele>
        <time>2016-01-17T11:06:39Z</time>
      </trkpt>
      <trkpt lat="45.79936" lon="6.08158">
        <ele>936.89</ele>
        <time>2016-01-17T11:06:46Z</time>
      </trkpt>
      <trkpt lat="45.79927" lon="6.08161">
        <ele>939.98</ele>
        <time>2016-01-17T11:07:06Z</time>
      </trkpt>
      <trkpt lat="45.7992" lon="6.08167">
        <ele>942.31</ele>
        <time>2016-01-17T11:07:26Z</time>
      </trkpt>
      <trkpt lat="45.79919" lon="6.08172">
        <ele>942.84</ele>
        <time>2016-01-17T11:07:35Z</time>
      </trkpt>
      <trkpt lat="45.79916" lon="6.08179">
        <ele>945.49</ele>
        <time>2016-01-17T11:07:49Z</time>
      </trkpt>
      <trkpt lat="45.79913" lon="6.08189">
        <ele>947.1</ele>
        <time>2016-01-17T11:08:04Z</time>
      </trkpt>
      <trkpt lat="45.79899" lon="6.08191">
        <ele>947.62</ele>
        <time>2016-01-17T11:08:20Z</time>
      </trkpt>
      <trkpt lat="45.79894" lon="6.08193">
        <ele>947.39</ele>
        <time>2016-01-17T11:08:34Z</time>
      </trkpt>
      <trkpt lat="45.79893" lon="6.08193">
        <ele>947.37</ele>
        <time>2016-01-17T11:08:35Z</time>
      </trkpt>
      <trkpt lat="45.79893" lon="6.08193">
        <ele>947.37</ele>
        <time>2016-01-17T11:08:36Z</time>
      </trkpt>
      <trkpt lat="45.79892" lon="6.08194">
        <ele>947.36</ele>
        <time>2016-01-17T11:08:37Z</time>
      </trkpt>
      <trkpt lat="45.79892" lon="6.08194">
        <ele>947.32</ele>
        <time>2016-01-17T11:08:38Z</time>
      </trkpt>
      <trkpt lat="45.79892" lon="6.08196">
        <ele>947.31</ele>
        <time>2016-01-17T11:08:39Z</time>
      </trkpt>
      <trkpt lat="45.79892" lon="6.08196">
        <ele>947.29</ele>
        <time>2016-01-17T11:08:40Z</time>
      </trkpt>
      <trkpt lat="45.79892" lon="6.08197">
        <ele>947.27</ele>
        <time>2016-01-17T11:08:41Z</time>
      </trkpt>
      <trkpt lat="45.79892" lon="6.08197">
        <ele>947.22</ele>
        <time>2016-01-17T11:08:42Z</time>
      </trkpt>
      <trkpt lat="45.79892" lon="6.08196">
        <ele>947.25</ele>
        <time>2016-01-17T11:08:43Z</time>
      </trkpt>
      <trkpt lat="45.79892" lon="6.08196">
        <ele>947.24</ele>
        <time>2016-01-17T11:08:44Z</time>
      </trkpt>
      <trkpt lat="45.79892" lon="6.08196">
        <ele>948.36</ele>
        <time>2016-01-17T11:08:45Z</time>
      </trkpt>
      <trkpt lat="45.79892" lon="6.08196">
        <ele>948.34</ele>
        <time>2016-01-17T11:08:46Z</time>
      </trkpt>
      <trkpt lat="45.79893" lon="6.08197">
        <ele>948.33</ele>
        <time>2016-01-17T11:08:47Z</time>
      </trkpt>
      <trkpt lat="45.79893" lon="6.08197">
        <ele>948.31</ele>
        <time>2016-01-17T11:08:48Z</time>
      </trkpt>
      <trkpt lat="45.79893" lon="6.08197">
        <ele>948.3</ele>
        <time>2016-01-17T11:08:49Z</time>
      </trkpt>
      <trkpt lat="45.79893" lon="6.08197">
        <ele>948.3</ele>
        <time>2016-01-17T11:08:50Z</time>
      </trkpt>
      <trkpt lat="45.79893" lon="6.08197">
        <ele>948.29</ele>
        <time>2016-01-17T11:08:51Z</time>
      </trkpt>
      <trkpt lat="45.79893" lon="6.08198">
        <ele>948.28</ele>
        <time>2016-01-17T11:08:52Z</time>
      </trkpt>
      <trkpt lat="45.79893" lon="6.08197">
        <ele>948.27</ele>
        <time>2016-01-17T11:08:53Z</time>
      </trkpt>
      <trkpt lat="45.79893" lon="6.08197">
        <ele>948.27</ele>
        <time>2016-01-17T11:08:54Z</time>
      </trkpt>
      <trkpt lat="45.79893" lon="6.08197">
        <ele>948.25</ele>
        <time>2016-01-17T11:08:55Z</time>
      </trkpt>
      <trkpt lat="45.79893" lon="6.08197">
        <ele>948.24</ele>
        <time>2016-01-17T11:08:56Z</time>
      </trkpt>
      <trkpt lat="45.79894" lon="6.08197">
        <ele>948.23</ele>
        <time>2016-01-17T11:08:57Z</time>
      </trkpt>
      <trkpt lat="45.79894" lon="6.08197">
        <ele>948.23</ele>
        <time>2016-01-17T11:08:58Z</time>
      </trkpt>
      <trkpt lat="45.79894" lon="6.08197">
        <ele>948.21</ele>
        <time>2016-01-17T11:08:59Z</time>
      </trkpt>
      <trkpt lat="45.79894" lon="6.08197">
        <ele>948.2</ele>
        <time>2016-01-17T11:09:00Z</time>
      </trkpt>
      <trkpt lat="45.79894" lon="6.08197">
        <ele>948.17</ele>
        <time>2016-01-17T11:09:01Z</time>
      </trkpt>
      <trkpt lat="45.79893" lon="6.08196">
        <ele>948.17</ele>
        <time>2016-01-17T11:09:02Z</time>
      </trkpt>
      <trkpt lat="45.79893" lon="6.08196">
        <ele>948.18</ele>
        <time>2016-01-17T11:09:03Z</time>
      </trkpt>
      <trkpt lat="45.79893" lon="6.08195">
        <ele>948.15</ele>
        <time>2016-01-17T11:09:04Z</time>
      </trkpt>
      <trkpt lat="45.79893" lon="6.08195">
        <ele>948.14</ele>
        <time>2016-01-17T11:09:05Z</time>
      </trkpt>
      <trkpt lat="45.79892" lon="6.08196">
        <ele>948.15</ele>
        <time>2016-01-17T11:09:06Z</time>
      </trkpt>
      <trkpt lat="45.79892" lon="6.08196">
        <ele>948.15</ele>
        <time>2016-01-17T11:09:07Z</time>
      </trkpt>
      <trkpt lat="45.79892" lon="6.08196">
        <ele>948.11</ele>
        <time>2016-01-17T11:09:08Z</time>
      </trkpt>
      <trkpt lat="45.79892" lon="6.08196">
        <ele>948.1</ele>
        <time>2016-01-17T11:09:09Z</time>
      </trkpt>
      <trkpt lat="45.79892" lon="6.08196">
        <ele>948.09</ele>
        <time>2016-01-17T11:09:10Z</time>
      </trkpt>
      <trkpt lat="45.79891" lon="6.08197">
        <ele>948.09</ele>
        <time>2016-01-17T11:09:11Z</time>
      </trkpt>
      <trkpt lat="45.79892" lon="6.08197">
        <ele>948.09</ele>
        <time>2016-01-17T11:09:12Z</time>
      </trkpt>
      <trkpt lat="45.79891" lon="6.08197">
        <ele>948.07</ele>
        <time>2016-01-17T11:09:13Z</time>
      </trkpt>
      <trkpt lat="45.79891" lon="6.08198">
        <ele>948.06</ele>
        <time>2016-01-17T11:09:14Z</time>
      </trkpt>
      <trkpt lat="45.79891" lon="6.08197">
        <ele>948.07</ele>
        <time>2016-01-17T11:09:15Z</time>
      </trkpt>
      <trkpt lat="45.79891" lon="6.08197">
        <ele>948.07</ele>
        <time>2016-01-17T11:09:16Z</time>
      </trkpt>
      <trkpt lat="45.7989" lon="6.08197">
        <ele>948.05</ele>
        <time>2016-01-17T11:09:17Z</time>
      </trkpt>
      <trkpt lat="45.7989" lon="6.08197">
        <ele>948.05</ele>
        <time>2016-01-17T11:09:18Z</time>
      </trkpt>
      <trkpt lat="45.7989" lon="6.08198">
        <ele>948.04</ele>
        <time>2016-01-17T11:09:19Z</time>
      </trkpt>
      <trkpt lat="45.7989" lon="6.08198">
        <ele>948.04</ele>
        <time>2016-01-17T11:09:20Z</time>
      </trkpt>
      <trkpt lat="45.7989" lon="6.08198">
        <ele>948.03</ele>
        <time>2016-01-17T11:09:21Z</time>
      </trkpt>
      <trkpt lat="45.79889" lon="6.08199">
        <ele>948.04</ele>
        <time>2016-01-17T11:09:22Z</time>
      </trkpt>
      <trkpt lat="45.7989" lon="6.08199">
        <ele>948.03</ele>
        <time>2016-01-17T11:09:23Z</time>
      </trkpt>
      <trkpt lat="45.7989" lon="6.082">
        <ele>947.99</ele>
        <time>2016-01-17T11:09:24Z</time>
      </trkpt>
      <trkpt lat="45.7989" lon="6.082">
        <ele>947.98</ele>
        <time>2016-01-17T11:09:25Z</time>
      </trkpt>
      <trkpt lat="45.79891" lon="6.082">
        <ele>947.98</ele>
        <time>2016-01-17T11:09:26Z</time>
      </trkpt>
      <trkpt lat="45.79891" lon="6.082">
        <ele>947.98</ele>
        <time>2016-01-17T11:09:27Z</time>
      </trkpt>
      <trkpt lat="45.7989" lon="6.082">
        <ele>947.99</ele>
        <time>2016-01-17T11:09:28Z</time>
      </trkpt>
      <trkpt lat="45.79891" lon="6.082">
        <ele>948.01</ele>
        <time>2016-01-17T11:09:29Z</time>
      </trkpt>
      <trkpt lat="45.79891" lon="6.082">
        <ele>948</ele>
        <time>2016-01-17T11:09:30Z</time>
      </trkpt>
      <trkpt lat="45.79892" lon="6.082">
        <ele>947.99</ele>
        <time>2016-01-17T11:09:31Z</time>
      </trkpt>
      <trkpt lat="45.79891" lon="6.08201">
        <ele>947.94</ele>
        <time>2016-01-17T11:09:32Z</time>
      </trkpt>
      <trkpt lat="45.79891" lon="6.08201">
        <ele>947.94</ele>
        <time>2016-01-17T11:09:33Z</time>
      </trkpt>
      <trkpt lat="45.79891" lon="6.08202">
        <ele>948.05</ele>
        <time>2016-01-17T11:09:34Z</time>
      </trkpt>
      <trkpt lat="45.79891" lon="6.08202">
        <ele>948.02</ele>
        <time>2016-01-17T11:09:35Z</time>
      </trkpt>
      <trkpt lat="45.79891" lon="6.08203">
        <ele>948.01</ele>
        <time>2016-01-17T11:09:36Z</time>
      </trkpt>
      <trkpt lat="45.79891" lon="6.08203">
        <ele>948.85</ele>
        <time>2016-01-17T11:09:37Z</time>
      </trkpt>
      <trkpt lat="45.79891" lon="6.08204">
        <ele>948.83</ele>
        <time>2016-01-17T11:09:38Z</time>
      </trkpt>
      <trkpt lat="45.79891" lon="6.08204">
        <ele>948.85</ele>
        <time>2016-01-17T11:09:39Z</time>
      </trkpt>
      <trkpt lat="45.79891" lon="6.08205">
        <ele>948.83</ele>
        <time>2016-01-17T11:09:40Z</time>
      </trkpt>
      <trkpt lat="45.79892" lon="6.08205">
        <ele>948.81</ele>
        <time>2016-01-17T11:09:41Z</time>
      </trkpt>
      <trkpt lat="45.79892" lon="6.08206">
        <ele>949.84</ele>
        <time>2016-01-17T11:09:42Z</time>
      </trkpt>
      <trkpt lat="45.79893" lon="6.08207">
        <ele>949.83</ele>
        <time>2016-01-17T11:09:43Z</time>
      </trkpt>
      <trkpt lat="45.79893" lon="6.08207">
        <ele>949.82</ele>
        <time>2016-01-17T11:09:44Z</time>
      </trkpt>
      <trkpt lat="45.79893" lon="6.08208">
        <ele>949.83</ele>
        <time>2016-01-17T11:09:45Z</time>
      </trkpt>
      <trkpt lat="45.79893" lon="6.08209">
        <ele>949.81</ele>
        <time>2016-01-17T11:09:46Z</time>
      </trkpt>
      <trkpt lat="45.79894" lon="6.0821">
        <ele>950.85</ele>
        <time>2016-01-17T11:09:47Z</time>
      </trkpt>
      <trkpt lat="45.79894" lon="6.08211">
        <ele>950.81</ele>
        <time>2016-01-17T11:09:48Z</time>
      </trkpt>
      <trkpt lat="45.79894" lon="6.08211">
        <ele>950.79</ele>
        <time>2016-01-17T11:09:49Z</time>
      </trkpt>
      <trkpt lat="45.79893" lon="6.08213">
        <ele>950.8</ele>
        <time>2016-01-17T11:09:50Z</time>
      </trkpt>
      <trkpt lat="45.79893" lon="6.08214">
        <ele>951.58</ele>
        <time>2016-01-17T11:09:51Z</time>
      </trkpt>
      <trkpt lat="45.79893" lon="6.08214">
        <ele>951.55</ele>
        <time>2016-01-17T11:09:52Z</time>
      </trkpt>
      <trkpt lat="45.79892" lon="6.08215">
        <ele>951.54</ele>
        <time>2016-01-17T11:09:53Z</time>
      </trkpt>
      <trkpt lat="45.79893" lon="6.08213">
        <ele>951.52</ele>
        <time>2016-01-17T11:09:54Z</time>
      </trkpt>
      <trkpt lat="45.79892" lon="6.08213">
        <ele>951.44</ele>
        <time>2016-01-17T11:09:55Z</time>
      </trkpt>
      <trkpt lat="45.79892" lon="6.08213">
        <ele>951.44</ele>
        <time>2016-01-17T11:09:56Z</time>
      </trkpt>
      <trkpt lat="45.79891" lon="6.08214">
        <ele>951.53</ele>
        <time>2016-01-17T11:09:57Z</time>
      </trkpt>
      <trkpt lat="45.79891" lon="6.08214">
        <ele>951.5</ele>
        <time>2016-01-17T11:09:58Z</time>
      </trkpt>
      <trkpt lat="45.79891" lon="6.08214">
        <ele>952.56</ele>
        <time>2016-01-17T11:09:59Z</time>
      </trkpt>
      <trkpt lat="45.79891" lon="6.08215">
        <ele>952.55</ele>
        <time>2016-01-17T11:10:00Z</time>
      </trkpt>
      <trkpt lat="45.79891" lon="6.08215">
        <ele>952.59</ele>
        <time>2016-01-17T11:10:01Z</time>
      </trkpt>
      <trkpt lat="45.79891" lon="6.08216">
        <ele>952.58</ele>
        <time>2016-01-17T11:10:02Z</time>
      </trkpt>
      <trkpt lat="45.79891" lon="6.08216">
        <ele>952.6</ele>
        <time>2016-01-17T11:10:03Z</time>
      </trkpt>
      <trkpt lat="45.7989" lon="6.08217">
        <ele>952.58</ele>
        <time>2016-01-17T11:10:04Z</time>
      </trkpt>
      <trkpt lat="45.7989" lon="6.08218">
        <ele>952.58</ele>
        <time>2016-01-17T11:10:05Z</time>
      </trkpt>
      <trkpt lat="45.7989" lon="6.08219">
        <ele>952.56</ele>
        <time>2016-01-17T11:10:06Z</time>
      </trkpt>
      <trkpt lat="45.7989" lon="6.08219">
        <ele>953.5</ele>
        <time>2016-01-17T11:10:07Z</time>
      </trkpt>
      <trkpt lat="45.7989" lon="6.0822">
        <ele>953.52</ele>
        <time>2016-01-17T11:10:08Z</time>
      </trkpt>
      <trkpt lat="45.7989" lon="6.08221">
        <ele>953.51</ele>
        <time>2016-01-17T11:10:09Z</time>
      </trkpt>
      <trkpt lat="45.79889" lon="6.08222">
        <ele>954.38</ele>
        <time>2016-01-17T11:10:10Z</time>
      </trkpt>
      <trkpt lat="45.79888" lon="6.08222">
        <ele>954.4</ele>
        <time>2016-01-17T11:10:11Z</time>
      </trkpt>
      <trkpt lat="45.79888" lon="6.08223">
        <ele>954.38</ele>
        <time>2016-01-17T11:10:12Z</time>
      </trkpt>
      <trkpt lat="45.79887" lon="6.08223">
        <ele>954.37</ele>
        <time>2016-01-17T11:10:13Z</time>
      </trkpt>
      <trkpt lat="45.79887" lon="6.08224">
        <ele>954.36</ele>
        <time>2016-01-17T11:10:14Z</time>
      </trkpt>
      <trkpt lat="45.79886" lon="6.08224">
        <ele>955.23</ele>
        <time>2016-01-17T11:10:15Z</time>
      </trkpt>
      <trkpt lat="45.79886" lon="6.08225">
        <ele>955.24</ele>
        <time>2016-01-17T11:10:16Z</time>
      </trkpt>
      <trkpt lat="45.79885" lon="6.08226">
        <ele>955.24</ele>
        <time>2016-01-17T11:10:17Z</time>
      </trkpt>
      <trkpt lat="45.79885" lon="6.08226">
        <ele>955.25</ele>
        <time>2016-01-17T11:10:18Z</time>
      </trkpt>
      <trkpt lat="45.79885" lon="6.08227">
        <ele>955.19</ele>
        <time>2016-01-17T11:10:19Z</time>
      </trkpt>
      <trkpt lat="45.79884" lon="6.08227">
        <ele>955.19</ele>
        <time>2016-01-17T11:10:20Z</time>
      </trkpt>
      <trkpt lat="45.79884" lon="6.08228">
        <ele>956.67</ele>
        <time>2016-01-17T11:10:21Z</time>
      </trkpt>
      <trkpt lat="45.79884" lon="6.08228">
        <ele>956.67</ele>
        <time>2016-01-17T11:10:22Z</time>
      </trkpt>
      <trkpt lat="45.79884" lon="6.08229">
        <ele>956.45</ele>
        <time>2016-01-17T11:10:23Z</time>
      </trkpt>
      <trkpt lat="45.79884" lon="6.08229">
        <ele>956.64</ele>
        <time>2016-01-17T11:10:24Z</time>
      </trkpt>
      <trkpt lat="45.79883" lon="6.08229">
        <ele>956.6</ele>
        <time>2016-01-17T11:10:25Z</time>
      </trkpt>
      <trkpt lat="45.79883" lon="6.08229">
        <ele>956.59</ele>
        <time>2016-01-17T11:10:26Z</time>
      </trkpt>
      <trkpt lat="45.79883" lon="6.08229">
        <ele>957.45</ele>
        <time>2016-01-17T11:10:27Z</time>
      </trkpt>
      <trkpt lat="45.79882" lon="6.0823">
        <ele>957.39</ele>
        <time>2016-01-17T11:10:28Z</time>
      </trkpt>
      <trkpt lat="45.79882" lon="6.0823">
        <ele>957.38</ele>
        <time>2016-01-17T11:10:29Z</time>
      </trkpt>
      <trkpt lat="45.79882" lon="6.0823">
        <ele>957.35</ele>
        <time>2016-01-17T11:10:30Z</time>
      </trkpt>
      <trkpt lat="45.79882" lon="6.08231">
        <ele>957.34</ele>
        <time>2016-01-17T11:10:31Z</time>
      </trkpt>
      <trkpt lat="45.79882" lon="6.08232">
        <ele>957.33</ele>
        <time>2016-01-17T11:10:32Z</time>
      </trkpt>
      <trkpt lat="45.79882" lon="6.08232">
        <ele>957.23</ele>
        <time>2016-01-17T11:10:33Z</time>
      </trkpt>
      <trkpt lat="45.79882" lon="6.08232">
        <ele>958.24</ele>
        <time>2016-01-17T11:10:34Z</time>
      </trkpt>
      <trkpt lat="45.79882" lon="6.08233">
        <ele>958.21</ele>
        <time>2016-01-17T11:10:35Z</time>
      </trkpt>
      <trkpt lat="45.79882" lon="6.08234">
        <ele>958.24</ele>
        <time>2016-01-17T11:10:36Z</time>
      </trkpt>
      <trkpt lat="45.79882" lon="6.08234">
        <ele>958.2</ele>
        <time>2016-01-17T11:10:37Z</time>
      </trkpt>
      <trkpt lat="45.79882" lon="6.08234">
        <ele>958.19</ele>
        <time>2016-01-17T11:10:38Z</time>
      </trkpt>
      <trkpt lat="45.79881" lon="6.08235">
        <ele>959</ele>
        <time>2016-01-17T11:10:39Z</time>
      </trkpt>
      <trkpt lat="45.79881" lon="6.08236">
        <ele>958.97</ele>
        <time>2016-01-17T11:10:40Z</time>
      </trkpt>
      <trkpt lat="45.79881" lon="6.08237">
        <ele>958.96</ele>
        <time>2016-01-17T11:10:41Z</time>
      </trkpt>
      <trkpt lat="45.79881" lon="6.08238">
        <ele>958.95</ele>
        <time>2016-01-17T11:10:42Z</time>
      </trkpt>
      <trkpt lat="45.79881" lon="6.08238">
        <ele>958.77</ele>
        <time>2016-01-17T11:10:43Z</time>
      </trkpt>
      <trkpt lat="45.79881" lon="6.08238">
        <ele>958.92</ele>
        <time>2016-01-17T11:10:44Z</time>
      </trkpt>
      <trkpt lat="45.7988" lon="6.08239">
        <ele>958.75</ele>
        <time>2016-01-17T11:10:45Z</time>
      </trkpt>
      <trkpt lat="45.7988" lon="6.08239">
        <ele>958.88</ele>
        <time>2016-01-17T11:10:46Z</time>
      </trkpt>
      <trkpt lat="45.79881" lon="6.08239">
        <ele>958.87</ele>
        <time>2016-01-17T11:10:47Z</time>
      </trkpt>
      <trkpt lat="45.7988" lon="6.0824">
        <ele>958.82</ele>
        <time>2016-01-17T11:10:48Z</time>
      </trkpt>
      <trkpt lat="45.7988" lon="6.08241">
        <ele>960.18</ele>
        <time>2016-01-17T11:10:49Z</time>
      </trkpt>
      <trkpt lat="45.79879" lon="6.0824">
        <ele>960.18</ele>
        <time>2016-01-17T11:10:50Z</time>
      </trkpt>
      <trkpt lat="45.79879" lon="6.08241">
        <ele>960.19</ele>
        <time>2016-01-17T11:10:51Z</time>
      </trkpt>
      <trkpt lat="45.79879" lon="6.08241">
        <ele>960.14</ele>
        <time>2016-01-17T11:10:52Z</time>
      </trkpt>
      <trkpt lat="45.79879" lon="6.08241">
        <ele>960.1</ele>
        <time>2016-01-17T11:10:53Z</time>
      </trkpt>
      <trkpt lat="45.79877" lon="6.08242">
        <ele>960.91</ele>
        <time>2016-01-17T11:10:54Z</time>
      </trkpt>
      <trkpt lat="45.79877" lon="6.08242">
        <ele>960.89</ele>
        <time>2016-01-17T11:10:55Z</time>
      </trkpt>
      <trkpt lat="45.79877" lon="6.08242">
        <ele>960.91</ele>
        <time>2016-01-17T11:10:56Z</time>
      </trkpt>
      <trkpt lat="45.79876" lon="6.08242">
        <ele>961.8</ele>
        <time>2016-01-17T11:10:57Z</time>
      </trkpt>
      <trkpt lat="45.79876" lon="6.08242">
        <ele>961.77</ele>
        <time>2016-01-17T11:10:58Z</time>
      </trkpt>
      <trkpt lat="45.79875" lon="6.08243">
        <ele>961.75</ele>
        <time>2016-01-17T11:10:59Z</time>
      </trkpt>
      <trkpt lat="45.79875" lon="6.08243">
        <ele>961.76</ele>
        <time>2016-01-17T11:11:00Z</time>
      </trkpt>
      <trkpt lat="45.79875" lon="6.08243">
        <ele>961.73</ele>
        <time>2016-01-17T11:11:01Z</time>
      </trkpt>
      <trkpt lat="45.79875" lon="6.08244">
        <ele>961.71</ele>
        <time>2016-01-17T11:11:02Z</time>
      </trkpt>
      <trkpt lat="45.79874" lon="6.08245">
        <ele>962.55</ele>
        <time>2016-01-17T11:11:03Z</time>
      </trkpt>
      <trkpt lat="45.79874" lon="6.08245">
        <ele>962.51</ele>
        <time>2016-01-17T11:11:04Z</time>
      </trkpt>
      <trkpt lat="45.79874" lon="6.08246">
        <ele>962.48</ele>
        <time>2016-01-17T11:11:05Z</time>
      </trkpt>
      <trkpt lat="45.79873" lon="6.08246">
        <ele>962.48</ele>
        <time>2016-01-17T11:11:06Z</time>
      </trkpt>
      <trkpt lat="45.79873" lon="6.08246">
        <ele>962.46</ele>
        <time>2016-01-17T11:11:07Z</time>
      </trkpt>
      <trkpt lat="45.79873" lon="6.08247">
        <ele>962.45</ele>
        <time>2016-01-17T11:11:08Z</time>
      </trkpt>
      <trkpt lat="45.79873" lon="6.08248">
        <ele>962.41</ele>
        <time>2016-01-17T11:11:09Z</time>
      </trkpt>
      <trkpt lat="45.79873" lon="6.08248">
        <ele>962.42</ele>
        <time>2016-01-17T11:11:10Z</time>
      </trkpt>
      <trkpt lat="45.79873" lon="6.08248">
        <ele>962.38</ele>
        <time>2016-01-17T11:11:11Z</time>
      </trkpt>
      <trkpt lat="45.79873" lon="6.08249">
        <ele>962.19</ele>
        <time>2016-01-17T11:11:12Z</time>
      </trkpt>
      <trkpt lat="45.79873" lon="6.08249">
        <ele>962.36</ele>
        <time>2016-01-17T11:11:13Z</time>
      </trkpt>
      <trkpt lat="45.79873" lon="6.08249">
        <ele>962.34</ele>
        <time>2016-01-17T11:11:14Z</time>
      </trkpt>
      <trkpt lat="45.79873" lon="6.08249">
        <ele>962.28</ele>
        <time>2016-01-17T11:11:15Z</time>
      </trkpt>
      <trkpt lat="45.79873" lon="6.08249">
        <ele>962.22</ele>
        <time>2016-01-17T11:11:16Z</time>
      </trkpt>
      <trkpt lat="45.79872" lon="6.08249">
        <ele>962.19</ele>
        <time>2016-01-17T11:11:17Z</time>
      </trkpt>
      <trkpt lat="45.79866" lon="6.08254">
        <ele>962.12</ele>
        <time>2016-01-17T11:11:18Z</time>
      </trkpt>
      <trkpt lat="45.79865" lon="6.08254">
        <ele>962.17</ele>
        <time>2016-01-17T11:11:19Z</time>
      </trkpt>
      <trkpt lat="45.79865" lon="6.08254">
        <ele>962.16</ele>
        <time>2016-01-17T11:11:20Z</time>
      </trkpt>
      <trkpt lat="45.79865" lon="6.08253">
        <ele>962.1</ele>
        <time>2016-01-17T11:11:21Z</time>
      </trkpt>
      <trkpt lat="45.79865" lon="6.08254">
        <ele>962.93</ele>
        <time>2016-01-17T11:11:22Z</time>
      </trkpt>
      <trkpt lat="45.79866" lon="6.08254">
        <ele>962.93</ele>
        <time>2016-01-17T11:11:23Z</time>
      </trkpt>
      <trkpt lat="45.79866" lon="6.08254">
        <ele>963</ele>
        <time>2016-01-17T11:11:24Z</time>
      </trkpt>
      <trkpt lat="45.79865" lon="6.08254">
        <ele>962.91</ele>
        <time>2016-01-17T11:11:25Z</time>
      </trkpt>
      <trkpt lat="45.79865" lon="6.08254">
        <ele>963.02</ele>
        <time>2016-01-17T11:11:26Z</time>
      </trkpt>
      <trkpt lat="45.79865" lon="6.08255">
        <ele>963.02</ele>
        <time>2016-01-17T11:11:27Z</time>
      </trkpt>
      <trkpt lat="45.79864" lon="6.08255">
        <ele>964.15</ele>
        <time>2016-01-17T11:11:28Z</time>
      </trkpt>
      <trkpt lat="45.79865" lon="6.08256">
        <ele>964.1</ele>
        <time>2016-01-17T11:11:29Z</time>
      </trkpt>
      <trkpt lat="45.79865" lon="6.08256">
        <ele>964.09</ele>
        <time>2016-01-17T11:11:30Z</time>
      </trkpt>
      <trkpt lat="45.79865" lon="6.08256">
        <ele>963.96</ele>
        <time>2016-01-17T11:11:31Z</time>
      </trkpt>
      <trkpt lat="45.79865" lon="6.08255">
        <ele>963.94</ele>
        <time>2016-01-17T11:11:32Z</time>
      </trkpt>
      <trkpt lat="45.79865" lon="6.08255">
        <ele>963.93</ele>
        <time>2016-01-17T11:11:33Z</time>
      </trkpt>
      <trkpt lat="45.79864" lon="6.08255">
        <ele>963.93</ele>
        <time>2016-01-17T11:11:34Z</time>
      </trkpt>
      <trkpt lat="45.79864" lon="6.08256">
        <ele>963.91</ele>
        <time>2016-01-17T11:11:35Z</time>
      </trkpt>
      <trkpt lat="45.79864" lon="6.08256">
        <ele>964.03</ele>
        <time>2016-01-17T11:11:36Z</time>
      </trkpt>
      <trkpt lat="45.79865" lon="6.08255">
        <ele>965.02</ele>
        <time>2016-01-17T11:11:37Z</time>
      </trkpt>
      <trkpt lat="45.79865" lon="6.08255">
        <ele>964.82</ele>
        <time>2016-01-17T11:11:38Z</time>
      </trkpt>
      <trkpt lat="45.79866" lon="6.08255">
        <ele>965.05</ele>
        <time>2016-01-17T11:11:39Z</time>
      </trkpt>
      <trkpt lat="45.79866" lon="6.08255">
        <ele>965.71</ele>
        <time>2016-01-17T11:11:40Z</time>
      </trkpt>
      <trkpt lat="45.79866" lon="6.08255">
        <ele>965.66</ele>
        <time>2016-01-17T11:11:41Z</time>
      </trkpt>
      <trkpt lat="45.79865" lon="6.08256">
        <ele>965.87</ele>
        <time>2016-01-17T11:11:42Z</time>
      </trkpt>
      <trkpt lat="45.79865" lon="6.08256">
        <ele>965.8</ele>
        <time>2016-01-17T11:11:43Z</time>
      </trkpt>
      <trkpt lat="45.79865" lon="6.08256">
        <ele>965.65</ele>
        <time>2016-01-17T11:11:44Z</time>
      </trkpt>
      <trkpt lat="45.79865" lon="6.08256">
        <ele>965.83</ele>
        <time>2016-01-17T11:11:45Z</time>
      </trkpt>
      <trkpt lat="45.79865" lon="6.08257">
        <ele>966.73</ele>
        <time>2016-01-17T11:11:46Z</time>
      </trkpt>
      <trkpt lat="45.79865" lon="6.08257">
        <ele>966.92</ele>
        <time>2016-01-17T11:11:47Z</time>
      </trkpt>
      <trkpt lat="45.79864" lon="6.08257">
        <ele>966.9</ele>
        <time>2016-01-17T11:11:48Z</time>
      </trkpt>
      <trkpt lat="45.79864" lon="6.08257">
        <ele>966.89</ele>
        <time>2016-01-17T11:11:49Z</time>
      </trkpt>
      <trkpt lat="45.79864" lon="6.08258">
        <ele>966.68</ele>
        <time>2016-01-17T11:11:50Z</time>
      </trkpt>
      <trkpt lat="45.79864" lon="6.08258">
        <ele>966.81</ele>
        <time>2016-01-17T11:11:51Z</time>
      </trkpt>
      <trkpt lat="45.79864" lon="6.08259">
        <ele>966.82</ele>
        <time>2016-01-17T11:11:52Z</time>
      </trkpt>
      <trkpt lat="45.79863" lon="6.0826">
        <ele>966.82</ele>
        <time>2016-01-17T11:11:53Z</time>
      </trkpt>
      <trkpt lat="45.79863" lon="6.08261">
        <ele>966.78</ele>
        <time>2016-01-17T11:11:54Z</time>
      </trkpt>
      <trkpt lat="45.79863" lon="6.08262">
        <ele>967.86</ele>
        <time>2016-01-17T11:11:55Z</time>
      </trkpt>
      <trkpt lat="45.79863" lon="6.08262">
        <ele>967.67</ele>
        <time>2016-01-17T11:11:56Z</time>
      </trkpt>
      <trkpt lat="45.79863" lon="6.08262">
        <ele>967.81</ele>
        <time>2016-01-17T11:11:57Z</time>
      </trkpt>
      <trkpt lat="45.79863" lon="6.08262">
        <ele>967.81</ele>
        <time>2016-01-17T11:11:58Z</time>
      </trkpt>
      <trkpt lat="45.79862" lon="6.08262">
        <ele>967.61</ele>
        <time>2016-01-17T11:11:59Z</time>
      </trkpt>
      <trkpt lat="45.79862" lon="6.08262">
        <ele>968.76</ele>
        <time>2016-01-17T11:12:00Z</time>
      </trkpt>
      <trkpt lat="45.79861" lon="6.08263">
        <ele>968.78</ele>
        <time>2016-01-17T11:12:01Z</time>
      </trkpt>
      <trkpt lat="45.79861" lon="6.08264">
        <ele>969.6</ele>
        <time>2016-01-17T11:12:02Z</time>
      </trkpt>
      <trkpt lat="45.7986" lon="6.08264">
        <ele>969.78</ele>
        <time>2016-01-17T11:12:03Z</time>
      </trkpt>
      <trkpt lat="45.7986" lon="6.08266">
        <ele>969.57</ele>
        <time>2016-01-17T11:12:04Z</time>
      </trkpt>
      <trkpt lat="45.7986" lon="6.08267">
        <ele>969.71</ele>
        <time>2016-01-17T11:12:05Z</time>
      </trkpt>
      <trkpt lat="45.79859" lon="6.08268">
        <ele>969.53</ele>
        <time>2016-01-17T11:12:06Z</time>
      </trkpt>
      <trkpt lat="45.79859" lon="6.08268">
        <ele>969.69</ele>
        <time>2016-01-17T11:12:07Z</time>
      </trkpt>
      <trkpt lat="45.79858" lon="6.08269">
        <ele>970.66</ele>
        <time>2016-01-17T11:12:08Z</time>
      </trkpt>
      <trkpt lat="45.79858" lon="6.0827">
        <ele>970.65</ele>
        <time>2016-01-17T11:12:09Z</time>
      </trkpt>
      <trkpt lat="45.79858" lon="6.0827">
        <ele>970.64</ele>
        <time>2016-01-17T11:12:10Z</time>
      </trkpt>
      <trkpt lat="45.79858" lon="6.08271">
        <ele>970.62</ele>
        <time>2016-01-17T11:12:11Z</time>
      </trkpt>
      <trkpt lat="45.79858" lon="6.08271">
        <ele>970.61</ele>
        <time>2016-01-17T11:12:12Z</time>
      </trkpt>
      <trkpt lat="45.79858" lon="6.08273">
        <ele>970.6</ele>
        <time>2016-01-17T11:12:13Z</time>
      </trkpt>
      <trkpt lat="45.79857" lon="6.08272">
        <ele>971.21</ele>
        <time>2016-01-17T11:12:14Z</time>
      </trkpt>
      <trkpt lat="45.79856" lon="6.08272">
        <ele>971.4</ele>
        <time>2016-01-17T11:12:15Z</time>
      </trkpt>
      <trkpt lat="45.79855" lon="6.08273">
        <ele>971.36</ele>
        <time>2016-01-17T11:12:16Z</time>
      </trkpt>
      <trkpt lat="45.79855" lon="6.08273">
        <ele>971.32</ele>
        <time>2016-01-17T11:12:17Z</time>
      </trkpt>
      <trkpt lat="45.79854" lon="6.08273">
        <ele>971.33</ele>
        <time>2016-01-17T11:12:18Z</time>
      </trkpt>
      <trkpt lat="45.79854" lon="6.08274">
        <ele>971.29</ele>
        <time>2016-01-17T11:12:19Z</time>
      </trkpt>
      <trkpt lat="45.79853" lon="6.08274">
        <ele>971.92</ele>
        <time>2016-01-17T11:12:20Z</time>
      </trkpt>
      <trkpt lat="45.79853" lon="6.08275">
        <ele>972.07</ele>
        <time>2016-01-17T11:12:21Z</time>
      </trkpt>
      <trkpt lat="45.79852" lon="6.08276">
        <ele>972.03</ele>
        <time>2016-01-17T11:12:22Z</time>
      </trkpt>
      <trkpt lat="45.79851" lon="6.08277">
        <ele>971.99</ele>
        <time>2016-01-17T11:12:23Z</time>
      </trkpt>
      <trkpt lat="45.79851" lon="6.08277">
        <ele>971.99</ele>
        <time>2016-01-17T11:12:24Z</time>
      </trkpt>
      <trkpt lat="45.7985" lon="6.08278">
        <ele>972.96</ele>
        <time>2016-01-17T11:12:25Z</time>
      </trkpt>
      <trkpt lat="45.79849" lon="6.08278">
        <ele>972.79</ele>
        <time>2016-01-17T11:12:26Z</time>
      </trkpt>
      <trkpt lat="45.79848" lon="6.08279">
        <ele>972.79</ele>
        <time>2016-01-17T11:12:27Z</time>
      </trkpt>
      <trkpt lat="45.79848" lon="6.0828">
        <ele>972.77</ele>
        <time>2016-01-17T11:12:28Z</time>
      </trkpt>
      <trkpt lat="45.79847" lon="6.0828">
        <ele>972.91</ele>
        <time>2016-01-17T11:12:29Z</time>
      </trkpt>
      <trkpt lat="45.79847" lon="6.0828">
        <ele>973.76</ele>
        <time>2016-01-17T11:12:30Z</time>
      </trkpt>
      <trkpt lat="45.79846" lon="6.0828">
        <ele>973.74</ele>
        <time>2016-01-17T11:12:31Z</time>
      </trkpt>
      <trkpt lat="45.79846" lon="6.0828">
        <ele>973.75</ele>
        <time>2016-01-17T11:12:32Z</time>
      </trkpt>
      <trkpt lat="45.79845" lon="6.08281">
        <ele>974.5</ele>
        <time>2016-01-17T11:12:33Z</time>
      </trkpt>
      <trkpt lat="45.79845" lon="6.08282">
        <ele>974.29</ele>
        <time>2016-01-17T11:12:34Z</time>
      </trkpt>
      <trkpt lat="45.79845" lon="6.08282">
        <ele>974.47</ele>
        <time>2016-01-17T11:12:35Z</time>
      </trkpt>
      <trkpt lat="45.79844" lon="6.08283">
        <ele>974.44</ele>
        <time>2016-01-17T11:12:36Z</time>
      </trkpt>
      <trkpt lat="45.79845" lon="6.08284">
        <ele>974.43</ele>
        <time>2016-01-17T11:12:37Z</time>
      </trkpt>
      <trkpt lat="45.79843" lon="6.08285">
        <ele>975.01</ele>
        <time>2016-01-17T11:12:38Z</time>
      </trkpt>
      <trkpt lat="45.79842" lon="6.08285">
        <ele>975.15</ele>
        <time>2016-01-17T11:12:39Z</time>
      </trkpt>
      <trkpt lat="45.79842" lon="6.08285">
        <ele>975.15</ele>
        <time>2016-01-17T11:12:40Z</time>
      </trkpt>
      <trkpt lat="45.79841" lon="6.08286">
        <ele>976.01</ele>
        <time>2016-01-17T11:12:41Z</time>
      </trkpt>
      <trkpt lat="45.79841" lon="6.08286">
        <ele>975.98</ele>
        <time>2016-01-17T11:12:42Z</time>
      </trkpt>
      <trkpt lat="45.79841" lon="6.08286">
        <ele>975.99</ele>
        <time>2016-01-17T11:12:43Z</time>
      </trkpt>
      <trkpt lat="45.79841" lon="6.08286">
        <ele>975.76</ele>
        <time>2016-01-17T11:12:44Z</time>
      </trkpt>
      <trkpt lat="45.7984" lon="6.08286">
        <ele>975.76</ele>
        <time>2016-01-17T11:12:45Z</time>
      </trkpt>
      <trkpt lat="45.79839" lon="6.08285">
        <ele>975.93</ele>
        <time>2016-01-17T11:12:46Z</time>
      </trkpt>
      <trkpt lat="45.79839" lon="6.08286">
        <ele>975.88</ele>
        <time>2016-01-17T11:12:47Z</time>
      </trkpt>
      <trkpt lat="45.79838" lon="6.08285">
        <ele>976.81</ele>
        <time>2016-01-17T11:12:48Z</time>
      </trkpt>
      <trkpt lat="45.79837" lon="6.08285">
        <ele>976.79</ele>
        <time>2016-01-17T11:12:49Z</time>
      </trkpt>
      <trkpt lat="45.79838" lon="6.08285">
        <ele>976.56</ele>
        <time>2016-01-17T11:12:50Z</time>
      </trkpt>
      <trkpt lat="45.79838" lon="6.08286">
        <ele>976.73</ele>
        <time>2016-01-17T11:12:51Z</time>
      </trkpt>
      <trkpt lat="45.79837" lon="6.08287">
        <ele>976.73</ele>
        <time>2016-01-17T11:12:52Z</time>
      </trkpt>
      <trkpt lat="45.79838" lon="6.08287">
        <ele>977.81</ele>
        <time>2016-01-17T11:12:53Z</time>
      </trkpt>
      <trkpt lat="45.79838" lon="6.08286">
        <ele>977.78</ele>
        <time>2016-01-17T11:12:54Z</time>
      </trkpt>
      <trkpt lat="45.79837" lon="6.08286">
        <ele>977.76</ele>
        <time>2016-01-17T11:12:55Z</time>
      </trkpt>
      <trkpt lat="45.79837" lon="6.08286">
        <ele>977.75</ele>
        <time>2016-01-17T11:12:56Z</time>
      </trkpt>
      <trkpt lat="45.79837" lon="6.08287">
        <ele>977.55</ele>
        <time>2016-01-17T11:12:57Z</time>
      </trkpt>
      <trkpt lat="45.79837" lon="6.08288">
        <ele>978.34</ele>
        <time>2016-01-17T11:12:58Z</time>
      </trkpt>
      <trkpt lat="45.79836" lon="6.08288">
        <ele>978.52</ele>
        <time>2016-01-17T11:12:59Z</time>
      </trkpt>
      <trkpt lat="45.79836" lon="6.08289">
        <ele>978.47</ele>
        <time>2016-01-17T11:13:00Z</time>
      </trkpt>
      <trkpt lat="45.79836" lon="6.08289">
        <ele>978.47</ele>
        <time>2016-01-17T11:13:01Z</time>
      </trkpt>
      <trkpt lat="45.79835" lon="6.08289">
        <ele>979.22</ele>
        <time>2016-01-17T11:13:02Z</time>
      </trkpt>
      <trkpt lat="45.79835" lon="6.0829">
        <ele>979.2</ele>
        <time>2016-01-17T11:13:03Z</time>
      </trkpt>
      <trkpt lat="45.79835" lon="6.08291">
        <ele>979.19</ele>
        <time>2016-01-17T11:13:04Z</time>
      </trkpt>
      <trkpt lat="45.79835" lon="6.08291">
        <ele>980.06</ele>
        <time>2016-01-17T11:13:05Z</time>
      </trkpt>
      <trkpt lat="45.79835" lon="6.08292">
        <ele>980.01</ele>
        <time>2016-01-17T11:13:06Z</time>
      </trkpt>
      <trkpt lat="45.79835" lon="6.08292">
        <ele>979.99</ele>
        <time>2016-01-17T11:13:07Z</time>
      </trkpt>
      <trkpt lat="45.79833" lon="6.08293">
        <ele>979.81</ele>
        <time>2016-01-17T11:13:08Z</time>
      </trkpt>
      <trkpt lat="45.79833" lon="6.08294">
        <ele>979.99</ele>
        <time>2016-01-17T11:13:09Z</time>
      </trkpt>
      <trkpt lat="45.79832" lon="6.08295">
        <ele>979.97</ele>
        <time>2016-01-17T11:13:10Z</time>
      </trkpt>
      <trkpt lat="45.79832" lon="6.08295">
        <ele>980.87</ele>
        <time>2016-01-17T11:13:11Z</time>
      </trkpt>
      <trkpt lat="45.79831" lon="6.08296">
        <ele>980.84</ele>
        <time>2016-01-17T11:13:12Z</time>
      </trkpt>
      <trkpt lat="45.79831" lon="6.08296">
        <ele>980.82</ele>
        <time>2016-01-17T11:13:13Z</time>
      </trkpt>
      <trkpt lat="45.7983" lon="6.08296">
        <ele>981.35</ele>
        <time>2016-01-17T11:13:14Z</time>
      </trkpt>
      <trkpt lat="45.7983" lon="6.08296">
        <ele>981.56</ele>
        <time>2016-01-17T11:13:15Z</time>
      </trkpt>
      <trkpt lat="45.79829" lon="6.08297">
        <ele>981.58</ele>
        <time>2016-01-17T11:13:16Z</time>
      </trkpt>
      <trkpt lat="45.79829" lon="6.08298">
        <ele>981.49</ele>
        <time>2016-01-17T11:13:17Z</time>
      </trkpt>
      <trkpt lat="45.79828" lon="6.08299">
        <ele>981.28</ele>
        <time>2016-01-17T11:13:18Z</time>
      </trkpt>
      <trkpt lat="45.79828" lon="6.083">
        <ele>981.38</ele>
        <time>2016-01-17T11:13:19Z</time>
      </trkpt>
      <trkpt lat="45.79828" lon="6.08302">
        <ele>981.35</ele>
        <time>2016-01-17T11:13:20Z</time>
      </trkpt>
      <trkpt lat="45.79828" lon="6.08302">
        <ele>981.35</ele>
        <time>2016-01-17T11:13:21Z</time>
      </trkpt>
      <trkpt lat="45.79829" lon="6.08303">
        <ele>982.21</ele>
        <time>2016-01-17T11:13:22Z</time>
      </trkpt>
      <trkpt lat="45.7983" lon="6.08304">
        <ele>982.34</ele>
        <time>2016-01-17T11:13:23Z</time>
      </trkpt>
      <trkpt lat="45.7983" lon="6.08305">
        <ele>982.32</ele>
        <time>2016-01-17T11:13:24Z</time>
      </trkpt>
      <trkpt lat="45.79829" lon="6.08306">
        <ele>982.29</ele>
        <time>2016-01-17T11:13:25Z</time>
      </trkpt>
      <trkpt lat="45.7983" lon="6.08307">
        <ele>982.88</ele>
        <time>2016-01-17T11:13:26Z</time>
      </trkpt>
      <trkpt lat="45.7983" lon="6.08308">
        <ele>983.07</ele>
        <time>2016-01-17T11:13:27Z</time>
      </trkpt>
      <trkpt lat="45.79829" lon="6.08309">
        <ele>982.99</ele>
        <time>2016-01-17T11:13:28Z</time>
      </trkpt>
      <trkpt lat="45.79829" lon="6.0831">
        <ele>983.01</ele>
        <time>2016-01-17T11:13:29Z</time>
      </trkpt>
      <trkpt lat="45.79829" lon="6.08311">
        <ele>982.92</ele>
        <time>2016-01-17T11:13:30Z</time>
      </trkpt>
      <trkpt lat="45.79828" lon="6.08312">
        <ele>982.91</ele>
        <time>2016-01-17T11:13:31Z</time>
      </trkpt>
      <trkpt lat="45.79828" lon="6.08313">
        <ele>982.72</ele>
        <time>2016-01-17T11:13:32Z</time>
      </trkpt>
      <trkpt lat="45.79827" lon="6.08314">
        <ele>982.92</ele>
        <time>2016-01-17T11:13:33Z</time>
      </trkpt>
      <trkpt lat="45.79826" lon="6.08316">
        <ele>983.45</ele>
        <time>2016-01-17T11:13:34Z</time>
      </trkpt>
      <trkpt lat="45.79826" lon="6.08317">
        <ele>983.61</ele>
        <time>2016-01-17T11:13:35Z</time>
      </trkpt>
      <trkpt lat="45.79826" lon="6.08318">
        <ele>983.66</ele>
        <time>2016-01-17T11:13:36Z</time>
      </trkpt>
      <trkpt lat="45.79825" lon="6.08319">
        <ele>983.58</ele>
        <time>2016-01-17T11:13:37Z</time>
      </trkpt>
      <trkpt lat="45.79825" lon="6.0832">
        <ele>984.48</ele>
        <time>2016-01-17T11:13:38Z</time>
      </trkpt>
      <trkpt lat="45.79825" lon="6.08321">
        <ele>984.42</ele>
        <time>2016-01-17T11:13:39Z</time>
      </trkpt>
      <trkpt lat="45.79824" lon="6.08322">
        <ele>984.42</ele>
        <time>2016-01-17T11:13:40Z</time>
      </trkpt>
      <trkpt lat="45.79824" lon="6.08322">
        <ele>984.33</ele>
        <time>2016-01-17T11:13:41Z</time>
      </trkpt>
      <trkpt lat="45.79822" lon="6.08324">
        <ele>984.37</ele>
        <time>2016-01-17T11:13:42Z</time>
      </trkpt>
      <trkpt lat="45.79821" lon="6.08325">
        <ele>985.16</ele>
        <time>2016-01-17T11:13:43Z</time>
      </trkpt>
      <trkpt lat="45.79821" lon="6.08326">
        <ele>985.2</ele>
        <time>2016-01-17T11:13:44Z</time>
      </trkpt>
      <trkpt lat="45.7982" lon="6.08326">
        <ele>985.11</ele>
        <time>2016-01-17T11:13:45Z</time>
      </trkpt>
      <trkpt lat="45.7982" lon="6.08327">
        <ele>985.04</ele>
        <time>2016-01-17T11:13:46Z</time>
      </trkpt>
      <trkpt lat="45.79819" lon="6.08327">
        <ele>985.86</ele>
        <time>2016-01-17T11:13:47Z</time>
      </trkpt>
      <trkpt lat="45.79819" lon="6.08328">
        <ele>985.78</ele>
        <time>2016-01-17T11:13:48Z</time>
      </trkpt>
      <trkpt lat="45.79819" lon="6.08329">
        <ele>985.79</ele>
        <time>2016-01-17T11:13:49Z</time>
      </trkpt>
      <trkpt lat="45.79818" lon="6.0833">
        <ele>985.56</ele>
        <time>2016-01-17T11:13:50Z</time>
      </trkpt>
      <trkpt lat="45.79818" lon="6.0833">
        <ele>985.71</ele>
        <time>2016-01-17T11:13:51Z</time>
      </trkpt>
      <trkpt lat="45.79818" lon="6.08331">
        <ele>985.68</ele>
        <time>2016-01-17T11:13:52Z</time>
      </trkpt>
      <trkpt lat="45.79818" lon="6.08331">
        <ele>986.54</ele>
        <time>2016-01-17T11:13:53Z</time>
      </trkpt>
      <trkpt lat="45.79817" lon="6.08332">
        <ele>986.51</ele>
        <time>2016-01-17T11:13:54Z</time>
      </trkpt>
      <trkpt lat="45.79817" lon="6.08333">
        <ele>986.48</ele>
        <time>2016-01-17T11:13:55Z</time>
      </trkpt>
      <trkpt lat="45.79817" lon="6.08333">
        <ele>986.47</ele>
        <time>2016-01-17T11:13:56Z</time>
      </trkpt>
      <trkpt lat="45.79817" lon="6.08334">
        <ele>986.42</ele>
        <time>2016-01-17T11:13:57Z</time>
      </trkpt>
      <trkpt lat="45.79817" lon="6.08334">
        <ele>987.21</ele>
        <time>2016-01-17T11:13:58Z</time>
      </trkpt>
      <trkpt lat="45.79816" lon="6.08335">
        <ele>987.15</ele>
        <time>2016-01-17T11:13:59Z</time>
      </trkpt>
      <trkpt lat="45.79816" lon="6.08335">
        <ele>987.14</ele>
        <time>2016-01-17T11:14:00Z</time>
      </trkpt>
      <trkpt lat="45.79815" lon="6.08336">
        <ele>987.1</ele>
        <time>2016-01-17T11:14:01Z</time>
      </trkpt>
      <trkpt lat="45.79815" lon="6.08336">
        <ele>987.08</ele>
        <time>2016-01-17T11:14:02Z</time>
      </trkpt>
      <trkpt lat="45.79814" lon="6.08336">
        <ele>987.87</ele>
        <time>2016-01-17T11:14:03Z</time>
      </trkpt>
      <trkpt lat="45.79814" lon="6.08336">
        <ele>987.87</ele>
        <time>2016-01-17T11:14:04Z</time>
      </trkpt>
      <trkpt lat="45.79813" lon="6.08337">
        <ele>987.85</ele>
        <time>2016-01-17T11:14:05Z</time>
      </trkpt>
      <trkpt lat="45.79812" lon="6.08337">
        <ele>987.82</ele>
        <time>2016-01-17T11:14:06Z</time>
      </trkpt>
      <trkpt lat="45.79811" lon="6.08337">
        <ele>988.91</ele>
        <time>2016-01-17T11:14:07Z</time>
      </trkpt>
      <trkpt lat="45.79811" lon="6.08339">
        <ele>988.87</ele>
        <time>2016-01-17T11:14:08Z</time>
      </trkpt>
      <trkpt lat="45.7981" lon="6.08339">
        <ele>988.83</ele>
        <time>2016-01-17T11:14:09Z</time>
      </trkpt>
      <trkpt lat="45.7981" lon="6.0834">
        <ele>988.83</ele>
        <time>2016-01-17T11:14:10Z</time>
      </trkpt>
      <trkpt lat="45.79809" lon="6.0834">
        <ele>988.77</ele>
        <time>2016-01-17T11:14:11Z</time>
      </trkpt>
      <trkpt lat="45.79809" lon="6.08341">
        <ele>989.82</ele>
        <time>2016-01-17T11:14:12Z</time>
      </trkpt>
      <trkpt lat="45.79808" lon="6.08342">
        <ele>989.8</ele>
        <time>2016-01-17T11:14:13Z</time>
      </trkpt>
      <trkpt lat="45.79807" lon="6.08342">
        <ele>989.75</ele>
        <time>2016-01-17T11:14:14Z</time>
      </trkpt>
      <trkpt lat="45.79807" lon="6.08342">
        <ele>990.6</ele>
        <time>2016-01-17T11:14:15Z</time>
      </trkpt>
      <trkpt lat="45.79807" lon="6.08343">
        <ele>990.56</ele>
        <time>2016-01-17T11:14:16Z</time>
      </trkpt>
      <trkpt lat="45.79807" lon="6.08343">
        <ele>990.53</ele>
        <time>2016-01-17T11:14:17Z</time>
      </trkpt>
      <trkpt lat="45.79807" lon="6.08343">
        <ele>990.51</ele>
        <time>2016-01-17T11:14:18Z</time>
      </trkpt>
      <trkpt lat="45.79806" lon="6.08344">
        <ele>990.33</ele>
        <time>2016-01-17T11:14:19Z</time>
      </trkpt>
      <trkpt lat="45.79805" lon="6.08345">
        <ele>990.48</ele>
        <time>2016-01-17T11:14:20Z</time>
      </trkpt>
      <trkpt lat="45.79805" lon="6.08345">
        <ele>990.42</ele>
        <time>2016-01-17T11:14:21Z</time>
      </trkpt>
      <trkpt lat="45.79805" lon="6.08345">
        <ele>991.17</ele>
        <time>2016-01-17T11:14:22Z</time>
      </trkpt>
      <trkpt lat="45.79804" lon="6.08346">
        <ele>991.1</ele>
        <time>2016-01-17T11:14:23Z</time>
      </trkpt>
      <trkpt lat="45.79804" lon="6.08346">
        <ele>990.94</ele>
        <time>2016-01-17T11:14:24Z</time>
      </trkpt>
      <trkpt lat="45.79804" lon="6.08346">
        <ele>991.03</ele>
        <time>2016-01-17T11:14:25Z</time>
      </trkpt>
      <trkpt lat="45.79804" lon="6.08346">
        <ele>990.89</ele>
        <time>2016-01-17T11:14:26Z</time>
      </trkpt>
      <trkpt lat="45.79803" lon="6.08346">
        <ele>990.86</ele>
        <time>2016-01-17T11:14:27Z</time>
      </trkpt>
      <trkpt lat="45.79803" lon="6.08347">
        <ele>992.07</ele>
        <time>2016-01-17T11:14:28Z</time>
      </trkpt>
      <trkpt lat="45.79802" lon="6.08348">
        <ele>991.89</ele>
        <time>2016-01-17T11:14:29Z</time>
      </trkpt>
      <trkpt lat="45.79802" lon="6.08348">
        <ele>992.05</ele>
        <time>2016-01-17T11:14:30Z</time>
      </trkpt>
      <trkpt lat="45.79802" lon="6.08348">
        <ele>992.8</ele>
        <time>2016-01-17T11:14:31Z</time>
      </trkpt>
      <trkpt lat="45.79802" lon="6.08349">
        <ele>992.77</ele>
        <time>2016-01-17T11:14:32Z</time>
      </trkpt>
      <trkpt lat="45.79801" lon="6.0835">
        <ele>992.72</ele>
        <time>2016-01-17T11:14:33Z</time>
      </trkpt>
      <trkpt lat="45.79801" lon="6.0835">
        <ele>992.52</ele>
        <time>2016-01-17T11:14:34Z</time>
      </trkpt>
      <trkpt lat="45.798" lon="6.08351">
        <ele>992.65</ele>
        <time>2016-01-17T11:14:35Z</time>
      </trkpt>
      <trkpt lat="45.798" lon="6.08351">
        <ele>993.55</ele>
        <time>2016-01-17T11:14:36Z</time>
      </trkpt>
      <trkpt lat="45.798" lon="6.08351">
        <ele>993.36</ele>
        <time>2016-01-17T11:14:37Z</time>
      </trkpt>
      <trkpt lat="45.798" lon="6.08352">
        <ele>993.48</ele>
        <time>2016-01-17T11:14:38Z</time>
      </trkpt>
      <trkpt lat="45.798" lon="6.08352">
        <ele>993.44</ele>
        <time>2016-01-17T11:14:39Z</time>
      </trkpt>
      <trkpt lat="45.79799" lon="6.08352">
        <ele>993.27</ele>
        <time>2016-01-17T11:14:40Z</time>
      </trkpt>
      <trkpt lat="45.79799" lon="6.08352">
        <ele>994.6</ele>
        <time>2016-01-17T11:14:41Z</time>
      </trkpt>
      <trkpt lat="45.79798" lon="6.08352">
        <ele>994.55</ele>
        <time>2016-01-17T11:14:42Z</time>
      </trkpt>
      <trkpt lat="45.79798" lon="6.08353">
        <ele>994.54</ele>
        <time>2016-01-17T11:14:43Z</time>
      </trkpt>
      <trkpt lat="45.79798" lon="6.08353">
        <ele>994.54</ele>
        <time>2016-01-17T11:14:44Z</time>
      </trkpt>
      <trkpt lat="45.79798" lon="6.08354">
        <ele>994.48</ele>
        <time>2016-01-17T11:14:45Z</time>
      </trkpt>
      <trkpt lat="45.79797" lon="6.08354">
        <ele>994.46</ele>
        <time>2016-01-17T11:14:46Z</time>
      </trkpt>
      <trkpt lat="45.79797" lon="6.08355">
        <ele>994.42</ele>
        <time>2016-01-17T11:14:47Z</time>
      </trkpt>
      <trkpt lat="45.79797" lon="6.08355">
        <ele>994.37</ele>
        <time>2016-01-17T11:14:48Z</time>
      </trkpt>
      <trkpt lat="45.79796" lon="6.08356">
        <ele>994.34</ele>
        <time>2016-01-17T11:14:49Z</time>
      </trkpt>
      <trkpt lat="45.79796" lon="6.08357">
        <ele>994.35</ele>
        <time>2016-01-17T11:14:50Z</time>
      </trkpt>
      <trkpt lat="45.79795" lon="6.08358">
        <ele>995.28</ele>
        <time>2016-01-17T11:14:51Z</time>
      </trkpt>
      <trkpt lat="45.79795" lon="6.08358">
        <ele>995.45</ele>
        <time>2016-01-17T11:14:52Z</time>
      </trkpt>
      <trkpt lat="45.79794" lon="6.08358">
        <ele>995.38</ele>
        <time>2016-01-17T11:14:53Z</time>
      </trkpt>
      <trkpt lat="45.79794" lon="6.08359">
        <ele>995.38</ele>
        <time>2016-01-17T11:14:54Z</time>
      </trkpt>
      <trkpt lat="45.79793" lon="6.0836">
        <ele>995.34</ele>
        <time>2016-01-17T11:14:55Z</time>
      </trkpt>
      <trkpt lat="45.79793" lon="6.08361">
        <ele>995.31</ele>
        <time>2016-01-17T11:14:56Z</time>
      </trkpt>
      <trkpt lat="45.79792" lon="6.08361">
        <ele>995.29</ele>
        <time>2016-01-17T11:14:57Z</time>
      </trkpt>
      <trkpt lat="45.79791" lon="6.08361">
        <ele>995.26</ele>
        <time>2016-01-17T11:14:58Z</time>
      </trkpt>
      <trkpt lat="45.79791" lon="6.08362">
        <ele>996.2</ele>
        <time>2016-01-17T11:14:59Z</time>
      </trkpt>
      <trkpt lat="45.7979" lon="6.08363">
        <ele>996.15</ele>
        <time>2016-01-17T11:15:00Z</time>
      </trkpt>
      <trkpt lat="45.79789" lon="6.08363">
        <ele>996.12</ele>
        <time>2016-01-17T11:15:01Z</time>
      </trkpt>
      <trkpt lat="45.79789" lon="6.08364">
        <ele>996.11</ele>
        <time>2016-01-17T11:15:02Z</time>
      </trkpt>
      <trkpt lat="45.79788" lon="6.08364">
        <ele>996.05</ele>
        <time>2016-01-17T11:15:03Z</time>
      </trkpt>
      <trkpt lat="45.79787" lon="6.08364">
        <ele>996.01</ele>
        <time>2016-01-17T11:15:04Z</time>
      </trkpt>
      <trkpt lat="45.79787" lon="6.08364">
        <ele>997.01</ele>
        <time>2016-01-17T11:15:05Z</time>
      </trkpt>
      <trkpt lat="45.79787" lon="6.08365">
        <ele>996.98</ele>
        <time>2016-01-17T11:15:06Z</time>
      </trkpt>
      <trkpt lat="45.79787" lon="6.08365">
        <ele>996.95</ele>
        <time>2016-01-17T11:15:07Z</time>
      </trkpt>
      <trkpt lat="45.79786" lon="6.08366">
        <ele>996.92</ele>
        <time>2016-01-17T11:15:08Z</time>
      </trkpt>
      <trkpt lat="45.79785" lon="6.08366">
        <ele>996.87</ele>
        <time>2016-01-17T11:15:09Z</time>
      </trkpt>
      <trkpt lat="45.79785" lon="6.08367">
        <ele>996.85</ele>
        <time>2016-01-17T11:15:10Z</time>
      </trkpt>
      <trkpt lat="45.79784" lon="6.08367">
        <ele>996.82</ele>
        <time>2016-01-17T11:15:11Z</time>
      </trkpt>
      <trkpt lat="45.79784" lon="6.08368">
        <ele>996.79</ele>
        <time>2016-01-17T11:15:12Z</time>
      </trkpt>
      <trkpt lat="45.79784" lon="6.08368">
        <ele>998.11</ele>
        <time>2016-01-17T11:15:13Z</time>
      </trkpt>
      <trkpt lat="45.79783" lon="6.08369">
        <ele>998.08</ele>
        <time>2016-01-17T11:15:14Z</time>
      </trkpt>
      <trkpt lat="45.79783" lon="6.08369">
        <ele>998.03</ele>
        <time>2016-01-17T11:15:15Z</time>
      </trkpt>
      <trkpt lat="45.79782" lon="6.0837">
        <ele>998.02</ele>
        <time>2016-01-17T11:15:16Z</time>
      </trkpt>
      <trkpt lat="45.79782" lon="6.0837">
        <ele>997.95</ele>
        <time>2016-01-17T11:15:17Z</time>
      </trkpt>
      <trkpt lat="45.79781" lon="6.0837">
        <ele>997.89</ele>
        <time>2016-01-17T11:15:18Z</time>
      </trkpt>
      <trkpt lat="45.7978" lon="6.0837">
        <ele>997.9</ele>
        <time>2016-01-17T11:15:19Z</time>
      </trkpt>
      <trkpt lat="45.79778" lon="6.0837">
        <ele>998.91</ele>
        <time>2016-01-17T11:15:20Z</time>
      </trkpt>
      <trkpt lat="45.79778" lon="6.08371">
        <ele>998.86</ele>
        <time>2016-01-17T11:15:21Z</time>
      </trkpt>
      <trkpt lat="45.79777" lon="6.08372">
        <ele>998.83</ele>
        <time>2016-01-17T11:15:22Z</time>
      </trkpt>
      <trkpt lat="45.79776" lon="6.08372">
        <ele>998.82</ele>
        <time>2016-01-17T11:15:23Z</time>
      </trkpt>
      <trkpt lat="45.79776" lon="6.08372">
        <ele>998.8</ele>
        <time>2016-01-17T11:15:24Z</time>
      </trkpt>
      <trkpt lat="45.79775" lon="6.08372">
        <ele>998.75</ele>
        <time>2016-01-17T11:15:25Z</time>
      </trkpt>
      <trkpt lat="45.79774" lon="6.08373">
        <ele>998.76</ele>
        <time>2016-01-17T11:15:26Z</time>
      </trkpt>
      <trkpt lat="45.79774" lon="6.08373">
        <ele>998.67</ele>
        <time>2016-01-17T11:15:27Z</time>
      </trkpt>
      <trkpt lat="45.79769" lon="6.08372">
        <ele>999.45</ele>
        <time>2016-01-17T11:15:28Z</time>
      </trkpt>
      <trkpt lat="45.79769" lon="6.08372">
        <ele>999.59</ele>
        <time>2016-01-17T11:15:29Z</time>
      </trkpt>
      <trkpt lat="45.79767" lon="6.08372">
        <ele>999.39</ele>
        <time>2016-01-17T11:15:30Z</time>
      </trkpt>
      <trkpt lat="45.79767" lon="6.08372">
        <ele>999.49</ele>
        <time>2016-01-17T11:15:31Z</time>
      </trkpt>
      <trkpt lat="45.79764" lon="6.08373">
        <ele>999.32</ele>
        <time>2016-01-17T11:15:32Z</time>
      </trkpt>
      <trkpt lat="45.79763" lon="6.08373">
        <ele>999.43</ele>
        <time>2016-01-17T11:15:33Z</time>
      </trkpt>
      <trkpt lat="45.79762" lon="6.08373">
        <ele>999.41</ele>
        <time>2016-01-17T11:15:34Z</time>
      </trkpt>
      <trkpt lat="45.79762" lon="6.08373">
        <ele>999.37</ele>
        <time>2016-01-17T11:15:35Z</time>
      </trkpt>
      <trkpt lat="45.79759" lon="6.08373">
        <ele>999.2</ele>
        <time>2016-01-17T11:15:36Z</time>
      </trkpt>
      <trkpt lat="45.79758" lon="6.08372">
        <ele>999.34</ele>
        <time>2016-01-17T11:15:37Z</time>
      </trkpt>
      <trkpt lat="45.79758" lon="6.08371">
        <ele>999.29</ele>
        <time>2016-01-17T11:15:38Z</time>
      </trkpt>
      <trkpt lat="45.79757" lon="6.0837">
        <ele>999.24</ele>
        <time>2016-01-17T11:15:39Z</time>
      </trkpt>
      <trkpt lat="45.79757" lon="6.08369">
        <ele>999.25</ele>
        <time>2016-01-17T11:15:40Z</time>
      </trkpt>
      <trkpt lat="45.79756" lon="6.08368">
        <ele>999.11</ele>
        <time>2016-01-17T11:15:41Z</time>
      </trkpt>
      <trkpt lat="45.79756" lon="6.08368">
        <ele>999.16</ele>
        <time>2016-01-17T11:15:42Z</time>
      </trkpt>
      <trkpt lat="45.79755" lon="6.08365">
        <ele>999.07</ele>
        <time>2016-01-17T11:15:43Z</time>
      </trkpt>
      <trkpt lat="45.79755" lon="6.08363">
        <ele>999.13</ele>
        <time>2016-01-17T11:15:44Z</time>
      </trkpt>
      <trkpt lat="45.79755" lon="6.08362">
        <ele>999.1</ele>
        <time>2016-01-17T11:15:45Z</time>
      </trkpt>
      <trkpt lat="45.79755" lon="6.08361">
        <ele>999.09</ele>
        <time>2016-01-17T11:15:46Z</time>
      </trkpt>
      <trkpt lat="45.79755" lon="6.08361">
        <ele>999.06</ele>
        <time>2016-01-17T11:15:47Z</time>
      </trkpt>
      <trkpt lat="45.79754" lon="6.0836">
        <ele>998.97</ele>
        <time>2016-01-17T11:15:48Z</time>
      </trkpt>
      <trkpt lat="45.79752" lon="6.08359">
        <ele>998.95</ele>
        <time>2016-01-17T11:15:49Z</time>
      </trkpt>
      <trkpt lat="45.79751" lon="6.08357">
        <ele>998.93</ele>
        <time>2016-01-17T11:15:50Z</time>
      </trkpt>
      <trkpt lat="45.7975" lon="6.08356">
        <ele>998.92</ele>
        <time>2016-01-17T11:15:51Z</time>
      </trkpt>
      <trkpt lat="45.7975" lon="6.08355">
        <ele>998.95</ele>
        <time>2016-01-17T11:15:52Z</time>
      </trkpt>
      <trkpt lat="45.79749" lon="6.08354">
        <ele>998.89</ele>
        <time>2016-01-17T11:15:53Z</time>
      </trkpt>
      <trkpt lat="45.79748" lon="6.08353">
        <ele>998.9</ele>
        <time>2016-01-17T11:15:54Z</time>
      </trkpt>
      <trkpt lat="45.79748" lon="6.08353">
        <ele>998.81</ele>
        <time>2016-01-17T11:15:55Z</time>
      </trkpt>
      <trkpt lat="45.79748" lon="6.08353">
        <ele>998.88</ele>
        <time>2016-01-17T11:15:56Z</time>
      </trkpt>
      <trkpt lat="45.79747" lon="6.08353">
        <ele>998.84</ele>
        <time>2016-01-17T11:15:57Z</time>
      </trkpt>
      <trkpt lat="45.79747" lon="6.08353">
        <ele>998.85</ele>
        <time>2016-01-17T11:15:58Z</time>
      </trkpt>
      <trkpt lat="45.79747" lon="6.08352">
        <ele>998.81</ele>
        <time>2016-01-17T11:15:59Z</time>
      </trkpt>
      <trkpt lat="45.79747" lon="6.08352">
        <ele>998.8</ele>
        <time>2016-01-17T11:16:00Z</time>
      </trkpt>
      <trkpt lat="45.79747" lon="6.08353">
        <ele>998.82</ele>
        <time>2016-01-17T11:16:01Z</time>
      </trkpt>
      <trkpt lat="45.79747" lon="6.08353">
        <ele>998.8</ele>
        <time>2016-01-17T11:16:02Z</time>
      </trkpt>
      <trkpt lat="45.79747" lon="6.08353">
        <ele>998.78</ele>
        <time>2016-01-17T11:16:03Z</time>
      </trkpt>
      <trkpt lat="45.79747" lon="6.08354">
        <ele>998.77</ele>
        <time>2016-01-17T11:16:04Z</time>
      </trkpt>
      <trkpt lat="45.79747" lon="6.08354">
        <ele>998.73</ele>
        <time>2016-01-17T11:16:05Z</time>
      </trkpt>
      <trkpt lat="45.79747" lon="6.08354">
        <ele>998.74</ele>
        <time>2016-01-17T11:16:06Z</time>
      </trkpt>
      <trkpt lat="45.79747" lon="6.08355">
        <ele>998.7</ele>
        <time>2016-01-17T11:16:07Z</time>
      </trkpt>
      <trkpt lat="45.79746" lon="6.08355">
        <ele>998.72</ele>
        <time>2016-01-17T11:16:08Z</time>
      </trkpt>
      <trkpt lat="45.79746" lon="6.08355">
        <ele>998.71</ele>
        <time>2016-01-17T11:16:09Z</time>
      </trkpt>
      <trkpt lat="45.79746" lon="6.08356">
        <ele>998.7</ele>
        <time>2016-01-17T11:16:10Z</time>
      </trkpt>
      <trkpt lat="45.79746" lon="6.08356">
        <ele>998.7</ele>
        <time>2016-01-17T11:16:11Z</time>
      </trkpt>
      <trkpt lat="45.79746" lon="6.08356">
        <ele>998.69</ele>
        <time>2016-01-17T11:16:12Z</time>
      </trkpt>
      <trkpt lat="45.79746" lon="6.08356">
        <ele>998.68</ele>
        <time>2016-01-17T11:16:13Z</time>
      </trkpt>
      <trkpt lat="45.79745" lon="6.08356">
        <ele>998.67</ele>
        <time>2016-01-17T11:16:14Z</time>
      </trkpt>
      <trkpt lat="45.79745" lon="6.08356">
        <ele>998.65</ele>
        <time>2016-01-17T11:16:15Z</time>
      </trkpt>
      <trkpt lat="45.79746" lon="6.08356">
        <ele>998.65</ele>
        <time>2016-01-17T11:16:16Z</time>
      </trkpt>
      <trkpt lat="45.79745" lon="6.08356">
        <ele>998.64</ele>
        <time>2016-01-17T11:16:17Z</time>
      </trkpt>
      <trkpt lat="45.79745" lon="6.08356">
        <ele>998.62</ele>
        <time>2016-01-17T11:16:18Z</time>
      </trkpt>
      <trkpt lat="45.79746" lon="6.08355">
        <ele>998.63</ele>
        <time>2016-01-17T11:16:19Z</time>
      </trkpt>
      <trkpt lat="45.79746" lon="6.08355">
        <ele>998.62</ele>
        <time>2016-01-17T11:16:20Z</time>
      </trkpt>
      <trkpt lat="45.79746" lon="6.08355">
        <ele>998.62</ele>
        <time>2016-01-17T11:16:21Z</time>
      </trkpt>
      <trkpt lat="45.79746" lon="6.08355">
        <ele>998.61</ele>
        <time>2016-01-17T11:16:22Z</time>
      </trkpt>
      <trkpt lat="45.79747" lon="6.08355">
        <ele>998.57</ele>
        <time>2016-01-17T11:16:23Z</time>
      </trkpt>
      <trkpt lat="45.79747" lon="6.08355">
        <ele>998.59</ele>
        <time>2016-01-17T11:16:24Z</time>
      </trkpt>
      <trkpt lat="45.79747" lon="6.08355">
        <ele>998.58</ele>
        <time>2016-01-17T11:16:25Z</time>
      </trkpt>
      <trkpt lat="45.79747" lon="6.08355">
        <ele>998.57</ele>
        <time>2016-01-17T11:16:26Z</time>
      </trkpt>
      <trkpt lat="45.79747" lon="6.08355">
        <ele>998.57</ele>
        <time>2016-01-17T11:16:27Z</time>
      </trkpt>
      <trkpt lat="45.79747" lon="6.08355">
        <ele>998.57</ele>
        <time>2016-01-17T11:16:28Z</time>
      </trkpt>
      <trkpt lat="45.79747" lon="6.08355">
        <ele>998.55</ele>
        <time>2016-01-17T11:16:29Z</time>
      </trkpt>
      <trkpt lat="45.79747" lon="6.08354">
        <ele>998.55</ele>
        <time>2016-01-17T11:16:30Z</time>
      </trkpt>
      <trkpt lat="45.79747" lon="6.08354">
        <ele>998.57</ele>
        <time>2016-01-17T11:16:31Z</time>
      </trkpt>
      <trkpt lat="45.79747" lon="6.08354">
        <ele>998.54</ele>
        <time>2016-01-17T11:16:32Z</time>
      </trkpt>
      <trkpt lat="45.79747" lon="6.08354">
        <ele>998.53</ele>
        <time>2016-01-17T11:16:33Z</time>
      </trkpt>
      <trkpt lat="45.79748" lon="6.08354">
        <ele>998.52</ele>
        <time>2016-01-17T11:16:34Z</time>
      </trkpt>
      <trkpt lat="45.79747" lon="6.08354">
        <ele>998.52</ele>
        <time>2016-01-17T11:16:35Z</time>
      </trkpt>
      <trkpt lat="45.79747" lon="6.08353">
        <ele>998.51</ele>
        <time>2016-01-17T11:16:36Z</time>
      </trkpt>
      <trkpt lat="45.79747" lon="6.08353">
        <ele>998.51</ele>
        <time>2016-01-17T11:16:37Z</time>
      </trkpt>
      <trkpt lat="45.79747" lon="6.08353">
        <ele>999.29</ele>
        <time>2016-01-17T11:16:38Z</time>
      </trkpt>
      <trkpt lat="45.79747" lon="6.08353">
        <ele>999.28</ele>
        <time>2016-01-17T11:16:39Z</time>
      </trkpt>
      <trkpt lat="45.79747" lon="6.08352">
        <ele>999.27</ele>
        <time>2016-01-17T11:16:40Z</time>
      </trkpt>
      <trkpt lat="45.79747" lon="6.08352">
        <ele>999.27</ele>
        <time>2016-01-17T11:16:41Z</time>
      </trkpt>
      <trkpt lat="45.79747" lon="6.08353">
        <ele>999.27</ele>
        <time>2016-01-17T11:16:42Z</time>
      </trkpt>
      <trkpt lat="45.79747" lon="6.08353">
        <ele>999.26</ele>
        <time>2016-01-17T11:16:43Z</time>
      </trkpt>
      <trkpt lat="45.79747" lon="6.08353">
        <ele>999.25</ele>
        <time>2016-01-17T11:16:44Z</time>
      </trkpt>
      <trkpt lat="45.79747" lon="6.08353">
        <ele>999.24</ele>
        <time>2016-01-17T11:16:45Z</time>
      </trkpt>
      <trkpt lat="45.79747" lon="6.08353">
        <ele>999.25</ele>
        <time>2016-01-17T11:16:46Z</time>
      </trkpt>
      <trkpt lat="45.79746" lon="6.08353">
        <ele>999.24</ele>
        <time>2016-01-17T11:16:47Z</time>
      </trkpt>
      <trkpt lat="45.79746" lon="6.08353">
        <ele>999.23</ele>
        <time>2016-01-17T11:16:48Z</time>
      </trkpt>
      <trkpt lat="45.79747" lon="6.08354">
        <ele>999.23</ele>
        <time>2016-01-17T11:16:49Z</time>
      </trkpt>
      <trkpt lat="45.79747" lon="6.08354">
        <ele>999.21</ele>
        <time>2016-01-17T11:16:50Z</time>
      </trkpt>
      <trkpt lat="45.79747" lon="6.08354">
        <ele>999.22</ele>
        <time>2016-01-17T11:16:51Z</time>
      </trkpt>
      <trkpt lat="45.79747" lon="6.08354">
        <ele>999.22</ele>
        <time>2016-01-17T11:16:52Z</time>
      </trkpt>
      <trkpt lat="45.79747" lon="6.08354">
        <ele>999.21</ele>
        <time>2016-01-17T11:16:53Z</time>
      </trkpt>
      <trkpt lat="45.79747" lon="6.08354">
        <ele>999.21</ele>
        <time>2016-01-17T11:16:54Z</time>
      </trkpt>
      <trkpt lat="45.79747" lon="6.08355">
        <ele>999.21</ele>
        <time>2016-01-17T11:16:55Z</time>
      </trkpt>
      <trkpt lat="45.79747" lon="6.08355">
        <ele>999.19</ele>
        <time>2016-01-17T11:16:56Z</time>
      </trkpt>
      <trkpt lat="45.79747" lon="6.08354">
        <ele>999.2</ele>
        <time>2016-01-17T11:16:57Z</time>
      </trkpt>
      <trkpt lat="45.79747" lon="6.08354">
        <ele>999.19</ele>
        <time>2016-01-17T11:16:58Z</time>
      </trkpt>
      <trkpt lat="45.79746" lon="6.08354">
        <ele>999.19</ele>
        <time>2016-01-17T11:16:59Z</time>
      </trkpt>
      <trkpt lat="45.79746" lon="6.08354">
        <ele>999.17</ele>
        <time>2016-01-17T11:17:00Z</time>
      </trkpt>
      <trkpt lat="45.79746" lon="6.08354">
        <ele>999.18</ele>
        <time>2016-01-17T11:17:01Z</time>
      </trkpt>
      <trkpt lat="45.79746" lon="6.08354">
        <ele>999.17</ele>
        <time>2016-01-17T11:17:02Z</time>
      </trkpt>
      <trkpt lat="45.79746" lon="6.08354">
        <ele>999.17</ele>
        <time>2016-01-17T11:17:03Z</time>
      </trkpt>
      <trkpt lat="45.79746" lon="6.08354">
        <ele>999.17</ele>
        <time>2016-01-17T11:17:04Z</time>
      </trkpt>
      <trkpt lat="45.79745" lon="6.08354">
        <ele>999.17</ele>
        <time>2016-01-17T11:17:05Z</time>
      </trkpt>
      <trkpt lat="45.79745" lon="6.08354">
        <ele>999.17</ele>
        <time>2016-01-17T11:17:06Z</time>
      </trkpt>
      <trkpt lat="45.79745" lon="6.08354">
        <ele>999.16</ele>
        <time>2016-01-17T11:17:07Z</time>
      </trkpt>
      <trkpt lat="45.79745" lon="6.08354">
        <ele>999.16</ele>
        <time>2016-01-17T11:17:08Z</time>
      </trkpt>
      <trkpt lat="45.79745" lon="6.08354">
        <ele>999.16</ele>
        <time>2016-01-17T11:17:09Z</time>
      </trkpt>
      <trkpt lat="45.79744" lon="6.08355">
        <ele>999.15</ele>
        <time>2016-01-17T11:17:10Z</time>
      </trkpt>
      <trkpt lat="45.79744" lon="6.08356">
        <ele>999.16</ele>
        <time>2016-01-17T11:17:11Z</time>
      </trkpt>
      <trkpt lat="45.79744" lon="6.08356">
        <ele>999.16</ele>
        <time>2016-01-17T11:17:12Z</time>
      </trkpt>
      <trkpt lat="45.79744" lon="6.08356">
        <ele>999.18</ele>
        <time>2016-01-17T11:17:13Z</time>
      </trkpt>
      <trkpt lat="45.79744" lon="6.08357">
        <ele>999.14</ele>
        <time>2016-01-17T11:17:14Z</time>
      </trkpt>
      <trkpt lat="45.79744" lon="6.08357">
        <ele>999.17</ele>
        <time>2016-01-17T11:17:15Z</time>
      </trkpt>
      <trkpt lat="45.79745" lon="6.08357">
        <ele>999.15</ele>
        <time>2016-01-17T11:17:16Z</time>
      </trkpt>
      <trkpt lat="45.79745" lon="6.08358">
        <ele>999.14</ele>
        <time>2016-01-17T11:17:17Z</time>
      </trkpt>
      <trkpt lat="45.79745" lon="6.08358">
        <ele>999.14</ele>
        <time>2016-01-17T11:17:18Z</time>
      </trkpt>
      <trkpt lat="45.79745" lon="6.08358">
        <ele>999.15</ele>
        <time>2016-01-17T11:17:19Z</time>
      </trkpt>
      <trkpt lat="45.79745" lon="6.08358">
        <ele>999.14</ele>
        <time>2016-01-17T11:17:20Z</time>
      </trkpt>
      <trkpt lat="45.79746" lon="6.08359">
        <ele>999.13</ele>
        <time>2016-01-17T11:17:21Z</time>
      </trkpt>
      <trkpt lat="45.79746" lon="6.08359">
        <ele>999.13</ele>
        <time>2016-01-17T11:17:22Z</time>
      </trkpt>
      <trkpt lat="45.79746" lon="6.08359">
        <ele>999.12</ele>
        <time>2016-01-17T11:17:23Z</time>
      </trkpt>
      <trkpt lat="45.79746" lon="6.08359">
        <ele>999.12</ele>
        <time>2016-01-17T11:17:24Z</time>
      </trkpt>
      <trkpt lat="45.79746" lon="6.08359">
        <ele>999.12</ele>
        <time>2016-01-17T11:17:25Z</time>
      </trkpt>
      <trkpt lat="45.79746" lon="6.08359">
        <ele>999.12</ele>
        <time>2016-01-17T11:17:26Z</time>
      </trkpt>
      <trkpt lat="45.79746" lon="6.08359">
        <ele>999.11</ele>
        <time>2016-01-17T11:17:27Z</time>
      </trkpt>
      <trkpt lat="45.79746" lon="6.08359">
        <ele>999.11</ele>
        <time>2016-01-17T11:17:28Z</time>
      </trkpt>
      <trkpt lat="45.79746" lon="6.08359">
        <ele>999.11</ele>
        <time>2016-01-17T11:17:29Z</time>
      </trkpt>
      <trkpt lat="45.79745" lon="6.08359">
        <ele>999.12</ele>
        <time>2016-01-17T11:17:30Z</time>
      </trkpt>
      <trkpt lat="45.79745" lon="6.08359">
        <ele>999.1</ele>
        <time>2016-01-17T11:17:31Z</time>
      </trkpt>
      <trkpt lat="45.79745" lon="6.08359">
        <ele>999.1</ele>
        <time>2016-01-17T11:17:32Z</time>
      </trkpt>
      <trkpt lat="45.79744" lon="6.0836">
        <ele>999.13</ele>
        <time>2016-01-17T11:17:33Z</time>
      </trkpt>
      <trkpt lat="45.79744" lon="6.0836">
        <ele>999.12</ele>
        <time>2016-01-17T11:17:34Z</time>
      </trkpt>
      <trkpt lat="45.79744" lon="6.0836">
        <ele>999.1</ele>
        <time>2016-01-17T11:17:35Z</time>
      </trkpt>
      <trkpt lat="45.79744" lon="6.0836">
        <ele>999.12</ele>
        <time>2016-01-17T11:17:36Z</time>
      </trkpt>
      <trkpt lat="45.79745" lon="6.0836">
        <ele>999.1</ele>
        <time>2016-01-17T11:17:37Z</time>
      </trkpt>
      <trkpt lat="45.79745" lon="6.0836">
        <ele>999.13</ele>
        <time>2016-01-17T11:17:38Z</time>
      </trkpt>
      <trkpt lat="45.79745" lon="6.0836">
        <ele>999.1</ele>
        <time>2016-01-17T11:17:39Z</time>
      </trkpt>
      <trkpt lat="45.79745" lon="6.08361">
        <ele>999.17</ele>
        <time>2016-01-17T11:17:40Z</time>
      </trkpt>
      <trkpt lat="45.79745" lon="6.08361">
        <ele>999.15</ele>
        <time>2016-01-17T11:17:41Z</time>
      </trkpt>
      <trkpt lat="45.79745" lon="6.08361">
        <ele>999.12</ele>
        <time>2016-01-17T11:17:42Z</time>
      </trkpt>
      <trkpt lat="45.79745" lon="6.08361">
        <ele>999.1</ele>
        <time>2016-01-17T11:17:43Z</time>
      </trkpt>
      <trkpt lat="45.79745" lon="6.08362">
        <ele>999.1</ele>
        <time>2016-01-17T11:17:44Z</time>
      </trkpt>
      <trkpt lat="45.79744" lon="6.08362">
        <ele>999.14</ele>
        <time>2016-01-17T11:17:45Z</time>
      </trkpt>
      <trkpt lat="45.79744" lon="6.08362">
        <ele>999.12</ele>
        <time>2016-01-17T11:17:46Z</time>
      </trkpt>
      <trkpt lat="45.79744" lon="6.08362">
        <ele>999.09</ele>
        <time>2016-01-17T11:17:47Z</time>
      </trkpt>
      <trkpt lat="45.79744" lon="6.08361">
        <ele>999.09</ele>
        <time>2016-01-17T11:17:48Z</time>
      </trkpt>
      <trkpt lat="45.79744" lon="6.08361">
        <ele>999.09</ele>
        <time>2016-01-17T11:17:49Z</time>
      </trkpt>
      <trkpt lat="45.79744" lon="6.08361">
        <ele>999.08</ele>
        <time>2016-01-17T11:17:50Z</time>
      </trkpt>
      <trkpt lat="45.79744" lon="6.08361">
        <ele>999.07</ele>
        <time>2016-01-17T11:17:51Z</time>
      </trkpt>
      <trkpt lat="45.79744" lon="6.08361">
        <ele>999.08</ele>
        <time>2016-01-17T11:17:52Z</time>
      </trkpt>
      <trkpt lat="45.79744" lon="6.0836">
        <ele>999.06</ele>
        <time>2016-01-17T11:17:53Z</time>
      </trkpt>
      <trkpt lat="45.79744" lon="6.0836">
        <ele>999.08</ele>
        <time>2016-01-17T11:17:54Z</time>
      </trkpt>
      <trkpt lat="45.79743" lon="6.0836">
        <ele>999.09</ele>
        <time>2016-01-17T11:17:55Z</time>
      </trkpt>
      <trkpt lat="45.79743" lon="6.0836">
        <ele>999.09</ele>
        <time>2016-01-17T11:17:56Z</time>
      </trkpt>
      <trkpt lat="45.79743" lon="6.08361">
        <ele>999.09</ele>
        <time>2016-01-17T11:17:57Z</time>
      </trkpt>
      <trkpt lat="45.79743" lon="6.08361">
        <ele>999.13</ele>
        <time>2016-01-17T11:17:58Z</time>
      </trkpt>
      <trkpt lat="45.79743" lon="6.08361">
        <ele>999.08</ele>
        <time>2016-01-17T11:17:59Z</time>
      </trkpt>
      <trkpt lat="45.79744" lon="6.08361">
        <ele>999.1</ele>
        <time>2016-01-17T11:18:00Z</time>
      </trkpt>
      <trkpt lat="45.79744" lon="6.08362">
        <ele>999.04</ele>
        <time>2016-01-17T11:18:01Z</time>
      </trkpt>
      <trkpt lat="45.79744" lon="6.08362">
        <ele>999.1</ele>
        <time>2016-01-17T11:18:02Z</time>
      </trkpt>
      <trkpt lat="45.79744" lon="6.08362">
        <ele>999.1</ele>
        <time>2016-01-17T11:18:03Z</time>
      </trkpt>
      <trkpt lat="45.79744" lon="6.08362">
        <ele>999.1</ele>
        <time>2016-01-17T11:18:04Z</time>
      </trkpt>
      <trkpt lat="45.79745" lon="6.08363">
        <ele>999.1</ele>
        <time>2016-01-17T11:18:05Z</time>
      </trkpt>
      <trkpt lat="45.79744" lon="6.08363">
        <ele>999.11</ele>
        <time>2016-01-17T11:18:06Z</time>
      </trkpt>
      <trkpt lat="45.79745" lon="6.08363">
        <ele>999.11</ele>
        <time>2016-01-17T11:18:07Z</time>
      </trkpt>
      <trkpt lat="45.79745" lon="6.08363">
        <ele>999.11</ele>
        <time>2016-01-17T11:18:08Z</time>
      </trkpt>
      <trkpt lat="45.79745" lon="6.08364">
        <ele>999.11</ele>
        <time>2016-01-17T11:18:09Z</time>
      </trkpt>
      <trkpt lat="45.79745" lon="6.08364">
        <ele>999.15</ele>
        <time>2016-01-17T11:18:10Z</time>
      </trkpt>
      <trkpt lat="45.79745" lon="6.08364">
        <ele>999.12</ele>
        <time>2016-01-17T11:18:11Z</time>
      </trkpt>
      <trkpt lat="45.79745" lon="6.08364">
        <ele>999.16</ele>
        <time>2016-01-17T11:18:12Z</time>
      </trkpt>
      <trkpt lat="45.79745" lon="6.08364">
        <ele>999.12</ele>
        <time>2016-01-17T11:18:13Z</time>
      </trkpt>
      <trkpt lat="45.79745" lon="6.08364">
        <ele>999.12</ele>
        <time>2016-01-17T11:18:14Z</time>
      </trkpt>
      <trkpt lat="45.79746" lon="6.08364">
        <ele>999.13</ele>
        <time>2016-01-17T11:18:15Z</time>
      </trkpt>
      <trkpt lat="45.79746" lon="6.08364">
        <ele>999.14</ele>
        <time>2016-01-17T11:18:16Z</time>
      </trkpt>
      <trkpt lat="45.79745" lon="6.08364">
        <ele>999.13</ele>
        <time>2016-01-17T11:18:17Z</time>
      </trkpt>
      <trkpt lat="45.79745" lon="6.08364">
        <ele>999.13</ele>
        <time>2016-01-17T11:18:18Z</time>
      </trkpt>
      <trkpt lat="45.79745" lon="6.08365">
        <ele>999.14</ele>
        <time>2016-01-17T11:18:19Z</time>
      </trkpt>
      <trkpt lat="45.79745" lon="6.08364">
        <ele>999.14</ele>
        <time>2016-01-17T11:18:20Z</time>
      </trkpt>
      <trkpt lat="45.79745" lon="6.08364">
        <ele>999.18</ele>
        <time>2016-01-17T11:18:21Z</time>
      </trkpt>
      <trkpt lat="45.79745" lon="6.08364">
        <ele>999.15</ele>
        <time>2016-01-17T11:18:22Z</time>
      </trkpt>
      <trkpt lat="45.79746" lon="6.08365">
        <ele>999.18</ele>
        <time>2016-01-17T11:18:23Z</time>
      </trkpt>
      <trkpt lat="45.79746" lon="6.08365">
        <ele>999.18</ele>
        <time>2016-01-17T11:18:24Z</time>
      </trkpt>
      <trkpt lat="45.79746" lon="6.08365">
        <ele>999.16</ele>
        <time>2016-01-17T11:18:25Z</time>
      </trkpt>
      <trkpt lat="45.79746" lon="6.08365">
        <ele>999.17</ele>
        <time>2016-01-17T11:18:26Z</time>
      </trkpt>
      <trkpt lat="45.79746" lon="6.08365">
        <ele>999.17</ele>
        <time>2016-01-17T11:18:27Z</time>
      </trkpt>
      <trkpt lat="45.79746" lon="6.08365">
        <ele>999.18</ele>
        <time>2016-01-17T11:18:28Z</time>
      </trkpt>
      <trkpt lat="45.79746" lon="6.08365">
        <ele>999.18</ele>
        <time>2016-01-17T11:18:29Z</time>
      </trkpt>
      <trkpt lat="45.79746" lon="6.08365">
        <ele>999.19</ele>
        <time>2016-01-17T11:18:30Z</time>
      </trkpt>
      <trkpt lat="45.79746" lon="6.08365">
        <ele>999.19</ele>
        <time>2016-01-17T11:18:31Z</time>
      </trkpt>
      <trkpt lat="45.79746" lon="6.08365">
        <ele>999.2</ele>
        <time>2016-01-17T11:18:32Z</time>
      </trkpt>
      <trkpt lat="45.79746" lon="6.08365">
        <ele>999.2</ele>
        <time>2016-01-17T11:18:33Z</time>
      </trkpt>
      <trkpt lat="45.79746" lon="6.08366">
        <ele>999.23</ele>
        <time>2016-01-17T11:18:34Z</time>
      </trkpt>
      <trkpt lat="45.79747" lon="6.08365">
        <ele>999.23</ele>
        <time>2016-01-17T11:18:35Z</time>
      </trkpt>
      <trkpt lat="45.79747" lon="6.08365">
        <ele>999.22</ele>
        <time>2016-01-17T11:18:36Z</time>
      </trkpt>
      <trkpt lat="45.79747" lon="6.08365">
        <ele>999.24</ele>
        <time>2016-01-17T11:18:37Z</time>
      </trkpt>
      <trkpt lat="45.79747" lon="6.08365">
        <ele>999.25</ele>
        <time>2016-01-17T11:18:38Z</time>
      </trkpt>
      <trkpt lat="45.79747" lon="6.08366">
        <ele>999.27</ele>
        <time>2016-01-17T11:18:39Z</time>
      </trkpt>
      <trkpt lat="45.79747" lon="6.08366">
        <ele>999.26</ele>
        <time>2016-01-17T11:18:40Z</time>
      </trkpt>
      <trkpt lat="45.79748" lon="6.08366">
        <ele>999.26</ele>
        <time>2016-01-17T11:18:41Z</time>
      </trkpt>
      <trkpt lat="45.79748" lon="6.08367">
        <ele>999.27</ele>
        <time>2016-01-17T11:18:42Z</time>
      </trkpt>
      <trkpt lat="45.79749" lon="6.08367">
        <ele>999.27</ele>
        <time>2016-01-17T11:18:43Z</time>
      </trkpt>
      <trkpt lat="45.79749" lon="6.08367">
        <ele>999.28</ele>
        <time>2016-01-17T11:18:44Z</time>
      </trkpt>
      <trkpt lat="45.79749" lon="6.08367">
        <ele>999.27</ele>
        <time>2016-01-17T11:18:45Z</time>
      </trkpt>
      <trkpt lat="45.79749" lon="6.08367">
        <ele>999.28</ele>
        <time>2016-01-17T11:18:46Z</time>
      </trkpt>
      <trkpt lat="45.79749" lon="6.08367">
        <ele>999.3</ele>
        <time>2016-01-17T11:18:47Z</time>
      </trkpt>
      <trkpt lat="45.79749" lon="6.08367">
        <ele>999.3</ele>
        <time>2016-01-17T11:18:48Z</time>
      </trkpt>
      <trkpt lat="45.79749" lon="6.08367">
        <ele>999.34</ele>
        <time>2016-01-17T11:18:49Z</time>
      </trkpt>
      <trkpt lat="45.79749" lon="6.08366">
        <ele>999.31</ele>
        <time>2016-01-17T11:18:50Z</time>
      </trkpt>
      <trkpt lat="45.79749" lon="6.08366">
        <ele>999.35</ele>
        <time>2016-01-17T11:18:51Z</time>
      </trkpt>
      <trkpt lat="45.79749" lon="6.08366">
        <ele>999.34</ele>
        <time>2016-01-17T11:18:52Z</time>
      </trkpt>
      <trkpt lat="45.79749" lon="6.08365">
        <ele>999.34</ele>
        <time>2016-01-17T11:18:53Z</time>
      </trkpt>
      <trkpt lat="45.79749" lon="6.08365">
        <ele>999.36</ele>
        <time>2016-01-17T11:18:54Z</time>
      </trkpt>
      <trkpt lat="45.79749" lon="6.08365">
        <ele>999.37</ele>
        <time>2016-01-17T11:18:55Z</time>
      </trkpt>
      <trkpt lat="45.79749" lon="6.08365">
        <ele>999.37</ele>
        <time>2016-01-17T11:18:56Z</time>
      </trkpt>
      <trkpt lat="45.79749" lon="6.08365">
        <ele>999.37</ele>
        <time>2016-01-17T11:18:57Z</time>
      </trkpt>
      <trkpt lat="45.79749" lon="6.08365">
        <ele>999.38</ele>
        <time>2016-01-17T11:18:58Z</time>
      </trkpt>
      <trkpt lat="45.79749" lon="6.08365">
        <ele>999.4</ele>
        <time>2016-01-17T11:18:59Z</time>
      </trkpt>
      <trkpt lat="45.79749" lon="6.08365">
        <ele>999.4</ele>
        <time>2016-01-17T11:19:00Z</time>
      </trkpt>
      <trkpt lat="45.79749" lon="6.08365">
        <ele>999.41</ele>
        <time>2016-01-17T11:19:01Z</time>
      </trkpt>
      <trkpt lat="45.79749" lon="6.08365">
        <ele>999.42</ele>
        <time>2016-01-17T11:19:02Z</time>
      </trkpt>
      <trkpt lat="45.79749" lon="6.08365">
        <ele>999.43</ele>
        <time>2016-01-17T11:19:03Z</time>
      </trkpt>
      <trkpt lat="45.79749" lon="6.08365">
        <ele>999.45</ele>
        <time>2016-01-17T11:19:04Z</time>
      </trkpt>
      <trkpt lat="45.79749" lon="6.08364">
        <ele>999.46</ele>
        <time>2016-01-17T11:19:05Z</time>
      </trkpt>
      <trkpt lat="45.7975" lon="6.08364">
        <ele>999.47</ele>
        <time>2016-01-17T11:19:06Z</time>
      </trkpt>
      <trkpt lat="45.7975" lon="6.08365">
        <ele>999.48</ele>
        <time>2016-01-17T11:19:07Z</time>
      </trkpt>
      <trkpt lat="45.7975" lon="6.08365">
        <ele>999.48</ele>
        <time>2016-01-17T11:19:08Z</time>
      </trkpt>
      <trkpt lat="45.7975" lon="6.08365">
        <ele>999.49</ele>
        <time>2016-01-17T11:19:09Z</time>
      </trkpt>
      <trkpt lat="45.7975" lon="6.08365">
        <ele>999.5</ele>
        <time>2016-01-17T11:19:10Z</time>
      </trkpt>
      <trkpt lat="45.79749" lon="6.08365">
        <ele>999.52</ele>
        <time>2016-01-17T11:19:11Z</time>
      </trkpt>
      <trkpt lat="45.7975" lon="6.08366">
        <ele>999.53</ele>
        <time>2016-01-17T11:19:12Z</time>
      </trkpt>
      <trkpt lat="45.7975" lon="6.08366">
        <ele>999.54</ele>
        <time>2016-01-17T11:19:13Z</time>
      </trkpt>
      <trkpt lat="45.7975" lon="6.08367">
        <ele>999.55</ele>
        <time>2016-01-17T11:19:14Z</time>
      </trkpt>
      <trkpt lat="45.7975" lon="6.08367">
        <ele>999.55</ele>
        <time>2016-01-17T11:19:15Z</time>
      </trkpt>
      <trkpt lat="45.79749" lon="6.08367">
        <ele>999.57</ele>
        <time>2016-01-17T11:19:16Z</time>
      </trkpt>
      <trkpt lat="45.7975" lon="6.08368">
        <ele>999.6</ele>
        <time>2016-01-17T11:19:17Z</time>
      </trkpt>
      <trkpt lat="45.7975" lon="6.08368">
        <ele>999.6</ele>
        <time>2016-01-17T11:19:18Z</time>
      </trkpt>
      <trkpt lat="45.79749" lon="6.08369">
        <ele>999.62</ele>
        <time>2016-01-17T11:19:19Z</time>
      </trkpt>
      <trkpt lat="45.79749" lon="6.08369">
        <ele>999.62</ele>
        <time>2016-01-17T11:19:20Z</time>
      </trkpt>
      <trkpt lat="45.79747" lon="6.08369">
        <ele>999.67</ele>
        <time>2016-01-17T11:19:21Z</time>
      </trkpt>
      <trkpt lat="45.79747" lon="6.08369">
        <ele>999.63</ele>
        <time>2016-01-17T11:19:22Z</time>
      </trkpt>
      <trkpt lat="45.79746" lon="6.08369">
        <ele>999.64</ele>
        <time>2016-01-17T11:19:23Z</time>
      </trkpt>
      <trkpt lat="45.79745" lon="6.0837">
        <ele>999.64</ele>
        <time>2016-01-17T11:19:24Z</time>
      </trkpt>
      <trkpt lat="45.79745" lon="6.0837">
        <ele>999.64</ele>
        <time>2016-01-17T11:19:25Z</time>
      </trkpt>
      <trkpt lat="45.79744" lon="6.08371">
        <ele>999.65</ele>
        <time>2016-01-17T11:19:26Z</time>
      </trkpt>
      <trkpt lat="45.79743" lon="6.08371">
        <ele>999.66</ele>
        <time>2016-01-17T11:19:27Z</time>
      </trkpt>
      <trkpt lat="45.79743" lon="6.08371">
        <ele>999.67</ele>
        <time>2016-01-17T11:19:28Z</time>
      </trkpt>
      <trkpt lat="45.79743" lon="6.08371">
        <ele>999.68</ele>
        <time>2016-01-17T11:19:29Z</time>
      </trkpt>
      <trkpt lat="45.79742" lon="6.08371">
        <ele>999.67</ele>
        <time>2016-01-17T11:19:30Z</time>
      </trkpt>
      <trkpt lat="45.79741" lon="6.08371">
        <ele>999.7</ele>
        <time>2016-01-17T11:19:31Z</time>
      </trkpt>
      <trkpt lat="45.7974" lon="6.08372">
        <ele>999.69</ele>
        <time>2016-01-17T11:19:32Z</time>
      </trkpt>
      <trkpt lat="45.7974" lon="6.08372">
        <ele>999.7</ele>
        <time>2016-01-17T11:19:33Z</time>
      </trkpt>
      <trkpt lat="45.79739" lon="6.08372">
        <ele>999.7</ele>
        <time>2016-01-17T11:19:34Z</time>
      </trkpt>
      <trkpt lat="45.79739" lon="6.08372">
        <ele>999.73</ele>
        <time>2016-01-17T11:19:35Z</time>
      </trkpt>
      <trkpt lat="45.79738" lon="6.08373">
        <ele>999.73</ele>
        <time>2016-01-17T11:19:36Z</time>
      </trkpt>
      <trkpt lat="45.79737" lon="6.08373">
        <ele>999.74</ele>
        <time>2016-01-17T11:19:37Z</time>
      </trkpt>
      <trkpt lat="45.79737" lon="6.08374">
        <ele>999.75</ele>
        <time>2016-01-17T11:19:38Z</time>
      </trkpt>
      <trkpt lat="45.79736" lon="6.08374">
        <ele>999.76</ele>
        <time>2016-01-17T11:19:39Z</time>
      </trkpt>
      <trkpt lat="45.79736" lon="6.08374">
        <ele>999.77</ele>
        <time>2016-01-17T11:19:40Z</time>
      </trkpt>
      <trkpt lat="45.79736" lon="6.08375">
        <ele>999.78</ele>
        <time>2016-01-17T11:19:41Z</time>
      </trkpt>
      <trkpt lat="45.79735" lon="6.08375">
        <ele>1000.76</ele>
        <time>2016-01-17T11:19:42Z</time>
      </trkpt>
      <trkpt lat="45.79735" lon="6.08375">
        <ele>1000.78</ele>
        <time>2016-01-17T11:19:43Z</time>
      </trkpt>
      <trkpt lat="45.79734" lon="6.08376">
        <ele>1000.79</ele>
        <time>2016-01-17T11:19:44Z</time>
      </trkpt>
      <trkpt lat="45.79734" lon="6.08376">
        <ele>1000.8</ele>
        <time>2016-01-17T11:19:45Z</time>
      </trkpt>
      <trkpt lat="45.79733" lon="6.08375">
        <ele>1000.83</ele>
        <time>2016-01-17T11:19:46Z</time>
      </trkpt>
      <trkpt lat="45.79733" lon="6.08375">
        <ele>1000.8</ele>
        <time>2016-01-17T11:19:47Z</time>
      </trkpt>
      <trkpt lat="45.79732" lon="6.08376">
        <ele>1001.75</ele>
        <time>2016-01-17T11:19:48Z</time>
      </trkpt>
      <trkpt lat="45.79732" lon="6.08376">
        <ele>1001.76</ele>
        <time>2016-01-17T11:19:49Z</time>
      </trkpt>
      <trkpt lat="45.79732" lon="6.08376">
        <ele>1001.77</ele>
        <time>2016-01-17T11:19:50Z</time>
      </trkpt>
      <trkpt lat="45.79732" lon="6.08374">
        <ele>1001.82</ele>
        <time>2016-01-17T11:19:51Z</time>
      </trkpt>
      <trkpt lat="45.79731" lon="6.08374">
        <ele>1001.78</ele>
        <time>2016-01-17T11:19:52Z</time>
      </trkpt>
      <trkpt lat="45.79731" lon="6.08374">
        <ele>1002.7</ele>
        <time>2016-01-17T11:19:53Z</time>
      </trkpt>
      <trkpt lat="45.79731" lon="6.08374">
        <ele>1002.7</ele>
        <time>2016-01-17T11:19:54Z</time>
      </trkpt>
      <trkpt lat="45.7973" lon="6.08372">
        <ele>1002.72</ele>
        <time>2016-01-17T11:19:55Z</time>
      </trkpt>
      <trkpt lat="45.7973" lon="6.08371">
        <ele>1003.61</ele>
        <time>2016-01-17T11:19:56Z</time>
      </trkpt>
      <trkpt lat="45.7973" lon="6.08371">
        <ele>1003.6</ele>
        <time>2016-01-17T11:19:57Z</time>
      </trkpt>
      <trkpt lat="45.79729" lon="6.08371">
        <ele>1003.6</ele>
        <time>2016-01-17T11:19:58Z</time>
      </trkpt>
      <trkpt lat="45.79728" lon="6.08371">
        <ele>1003.61</ele>
        <time>2016-01-17T11:19:59Z</time>
      </trkpt>
      <trkpt lat="45.79728" lon="6.08371">
        <ele>1003.61</ele>
        <time>2016-01-17T11:20:00Z</time>
      </trkpt>
      <trkpt lat="45.79728" lon="6.08371">
        <ele>1004.8</ele>
        <time>2016-01-17T11:20:01Z</time>
      </trkpt>
      <trkpt lat="45.79727" lon="6.0837">
        <ele>1004.8</ele>
        <time>2016-01-17T11:20:02Z</time>
      </trkpt>
      <trkpt lat="45.79727" lon="6.0837">
        <ele>1004.82</ele>
        <time>2016-01-17T11:20:03Z</time>
      </trkpt>
      <trkpt lat="45.79726" lon="6.0837">
        <ele>1004.83</ele>
        <time>2016-01-17T11:20:04Z</time>
      </trkpt>
      <trkpt lat="45.79725" lon="6.08369">
        <ele>1005.63</ele>
        <time>2016-01-17T11:20:05Z</time>
      </trkpt>
      <trkpt lat="45.79724" lon="6.08368">
        <ele>1005.64</ele>
        <time>2016-01-17T11:20:06Z</time>
      </trkpt>
      <trkpt lat="45.79724" lon="6.08367">
        <ele>1005.62</ele>
        <time>2016-01-17T11:20:07Z</time>
      </trkpt>
      <trkpt lat="45.79724" lon="6.08366">
        <ele>1005.62</ele>
        <time>2016-01-17T11:20:08Z</time>
      </trkpt>
      <trkpt lat="45.79723" lon="6.08356">
        <ele>1005.55</ele>
        <time>2016-01-17T11:20:09Z</time>
      </trkpt>
      <trkpt lat="45.79723" lon="6.08355">
        <ele>1005.55</ele>
        <time>2016-01-17T11:20:10Z</time>
      </trkpt>
      <trkpt lat="45.79723" lon="6.08354">
        <ele>1005.62</ele>
        <time>2016-01-17T11:20:11Z</time>
      </trkpt>
      <trkpt lat="45.79722" lon="6.08354">
        <ele>1005.62</ele>
        <time>2016-01-17T11:20:12Z</time>
      </trkpt>
      <trkpt lat="45.79722" lon="6.08353">
        <ele>1005.61</ele>
        <time>2016-01-17T11:20:13Z</time>
      </trkpt>
      <trkpt lat="45.79721" lon="6.08353">
        <ele>1005.62</ele>
        <time>2016-01-17T11:20:14Z</time>
      </trkpt>
      <trkpt lat="45.79721" lon="6.08353">
        <ele>1005.6</ele>
        <time>2016-01-17T11:20:15Z</time>
      </trkpt>
      <trkpt lat="45.79721" lon="6.08352">
        <ele>1005.61</ele>
        <time>2016-01-17T11:20:16Z</time>
      </trkpt>
      <trkpt lat="45.7972" lon="6.08352">
        <ele>1005.6</ele>
        <time>2016-01-17T11:20:17Z</time>
      </trkpt>
      <trkpt lat="45.79719" lon="6.08352">
        <ele>1005.6</ele>
        <time>2016-01-17T11:20:18Z</time>
      </trkpt>
      <trkpt lat="45.79719" lon="6.08352">
        <ele>1005.61</ele>
        <time>2016-01-17T11:20:19Z</time>
      </trkpt>
      <trkpt lat="45.79718" lon="6.08352">
        <ele>1005.59</ele>
        <time>2016-01-17T11:20:20Z</time>
      </trkpt>
      <trkpt lat="45.79718" lon="6.08352">
        <ele>1005.57</ele>
        <time>2016-01-17T11:20:21Z</time>
      </trkpt>
      <trkpt lat="45.79717" lon="6.08352">
        <ele>1005.59</ele>
        <time>2016-01-17T11:20:22Z</time>
      </trkpt>
      <trkpt lat="45.79718" lon="6.08351">
        <ele>1005.56</ele>
        <time>2016-01-17T11:20:23Z</time>
      </trkpt>
      <trkpt lat="45.79717" lon="6.08351">
        <ele>1005.57</ele>
        <time>2016-01-17T11:20:24Z</time>
      </trkpt>
      <trkpt lat="45.79717" lon="6.08351">
        <ele>1005.59</ele>
        <time>2016-01-17T11:20:25Z</time>
      </trkpt>
      <trkpt lat="45.79717" lon="6.08351">
        <ele>1005.61</ele>
        <time>2016-01-17T11:20:26Z</time>
      </trkpt>
      <trkpt lat="45.79717" lon="6.08351">
        <ele>1005.6</ele>
        <time>2016-01-17T11:20:27Z</time>
      </trkpt>
      <trkpt lat="45.79717" lon="6.08352">
        <ele>1005.6</ele>
        <time>2016-01-17T11:20:28Z</time>
      </trkpt>
      <trkpt lat="45.79717" lon="6.08352">
        <ele>1005.58</ele>
        <time>2016-01-17T11:20:29Z</time>
      </trkpt>
      <trkpt lat="45.79717" lon="6.08352">
        <ele>1005.6</ele>
        <time>2016-01-17T11:20:30Z</time>
      </trkpt>
      <trkpt lat="45.79716" lon="6.08352">
        <ele>1005.61</ele>
        <time>2016-01-17T11:20:31Z</time>
      </trkpt>
      <trkpt lat="45.79717" lon="6.08352">
        <ele>1005.63</ele>
        <time>2016-01-17T11:20:32Z</time>
      </trkpt>
      <trkpt lat="45.79717" lon="6.08351">
        <ele>1005.62</ele>
        <time>2016-01-17T11:20:33Z</time>
      </trkpt>
      <trkpt lat="45.79716" lon="6.08351">
        <ele>1005.61</ele>
        <time>2016-01-17T11:20:34Z</time>
      </trkpt>
      <trkpt lat="45.79716" lon="6.0835">
        <ele>1005.63</ele>
        <time>2016-01-17T11:20:35Z</time>
      </trkpt>
      <trkpt lat="45.79716" lon="6.0835">
        <ele>1005.63</ele>
        <time>2016-01-17T11:20:36Z</time>
      </trkpt>
      <trkpt lat="45.79716" lon="6.0835">
        <ele>1005.62</ele>
        <time>2016-01-17T11:20:37Z</time>
      </trkpt>
      <trkpt lat="45.79716" lon="6.08349">
        <ele>1005.63</ele>
        <time>2016-01-17T11:20:38Z</time>
      </trkpt>
      <trkpt lat="45.79716" lon="6.08349">
        <ele>1005.64</ele>
        <time>2016-01-17T11:20:39Z</time>
      </trkpt>
      <trkpt lat="45.79717" lon="6.08349">
        <ele>1005.65</ele>
        <time>2016-01-17T11:20:40Z</time>
      </trkpt>
      <trkpt lat="45.79717" lon="6.08348">
        <ele>1005.64</ele>
        <time>2016-01-17T11:20:41Z</time>
      </trkpt>
      <trkpt lat="45.79717" lon="6.08349">
        <ele>1005.65</ele>
        <time>2016-01-17T11:20:42Z</time>
      </trkpt>
      <trkpt lat="45.79718" lon="6.08349">
        <ele>1005.65</ele>
        <time>2016-01-17T11:20:43Z</time>
      </trkpt>
      <trkpt lat="45.79718" lon="6.08348">
        <ele>1005.65</ele>
        <time>2016-01-17T11:20:44Z</time>
      </trkpt>
      <trkpt lat="45.79718" lon="6.08348">
        <ele>1005.65</ele>
        <time>2016-01-17T11:20:45Z</time>
      </trkpt>
      <trkpt lat="45.79718" lon="6.08348">
        <ele>1005.65</ele>
        <time>2016-01-17T11:20:46Z</time>
      </trkpt>
      <trkpt lat="45.79718" lon="6.08348">
        <ele>1005.66</ele>
        <time>2016-01-17T11:20:47Z</time>
      </trkpt>
      <trkpt lat="45.79718" lon="6.08349">
        <ele>1005.66</ele>
        <time>2016-01-17T11:20:48Z</time>
      </trkpt>
      <trkpt lat="45.79717" lon="6.0835">
        <ele>1005.66</ele>
        <time>2016-01-17T11:20:49Z</time>
      </trkpt>
      <trkpt lat="45.79717" lon="6.0835">
        <ele>1005.66</ele>
        <time>2016-01-17T11:20:50Z</time>
      </trkpt>
      <trkpt lat="45.79717" lon="6.0835">
        <ele>1005.67</ele>
        <time>2016-01-17T11:20:51Z</time>
      </trkpt>
      <trkpt lat="45.79717" lon="6.08349">
        <ele>1005.68</ele>
        <time>2016-01-17T11:20:52Z</time>
      </trkpt>
      <trkpt lat="45.79717" lon="6.08349">
        <ele>1005.68</ele>
        <time>2016-01-17T11:20:53Z</time>
      </trkpt>
      <trkpt lat="45.79716" lon="6.08349">
        <ele>1005.68</ele>
        <time>2016-01-17T11:20:54Z</time>
      </trkpt>
      <trkpt lat="45.79716" lon="6.08349">
        <ele>1005.68</ele>
        <time>2016-01-17T11:20:55Z</time>
      </trkpt>
      <trkpt lat="45.79716" lon="6.08349">
        <ele>1005.68</ele>
        <time>2016-01-17T11:20:56Z</time>
      </trkpt>
      <trkpt lat="45.79716" lon="6.08349">
        <ele>1005.69</ele>
        <time>2016-01-17T11:20:57Z</time>
      </trkpt>
      <trkpt lat="45.79715" lon="6.08348">
        <ele>1005.69</ele>
        <time>2016-01-17T11:20:58Z</time>
      </trkpt>
      <trkpt lat="45.79715" lon="6.08348">
        <ele>1005.7</ele>
        <time>2016-01-17T11:20:59Z</time>
      </trkpt>
      <trkpt lat="45.79715" lon="6.08348">
        <ele>1005.71</ele>
        <time>2016-01-17T11:21:00Z</time>
      </trkpt>
      <trkpt lat="45.79715" lon="6.08347">
        <ele>1005.71</ele>
        <time>2016-01-17T11:21:01Z</time>
      </trkpt>
      <trkpt lat="45.79715" lon="6.08347">
        <ele>1005.71</ele>
        <time>2016-01-17T11:21:02Z</time>
      </trkpt>
      <trkpt lat="45.79715" lon="6.08346">
        <ele>1005.71</ele>
        <time>2016-01-17T11:21:03Z</time>
      </trkpt>
      <trkpt lat="45.79714" lon="6.08346">
        <ele>1005.72</ele>
        <time>2016-01-17T11:21:04Z</time>
      </trkpt>
      <trkpt lat="45.79714" lon="6.08346">
        <ele>1005.72</ele>
        <time>2016-01-17T11:21:05Z</time>
      </trkpt>
      <trkpt lat="45.79714" lon="6.08346">
        <ele>1005.72</ele>
        <time>2016-01-17T11:21:06Z</time>
      </trkpt>
      <trkpt lat="45.79714" lon="6.08346">
        <ele>1005.74</ele>
        <time>2016-01-17T11:21:07Z</time>
      </trkpt>
      <trkpt lat="45.79713" lon="6.08346">
        <ele>1005.75</ele>
        <time>2016-01-17T11:21:08Z</time>
      </trkpt>
      <trkpt lat="45.79713" lon="6.08346">
        <ele>1005.76</ele>
        <time>2016-01-17T11:21:09Z</time>
      </trkpt>
      <trkpt lat="45.79712" lon="6.08346">
        <ele>1005.77</ele>
        <time>2016-01-17T11:21:10Z</time>
      </trkpt>
      <trkpt lat="45.79712" lon="6.08346">
        <ele>1005.75</ele>
        <time>2016-01-17T11:21:11Z</time>
      </trkpt>
      <trkpt lat="45.79711" lon="6.08347">
        <ele>1005.76</ele>
        <time>2016-01-17T11:21:12Z</time>
      </trkpt>
      <trkpt lat="45.7971" lon="6.08347">
        <ele>1005.77</ele>
        <time>2016-01-17T11:21:13Z</time>
      </trkpt>
      <trkpt lat="45.7971" lon="6.08347">
        <ele>1005.75</ele>
        <time>2016-01-17T11:21:14Z</time>
      </trkpt>
      <trkpt lat="45.7971" lon="6.08348">
        <ele>1006.66</ele>
        <time>2016-01-17T11:21:15Z</time>
      </trkpt>
      <trkpt lat="45.7971" lon="6.08347">
        <ele>1006.66</ele>
        <time>2016-01-17T11:21:16Z</time>
      </trkpt>
      <trkpt lat="45.7971" lon="6.08346">
        <ele>1006.67</ele>
        <time>2016-01-17T11:21:17Z</time>
      </trkpt>
      <trkpt lat="45.7971" lon="6.08347">
        <ele>1006.66</ele>
        <time>2016-01-17T11:21:18Z</time>
      </trkpt>
      <trkpt lat="45.7971" lon="6.08347">
        <ele>1006.67</ele>
        <time>2016-01-17T11:21:19Z</time>
      </trkpt>
      <trkpt lat="45.7971" lon="6.08347">
        <ele>1006.68</ele>
        <time>2016-01-17T11:21:20Z</time>
      </trkpt>
      <trkpt lat="45.7971" lon="6.08348">
        <ele>1006.68</ele>
        <time>2016-01-17T11:21:21Z</time>
      </trkpt>
      <trkpt lat="45.7971" lon="6.08349">
        <ele>1006.67</ele>
        <time>2016-01-17T11:21:22Z</time>
      </trkpt>
      <trkpt lat="45.79709" lon="6.0835">
        <ele>1006.68</ele>
        <time>2016-01-17T11:21:23Z</time>
      </trkpt>
      <trkpt lat="45.79709" lon="6.0835">
        <ele>1006.66</ele>
        <time>2016-01-17T11:21:24Z</time>
      </trkpt>
      <trkpt lat="45.79709" lon="6.08351">
        <ele>1006.68</ele>
        <time>2016-01-17T11:21:25Z</time>
      </trkpt>
      <trkpt lat="45.79709" lon="6.08352">
        <ele>1006.67</ele>
        <time>2016-01-17T11:21:26Z</time>
      </trkpt>
      <trkpt lat="45.79709" lon="6.08352">
        <ele>1006.68</ele>
        <time>2016-01-17T11:21:27Z</time>
      </trkpt>
      <trkpt lat="45.79709" lon="6.08353">
        <ele>1006.67</ele>
        <time>2016-01-17T11:21:28Z</time>
      </trkpt>
      <trkpt lat="45.79709" lon="6.08353">
        <ele>1006.68</ele>
        <time>2016-01-17T11:21:29Z</time>
      </trkpt>
      <trkpt lat="45.79709" lon="6.08353">
        <ele>1006.68</ele>
        <time>2016-01-17T11:21:30Z</time>
      </trkpt>
      <trkpt lat="45.79709" lon="6.08353">
        <ele>1006.68</ele>
        <time>2016-01-17T11:21:31Z</time>
      </trkpt>
      <trkpt lat="45.79709" lon="6.08353">
        <ele>1006.66</ele>
        <time>2016-01-17T11:21:32Z</time>
      </trkpt>
      <trkpt lat="45.79709" lon="6.08353">
        <ele>1006.69</ele>
        <time>2016-01-17T11:21:33Z</time>
      </trkpt>
      <trkpt lat="45.79709" lon="6.08353">
        <ele>1006.69</ele>
        <time>2016-01-17T11:21:34Z</time>
      </trkpt>
      <trkpt lat="45.79709" lon="6.08353">
        <ele>1007.79</ele>
        <time>2016-01-17T11:21:35Z</time>
      </trkpt>
      <trkpt lat="45.79709" lon="6.08353">
        <ele>1007.74</ele>
        <time>2016-01-17T11:21:36Z</time>
      </trkpt>
      <trkpt lat="45.79709" lon="6.08354">
        <ele>1007.79</ele>
        <time>2016-01-17T11:21:37Z</time>
      </trkpt>
      <trkpt lat="45.79709" lon="6.08354">
        <ele>1007.79</ele>
        <time>2016-01-17T11:21:38Z</time>
      </trkpt>
      <trkpt lat="45.79708" lon="6.08354">
        <ele>1007.75</ele>
        <time>2016-01-17T11:21:39Z</time>
      </trkpt>
      <trkpt lat="45.79708" lon="6.08354">
        <ele>1007.8</ele>
        <time>2016-01-17T11:21:40Z</time>
      </trkpt>
      <trkpt lat="45.79708" lon="6.08353">
        <ele>1007.8</ele>
        <time>2016-01-17T11:21:41Z</time>
      </trkpt>
      <trkpt lat="45.79708" lon="6.08353">
        <ele>1007.82</ele>
        <time>2016-01-17T11:21:42Z</time>
      </trkpt>
      <trkpt lat="45.79708" lon="6.08353">
        <ele>1007.81</ele>
        <time>2016-01-17T11:21:43Z</time>
      </trkpt>
      <trkpt lat="45.79708" lon="6.08353">
        <ele>1007.81</ele>
        <time>2016-01-17T11:21:44Z</time>
      </trkpt>
      <trkpt lat="45.79708" lon="6.08353">
        <ele>1007.81</ele>
        <time>2016-01-17T11:21:45Z</time>
      </trkpt>
      <trkpt lat="45.79708" lon="6.08353">
        <ele>1007.85</ele>
        <time>2016-01-17T11:21:46Z</time>
      </trkpt>
      <trkpt lat="45.79708" lon="6.08354">
        <ele>1007.82</ele>
        <time>2016-01-17T11:21:47Z</time>
      </trkpt>
      <trkpt lat="45.79708" lon="6.08354">
        <ele>1007.89</ele>
        <time>2016-01-17T11:21:48Z</time>
      </trkpt>
      <trkpt lat="45.79708" lon="6.08355">
        <ele>1007.89</ele>
        <time>2016-01-17T11:21:49Z</time>
      </trkpt>
      <trkpt lat="45.79708" lon="6.08356">
        <ele>1007.85</ele>
        <time>2016-01-17T11:21:50Z</time>
      </trkpt>
      <trkpt lat="45.79708" lon="6.08356">
        <ele>1007.89</ele>
        <time>2016-01-17T11:21:51Z</time>
      </trkpt>
      <trkpt lat="45.79707" lon="6.08356">
        <ele>1007.83</ele>
        <time>2016-01-17T11:21:52Z</time>
      </trkpt>
      <trkpt lat="45.79707" lon="6.08356">
        <ele>1007.86</ele>
        <time>2016-01-17T11:21:53Z</time>
      </trkpt>
      <trkpt lat="45.79707" lon="6.08355">
        <ele>1007.84</ele>
        <time>2016-01-17T11:21:54Z</time>
      </trkpt>
      <trkpt lat="45.79706" lon="6.08355">
        <ele>1007.89</ele>
        <time>2016-01-17T11:21:55Z</time>
      </trkpt>
      <trkpt lat="45.79706" lon="6.08354">
        <ele>1008.88</ele>
        <time>2016-01-17T11:21:56Z</time>
      </trkpt>
      <trkpt lat="45.79705" lon="6.08355">
        <ele>1008.88</ele>
        <time>2016-01-17T11:21:57Z</time>
      </trkpt>
      <trkpt lat="45.79705" lon="6.08355">
        <ele>1008.89</ele>
        <time>2016-01-17T11:21:58Z</time>
      </trkpt>
      <trkpt lat="45.79704" lon="6.08355">
        <ele>1008.87</ele>
        <time>2016-01-17T11:21:59Z</time>
      </trkpt>
      <trkpt lat="45.79704" lon="6.08355">
        <ele>1009.68</ele>
        <time>2016-01-17T11:22:00Z</time>
      </trkpt>
      <trkpt lat="45.79703" lon="6.08355">
        <ele>1009.68</ele>
        <time>2016-01-17T11:22:01Z</time>
      </trkpt>
      <trkpt lat="45.79703" lon="6.08355">
        <ele>1009.68</ele>
        <time>2016-01-17T11:22:02Z</time>
      </trkpt>
      <trkpt lat="45.79702" lon="6.08356">
        <ele>1009.71</ele>
        <time>2016-01-17T11:22:03Z</time>
      </trkpt>
      <trkpt lat="45.79702" lon="6.08356">
        <ele>1010.62</ele>
        <time>2016-01-17T11:22:04Z</time>
      </trkpt>
      <trkpt lat="45.79701" lon="6.08357">
        <ele>1010.61</ele>
        <time>2016-01-17T11:22:05Z</time>
      </trkpt>
      <trkpt lat="45.79701" lon="6.08357">
        <ele>1010.61</ele>
        <time>2016-01-17T11:22:06Z</time>
      </trkpt>
      <trkpt lat="45.79699" lon="6.08358">
        <ele>1010.65</ele>
        <time>2016-01-17T11:22:07Z</time>
      </trkpt>
      <trkpt lat="45.79699" lon="6.08358">
        <ele>1010.67</ele>
        <time>2016-01-17T11:22:08Z</time>
      </trkpt>
      <trkpt lat="45.79699" lon="6.08358">
        <ele>1010.68</ele>
        <time>2016-01-17T11:22:09Z</time>
      </trkpt>
      <trkpt lat="45.79698" lon="6.08359">
        <ele>1011.61</ele>
        <time>2016-01-17T11:22:10Z</time>
      </trkpt>
      <trkpt lat="45.79698" lon="6.08359">
        <ele>1011.63</ele>
        <time>2016-01-17T11:22:11Z</time>
      </trkpt>
      <trkpt lat="45.79697" lon="6.0836">
        <ele>1011.64</ele>
        <time>2016-01-17T11:22:12Z</time>
      </trkpt>
      <trkpt lat="45.79696" lon="6.0836">
        <ele>1011.65</ele>
        <time>2016-01-17T11:22:13Z</time>
      </trkpt>
      <trkpt lat="45.79696" lon="6.08361">
        <ele>1011.65</ele>
        <time>2016-01-17T11:22:14Z</time>
      </trkpt>
      <trkpt lat="45.79695" lon="6.08362">
        <ele>1012.73</ele>
        <time>2016-01-17T11:22:15Z</time>
      </trkpt>
      <trkpt lat="45.79694" lon="6.08362">
        <ele>1012.72</ele>
        <time>2016-01-17T11:22:16Z</time>
      </trkpt>
      <trkpt lat="45.79694" lon="6.08362">
        <ele>1012.72</ele>
        <time>2016-01-17T11:22:17Z</time>
      </trkpt>
      <trkpt lat="45.79694" lon="6.08363">
        <ele>1012.73</ele>
        <time>2016-01-17T11:22:18Z</time>
      </trkpt>
      <trkpt lat="45.79693" lon="6.08363">
        <ele>1012.72</ele>
        <time>2016-01-17T11:22:19Z</time>
      </trkpt>
      <trkpt lat="45.79693" lon="6.08363">
        <ele>1013.5</ele>
        <time>2016-01-17T11:22:20Z</time>
      </trkpt>
      <trkpt lat="45.79693" lon="6.08364">
        <ele>1013.47</ele>
        <time>2016-01-17T11:22:21Z</time>
      </trkpt>
      <trkpt lat="45.79692" lon="6.08364">
        <ele>1013.48</ele>
        <time>2016-01-17T11:22:22Z</time>
      </trkpt>
      <trkpt lat="45.79692" lon="6.08364">
        <ele>1013.48</ele>
        <time>2016-01-17T11:22:23Z</time>
      </trkpt>
      <trkpt lat="45.79692" lon="6.08365">
        <ele>1014.1</ele>
        <time>2016-01-17T11:22:24Z</time>
      </trkpt>
      <trkpt lat="45.79692" lon="6.08364">
        <ele>1014.26</ele>
        <time>2016-01-17T11:22:25Z</time>
      </trkpt>
      <trkpt lat="45.79691" lon="6.08365">
        <ele>1014.28</ele>
        <time>2016-01-17T11:22:26Z</time>
      </trkpt>
      <trkpt lat="45.79692" lon="6.08364">
        <ele>1014.1</ele>
        <time>2016-01-17T11:22:27Z</time>
      </trkpt>
      <trkpt lat="45.79692" lon="6.08364">
        <ele>1014.29</ele>
        <time>2016-01-17T11:22:28Z</time>
      </trkpt>
      <trkpt lat="45.79692" lon="6.08365">
        <ele>1015.1</ele>
        <time>2016-01-17T11:22:29Z</time>
      </trkpt>
      <trkpt lat="45.79692" lon="6.08364">
        <ele>1014.92</ele>
        <time>2016-01-17T11:22:30Z</time>
      </trkpt>
      <trkpt lat="45.79692" lon="6.08364">
        <ele>1014.92</ele>
        <time>2016-01-17T11:22:31Z</time>
      </trkpt>
      <trkpt lat="45.79691" lon="6.08364">
        <ele>1015.08</ele>
        <time>2016-01-17T11:22:32Z</time>
      </trkpt>
      <trkpt lat="45.79691" lon="6.08364">
        <ele>1015.08</ele>
        <time>2016-01-17T11:22:33Z</time>
      </trkpt>
      <trkpt lat="45.79691" lon="6.08363">
        <ele>1015.08</ele>
        <time>2016-01-17T11:22:34Z</time>
      </trkpt>
      <trkpt lat="45.79691" lon="6.08362">
        <ele>1015.04</ele>
        <time>2016-01-17T11:22:35Z</time>
      </trkpt>
      <trkpt lat="45.79691" lon="6.08361">
        <ele>1015.06</ele>
        <time>2016-01-17T11:22:36Z</time>
      </trkpt>
      <trkpt lat="45.79691" lon="6.0836">
        <ele>1015.02</ele>
        <time>2016-01-17T11:22:37Z</time>
      </trkpt>
      <trkpt lat="45.79691" lon="6.08359">
        <ele>1015.04</ele>
        <time>2016-01-17T11:22:38Z</time>
      </trkpt>
      <trkpt lat="45.79691" lon="6.08359">
        <ele>1014.99</ele>
        <time>2016-01-17T11:22:39Z</time>
      </trkpt>
      <trkpt lat="45.79691" lon="6.08359">
        <ele>1014.91</ele>
        <time>2016-01-17T11:22:40Z</time>
      </trkpt>
      <trkpt lat="45.79691" lon="6.0836">
        <ele>1014.98</ele>
        <time>2016-01-17T11:22:41Z</time>
      </trkpt>
      <trkpt lat="45.7969" lon="6.0836">
        <ele>1014.97</ele>
        <time>2016-01-17T11:22:42Z</time>
      </trkpt>
      <trkpt lat="45.7969" lon="6.0836">
        <ele>1014.96</ele>
        <time>2016-01-17T11:22:43Z</time>
      </trkpt>
      <trkpt lat="45.7969" lon="6.0836">
        <ele>1014.98</ele>
        <time>2016-01-17T11:22:44Z</time>
      </trkpt>
      <trkpt lat="45.7969" lon="6.0836">
        <ele>1014.91</ele>
        <time>2016-01-17T11:22:45Z</time>
      </trkpt>
      <trkpt lat="45.79691" lon="6.0836">
        <ele>1014.91</ele>
        <time>2016-01-17T11:22:46Z</time>
      </trkpt>
      <trkpt lat="45.79691" lon="6.08361">
        <ele>1014.96</ele>
        <time>2016-01-17T11:22:47Z</time>
      </trkpt>
      <trkpt lat="45.7969" lon="6.08361">
        <ele>1014.94</ele>
        <time>2016-01-17T11:22:48Z</time>
      </trkpt>
      <trkpt lat="45.7969" lon="6.08362">
        <ele>1014.92</ele>
        <time>2016-01-17T11:22:49Z</time>
      </trkpt>
      <trkpt lat="45.7969" lon="6.08361">
        <ele>1014.94</ele>
        <time>2016-01-17T11:22:50Z</time>
      </trkpt>
      <trkpt lat="45.7969" lon="6.08361">
        <ele>1014.93</ele>
        <time>2016-01-17T11:22:51Z</time>
      </trkpt>
      <trkpt lat="45.7969" lon="6.08359">
        <ele>1014.93</ele>
        <time>2016-01-17T11:22:52Z</time>
      </trkpt>
      <trkpt lat="45.79689" lon="6.08358">
        <ele>1014.9</ele>
        <time>2016-01-17T11:22:53Z</time>
      </trkpt>
      <trkpt lat="45.79689" lon="6.08357">
        <ele>1014.92</ele>
        <time>2016-01-17T11:22:54Z</time>
      </trkpt>
      <trkpt lat="45.79689" lon="6.08356">
        <ele>1014.92</ele>
        <time>2016-01-17T11:22:55Z</time>
      </trkpt>
      <trkpt lat="45.79689" lon="6.08356">
        <ele>1014.91</ele>
        <time>2016-01-17T11:22:56Z</time>
      </trkpt>
      <trkpt lat="45.79689" lon="6.08355">
        <ele>1014.91</ele>
        <time>2016-01-17T11:22:57Z</time>
      </trkpt>
      <trkpt lat="45.79689" lon="6.08355">
        <ele>1014.91</ele>
        <time>2016-01-17T11:22:58Z</time>
      </trkpt>
      <trkpt lat="45.79689" lon="6.08355">
        <ele>1014.91</ele>
        <time>2016-01-17T11:22:59Z</time>
      </trkpt>
      <trkpt lat="45.79689" lon="6.08354">
        <ele>1014.91</ele>
        <time>2016-01-17T11:23:00Z</time>
      </trkpt>
      <trkpt lat="45.79689" lon="6.08354">
        <ele>1014.88</ele>
        <time>2016-01-17T11:23:01Z</time>
      </trkpt>
      <trkpt lat="45.79689" lon="6.08354">
        <ele>1015.73</ele>
        <time>2016-01-17T11:23:02Z</time>
      </trkpt>
      <trkpt lat="45.79689" lon="6.08353">
        <ele>1015.73</ele>
        <time>2016-01-17T11:23:03Z</time>
      </trkpt>
      <trkpt lat="45.79689" lon="6.08353">
        <ele>1015.73</ele>
        <time>2016-01-17T11:23:04Z</time>
      </trkpt>
      <trkpt lat="45.79689" lon="6.08352">
        <ele>1015.73</ele>
        <time>2016-01-17T11:23:05Z</time>
      </trkpt>
      <trkpt lat="45.79689" lon="6.08352">
        <ele>1015.72</ele>
        <time>2016-01-17T11:23:06Z</time>
      </trkpt>
      <trkpt lat="45.79689" lon="6.08351">
        <ele>1015.73</ele>
        <time>2016-01-17T11:23:07Z</time>
      </trkpt>
      <trkpt lat="45.79689" lon="6.0835">
        <ele>1015.75</ele>
        <time>2016-01-17T11:23:08Z</time>
      </trkpt>
      <trkpt lat="45.79689" lon="6.0835">
        <ele>1015.71</ele>
        <time>2016-01-17T11:23:09Z</time>
      </trkpt>
      <trkpt lat="45.79689" lon="6.08349">
        <ele>1015.72</ele>
        <time>2016-01-17T11:23:10Z</time>
      </trkpt>
      <trkpt lat="45.79689" lon="6.08349">
        <ele>1015.72</ele>
        <time>2016-01-17T11:23:11Z</time>
      </trkpt>
      <trkpt lat="45.79689" lon="6.08349">
        <ele>1015.73</ele>
        <time>2016-01-17T11:23:12Z</time>
      </trkpt>
      <trkpt lat="45.79689" lon="6.08349">
        <ele>1015.71</ele>
        <time>2016-01-17T11:23:13Z</time>
      </trkpt>
      <trkpt lat="45.79689" lon="6.08348">
        <ele>1015.73</ele>
        <time>2016-01-17T11:23:14Z</time>
      </trkpt>
      <trkpt lat="45.79689" lon="6.08348">
        <ele>1015.69</ele>
        <time>2016-01-17T11:23:15Z</time>
      </trkpt>
      <trkpt lat="45.79689" lon="6.08348">
        <ele>1015.73</ele>
        <time>2016-01-17T11:23:16Z</time>
      </trkpt>
      <trkpt lat="45.79689" lon="6.08349">
        <ele>1015.73</ele>
        <time>2016-01-17T11:23:17Z</time>
      </trkpt>
      <trkpt lat="45.79689" lon="6.08349">
        <ele>1015.72</ele>
        <time>2016-01-17T11:23:18Z</time>
      </trkpt>
      <trkpt lat="45.7969" lon="6.08348">
        <ele>1015.73</ele>
        <time>2016-01-17T11:23:19Z</time>
      </trkpt>
      <trkpt lat="45.79689" lon="6.08349">
        <ele>1015.73</ele>
        <time>2016-01-17T11:23:20Z</time>
      </trkpt>
      <trkpt lat="45.79688" lon="6.08349">
        <ele>1015.69</ele>
        <time>2016-01-17T11:23:21Z</time>
      </trkpt>
      <trkpt lat="45.79688" lon="6.0835">
        <ele>1015.72</ele>
        <time>2016-01-17T11:23:22Z</time>
      </trkpt>
      <trkpt lat="45.79687" lon="6.08351">
        <ele>1015.73</ele>
        <time>2016-01-17T11:23:23Z</time>
      </trkpt>
      <trkpt lat="45.79686" lon="6.08351">
        <ele>1015.73</ele>
        <time>2016-01-17T11:23:24Z</time>
      </trkpt>
      <trkpt lat="45.79686" lon="6.08351">
        <ele>1015.79</ele>
        <time>2016-01-17T11:23:25Z</time>
      </trkpt>
      <trkpt lat="45.79686" lon="6.08352">
        <ele>1015.8</ele>
        <time>2016-01-17T11:23:26Z</time>
      </trkpt>
      <trkpt lat="45.79686" lon="6.08353">
        <ele>1015.79</ele>
        <time>2016-01-17T11:23:27Z</time>
      </trkpt>
      <trkpt lat="45.79685" lon="6.08354">
        <ele>1015.79</ele>
        <time>2016-01-17T11:23:28Z</time>
      </trkpt>
      <trkpt lat="45.79685" lon="6.08354">
        <ele>1015.83</ele>
        <time>2016-01-17T11:23:29Z</time>
      </trkpt>
      <trkpt lat="45.79684" lon="6.08355">
        <ele>1016.73</ele>
        <time>2016-01-17T11:23:30Z</time>
      </trkpt>
      <trkpt lat="45.79683" lon="6.08355">
        <ele>1016.73</ele>
        <time>2016-01-17T11:23:31Z</time>
      </trkpt>
      <trkpt lat="45.79683" lon="6.08356">
        <ele>1016.75</ele>
        <time>2016-01-17T11:23:32Z</time>
      </trkpt>
      <trkpt lat="45.79682" lon="6.08357">
        <ele>1016.73</ele>
        <time>2016-01-17T11:23:33Z</time>
      </trkpt>
      <trkpt lat="45.79681" lon="6.08358">
        <ele>1016.77</ele>
        <time>2016-01-17T11:23:34Z</time>
      </trkpt>
      <trkpt lat="45.79681" lon="6.08358">
        <ele>1016.73</ele>
        <time>2016-01-17T11:23:35Z</time>
      </trkpt>
      <trkpt lat="45.7968" lon="6.08359">
        <ele>1017.77</ele>
        <time>2016-01-17T11:23:36Z</time>
      </trkpt>
      <trkpt lat="45.79679" lon="6.0836">
        <ele>1017.81</ele>
        <time>2016-01-17T11:23:37Z</time>
      </trkpt>
      <trkpt lat="45.79679" lon="6.0836">
        <ele>1017.76</ele>
        <time>2016-01-17T11:23:38Z</time>
      </trkpt>
      <trkpt lat="45.79679" lon="6.0836">
        <ele>1017.76</ele>
        <time>2016-01-17T11:23:39Z</time>
      </trkpt>
      <trkpt lat="45.79679" lon="6.0836">
        <ele>1017.62</ele>
        <time>2016-01-17T11:23:40Z</time>
      </trkpt>
      <trkpt lat="45.79679" lon="6.0836">
        <ele>1017.74</ele>
        <time>2016-01-17T11:23:41Z</time>
      </trkpt>
      <trkpt lat="45.79678" lon="6.08361">
        <ele>1017.61</ele>
        <time>2016-01-17T11:23:42Z</time>
      </trkpt>
      <trkpt lat="45.79678" lon="6.08362">
        <ele>1017.61</ele>
        <time>2016-01-17T11:23:43Z</time>
      </trkpt>
      <trkpt lat="45.79678" lon="6.08363">
        <ele>1017.64</ele>
        <time>2016-01-17T11:23:44Z</time>
      </trkpt>
      <trkpt lat="45.79678" lon="6.08363">
        <ele>1017.67</ele>
        <time>2016-01-17T11:23:45Z</time>
      </trkpt>
      <trkpt lat="45.79678" lon="6.08363">
        <ele>1017.63</ele>
        <time>2016-01-17T11:23:46Z</time>
      </trkpt>
      <trkpt lat="45.79678" lon="6.08363">
        <ele>1017.66</ele>
        <time>2016-01-17T11:23:47Z</time>
      </trkpt>
      <trkpt lat="45.79678" lon="6.08364">
        <ele>1017.61</ele>
        <time>2016-01-17T11:23:48Z</time>
      </trkpt>
      <trkpt lat="45.79678" lon="6.08364">
        <ele>1017.62</ele>
        <time>2016-01-17T11:23:49Z</time>
      </trkpt>
      <trkpt lat="45.79678" lon="6.08364">
        <ele>1017.6</ele>
        <time>2016-01-17T11:23:50Z</time>
      </trkpt>
      <trkpt lat="45.79678" lon="6.08365">
        <ele>1017.61</ele>
        <time>2016-01-17T11:23:51Z</time>
      </trkpt>
      <trkpt lat="45.79678" lon="6.08364">
        <ele>1017.6</ele>
        <time>2016-01-17T11:23:52Z</time>
      </trkpt>
      <trkpt lat="45.79678" lon="6.08364">
        <ele>1017.6</ele>
        <time>2016-01-17T11:23:53Z</time>
      </trkpt>
      <trkpt lat="45.79677" lon="6.08364">
        <ele>1017.6</ele>
        <time>2016-01-17T11:23:54Z</time>
      </trkpt>
      <trkpt lat="45.79677" lon="6.08364">
        <ele>1017.58</ele>
        <time>2016-01-17T11:23:55Z</time>
      </trkpt>
      <trkpt lat="45.79677" lon="6.08364">
        <ele>1017.58</ele>
        <time>2016-01-17T11:23:56Z</time>
      </trkpt>
      <trkpt lat="45.79677" lon="6.08364">
        <ele>1017.59</ele>
        <time>2016-01-17T11:23:57Z</time>
      </trkpt>
      <trkpt lat="45.79676" lon="6.08365">
        <ele>1017.59</ele>
        <time>2016-01-17T11:23:58Z</time>
      </trkpt>
      <trkpt lat="45.79676" lon="6.08366">
        <ele>1017.58</ele>
        <time>2016-01-17T11:23:59Z</time>
      </trkpt>
      <trkpt lat="45.79676" lon="6.08366">
        <ele>1017.54</ele>
        <time>2016-01-17T11:24:00Z</time>
      </trkpt>
      <trkpt lat="45.79676" lon="6.08367">
        <ele>1017.58</ele>
        <time>2016-01-17T11:24:01Z</time>
      </trkpt>
      <trkpt lat="45.79675" lon="6.08368">
        <ele>1017.6</ele>
        <time>2016-01-17T11:24:02Z</time>
      </trkpt>
      <trkpt lat="45.79675" lon="6.08368">
        <ele>1017.61</ele>
        <time>2016-01-17T11:24:03Z</time>
      </trkpt>
      <trkpt lat="45.79674" lon="6.08369">
        <ele>1018.57</ele>
        <time>2016-01-17T11:24:04Z</time>
      </trkpt>
      <trkpt lat="45.79674" lon="6.08369">
        <ele>1018.62</ele>
        <time>2016-01-17T11:24:05Z</time>
      </trkpt>
      <trkpt lat="45.79674" lon="6.08369">
        <ele>1018.57</ele>
        <time>2016-01-17T11:24:06Z</time>
      </trkpt>
      <trkpt lat="45.79673" lon="6.0837">
        <ele>1018.56</ele>
        <time>2016-01-17T11:24:07Z</time>
      </trkpt>
      <trkpt lat="45.79673" lon="6.0837">
        <ele>1018.58</ele>
        <time>2016-01-17T11:24:08Z</time>
      </trkpt>
      <trkpt lat="45.79674" lon="6.0837">
        <ele>1019.43</ele>
        <time>2016-01-17T11:24:09Z</time>
      </trkpt>
      <trkpt lat="45.79673" lon="6.08371">
        <ele>1019.47</ele>
        <time>2016-01-17T11:24:10Z</time>
      </trkpt>
      <trkpt lat="45.79673" lon="6.08371">
        <ele>1019.45</ele>
        <time>2016-01-17T11:24:11Z</time>
      </trkpt>
      <trkpt lat="45.79674" lon="6.08371">
        <ele>1019.34</ele>
        <time>2016-01-17T11:24:12Z</time>
      </trkpt>
      <trkpt lat="45.79674" lon="6.08372">
        <ele>1020.66</ele>
        <time>2016-01-17T11:24:13Z</time>
      </trkpt>
      <trkpt lat="45.79673" lon="6.08372">
        <ele>1020.68</ele>
        <time>2016-01-17T11:24:14Z</time>
      </trkpt>
      <trkpt lat="45.79673" lon="6.08373">
        <ele>1020.63</ele>
        <time>2016-01-17T11:24:15Z</time>
      </trkpt>
      <trkpt lat="45.79673" lon="6.08373">
        <ele>1020.65</ele>
        <time>2016-01-17T11:24:16Z</time>
      </trkpt>
      <trkpt lat="45.79673" lon="6.08373">
        <ele>1020.52</ele>
        <time>2016-01-17T11:24:17Z</time>
      </trkpt>
      <trkpt lat="45.79673" lon="6.08374">
        <ele>1020.61</ele>
        <time>2016-01-17T11:24:18Z</time>
      </trkpt>
      <trkpt lat="45.79673" lon="6.08374">
        <ele>1021.51</ele>
        <time>2016-01-17T11:24:19Z</time>
      </trkpt>
      <trkpt lat="45.79672" lon="6.08374">
        <ele>1021.5</ele>
        <time>2016-01-17T11:24:20Z</time>
      </trkpt>
      <trkpt lat="45.79672" lon="6.08374">
        <ele>1021.47</ele>
        <time>2016-01-17T11:24:21Z</time>
      </trkpt>
      <trkpt lat="45.79671" lon="6.08375">
        <ele>1021.5</ele>
        <time>2016-01-17T11:24:22Z</time>
      </trkpt>
      <trkpt lat="45.79671" lon="6.08375">
        <ele>1022.31</ele>
        <time>2016-01-17T11:24:23Z</time>
      </trkpt>
      <trkpt lat="45.79671" lon="6.08374">
        <ele>1022.31</ele>
        <time>2016-01-17T11:24:24Z</time>
      </trkpt>
      <trkpt lat="45.79671" lon="6.08374">
        <ele>1022.31</ele>
        <time>2016-01-17T11:24:25Z</time>
      </trkpt>
      <trkpt lat="45.79671" lon="6.08374">
        <ele>1022.26</ele>
        <time>2016-01-17T11:24:26Z</time>
      </trkpt>
      <trkpt lat="45.79671" lon="6.08375">
        <ele>1022.34</ele>
        <time>2016-01-17T11:24:27Z</time>
      </trkpt>
      <trkpt lat="45.79671" lon="6.08375">
        <ele>1022.34</ele>
        <time>2016-01-17T11:24:28Z</time>
      </trkpt>
      <trkpt lat="45.79671" lon="6.08376">
        <ele>1022.31</ele>
        <time>2016-01-17T11:24:29Z</time>
      </trkpt>
      <trkpt lat="45.7967" lon="6.08376">
        <ele>1023.63</ele>
        <time>2016-01-17T11:24:30Z</time>
      </trkpt>
      <trkpt lat="45.7967" lon="6.08376">
        <ele>1023.62</ele>
        <time>2016-01-17T11:24:31Z</time>
      </trkpt>
      <trkpt lat="45.7967" lon="6.08377">
        <ele>1023.63</ele>
        <time>2016-01-17T11:24:32Z</time>
      </trkpt>
      <trkpt lat="45.7967" lon="6.08377">
        <ele>1023.63</ele>
        <time>2016-01-17T11:24:33Z</time>
      </trkpt>
      <trkpt lat="45.79669" lon="6.08377">
        <ele>1024.42</ele>
        <time>2016-01-17T11:24:34Z</time>
      </trkpt>
      <trkpt lat="45.7967" lon="6.08378">
        <ele>1024.4</ele>
        <time>2016-01-17T11:24:35Z</time>
      </trkpt>
      <trkpt lat="45.7967" lon="6.08378">
        <ele>1024.39</ele>
        <time>2016-01-17T11:24:36Z</time>
      </trkpt>
      <trkpt lat="45.79671" lon="6.08378">
        <ele>1024.39</ele>
        <time>2016-01-17T11:24:37Z</time>
      </trkpt>
      <trkpt lat="45.79671" lon="6.08377">
        <ele>1024.39</ele>
        <time>2016-01-17T11:24:38Z</time>
      </trkpt>
      <trkpt lat="45.7967" lon="6.08377">
        <ele>1024.36</ele>
        <time>2016-01-17T11:24:39Z</time>
      </trkpt>
      <trkpt lat="45.7967" lon="6.08377">
        <ele>1025.6</ele>
        <time>2016-01-17T11:24:40Z</time>
      </trkpt>
      <trkpt lat="45.79669" lon="6.08376">
        <ele>1025.54</ele>
        <time>2016-01-17T11:24:41Z</time>
      </trkpt>
      <trkpt lat="45.79669" lon="6.08377">
        <ele>1025.54</ele>
        <time>2016-01-17T11:24:42Z</time>
      </trkpt>
      <trkpt lat="45.79669" lon="6.08377">
        <ele>1025.55</ele>
        <time>2016-01-17T11:24:43Z</time>
      </trkpt>
      <trkpt lat="45.7967" lon="6.08378">
        <ele>1025.45</ele>
        <time>2016-01-17T11:24:44Z</time>
      </trkpt>
      <trkpt lat="45.79669" lon="6.08378">
        <ele>1025.53</ele>
        <time>2016-01-17T11:24:45Z</time>
      </trkpt>
      <trkpt lat="45.7967" lon="6.08378">
        <ele>1026.64</ele>
        <time>2016-01-17T11:24:46Z</time>
      </trkpt>
      <trkpt lat="45.79667" lon="6.08379">
        <ele>1026.6</ele>
        <time>2016-01-17T11:24:47Z</time>
      </trkpt>
      <trkpt lat="45.79665" lon="6.08379">
        <ele>1026.62</ele>
        <time>2016-01-17T11:24:48Z</time>
      </trkpt>
      <trkpt lat="45.79664" lon="6.08379">
        <ele>1026.51</ele>
        <time>2016-01-17T11:24:49Z</time>
      </trkpt>
      <trkpt lat="45.79664" lon="6.0838">
        <ele>1026.61</ele>
        <time>2016-01-17T11:24:50Z</time>
      </trkpt>
      <trkpt lat="45.79664" lon="6.0838">
        <ele>1026.6</ele>
        <time>2016-01-17T11:24:51Z</time>
      </trkpt>
      <trkpt lat="45.79664" lon="6.08381">
        <ele>1027.55</ele>
        <time>2016-01-17T11:24:52Z</time>
      </trkpt>
      <trkpt lat="45.79664" lon="6.08381">
        <ele>1027.51</ele>
        <time>2016-01-17T11:24:53Z</time>
      </trkpt>
      <trkpt lat="45.79663" lon="6.08381">
        <ele>1027.49</ele>
        <time>2016-01-17T11:24:54Z</time>
      </trkpt>
      <trkpt lat="45.79662" lon="6.08382">
        <ele>1027.41</ele>
        <time>2016-01-17T11:24:55Z</time>
      </trkpt>
      <trkpt lat="45.79662" lon="6.08382">
        <ele>1027.5</ele>
        <time>2016-01-17T11:24:56Z</time>
      </trkpt>
      <trkpt lat="45.79661" lon="6.08383">
        <ele>1027.38</ele>
        <time>2016-01-17T11:24:57Z</time>
      </trkpt>
      <trkpt lat="45.79661" lon="6.08384">
        <ele>1027.38</ele>
        <time>2016-01-17T11:24:58Z</time>
      </trkpt>
      <trkpt lat="45.7966" lon="6.08384">
        <ele>1028.86</ele>
        <time>2016-01-17T11:24:59Z</time>
      </trkpt>
      <trkpt lat="45.7966" lon="6.08384">
        <ele>1028.85</ele>
        <time>2016-01-17T11:25:00Z</time>
      </trkpt>
      <trkpt lat="45.7966" lon="6.08384">
        <ele>1028.84</ele>
        <time>2016-01-17T11:25:01Z</time>
      </trkpt>
      <trkpt lat="45.79659" lon="6.08384">
        <ele>1028.73</ele>
        <time>2016-01-17T11:25:02Z</time>
      </trkpt>
      <trkpt lat="45.79659" lon="6.08384">
        <ele>1028.81</ele>
        <time>2016-01-17T11:25:03Z</time>
      </trkpt>
      <trkpt lat="45.7966" lon="6.08384">
        <ele>1029.57</ele>
        <time>2016-01-17T11:25:04Z</time>
      </trkpt>
      <trkpt lat="45.7966" lon="6.08384">
        <ele>1029.67</ele>
        <time>2016-01-17T11:25:05Z</time>
      </trkpt>
      <trkpt lat="45.79659" lon="6.08384">
        <ele>1029.54</ele>
        <time>2016-01-17T11:25:06Z</time>
      </trkpt>
      <trkpt lat="45.79658" lon="6.08384">
        <ele>1029.64</ele>
        <time>2016-01-17T11:25:07Z</time>
      </trkpt>
      <trkpt lat="45.79659" lon="6.08385">
        <ele>1029.65</ele>
        <time>2016-01-17T11:25:08Z</time>
      </trkpt>
      <trkpt lat="45.79658" lon="6.08385">
        <ele>1029.51</ele>
        <time>2016-01-17T11:25:09Z</time>
      </trkpt>
      <trkpt lat="45.79656" lon="6.08385">
        <ele>1029.57</ele>
        <time>2016-01-17T11:25:10Z</time>
      </trkpt>
      <trkpt lat="45.79655" lon="6.08385">
        <ele>1029.56</ele>
        <time>2016-01-17T11:25:11Z</time>
      </trkpt>
      <trkpt lat="45.79654" lon="6.08385">
        <ele>1029.55</ele>
        <time>2016-01-17T11:25:12Z</time>
      </trkpt>
      <trkpt lat="45.79652" lon="6.08386">
        <ele>1029.55</ele>
        <time>2016-01-17T11:25:13Z</time>
      </trkpt>
      <trkpt lat="45.79652" lon="6.08387">
        <ele>1029.54</ele>
        <time>2016-01-17T11:25:14Z</time>
      </trkpt>
      <trkpt lat="45.79652" lon="6.08386">
        <ele>1029.52</ele>
        <time>2016-01-17T11:25:15Z</time>
      </trkpt>
      <trkpt lat="45.79651" lon="6.08387">
        <ele>1029.5</ele>
        <time>2016-01-17T11:25:16Z</time>
      </trkpt>
      <trkpt lat="45.79651" lon="6.08387">
        <ele>1030.33</ele>
        <time>2016-01-17T11:25:17Z</time>
      </trkpt>
      <trkpt lat="45.79649" lon="6.08386">
        <ele>1030.26</ele>
        <time>2016-01-17T11:25:18Z</time>
      </trkpt>
      <trkpt lat="45.79648" lon="6.08386">
        <ele>1030.31</ele>
        <time>2016-01-17T11:25:19Z</time>
      </trkpt>
      <trkpt lat="45.79648" lon="6.08386">
        <ele>1030.31</ele>
        <time>2016-01-17T11:25:20Z</time>
      </trkpt>
      <trkpt lat="45.79648" lon="6.08385">
        <ele>1030.28</ele>
        <time>2016-01-17T11:25:21Z</time>
      </trkpt>
      <trkpt lat="45.79646" lon="6.08385">
        <ele>1030.28</ele>
        <time>2016-01-17T11:25:22Z</time>
      </trkpt>
      <trkpt lat="45.79646" lon="6.08385">
        <ele>1030.26</ele>
        <time>2016-01-17T11:25:23Z</time>
      </trkpt>
      <trkpt lat="45.79645" lon="6.08386">
        <ele>1030.26</ele>
        <time>2016-01-17T11:25:24Z</time>
      </trkpt>
      <trkpt lat="45.79643" lon="6.08386">
        <ele>1030.24</ele>
        <time>2016-01-17T11:25:25Z</time>
      </trkpt>
      <trkpt lat="45.79643" lon="6.08386">
        <ele>1031.09</ele>
        <time>2016-01-17T11:25:26Z</time>
      </trkpt>
      <trkpt lat="45.79642" lon="6.08386">
        <ele>1031.08</ele>
        <time>2016-01-17T11:25:27Z</time>
      </trkpt>
      <trkpt lat="45.79641" lon="6.08387">
        <ele>1031.07</ele>
        <time>2016-01-17T11:25:28Z</time>
      </trkpt>
      <trkpt lat="45.79637" lon="6.08388">
        <ele>1031.05</ele>
        <time>2016-01-17T11:25:29Z</time>
      </trkpt>
      <trkpt lat="45.79634" lon="6.08388">
        <ele>1031.05</ele>
        <time>2016-01-17T11:25:30Z</time>
      </trkpt>
      <trkpt lat="45.79631" lon="6.08388">
        <ele>1032</ele>
        <time>2016-01-17T11:25:31Z</time>
      </trkpt>
      <trkpt lat="45.79628" lon="6.08389">
        <ele>1031.96</ele>
        <time>2016-01-17T11:25:32Z</time>
      </trkpt>
      <trkpt lat="45.79627" lon="6.08389">
        <ele>1031.96</ele>
        <time>2016-01-17T11:25:33Z</time>
      </trkpt>
      <trkpt lat="45.79626" lon="6.08389">
        <ele>1031.94</ele>
        <time>2016-01-17T11:25:34Z</time>
      </trkpt>
      <trkpt lat="45.79625" lon="6.0839">
        <ele>1031.96</ele>
        <time>2016-01-17T11:25:35Z</time>
      </trkpt>
      <trkpt lat="45.7962" lon="6.08392">
        <ele>1031.87</ele>
        <time>2016-01-17T11:25:36Z</time>
      </trkpt>
      <trkpt lat="45.79619" lon="6.08391">
        <ele>1031.94</ele>
        <time>2016-01-17T11:25:37Z</time>
      </trkpt>
      <trkpt lat="45.79617" lon="6.08391">
        <ele>1031.92</ele>
        <time>2016-01-17T11:25:38Z</time>
      </trkpt>
      <trkpt lat="45.79616" lon="6.08391">
        <ele>1031.89</ele>
        <time>2016-01-17T11:25:39Z</time>
      </trkpt>
      <trkpt lat="45.79616" lon="6.08391">
        <ele>1031.83</ele>
        <time>2016-01-17T11:25:40Z</time>
      </trkpt>
      <trkpt lat="45.79615" lon="6.08391">
        <ele>1031.83</ele>
        <time>2016-01-17T11:25:41Z</time>
      </trkpt>
      <trkpt lat="45.79614" lon="6.0839">
        <ele>1031.86</ele>
        <time>2016-01-17T11:25:42Z</time>
      </trkpt>
      <trkpt lat="45.79613" lon="6.0839">
        <ele>1031.81</ele>
        <time>2016-01-17T11:25:43Z</time>
      </trkpt>
      <trkpt lat="45.79613" lon="6.08389">
        <ele>1031.8</ele>
        <time>2016-01-17T11:25:44Z</time>
      </trkpt>
      <trkpt lat="45.79611" lon="6.08389">
        <ele>1032.9</ele>
        <time>2016-01-17T11:25:45Z</time>
      </trkpt>
      <trkpt lat="45.79611" lon="6.08389">
        <ele>1032.86</ele>
        <time>2016-01-17T11:25:46Z</time>
      </trkpt>
      <trkpt lat="45.7961" lon="6.08389">
        <ele>1032.85</ele>
        <time>2016-01-17T11:25:47Z</time>
      </trkpt>
      <trkpt lat="45.79609" lon="6.08389">
        <ele>1032.85</ele>
        <time>2016-01-17T11:25:48Z</time>
      </trkpt>
      <trkpt lat="45.79609" lon="6.0839">
        <ele>1032.83</ele>
        <time>2016-01-17T11:25:49Z</time>
      </trkpt>
      <trkpt lat="45.79607" lon="6.0839">
        <ele>1032.82</ele>
        <time>2016-01-17T11:25:50Z</time>
      </trkpt>
      <trkpt lat="45.79605" lon="6.08392">
        <ele>1032.85</ele>
        <time>2016-01-17T11:25:51Z</time>
      </trkpt>
      <trkpt lat="45.79604" lon="6.08392">
        <ele>1032.8</ele>
        <time>2016-01-17T11:25:52Z</time>
      </trkpt>
      <trkpt lat="45.79602" lon="6.08392">
        <ele>1032.84</ele>
        <time>2016-01-17T11:25:53Z</time>
      </trkpt>
      <trkpt lat="45.79601" lon="6.08392">
        <ele>1033.72</ele>
        <time>2016-01-17T11:25:54Z</time>
      </trkpt>
      <trkpt lat="45.79599" lon="6.08393">
        <ele>1033.75</ele>
        <time>2016-01-17T11:25:55Z</time>
      </trkpt>
      <trkpt lat="45.79599" lon="6.08393">
        <ele>1033.7</ele>
        <time>2016-01-17T11:25:56Z</time>
      </trkpt>
      <trkpt lat="45.79598" lon="6.08392">
        <ele>1033.69</ele>
        <time>2016-01-17T11:25:57Z</time>
      </trkpt>
      <trkpt lat="45.79597" lon="6.08392">
        <ele>1033.68</ele>
        <time>2016-01-17T11:25:58Z</time>
      </trkpt>
      <trkpt lat="45.79596" lon="6.0839">
        <ele>1033.74</ele>
        <time>2016-01-17T11:25:59Z</time>
      </trkpt>
      <trkpt lat="45.79596" lon="6.0839">
        <ele>1033.66</ele>
        <time>2016-01-17T11:26:00Z</time>
      </trkpt>
      <trkpt lat="45.79595" lon="6.08388">
        <ele>1034.51</ele>
        <time>2016-01-17T11:26:01Z</time>
      </trkpt>
      <trkpt lat="45.79594" lon="6.08387">
        <ele>1034.5</ele>
        <time>2016-01-17T11:26:02Z</time>
      </trkpt>
      <trkpt lat="45.79594" lon="6.08386">
        <ele>1034.58</ele>
        <time>2016-01-17T11:26:03Z</time>
      </trkpt>
      <trkpt lat="45.79594" lon="6.08386">
        <ele>1034.48</ele>
        <time>2016-01-17T11:26:04Z</time>
      </trkpt>
      <trkpt lat="45.79593" lon="6.08386">
        <ele>1034.47</ele>
        <time>2016-01-17T11:26:05Z</time>
      </trkpt>
      <trkpt lat="45.79593" lon="6.08386">
        <ele>1035.41</ele>
        <time>2016-01-17T11:26:06Z</time>
      </trkpt>
      <trkpt lat="45.79592" lon="6.08385">
        <ele>1035.39</ele>
        <time>2016-01-17T11:26:07Z</time>
      </trkpt>
      <trkpt lat="45.79592" lon="6.08385">
        <ele>1035.38</ele>
        <time>2016-01-17T11:26:08Z</time>
      </trkpt>
      <trkpt lat="45.7959" lon="6.08385">
        <ele>1035.45</ele>
        <time>2016-01-17T11:26:09Z</time>
      </trkpt>
      <trkpt lat="45.7959" lon="6.08385">
        <ele>1035.36</ele>
        <time>2016-01-17T11:26:10Z</time>
      </trkpt>
      <trkpt lat="45.7959" lon="6.08384">
        <ele>1035.4</ele>
        <time>2016-01-17T11:26:11Z</time>
      </trkpt>
      <trkpt lat="45.7959" lon="6.08384">
        <ele>1035.34</ele>
        <time>2016-01-17T11:26:12Z</time>
      </trkpt>
      <trkpt lat="45.79589" lon="6.08383">
        <ele>1035.32</ele>
        <time>2016-01-17T11:26:13Z</time>
      </trkpt>
      <trkpt lat="45.79589" lon="6.08383">
        <ele>1035.31</ele>
        <time>2016-01-17T11:26:14Z</time>
      </trkpt>
      <trkpt lat="45.79589" lon="6.08383">
        <ele>1036.3</ele>
        <time>2016-01-17T11:26:15Z</time>
      </trkpt>
      <trkpt lat="45.79588" lon="6.08383">
        <ele>1036.2</ele>
        <time>2016-01-17T11:26:16Z</time>
      </trkpt>
      <trkpt lat="45.79588" lon="6.08383">
        <ele>1036.28</ele>
        <time>2016-01-17T11:26:17Z</time>
      </trkpt>
      <trkpt lat="45.79588" lon="6.08382">
        <ele>1036.18</ele>
        <time>2016-01-17T11:26:18Z</time>
      </trkpt>
      <trkpt lat="45.79588" lon="6.08382">
        <ele>1036.2</ele>
        <time>2016-01-17T11:26:19Z</time>
      </trkpt>
      <trkpt lat="45.79587" lon="6.08382">
        <ele>1036.98</ele>
        <time>2016-01-17T11:26:20Z</time>
      </trkpt>
      <trkpt lat="45.79586" lon="6.0838">
        <ele>1037.02</ele>
        <time>2016-01-17T11:26:21Z</time>
      </trkpt>
      <trkpt lat="45.79586" lon="6.0838">
        <ele>1036.95</ele>
        <time>2016-01-17T11:26:22Z</time>
      </trkpt>
      <trkpt lat="45.79585" lon="6.0838">
        <ele>1036.94</ele>
        <time>2016-01-17T11:26:23Z</time>
      </trkpt>
      <trkpt lat="45.79585" lon="6.08379">
        <ele>1037.79</ele>
        <time>2016-01-17T11:26:24Z</time>
      </trkpt>
      <trkpt lat="45.79584" lon="6.08378">
        <ele>1037.78</ele>
        <time>2016-01-17T11:26:25Z</time>
      </trkpt>
      <trkpt lat="45.79584" lon="6.08377">
        <ele>1037.76</ele>
        <time>2016-01-17T11:26:26Z</time>
      </trkpt>
      <trkpt lat="45.79583" lon="6.08376">
        <ele>1037.82</ele>
        <time>2016-01-17T11:26:27Z</time>
      </trkpt>
      <trkpt lat="45.79583" lon="6.08376">
        <ele>1037.75</ele>
        <time>2016-01-17T11:26:28Z</time>
      </trkpt>
      <trkpt lat="45.79581" lon="6.08376">
        <ele>1037.74</ele>
        <time>2016-01-17T11:26:29Z</time>
      </trkpt>
      <trkpt lat="45.7958" lon="6.08375">
        <ele>1037.71</ele>
        <time>2016-01-17T11:26:30Z</time>
      </trkpt>
      <trkpt lat="45.7958" lon="6.08374">
        <ele>1037.71</ele>
        <time>2016-01-17T11:26:31Z</time>
      </trkpt>
      <trkpt lat="45.79578" lon="6.08375">
        <ele>1037.7</ele>
        <time>2016-01-17T11:26:32Z</time>
      </trkpt>
      <trkpt lat="45.79577" lon="6.08374">
        <ele>1037.75</ele>
        <time>2016-01-17T11:26:33Z</time>
      </trkpt>
      <trkpt lat="45.79577" lon="6.08374">
        <ele>1037.68</ele>
        <time>2016-01-17T11:26:34Z</time>
      </trkpt>
      <trkpt lat="45.79576" lon="6.08374">
        <ele>1037.71</ele>
        <time>2016-01-17T11:26:35Z</time>
      </trkpt>
      <trkpt lat="45.79576" lon="6.08373">
        <ele>1037.66</ele>
        <time>2016-01-17T11:26:36Z</time>
      </trkpt>
      <trkpt lat="45.79575" lon="6.08373">
        <ele>1037.65</ele>
        <time>2016-01-17T11:26:37Z</time>
      </trkpt>
      <trkpt lat="45.79574" lon="6.08373">
        <ele>1037.63</ele>
        <time>2016-01-17T11:26:38Z</time>
      </trkpt>
      <trkpt lat="45.79574" lon="6.08372">
        <ele>1037.62</ele>
        <time>2016-01-17T11:26:39Z</time>
      </trkpt>
      <trkpt lat="45.79573" lon="6.08372">
        <ele>1037.61</ele>
        <time>2016-01-17T11:26:40Z</time>
      </trkpt>
      <trkpt lat="45.79572" lon="6.08372">
        <ele>1037.63</ele>
        <time>2016-01-17T11:26:41Z</time>
      </trkpt>
      <trkpt lat="45.79572" lon="6.08371">
        <ele>1037.57</ele>
        <time>2016-01-17T11:26:42Z</time>
      </trkpt>
      <trkpt lat="45.79571" lon="6.08371">
        <ele>1037.57</ele>
        <time>2016-01-17T11:26:43Z</time>
      </trkpt>
      <trkpt lat="45.7957" lon="6.08371">
        <ele>1037.56</ele>
        <time>2016-01-17T11:26:44Z</time>
      </trkpt>
      <trkpt lat="45.79569" lon="6.08371">
        <ele>1038.72</ele>
        <time>2016-01-17T11:26:45Z</time>
      </trkpt>
      <trkpt lat="45.79568" lon="6.08371">
        <ele>1038.67</ele>
        <time>2016-01-17T11:26:46Z</time>
      </trkpt>
      <trkpt lat="45.79568" lon="6.0837">
        <ele>1038.66</ele>
        <time>2016-01-17T11:26:47Z</time>
      </trkpt>
      <trkpt lat="45.79567" lon="6.0837">
        <ele>1038.64</ele>
        <time>2016-01-17T11:26:48Z</time>
      </trkpt>
      <trkpt lat="45.79567" lon="6.08367">
        <ele>1038.62</ele>
        <time>2016-01-17T11:26:49Z</time>
      </trkpt>
      <trkpt lat="45.79567" lon="6.08367">
        <ele>1038.62</ele>
        <time>2016-01-17T11:26:50Z</time>
      </trkpt>
      <trkpt lat="45.79566" lon="6.08366">
        <ele>1039.51</ele>
        <time>2016-01-17T11:26:51Z</time>
      </trkpt>
      <trkpt lat="45.79565" lon="6.08367">
        <ele>1039.47</ele>
        <time>2016-01-17T11:26:52Z</time>
      </trkpt>
      <trkpt lat="45.79565" lon="6.08366">
        <ele>1039.46</ele>
        <time>2016-01-17T11:26:53Z</time>
      </trkpt>
      <trkpt lat="45.79565" lon="6.08365">
        <ele>1039.45</ele>
        <time>2016-01-17T11:26:54Z</time>
      </trkpt>
      <trkpt lat="45.79564" lon="6.08364">
        <ele>1039.44</ele>
        <time>2016-01-17T11:26:55Z</time>
      </trkpt>
      <trkpt lat="45.79564" lon="6.08363">
        <ele>1039.42</ele>
        <time>2016-01-17T11:26:56Z</time>
      </trkpt>
      <trkpt lat="45.79564" lon="6.08362">
        <ele>1039.43</ele>
        <time>2016-01-17T11:26:57Z</time>
      </trkpt>
      <trkpt lat="45.79564" lon="6.08362">
        <ele>1039.41</ele>
        <time>2016-01-17T11:26:58Z</time>
      </trkpt>
      <trkpt lat="45.79564" lon="6.08361">
        <ele>1039.4</ele>
        <time>2016-01-17T11:26:59Z</time>
      </trkpt>
      <trkpt lat="45.79564" lon="6.08361">
        <ele>1039.38</ele>
        <time>2016-01-17T11:27:00Z</time>
      </trkpt>
      <trkpt lat="45.79563" lon="6.0836">
        <ele>1040.34</ele>
        <time>2016-01-17T11:27:01Z</time>
      </trkpt>
      <trkpt lat="45.79562" lon="6.0836">
        <ele>1040.33</ele>
        <time>2016-01-17T11:27:02Z</time>
      </trkpt>
      <trkpt lat="45.79562" lon="6.0836">
        <ele>1040.3</ele>
        <time>2016-01-17T11:27:03Z</time>
      </trkpt>
      <trkpt lat="45.79561" lon="6.08359">
        <ele>1040.29</ele>
        <time>2016-01-17T11:27:04Z</time>
      </trkpt>
      <trkpt lat="45.79561" lon="6.08359">
        <ele>1040.29</ele>
        <time>2016-01-17T11:27:05Z</time>
      </trkpt>
      <trkpt lat="45.7956" lon="6.08359">
        <ele>1040.27</ele>
        <time>2016-01-17T11:27:06Z</time>
      </trkpt>
      <trkpt lat="45.79559" lon="6.08358">
        <ele>1041.16</ele>
        <time>2016-01-17T11:27:07Z</time>
      </trkpt>
      <trkpt lat="45.79559" lon="6.08357">
        <ele>1041.15</ele>
        <time>2016-01-17T11:27:08Z</time>
      </trkpt>
      <trkpt lat="45.79559" lon="6.08357">
        <ele>1041.18</ele>
        <time>2016-01-17T11:27:09Z</time>
      </trkpt>
      <trkpt lat="45.79559" lon="6.08357">
        <ele>1041.11</ele>
        <time>2016-01-17T11:27:10Z</time>
      </trkpt>
      <trkpt lat="45.79559" lon="6.08356">
        <ele>1041.11</ele>
        <time>2016-01-17T11:27:11Z</time>
      </trkpt>
      <trkpt lat="45.79559" lon="6.08356">
        <ele>1041.09</ele>
        <time>2016-01-17T11:27:12Z</time>
      </trkpt>
      <trkpt lat="45.79558" lon="6.08357">
        <ele>1041.08</ele>
        <time>2016-01-17T11:27:13Z</time>
      </trkpt>
      <trkpt lat="45.79558" lon="6.08356">
        <ele>1041.07</ele>
        <time>2016-01-17T11:27:14Z</time>
      </trkpt>
      <trkpt lat="45.79558" lon="6.08356">
        <ele>1041.93</ele>
        <time>2016-01-17T11:27:15Z</time>
      </trkpt>
      <trkpt lat="45.79557" lon="6.08355">
        <ele>1041.91</ele>
        <time>2016-01-17T11:27:16Z</time>
      </trkpt>
      <trkpt lat="45.79557" lon="6.08355">
        <ele>1041.89</ele>
        <time>2016-01-17T11:27:17Z</time>
      </trkpt>
      <trkpt lat="45.79557" lon="6.08354">
        <ele>1041.88</ele>
        <time>2016-01-17T11:27:18Z</time>
      </trkpt>
      <trkpt lat="45.79557" lon="6.08353">
        <ele>1041.88</ele>
        <time>2016-01-17T11:27:19Z</time>
      </trkpt>
      <trkpt lat="45.79557" lon="6.08353">
        <ele>1041.86</ele>
        <time>2016-01-17T11:27:20Z</time>
      </trkpt>
      <trkpt lat="45.79557" lon="6.08352">
        <ele>1041.85</ele>
        <time>2016-01-17T11:27:21Z</time>
      </trkpt>
      <trkpt lat="45.79557" lon="6.08351">
        <ele>1041.84</ele>
        <time>2016-01-17T11:27:22Z</time>
      </trkpt>
      <trkpt lat="45.79556" lon="6.0835">
        <ele>1041.87</ele>
        <time>2016-01-17T11:27:23Z</time>
      </trkpt>
      <trkpt lat="45.79556" lon="6.0835">
        <ele>1041.82</ele>
        <time>2016-01-17T11:27:24Z</time>
      </trkpt>
      <trkpt lat="45.79556" lon="6.0835">
        <ele>1041.78</ele>
        <time>2016-01-17T11:27:25Z</time>
      </trkpt>
      <trkpt lat="45.79556" lon="6.0835">
        <ele>1041.79</ele>
        <time>2016-01-17T11:27:26Z</time>
      </trkpt>
      <trkpt lat="45.79556" lon="6.08351">
        <ele>1042.68</ele>
        <time>2016-01-17T11:27:27Z</time>
      </trkpt>
      <trkpt lat="45.79556" lon="6.08351">
        <ele>1042.67</ele>
        <time>2016-01-17T11:27:28Z</time>
      </trkpt>
      <trkpt lat="45.79556" lon="6.08352">
        <ele>1042.67</ele>
        <time>2016-01-17T11:27:29Z</time>
      </trkpt>
      <trkpt lat="45.79557" lon="6.08353">
        <ele>1042.66</ele>
        <time>2016-01-17T11:27:30Z</time>
      </trkpt>
      <trkpt lat="45.79557" lon="6.08353">
        <ele>1042.63</ele>
        <time>2016-01-17T11:27:31Z</time>
      </trkpt>
      <trkpt lat="45.79557" lon="6.08354">
        <ele>1042.62</ele>
        <time>2016-01-17T11:27:32Z</time>
      </trkpt>
      <trkpt lat="45.79557" lon="6.08353">
        <ele>1042.62</ele>
        <time>2016-01-17T11:27:33Z</time>
      </trkpt>
      <trkpt lat="45.79557" lon="6.08354">
        <ele>1043.38</ele>
        <time>2016-01-17T11:27:34Z</time>
      </trkpt>
      <trkpt lat="45.79557" lon="6.08354">
        <ele>1043.37</ele>
        <time>2016-01-17T11:27:35Z</time>
      </trkpt>
      <trkpt lat="45.79557" lon="6.08354">
        <ele>1043.35</ele>
        <time>2016-01-17T11:27:36Z</time>
      </trkpt>
      <trkpt lat="45.79559" lon="6.08354">
        <ele>1043.34</ele>
        <time>2016-01-17T11:27:37Z</time>
      </trkpt>
      <trkpt lat="45.79559" lon="6.08355">
        <ele>1043.33</ele>
        <time>2016-01-17T11:27:38Z</time>
      </trkpt>
      <trkpt lat="45.79559" lon="6.08356">
        <ele>1043.3</ele>
        <time>2016-01-17T11:27:39Z</time>
      </trkpt>
      <trkpt lat="45.7956" lon="6.08356">
        <ele>1044.25</ele>
        <time>2016-01-17T11:27:40Z</time>
      </trkpt>
      <trkpt lat="45.79561" lon="6.08357">
        <ele>1044.24</ele>
        <time>2016-01-17T11:27:41Z</time>
      </trkpt>
      <trkpt lat="45.79561" lon="6.08357">
        <ele>1044.22</ele>
        <time>2016-01-17T11:27:42Z</time>
      </trkpt>
      <trkpt lat="45.79561" lon="6.08357">
        <ele>1044.2</ele>
        <time>2016-01-17T11:27:43Z</time>
      </trkpt>
      <trkpt lat="45.79561" lon="6.08358">
        <ele>1045.37</ele>
        <time>2016-01-17T11:27:44Z</time>
      </trkpt>
      <trkpt lat="45.7956" lon="6.08359">
        <ele>1045.35</ele>
        <time>2016-01-17T11:27:45Z</time>
      </trkpt>
      <trkpt lat="45.79561" lon="6.08359">
        <ele>1045.32</ele>
        <time>2016-01-17T11:27:46Z</time>
      </trkpt>
      <trkpt lat="45.79561" lon="6.08359">
        <ele>1045.3</ele>
        <time>2016-01-17T11:27:47Z</time>
      </trkpt>
      <trkpt lat="45.7956" lon="6.08359">
        <ele>1045.31</ele>
        <time>2016-01-17T11:27:48Z</time>
      </trkpt>
      <trkpt lat="45.7956" lon="6.08359">
        <ele>1045.29</ele>
        <time>2016-01-17T11:27:49Z</time>
      </trkpt>
      <trkpt lat="45.79559" lon="6.0836">
        <ele>1046.15</ele>
        <time>2016-01-17T11:27:50Z</time>
      </trkpt>
      <trkpt lat="45.79559" lon="6.0836">
        <ele>1046.18</ele>
        <time>2016-01-17T11:27:51Z</time>
      </trkpt>
      <trkpt lat="45.79558" lon="6.0836">
        <ele>1046.19</ele>
        <time>2016-01-17T11:27:52Z</time>
      </trkpt>
      <trkpt lat="45.79558" lon="6.0836">
        <ele>1046.16</ele>
        <time>2016-01-17T11:27:53Z</time>
      </trkpt>
      <trkpt lat="45.79557" lon="6.08361">
        <ele>1046.15</ele>
        <time>2016-01-17T11:27:54Z</time>
      </trkpt>
      <trkpt lat="45.79556" lon="6.08361">
        <ele>1046.15</ele>
        <time>2016-01-17T11:27:55Z</time>
      </trkpt>
      <trkpt lat="45.79556" lon="6.08361">
        <ele>1047.23</ele>
        <time>2016-01-17T11:27:56Z</time>
      </trkpt>
      <trkpt lat="45.79555" lon="6.08361">
        <ele>1047.22</ele>
        <time>2016-01-17T11:27:57Z</time>
      </trkpt>
      <trkpt lat="45.79555" lon="6.08361">
        <ele>1047.16</ele>
        <time>2016-01-17T11:27:58Z</time>
      </trkpt>
      <trkpt lat="45.79555" lon="6.08361">
        <ele>1047.15</ele>
        <time>2016-01-17T11:27:59Z</time>
      </trkpt>
      <trkpt lat="45.79554" lon="6.08361">
        <ele>1047.11</ele>
        <time>2016-01-17T11:28:00Z</time>
      </trkpt>
      <trkpt lat="45.79553" lon="6.08361">
        <ele>1047.1</ele>
        <time>2016-01-17T11:28:01Z</time>
      </trkpt>
      <trkpt lat="45.79552" lon="6.0836">
        <ele>1047.1</ele>
        <time>2016-01-17T11:28:02Z</time>
      </trkpt>
      <trkpt lat="45.79552" lon="6.0836">
        <ele>1048.59</ele>
        <time>2016-01-17T11:28:03Z</time>
      </trkpt>
      <trkpt lat="45.79551" lon="6.08359">
        <ele>1048.62</ele>
        <time>2016-01-17T11:28:04Z</time>
      </trkpt>
      <trkpt lat="45.79551" lon="6.08359">
        <ele>1048.61</ele>
        <time>2016-01-17T11:28:05Z</time>
      </trkpt>
      <trkpt lat="45.79551" lon="6.0836">
        <ele>1048.57</ele>
        <time>2016-01-17T11:28:06Z</time>
      </trkpt>
      <trkpt lat="45.79551" lon="6.08359">
        <ele>1048.53</ele>
        <time>2016-01-17T11:28:07Z</time>
      </trkpt>
      <trkpt lat="45.7955" lon="6.0836">
        <ele>1048.49</ele>
        <time>2016-01-17T11:28:08Z</time>
      </trkpt>
      <trkpt lat="45.7955" lon="6.0836">
        <ele>1048.52</ele>
        <time>2016-01-17T11:28:09Z</time>
      </trkpt>
      <trkpt lat="45.79549" lon="6.08359">
        <ele>1048.51</ele>
        <time>2016-01-17T11:28:10Z</time>
      </trkpt>
      <trkpt lat="45.79549" lon="6.08359">
        <ele>1048.48</ele>
        <time>2016-01-17T11:28:11Z</time>
      </trkpt>
      <trkpt lat="45.79548" lon="6.0836">
        <ele>1048.47</ele>
        <time>2016-01-17T11:28:12Z</time>
      </trkpt>
      <trkpt lat="45.79547" lon="6.0836">
        <ele>1048.44</ele>
        <time>2016-01-17T11:28:13Z</time>
      </trkpt>
      <trkpt lat="45.79547" lon="6.0836">
        <ele>1048.42</ele>
        <time>2016-01-17T11:28:14Z</time>
      </trkpt>
      <trkpt lat="45.79547" lon="6.08361">
        <ele>1048.41</ele>
        <time>2016-01-17T11:28:15Z</time>
      </trkpt>
      <trkpt lat="45.79546" lon="6.0836">
        <ele>1048.39</ele>
        <time>2016-01-17T11:28:16Z</time>
      </trkpt>
      <trkpt lat="45.79546" lon="6.08357">
        <ele>1048.35</ele>
        <time>2016-01-17T11:28:17Z</time>
      </trkpt>
      <trkpt lat="45.79546" lon="6.08357">
        <ele>1048.35</ele>
        <time>2016-01-17T11:28:18Z</time>
      </trkpt>
      <trkpt lat="45.79546" lon="6.08355">
        <ele>1048.35</ele>
        <time>2016-01-17T11:28:19Z</time>
      </trkpt>
      <trkpt lat="45.79546" lon="6.08355">
        <ele>1048.3</ele>
        <time>2016-01-17T11:28:20Z</time>
      </trkpt>
      <trkpt lat="45.79546" lon="6.08355">
        <ele>1048.29</ele>
        <time>2016-01-17T11:28:21Z</time>
      </trkpt>
      <trkpt lat="45.79546" lon="6.08355">
        <ele>1048.27</ele>
        <time>2016-01-17T11:28:22Z</time>
      </trkpt>
      <trkpt lat="45.79546" lon="6.08355">
        <ele>1048.26</ele>
        <time>2016-01-17T11:28:23Z</time>
      </trkpt>
      <trkpt lat="45.79546" lon="6.08355">
        <ele>1048.25</ele>
        <time>2016-01-17T11:28:24Z</time>
      </trkpt>
      <trkpt lat="45.79546" lon="6.08355">
        <ele>1048.23</ele>
        <time>2016-01-17T11:28:25Z</time>
      </trkpt>
      <trkpt lat="45.79546" lon="6.08356">
        <ele>1048.22</ele>
        <time>2016-01-17T11:28:26Z</time>
      </trkpt>
      <trkpt lat="45.79546" lon="6.08356">
        <ele>1048.2</ele>
        <time>2016-01-17T11:28:27Z</time>
      </trkpt>
      <trkpt lat="45.79546" lon="6.08356">
        <ele>1048.19</ele>
        <time>2016-01-17T11:28:28Z</time>
      </trkpt>
      <trkpt lat="45.79546" lon="6.08356">
        <ele>1048.17</ele>
        <time>2016-01-17T11:28:29Z</time>
      </trkpt>
      <trkpt lat="45.79546" lon="6.08356">
        <ele>1048.16</ele>
        <time>2016-01-17T11:28:30Z</time>
      </trkpt>
      <trkpt lat="45.79546" lon="6.08356">
        <ele>1048.14</ele>
        <time>2016-01-17T11:28:31Z</time>
      </trkpt>
      <trkpt lat="45.79546" lon="6.08356">
        <ele>1048.13</ele>
        <time>2016-01-17T11:28:32Z</time>
      </trkpt>
      <trkpt lat="45.79546" lon="6.08356">
        <ele>1048.12</ele>
        <time>2016-01-17T11:28:33Z</time>
      </trkpt>
      <trkpt lat="45.79546" lon="6.08356">
        <ele>1048.1</ele>
        <time>2016-01-17T11:28:34Z</time>
      </trkpt>
      <trkpt lat="45.79546" lon="6.08356">
        <ele>1048.09</ele>
        <time>2016-01-17T11:28:35Z</time>
      </trkpt>
      <trkpt lat="45.79546" lon="6.08356">
        <ele>1048.07</ele>
        <time>2016-01-17T11:28:36Z</time>
      </trkpt>
      <trkpt lat="45.79546" lon="6.08356">
        <ele>1048.06</ele>
        <time>2016-01-17T11:28:37Z</time>
      </trkpt>
      <trkpt lat="45.79546" lon="6.08356">
        <ele>1048.04</ele>
        <time>2016-01-17T11:28:38Z</time>
      </trkpt>
      <trkpt lat="45.79546" lon="6.08356">
        <ele>1048.03</ele>
        <time>2016-01-17T11:28:39Z</time>
      </trkpt>
      <trkpt lat="45.79546" lon="6.08355">
        <ele>1048.02</ele>
        <time>2016-01-17T11:28:40Z</time>
      </trkpt>
      <trkpt lat="45.79546" lon="6.08355">
        <ele>1048</ele>
        <time>2016-01-17T11:28:41Z</time>
      </trkpt>
      <trkpt lat="45.79546" lon="6.08355">
        <ele>1047.99</ele>
        <time>2016-01-17T11:28:42Z</time>
      </trkpt>
      <trkpt lat="45.79546" lon="6.08355">
        <ele>1047.97</ele>
        <time>2016-01-17T11:28:43Z</time>
      </trkpt>
      <trkpt lat="45.79546" lon="6.08355">
        <ele>1047.96</ele>
        <time>2016-01-17T11:28:44Z</time>
      </trkpt>
      <trkpt lat="45.79546" lon="6.08355">
        <ele>1047.95</ele>
        <time>2016-01-17T11:28:45Z</time>
      </trkpt>
      <trkpt lat="45.79546" lon="6.08355">
        <ele>1047.93</ele>
        <time>2016-01-17T11:28:46Z</time>
      </trkpt>
      <trkpt lat="45.79546" lon="6.08355">
        <ele>1047.92</ele>
        <time>2016-01-17T11:28:47Z</time>
      </trkpt>
      <trkpt lat="45.79546" lon="6.08355">
        <ele>1047.91</ele>
        <time>2016-01-17T11:28:48Z</time>
      </trkpt>
      <trkpt lat="45.79546" lon="6.08354">
        <ele>1047.89</ele>
        <time>2016-01-17T11:28:49Z</time>
      </trkpt>
      <trkpt lat="45.79546" lon="6.08354">
        <ele>1047.88</ele>
        <time>2016-01-17T11:28:50Z</time>
      </trkpt>
      <trkpt lat="45.79546" lon="6.08354">
        <ele>1047.87</ele>
        <time>2016-01-17T11:28:51Z</time>
      </trkpt>
      <trkpt lat="45.79546" lon="6.08354">
        <ele>1047.85</ele>
        <time>2016-01-17T11:28:52Z</time>
      </trkpt>
      <trkpt lat="45.79546" lon="6.08354">
        <ele>1048.74</ele>
        <time>2016-01-17T11:28:53Z</time>
      </trkpt>
      <trkpt lat="45.79545" lon="6.08354">
        <ele>1048.73</ele>
        <time>2016-01-17T11:28:54Z</time>
      </trkpt>
      <trkpt lat="45.79545" lon="6.08353">
        <ele>1048.72</ele>
        <time>2016-01-17T11:28:55Z</time>
      </trkpt>
      <trkpt lat="45.79545" lon="6.08352">
        <ele>1048.71</ele>
        <time>2016-01-17T11:28:56Z</time>
      </trkpt>
      <trkpt lat="45.79544" lon="6.08351">
        <ele>1048.7</ele>
        <time>2016-01-17T11:28:57Z</time>
      </trkpt>
      <trkpt lat="45.79545" lon="6.08351">
        <ele>1048.69</ele>
        <time>2016-01-17T11:28:58Z</time>
      </trkpt>
      <trkpt lat="45.79544" lon="6.08351">
        <ele>1048.68</ele>
        <time>2016-01-17T11:28:59Z</time>
      </trkpt>
      <trkpt lat="45.79544" lon="6.08349">
        <ele>1048.66</ele>
        <time>2016-01-17T11:29:00Z</time>
      </trkpt>
      <trkpt lat="45.79544" lon="6.08348">
        <ele>1048.66</ele>
        <time>2016-01-17T11:29:01Z</time>
      </trkpt>
      <trkpt lat="45.79543" lon="6.08348">
        <ele>1049.54</ele>
        <time>2016-01-17T11:29:02Z</time>
      </trkpt>
      <trkpt lat="45.79543" lon="6.08347">
        <ele>1049.53</ele>
        <time>2016-01-17T11:29:03Z</time>
      </trkpt>
      <trkpt lat="45.79542" lon="6.08346">
        <ele>1049.53</ele>
        <time>2016-01-17T11:29:04Z</time>
      </trkpt>
      <trkpt lat="45.79542" lon="6.08346">
        <ele>1050.45</ele>
        <time>2016-01-17T11:29:05Z</time>
      </trkpt>
      <trkpt lat="45.79541" lon="6.08345">
        <ele>1050.44</ele>
        <time>2016-01-17T11:29:06Z</time>
      </trkpt>
      <trkpt lat="45.79541" lon="6.08344">
        <ele>1050.44</ele>
        <time>2016-01-17T11:29:07Z</time>
      </trkpt>
      <trkpt lat="45.7954" lon="6.08343">
        <ele>1050.42</ele>
        <time>2016-01-17T11:29:08Z</time>
      </trkpt>
      <trkpt lat="45.7954" lon="6.08342">
        <ele>1050.41</ele>
        <time>2016-01-17T11:29:09Z</time>
      </trkpt>
      <trkpt lat="45.79539" lon="6.08342">
        <ele>1051.54</ele>
        <time>2016-01-17T11:29:10Z</time>
      </trkpt>
      <trkpt lat="45.79538" lon="6.08341">
        <ele>1051.51</ele>
        <time>2016-01-17T11:29:11Z</time>
      </trkpt>
      <trkpt lat="45.79538" lon="6.0834">
        <ele>1051.49</ele>
        <time>2016-01-17T11:29:12Z</time>
      </trkpt>
      <trkpt lat="45.79537" lon="6.08339">
        <ele>1052.37</ele>
        <time>2016-01-17T11:29:13Z</time>
      </trkpt>
      <trkpt lat="45.79536" lon="6.08339">
        <ele>1052.36</ele>
        <time>2016-01-17T11:29:14Z</time>
      </trkpt>
      <trkpt lat="45.79536" lon="6.08339">
        <ele>1052.3</ele>
        <time>2016-01-17T11:29:15Z</time>
      </trkpt>
      <trkpt lat="45.79535" lon="6.08338">
        <ele>1052.29</ele>
        <time>2016-01-17T11:29:16Z</time>
      </trkpt>
      <trkpt lat="45.79535" lon="6.08337">
        <ele>1052.29</ele>
        <time>2016-01-17T11:29:17Z</time>
      </trkpt>
      <trkpt lat="45.79535" lon="6.08337">
        <ele>1052.28</ele>
        <time>2016-01-17T11:29:18Z</time>
      </trkpt>
      <trkpt lat="45.79535" lon="6.08336">
        <ele>1052.26</ele>
        <time>2016-01-17T11:29:19Z</time>
      </trkpt>
      <trkpt lat="45.79534" lon="6.08336">
        <ele>1052.21</ele>
        <time>2016-01-17T11:29:20Z</time>
      </trkpt>
      <trkpt lat="45.79534" lon="6.08336">
        <ele>1052.25</ele>
        <time>2016-01-17T11:29:21Z</time>
      </trkpt>
      <trkpt lat="45.79534" lon="6.08336">
        <ele>1053.06</ele>
        <time>2016-01-17T11:29:22Z</time>
      </trkpt>
      <trkpt lat="45.79534" lon="6.08336">
        <ele>1053.1</ele>
        <time>2016-01-17T11:29:23Z</time>
      </trkpt>
      <trkpt lat="45.79534" lon="6.08336">
        <ele>1053.08</ele>
        <time>2016-01-17T11:29:24Z</time>
      </trkpt>
      <trkpt lat="45.79534" lon="6.08335">
        <ele>1053.07</ele>
        <time>2016-01-17T11:29:25Z</time>
      </trkpt>
      <trkpt lat="45.79533" lon="6.08334">
        <ele>1053.05</ele>
        <time>2016-01-17T11:29:26Z</time>
      </trkpt>
      <trkpt lat="45.79534" lon="6.08333">
        <ele>1052.98</ele>
        <time>2016-01-17T11:29:27Z</time>
      </trkpt>
      <trkpt lat="45.79534" lon="6.08333">
        <ele>1053.01</ele>
        <time>2016-01-17T11:29:28Z</time>
      </trkpt>
      <trkpt lat="45.79534" lon="6.08334">
        <ele>1052.99</ele>
        <time>2016-01-17T11:29:29Z</time>
      </trkpt>
      <trkpt lat="45.79533" lon="6.08334">
        <ele>1053.73</ele>
        <time>2016-01-17T11:29:30Z</time>
      </trkpt>
      <trkpt lat="45.79534" lon="6.08334">
        <ele>1053.72</ele>
        <time>2016-01-17T11:29:31Z</time>
      </trkpt>
      <trkpt lat="45.79533" lon="6.08333">
        <ele>1053.71</ele>
        <time>2016-01-17T11:29:32Z</time>
      </trkpt>
      <trkpt lat="45.79533" lon="6.08333">
        <ele>1053.68</ele>
        <time>2016-01-17T11:29:33Z</time>
      </trkpt>
      <trkpt lat="45.79533" lon="6.08333">
        <ele>1053.68</ele>
        <time>2016-01-17T11:29:34Z</time>
      </trkpt>
      <trkpt lat="45.79533" lon="6.08333">
        <ele>1054.58</ele>
        <time>2016-01-17T11:29:35Z</time>
      </trkpt>
      <trkpt lat="45.79533" lon="6.08332">
        <ele>1054.51</ele>
        <time>2016-01-17T11:29:36Z</time>
      </trkpt>
      <trkpt lat="45.79533" lon="6.08332">
        <ele>1054.54</ele>
        <time>2016-01-17T11:29:37Z</time>
      </trkpt>
      <trkpt lat="45.79533" lon="6.08332">
        <ele>1054.48</ele>
        <time>2016-01-17T11:29:38Z</time>
      </trkpt>
      <trkpt lat="45.79533" lon="6.08332">
        <ele>1054.5</ele>
        <time>2016-01-17T11:29:39Z</time>
      </trkpt>
      <trkpt lat="45.79533" lon="6.08332">
        <ele>1054.45</ele>
        <time>2016-01-17T11:29:40Z</time>
      </trkpt>
      <trkpt lat="45.79533" lon="6.08332">
        <ele>1054.47</ele>
        <time>2016-01-17T11:29:41Z</time>
      </trkpt>
      <trkpt lat="45.79533" lon="6.08331">
        <ele>1054.45</ele>
        <time>2016-01-17T11:29:42Z</time>
      </trkpt>
      <trkpt lat="45.79533" lon="6.08331">
        <ele>1054.41</ele>
        <time>2016-01-17T11:29:43Z</time>
      </trkpt>
      <trkpt lat="45.79533" lon="6.08331">
        <ele>1054.42</ele>
        <time>2016-01-17T11:29:44Z</time>
      </trkpt>
      <trkpt lat="45.79533" lon="6.08331">
        <ele>1054.42</ele>
        <time>2016-01-17T11:29:45Z</time>
      </trkpt>
      <trkpt lat="45.79533" lon="6.0833">
        <ele>1054.38</ele>
        <time>2016-01-17T11:29:46Z</time>
      </trkpt>
      <trkpt lat="45.79533" lon="6.0833">
        <ele>1054.38</ele>
        <time>2016-01-17T11:29:47Z</time>
      </trkpt>
      <trkpt lat="45.79533" lon="6.08329">
        <ele>1054.35</ele>
        <time>2016-01-17T11:29:48Z</time>
      </trkpt>
      <trkpt lat="45.79533" lon="6.08328">
        <ele>1054.34</ele>
        <time>2016-01-17T11:29:49Z</time>
      </trkpt>
      <trkpt lat="45.79533" lon="6.08328">
        <ele>1054.31</ele>
        <time>2016-01-17T11:29:50Z</time>
      </trkpt>
      <trkpt lat="45.79534" lon="6.08329">
        <ele>1054.31</ele>
        <time>2016-01-17T11:29:51Z</time>
      </trkpt>
      <trkpt lat="45.79534" lon="6.08328">
        <ele>1054.29</ele>
        <time>2016-01-17T11:29:52Z</time>
      </trkpt>
      <trkpt lat="45.79534" lon="6.08328">
        <ele>1054.26</ele>
        <time>2016-01-17T11:29:53Z</time>
      </trkpt>
      <trkpt lat="45.79535" lon="6.08328">
        <ele>1054.25</ele>
        <time>2016-01-17T11:29:54Z</time>
      </trkpt>
      <trkpt lat="45.79535" lon="6.08329">
        <ele>1054.24</ele>
        <time>2016-01-17T11:29:55Z</time>
      </trkpt>
      <trkpt lat="45.79535" lon="6.08329">
        <ele>1054.23</ele>
        <time>2016-01-17T11:29:56Z</time>
      </trkpt>
      <trkpt lat="45.79536" lon="6.0833">
        <ele>1054.23</ele>
        <time>2016-01-17T11:29:57Z</time>
      </trkpt>
      <trkpt lat="45.79536" lon="6.0833">
        <ele>1054.22</ele>
        <time>2016-01-17T11:29:58Z</time>
      </trkpt>
      <trkpt lat="45.79537" lon="6.0833">
        <ele>1054.2</ele>
        <time>2016-01-17T11:29:59Z</time>
      </trkpt>
      <trkpt lat="45.79538" lon="6.0833">
        <ele>1054.2</ele>
        <time>2016-01-17T11:30:00Z</time>
      </trkpt>
      <trkpt lat="45.79539" lon="6.0833">
        <ele>1054.19</ele>
        <time>2016-01-17T11:30:01Z</time>
      </trkpt>
      <trkpt lat="45.79539" lon="6.0833">
        <ele>1054.18</ele>
        <time>2016-01-17T11:30:02Z</time>
      </trkpt>
      <trkpt lat="45.79539" lon="6.0833">
        <ele>1054.18</ele>
        <time>2016-01-17T11:30:03Z</time>
      </trkpt>
      <trkpt lat="45.79539" lon="6.0833">
        <ele>1054.19</ele>
        <time>2016-01-17T11:30:04Z</time>
      </trkpt>
      <trkpt lat="45.7954" lon="6.0833">
        <ele>1054.18</ele>
        <time>2016-01-17T11:30:05Z</time>
      </trkpt>
      <trkpt lat="45.7954" lon="6.0833">
        <ele>1054.16</ele>
        <time>2016-01-17T11:30:06Z</time>
      </trkpt>
      <trkpt lat="45.7954" lon="6.08331">
        <ele>1054.14</ele>
        <time>2016-01-17T11:30:07Z</time>
      </trkpt>
      <trkpt lat="45.7954" lon="6.08331">
        <ele>1054.15</ele>
        <time>2016-01-17T11:30:08Z</time>
      </trkpt>
      <trkpt lat="45.79541" lon="6.0833">
        <ele>1054.15</ele>
        <time>2016-01-17T11:30:09Z</time>
      </trkpt>
      <trkpt lat="45.79541" lon="6.0833">
        <ele>1054.14</ele>
        <time>2016-01-17T11:30:10Z</time>
      </trkpt>
      <trkpt lat="45.79541" lon="6.0833">
        <ele>1054.14</ele>
        <time>2016-01-17T11:30:11Z</time>
      </trkpt>
      <trkpt lat="45.79541" lon="6.0833">
        <ele>1054.14</ele>
        <time>2016-01-17T11:30:12Z</time>
      </trkpt>
      <trkpt lat="45.79541" lon="6.08329">
        <ele>1054.12</ele>
        <time>2016-01-17T11:30:13Z</time>
      </trkpt>
      <trkpt lat="45.79541" lon="6.08329">
        <ele>1054.12</ele>
        <time>2016-01-17T11:30:14Z</time>
      </trkpt>
      <trkpt lat="45.7954" lon="6.08329">
        <ele>1054.14</ele>
        <time>2016-01-17T11:30:15Z</time>
      </trkpt>
      <trkpt lat="45.7954" lon="6.08329">
        <ele>1054.13</ele>
        <time>2016-01-17T11:30:16Z</time>
      </trkpt>
      <trkpt lat="45.7954" lon="6.08328">
        <ele>1054.13</ele>
        <time>2016-01-17T11:30:17Z</time>
      </trkpt>
      <trkpt lat="45.79539" lon="6.08328">
        <ele>1054.14</ele>
        <time>2016-01-17T11:30:18Z</time>
      </trkpt>
      <trkpt lat="45.79539" lon="6.08327">
        <ele>1054.12</ele>
        <time>2016-01-17T11:30:19Z</time>
      </trkpt>
      <trkpt lat="45.79539" lon="6.08327">
        <ele>1055.15</ele>
        <time>2016-01-17T11:30:20Z</time>
      </trkpt>
      <trkpt lat="45.79538" lon="6.08326">
        <ele>1055.13</ele>
        <time>2016-01-17T11:30:21Z</time>
      </trkpt>
      <trkpt lat="45.79538" lon="6.08325">
        <ele>1055.13</ele>
        <time>2016-01-17T11:30:22Z</time>
      </trkpt>
      <trkpt lat="45.79538" lon="6.08323">
        <ele>1055.14</ele>
        <time>2016-01-17T11:30:23Z</time>
      </trkpt>
      <trkpt lat="45.79537" lon="6.08322">
        <ele>1055.15</ele>
        <time>2016-01-17T11:30:24Z</time>
      </trkpt>
      <trkpt lat="45.79537" lon="6.08321">
        <ele>1055.95</ele>
        <time>2016-01-17T11:30:25Z</time>
      </trkpt>
      <trkpt lat="45.79537" lon="6.08321">
        <ele>1055.98</ele>
        <time>2016-01-17T11:30:26Z</time>
      </trkpt>
      <trkpt lat="45.79537" lon="6.0832">
        <ele>1055.96</ele>
        <time>2016-01-17T11:30:27Z</time>
      </trkpt>
      <trkpt lat="45.79537" lon="6.08319">
        <ele>1055.98</ele>
        <time>2016-01-17T11:30:28Z</time>
      </trkpt>
      <trkpt lat="45.79537" lon="6.08319">
        <ele>1055.96</ele>
        <time>2016-01-17T11:30:29Z</time>
      </trkpt>
      <trkpt lat="45.79536" lon="6.08319">
        <ele>1057.01</ele>
        <time>2016-01-17T11:30:30Z</time>
      </trkpt>
      <trkpt lat="45.79536" lon="6.08318">
        <ele>1057</ele>
        <time>2016-01-17T11:30:31Z</time>
      </trkpt>
      <trkpt lat="45.79536" lon="6.08317">
        <ele>1057.04</ele>
        <time>2016-01-17T11:30:32Z</time>
      </trkpt>
      <trkpt lat="45.79535" lon="6.08317">
        <ele>1057</ele>
        <time>2016-01-17T11:30:33Z</time>
      </trkpt>
      <trkpt lat="45.79535" lon="6.08316">
        <ele>1056.99</ele>
        <time>2016-01-17T11:30:34Z</time>
      </trkpt>
      <trkpt lat="45.79535" lon="6.08316">
        <ele>1056.96</ele>
        <time>2016-01-17T11:30:35Z</time>
      </trkpt>
      <trkpt lat="45.79534" lon="6.08315">
        <ele>1057.82</ele>
        <time>2016-01-17T11:30:36Z</time>
      </trkpt>
      <trkpt lat="45.79534" lon="6.08315">
        <ele>1057.81</ele>
        <time>2016-01-17T11:30:37Z</time>
      </trkpt>
      <trkpt lat="45.79534" lon="6.08315">
        <ele>1058.79</ele>
        <time>2016-01-17T11:30:38Z</time>
      </trkpt>
      <trkpt lat="45.79533" lon="6.08314">
        <ele>1058.75</ele>
        <time>2016-01-17T11:30:39Z</time>
      </trkpt>
      <trkpt lat="45.79533" lon="6.08314">
        <ele>1058.77</ele>
        <time>2016-01-17T11:30:40Z</time>
      </trkpt>
      <trkpt lat="45.79533" lon="6.08314">
        <ele>1058.75</ele>
        <time>2016-01-17T11:30:41Z</time>
      </trkpt>
      <trkpt lat="45.79533" lon="6.08314">
        <ele>1058.67</ele>
        <time>2016-01-17T11:30:42Z</time>
      </trkpt>
      <trkpt lat="45.79532" lon="6.08315">
        <ele>1058.73</ele>
        <time>2016-01-17T11:30:43Z</time>
      </trkpt>
      <trkpt lat="45.79532" lon="6.08314">
        <ele>1059.5</ele>
        <time>2016-01-17T11:30:44Z</time>
      </trkpt>
      <trkpt lat="45.79532" lon="6.08315">
        <ele>1059.49</ele>
        <time>2016-01-17T11:30:45Z</time>
      </trkpt>
      <trkpt lat="45.79532" lon="6.08315">
        <ele>1059.5</ele>
        <time>2016-01-17T11:30:46Z</time>
      </trkpt>
      <trkpt lat="45.79531" lon="6.08314">
        <ele>1059.47</ele>
        <time>2016-01-17T11:30:47Z</time>
      </trkpt>
      <trkpt lat="45.79532" lon="6.08314">
        <ele>1060.34</ele>
        <time>2016-01-17T11:30:48Z</time>
      </trkpt>
      <trkpt lat="45.79533" lon="6.08313">
        <ele>1060.36</ele>
        <time>2016-01-17T11:30:49Z</time>
      </trkpt>
      <trkpt lat="45.79533" lon="6.08313">
        <ele>1061.23</ele>
        <time>2016-01-17T11:30:50Z</time>
      </trkpt>
      <trkpt lat="45.79533" lon="6.08313">
        <ele>1061.19</ele>
        <time>2016-01-17T11:30:51Z</time>
      </trkpt>
      <trkpt lat="45.79534" lon="6.08312">
        <ele>1061.18</ele>
        <time>2016-01-17T11:30:52Z</time>
      </trkpt>
      <trkpt lat="45.79534" lon="6.08312">
        <ele>1061.2</ele>
        <time>2016-01-17T11:30:53Z</time>
      </trkpt>
      <trkpt lat="45.79534" lon="6.08311">
        <ele>1062.18</ele>
        <time>2016-01-17T11:30:54Z</time>
      </trkpt>
      <trkpt lat="45.79534" lon="6.08309">
        <ele>1062.14</ele>
        <time>2016-01-17T11:30:55Z</time>
      </trkpt>
      <trkpt lat="45.79533" lon="6.08307">
        <ele>1062.13</ele>
        <time>2016-01-17T11:30:56Z</time>
      </trkpt>
      <trkpt lat="45.79533" lon="6.08306">
        <ele>1062.09</ele>
        <time>2016-01-17T11:30:57Z</time>
      </trkpt>
      <trkpt lat="45.79533" lon="6.08305">
        <ele>1062.12</ele>
        <time>2016-01-17T11:30:58Z</time>
      </trkpt>
      <trkpt lat="45.79533" lon="6.08304">
        <ele>1062.12</ele>
        <time>2016-01-17T11:30:59Z</time>
      </trkpt>
      <trkpt lat="45.79532" lon="6.08304">
        <ele>1062.1</ele>
        <time>2016-01-17T11:31:00Z</time>
      </trkpt>
      <trkpt lat="45.79532" lon="6.08303">
        <ele>1062.1</ele>
        <time>2016-01-17T11:31:01Z</time>
      </trkpt>
      <trkpt lat="45.79532" lon="6.08303">
        <ele>1062.91</ele>
        <time>2016-01-17T11:31:02Z</time>
      </trkpt>
      <trkpt lat="45.79532" lon="6.08302">
        <ele>1062.93</ele>
        <time>2016-01-17T11:31:03Z</time>
      </trkpt>
      <trkpt lat="45.79532" lon="6.08302">
        <ele>1062.97</ele>
        <time>2016-01-17T11:31:04Z</time>
      </trkpt>
      <trkpt lat="45.79531" lon="6.08302">
        <ele>1062.93</ele>
        <time>2016-01-17T11:31:05Z</time>
      </trkpt>
      <trkpt lat="45.7953" lon="6.08302">
        <ele>1062.95</ele>
        <time>2016-01-17T11:31:06Z</time>
      </trkpt>
      <trkpt lat="45.79529" lon="6.08302">
        <ele>1062.91</ele>
        <time>2016-01-17T11:31:07Z</time>
      </trkpt>
      <trkpt lat="45.79529" lon="6.08302">
        <ele>1062.91</ele>
        <time>2016-01-17T11:31:08Z</time>
      </trkpt>
      <trkpt lat="45.79528" lon="6.08303">
        <ele>1062.91</ele>
        <time>2016-01-17T11:31:09Z</time>
      </trkpt>
      <trkpt lat="45.79528" lon="6.08302">
        <ele>1062.89</ele>
        <time>2016-01-17T11:31:10Z</time>
      </trkpt>
      <trkpt lat="45.79527" lon="6.08303">
        <ele>1063.68</ele>
        <time>2016-01-17T11:31:11Z</time>
      </trkpt>
      <trkpt lat="45.79526" lon="6.08303">
        <ele>1063.68</ele>
        <time>2016-01-17T11:31:12Z</time>
      </trkpt>
      <trkpt lat="45.79526" lon="6.08302">
        <ele>1063.66</ele>
        <time>2016-01-17T11:31:13Z</time>
      </trkpt>
      <trkpt lat="45.79524" lon="6.08303">
        <ele>1063.66</ele>
        <time>2016-01-17T11:31:14Z</time>
      </trkpt>
      <trkpt lat="45.79524" lon="6.08304">
        <ele>1063.66</ele>
        <time>2016-01-17T11:31:15Z</time>
      </trkpt>
      <trkpt lat="45.79522" lon="6.08302">
        <ele>1064.48</ele>
        <time>2016-01-17T11:31:16Z</time>
      </trkpt>
      <trkpt lat="45.79521" lon="6.08301">
        <ele>1064.48</ele>
        <time>2016-01-17T11:31:17Z</time>
      </trkpt>
      <trkpt lat="45.79521" lon="6.08302">
        <ele>1064.42</ele>
        <time>2016-01-17T11:31:18Z</time>
      </trkpt>
      <trkpt lat="45.79521" lon="6.08301">
        <ele>1064.43</ele>
        <time>2016-01-17T11:31:19Z</time>
      </trkpt>
      <trkpt lat="45.79521" lon="6.08301">
        <ele>1065.5</ele>
        <time>2016-01-17T11:31:20Z</time>
      </trkpt>
      <trkpt lat="45.7952" lon="6.083">
        <ele>1065.48</ele>
        <time>2016-01-17T11:31:21Z</time>
      </trkpt>
      <trkpt lat="45.79519" lon="6.083">
        <ele>1065.49</ele>
        <time>2016-01-17T11:31:22Z</time>
      </trkpt>
      <trkpt lat="45.79519" lon="6.083">
        <ele>1065.46</ele>
        <time>2016-01-17T11:31:23Z</time>
      </trkpt>
      <trkpt lat="45.79519" lon="6.083">
        <ele>1065.49</ele>
        <time>2016-01-17T11:31:24Z</time>
      </trkpt>
      <trkpt lat="45.79518" lon="6.08299">
        <ele>1066.42</ele>
        <time>2016-01-17T11:31:25Z</time>
      </trkpt>
      <trkpt lat="45.79518" lon="6.08299">
        <ele>1066.43</ele>
        <time>2016-01-17T11:31:26Z</time>
      </trkpt>
      <trkpt lat="45.79518" lon="6.08297">
        <ele>1066.41</ele>
        <time>2016-01-17T11:31:27Z</time>
      </trkpt>
      <trkpt lat="45.79517" lon="6.08295">
        <ele>1066.42</ele>
        <time>2016-01-17T11:31:28Z</time>
      </trkpt>
      <trkpt lat="45.79517" lon="6.08295">
        <ele>1066.41</ele>
        <time>2016-01-17T11:31:29Z</time>
      </trkpt>
      <trkpt lat="45.79517" lon="6.08294">
        <ele>1066.38</ele>
        <time>2016-01-17T11:31:30Z</time>
      </trkpt>
      <trkpt lat="45.79517" lon="6.08294">
        <ele>1066.35</ele>
        <time>2016-01-17T11:31:31Z</time>
      </trkpt>
      <trkpt lat="45.79517" lon="6.08295">
        <ele>1066.35</ele>
        <time>2016-01-17T11:31:32Z</time>
      </trkpt>
      <trkpt lat="45.79516" lon="6.08295">
        <ele>1066.38</ele>
        <time>2016-01-17T11:31:33Z</time>
      </trkpt>
      <trkpt lat="45.79516" lon="6.08295">
        <ele>1066.35</ele>
        <time>2016-01-17T11:31:34Z</time>
      </trkpt>
      <trkpt lat="45.79515" lon="6.08295">
        <ele>1067.26</ele>
        <time>2016-01-17T11:31:35Z</time>
      </trkpt>
      <trkpt lat="45.79515" lon="6.08295">
        <ele>1067.25</ele>
        <time>2016-01-17T11:31:36Z</time>
      </trkpt>
      <trkpt lat="45.79514" lon="6.08295">
        <ele>1067.25</ele>
        <time>2016-01-17T11:31:37Z</time>
      </trkpt>
      <trkpt lat="45.79514" lon="6.08294">
        <ele>1067.26</ele>
        <time>2016-01-17T11:31:38Z</time>
      </trkpt>
      <trkpt lat="45.79513" lon="6.08294">
        <ele>1068.02</ele>
        <time>2016-01-17T11:31:39Z</time>
      </trkpt>
      <trkpt lat="45.79513" lon="6.08293">
        <ele>1068.03</ele>
        <time>2016-01-17T11:31:40Z</time>
      </trkpt>
      <trkpt lat="45.79512" lon="6.08293">
        <ele>1068.02</ele>
        <time>2016-01-17T11:31:41Z</time>
      </trkpt>
      <trkpt lat="45.79511" lon="6.08293">
        <ele>1068.02</ele>
        <time>2016-01-17T11:31:42Z</time>
      </trkpt>
      <trkpt lat="45.79511" lon="6.08293">
        <ele>1068.04</ele>
        <time>2016-01-17T11:31:43Z</time>
      </trkpt>
      <trkpt lat="45.7951" lon="6.08293">
        <ele>1068.04</ele>
        <time>2016-01-17T11:31:44Z</time>
      </trkpt>
      <trkpt lat="45.79509" lon="6.08293">
        <ele>1068.03</ele>
        <time>2016-01-17T11:31:45Z</time>
      </trkpt>
      <trkpt lat="45.79509" lon="6.08293">
        <ele>1068.9</ele>
        <time>2016-01-17T11:31:46Z</time>
      </trkpt>
      <trkpt lat="45.79508" lon="6.08293">
        <ele>1068.87</ele>
        <time>2016-01-17T11:31:47Z</time>
      </trkpt>
      <trkpt lat="45.79507" lon="6.08293">
        <ele>1068.89</ele>
        <time>2016-01-17T11:31:48Z</time>
      </trkpt>
      <trkpt lat="45.79507" lon="6.08293">
        <ele>1068.88</ele>
        <time>2016-01-17T11:31:49Z</time>
      </trkpt>
      <trkpt lat="45.79506" lon="6.08293">
        <ele>1068.89</ele>
        <time>2016-01-17T11:31:50Z</time>
      </trkpt>
      <trkpt lat="45.79505" lon="6.08292">
        <ele>1068.88</ele>
        <time>2016-01-17T11:31:51Z</time>
      </trkpt>
      <trkpt lat="45.79504" lon="6.08292">
        <ele>1068.88</ele>
        <time>2016-01-17T11:31:52Z</time>
      </trkpt>
      <trkpt lat="45.79504" lon="6.08292">
        <ele>1070</ele>
        <time>2016-01-17T11:31:53Z</time>
      </trkpt>
      <trkpt lat="45.79504" lon="6.08292">
        <ele>1070</ele>
        <time>2016-01-17T11:31:54Z</time>
      </trkpt>
      <trkpt lat="45.79503" lon="6.08293">
        <ele>1069.99</ele>
        <time>2016-01-17T11:31:55Z</time>
      </trkpt>
      <trkpt lat="45.79503" lon="6.08293">
        <ele>1070.01</ele>
        <time>2016-01-17T11:31:56Z</time>
      </trkpt>
      <trkpt lat="45.79502" lon="6.08293">
        <ele>1070.01</ele>
        <time>2016-01-17T11:31:57Z</time>
      </trkpt>
      <trkpt lat="45.79501" lon="6.08293">
        <ele>1071.02</ele>
        <time>2016-01-17T11:31:58Z</time>
      </trkpt>
      <trkpt lat="45.795" lon="6.08293">
        <ele>1071.02</ele>
        <time>2016-01-17T11:31:59Z</time>
      </trkpt>
      <trkpt lat="45.795" lon="6.08293">
        <ele>1071.03</ele>
        <time>2016-01-17T11:32:00Z</time>
      </trkpt>
      <trkpt lat="45.795" lon="6.08294">
        <ele>1071.03</ele>
        <time>2016-01-17T11:32:01Z</time>
      </trkpt>
      <trkpt lat="45.79499" lon="6.08294">
        <ele>1071.02</ele>
        <time>2016-01-17T11:32:02Z</time>
      </trkpt>
      <trkpt lat="45.79498" lon="6.08293">
        <ele>1071.01</ele>
        <time>2016-01-17T11:32:03Z</time>
      </trkpt>
      <trkpt lat="45.79497" lon="6.08293">
        <ele>1071.03</ele>
        <time>2016-01-17T11:32:04Z</time>
      </trkpt>
      <trkpt lat="45.79497" lon="6.08292">
        <ele>1071.99</ele>
        <time>2016-01-17T11:32:05Z</time>
      </trkpt>
      <trkpt lat="45.79496" lon="6.08292">
        <ele>1071.99</ele>
        <time>2016-01-17T11:32:06Z</time>
      </trkpt>
      <trkpt lat="45.79495" lon="6.08292">
        <ele>1071.97</ele>
        <time>2016-01-17T11:32:07Z</time>
      </trkpt>
      <trkpt lat="45.79494" lon="6.08292">
        <ele>1071.99</ele>
        <time>2016-01-17T11:32:08Z</time>
      </trkpt>
      <trkpt lat="45.79494" lon="6.08293">
        <ele>1071.98</ele>
        <time>2016-01-17T11:32:09Z</time>
      </trkpt>
      <trkpt lat="45.79493" lon="6.08292">
        <ele>1072</ele>
        <time>2016-01-17T11:32:10Z</time>
      </trkpt>
      <trkpt lat="45.79493" lon="6.08291">
        <ele>1073.23</ele>
        <time>2016-01-17T11:32:11Z</time>
      </trkpt>
      <trkpt lat="45.79492" lon="6.0829">
        <ele>1073.21</ele>
        <time>2016-01-17T11:32:12Z</time>
      </trkpt>
      <trkpt lat="45.79492" lon="6.0829">
        <ele>1073.19</ele>
        <time>2016-01-17T11:32:13Z</time>
      </trkpt>
      <trkpt lat="45.79491" lon="6.0829">
        <ele>1073.2</ele>
        <time>2016-01-17T11:32:14Z</time>
      </trkpt>
      <trkpt lat="45.7949" lon="6.08291">
        <ele>1073.19</ele>
        <time>2016-01-17T11:32:15Z</time>
      </trkpt>
      <trkpt lat="45.79489" lon="6.08291">
        <ele>1073.19</ele>
        <time>2016-01-17T11:32:16Z</time>
      </trkpt>
      <trkpt lat="45.79489" lon="6.08291">
        <ele>1073.19</ele>
        <time>2016-01-17T11:32:17Z</time>
      </trkpt>
      <trkpt lat="45.79488" lon="6.08291">
        <ele>1073.19</ele>
        <time>2016-01-17T11:32:18Z</time>
      </trkpt>
      <trkpt lat="45.79487" lon="6.08291">
        <ele>1073.19</ele>
        <time>2016-01-17T11:32:19Z</time>
      </trkpt>
      <trkpt lat="45.79486" lon="6.08291">
        <ele>1073.2</ele>
        <time>2016-01-17T11:32:20Z</time>
      </trkpt>
      <trkpt lat="45.79486" lon="6.0829">
        <ele>1073.19</ele>
        <time>2016-01-17T11:32:21Z</time>
      </trkpt>
      <trkpt lat="45.79486" lon="6.0829">
        <ele>1073.19</ele>
        <time>2016-01-17T11:32:22Z</time>
      </trkpt>
      <trkpt lat="45.79485" lon="6.0829">
        <ele>1073.19</ele>
        <time>2016-01-17T11:32:23Z</time>
      </trkpt>
      <trkpt lat="45.79484" lon="6.0829">
        <ele>1073.19</ele>
        <time>2016-01-17T11:32:24Z</time>
      </trkpt>
      <trkpt lat="45.79483" lon="6.08289">
        <ele>1073.19</ele>
        <time>2016-01-17T11:32:25Z</time>
      </trkpt>
      <trkpt lat="45.79483" lon="6.0829">
        <ele>1073.21</ele>
        <time>2016-01-17T11:32:26Z</time>
      </trkpt>
      <trkpt lat="45.79483" lon="6.08291">
        <ele>1073.97</ele>
        <time>2016-01-17T11:32:27Z</time>
      </trkpt>
      <trkpt lat="45.79482" lon="6.08291">
        <ele>1073.98</ele>
        <time>2016-01-17T11:32:28Z</time>
      </trkpt>
      <trkpt lat="45.79482" lon="6.08291">
        <ele>1073.98</ele>
        <time>2016-01-17T11:32:29Z</time>
      </trkpt>
      <trkpt lat="45.79482" lon="6.08291">
        <ele>1073.98</ele>
        <time>2016-01-17T11:32:30Z</time>
      </trkpt>
      <trkpt lat="45.79482" lon="6.0829">
        <ele>1075.37</ele>
        <time>2016-01-17T11:32:31Z</time>
      </trkpt>
      <trkpt lat="45.79481" lon="6.08289">
        <ele>1075.39</ele>
        <time>2016-01-17T11:32:32Z</time>
      </trkpt>
      <trkpt lat="45.79481" lon="6.08289">
        <ele>1075.37</ele>
        <time>2016-01-17T11:32:33Z</time>
      </trkpt>
      <trkpt lat="45.79481" lon="6.08288">
        <ele>1075.39</ele>
        <time>2016-01-17T11:32:34Z</time>
      </trkpt>
      <trkpt lat="45.7948" lon="6.08288">
        <ele>1075.36</ele>
        <time>2016-01-17T11:32:35Z</time>
      </trkpt>
      <trkpt lat="45.7948" lon="6.08288">
        <ele>1075.36</ele>
        <time>2016-01-17T11:32:36Z</time>
      </trkpt>
      <trkpt lat="45.7948" lon="6.08287">
        <ele>1075.36</ele>
        <time>2016-01-17T11:32:37Z</time>
      </trkpt>
      <trkpt lat="45.7948" lon="6.08286">
        <ele>1075.39</ele>
        <time>2016-01-17T11:32:38Z</time>
      </trkpt>
      <trkpt lat="45.7948" lon="6.08286">
        <ele>1075.37</ele>
        <time>2016-01-17T11:32:39Z</time>
      </trkpt>
      <trkpt lat="45.79479" lon="6.08286">
        <ele>1075.39</ele>
        <time>2016-01-17T11:32:40Z</time>
      </trkpt>
      <trkpt lat="45.79479" lon="6.08285">
        <ele>1075.37</ele>
        <time>2016-01-17T11:32:41Z</time>
      </trkpt>
      <trkpt lat="45.79479" lon="6.08285">
        <ele>1075.38</ele>
        <time>2016-01-17T11:32:42Z</time>
      </trkpt>
      <trkpt lat="45.79479" lon="6.08284">
        <ele>1075.38</ele>
        <time>2016-01-17T11:32:43Z</time>
      </trkpt>
      <trkpt lat="45.7948" lon="6.08284">
        <ele>1075.39</ele>
        <time>2016-01-17T11:32:44Z</time>
      </trkpt>
      <trkpt lat="45.79479" lon="6.08284">
        <ele>1075.32</ele>
        <time>2016-01-17T11:32:45Z</time>
      </trkpt>
      <trkpt lat="45.7948" lon="6.08284">
        <ele>1076.45</ele>
        <time>2016-01-17T11:32:46Z</time>
      </trkpt>
      <trkpt lat="45.7948" lon="6.08284">
        <ele>1076.45</ele>
        <time>2016-01-17T11:32:47Z</time>
      </trkpt>
      <trkpt lat="45.79479" lon="6.08284">
        <ele>1076.4</ele>
        <time>2016-01-17T11:32:48Z</time>
      </trkpt>
      <trkpt lat="45.79479" lon="6.08284">
        <ele>1076.44</ele>
        <time>2016-01-17T11:32:49Z</time>
      </trkpt>
      <trkpt lat="45.79479" lon="6.08284">
        <ele>1076.4</ele>
        <time>2016-01-17T11:32:50Z</time>
      </trkpt>
      <trkpt lat="45.79478" lon="6.08285">
        <ele>1076.46</ele>
        <time>2016-01-17T11:32:51Z</time>
      </trkpt>
      <trkpt lat="45.79477" lon="6.08285">
        <ele>1076.44</ele>
        <time>2016-01-17T11:32:52Z</time>
      </trkpt>
      <trkpt lat="45.79476" lon="6.08285">
        <ele>1077.35</ele>
        <time>2016-01-17T11:32:53Z</time>
      </trkpt>
      <trkpt lat="45.79475" lon="6.08285">
        <ele>1077.35</ele>
        <time>2016-01-17T11:32:54Z</time>
      </trkpt>
      <trkpt lat="45.79474" lon="6.08284">
        <ele>1077.35</ele>
        <time>2016-01-17T11:32:55Z</time>
      </trkpt>
      <trkpt lat="45.79474" lon="6.08284">
        <ele>1077.35</ele>
        <time>2016-01-17T11:32:56Z</time>
      </trkpt>
      <trkpt lat="45.79473" lon="6.08283">
        <ele>1077.32</ele>
        <time>2016-01-17T11:32:57Z</time>
      </trkpt>
      <trkpt lat="45.79473" lon="6.08283">
        <ele>1077.34</ele>
        <time>2016-01-17T11:32:58Z</time>
      </trkpt>
      <trkpt lat="45.79473" lon="6.08282">
        <ele>1077.32</ele>
        <time>2016-01-17T11:32:59Z</time>
      </trkpt>
      <trkpt lat="45.79473" lon="6.08282">
        <ele>1077.33</ele>
        <time>2016-01-17T11:33:00Z</time>
      </trkpt>
      <trkpt lat="45.79473" lon="6.08281">
        <ele>1077.33</ele>
        <time>2016-01-17T11:33:01Z</time>
      </trkpt>
      <trkpt lat="45.79473" lon="6.08281">
        <ele>1077.33</ele>
        <time>2016-01-17T11:33:02Z</time>
      </trkpt>
      <trkpt lat="45.79472" lon="6.0828">
        <ele>1077.32</ele>
        <time>2016-01-17T11:33:03Z</time>
      </trkpt>
      <trkpt lat="45.79472" lon="6.0828">
        <ele>1077.33</ele>
        <time>2016-01-17T11:33:04Z</time>
      </trkpt>
      <trkpt lat="45.79472" lon="6.0828">
        <ele>1077.32</ele>
        <time>2016-01-17T11:33:05Z</time>
      </trkpt>
      <trkpt lat="45.79472" lon="6.08279">
        <ele>1077.32</ele>
        <time>2016-01-17T11:33:06Z</time>
      </trkpt>
      <trkpt lat="45.79472" lon="6.08279">
        <ele>1077.32</ele>
        <time>2016-01-17T11:33:07Z</time>
      </trkpt>
      <trkpt lat="45.79472" lon="6.08279">
        <ele>1077.32</ele>
        <time>2016-01-17T11:33:08Z</time>
      </trkpt>
      <trkpt lat="45.79472" lon="6.08279">
        <ele>1077.33</ele>
        <time>2016-01-17T11:33:09Z</time>
      </trkpt>
      <trkpt lat="45.79472" lon="6.08279">
        <ele>1077.33</ele>
        <time>2016-01-17T11:33:10Z</time>
      </trkpt>
      <trkpt lat="45.79472" lon="6.08279">
        <ele>1077.33</ele>
        <time>2016-01-17T11:33:11Z</time>
      </trkpt>
      <trkpt lat="45.79472" lon="6.08279">
        <ele>1077.33</ele>
        <time>2016-01-17T11:33:12Z</time>
      </trkpt>
      <trkpt lat="45.79472" lon="6.08278">
        <ele>1077.34</ele>
        <time>2016-01-17T11:33:13Z</time>
      </trkpt>
      <trkpt lat="45.79472" lon="6.08278">
        <ele>1077.34</ele>
        <time>2016-01-17T11:33:14Z</time>
      </trkpt>
      <trkpt lat="45.79472" lon="6.08278">
        <ele>1077.34</ele>
        <time>2016-01-17T11:33:15Z</time>
      </trkpt>
      <trkpt lat="45.79472" lon="6.08278">
        <ele>1077.34</ele>
        <time>2016-01-17T11:33:16Z</time>
      </trkpt>
      <trkpt lat="45.79472" lon="6.08278">
        <ele>1077.35</ele>
        <time>2016-01-17T11:33:17Z</time>
      </trkpt>
      <trkpt lat="45.79472" lon="6.08278">
        <ele>1077.35</ele>
        <time>2016-01-17T11:33:18Z</time>
      </trkpt>
      <trkpt lat="45.79472" lon="6.08277">
        <ele>1077.35</ele>
        <time>2016-01-17T11:33:19Z</time>
      </trkpt>
      <trkpt lat="45.79472" lon="6.08277">
        <ele>1077.36</ele>
        <time>2016-01-17T11:33:20Z</time>
      </trkpt>
      <trkpt lat="45.79472" lon="6.08277">
        <ele>1077.36</ele>
        <time>2016-01-17T11:33:21Z</time>
      </trkpt>
      <trkpt lat="45.79472" lon="6.08277">
        <ele>1077.36</ele>
        <time>2016-01-17T11:33:22Z</time>
      </trkpt>
      <trkpt lat="45.79472" lon="6.08277">
        <ele>1077.37</ele>
        <time>2016-01-17T11:33:23Z</time>
      </trkpt>
      <trkpt lat="45.79472" lon="6.08277">
        <ele>1077.37</ele>
        <time>2016-01-17T11:33:24Z</time>
      </trkpt>
      <trkpt lat="45.79472" lon="6.08277">
        <ele>1077.37</ele>
        <time>2016-01-17T11:33:25Z</time>
      </trkpt>
      <trkpt lat="45.79472" lon="6.08277">
        <ele>1077.38</ele>
        <time>2016-01-17T11:33:26Z</time>
      </trkpt>
      <trkpt lat="45.79472" lon="6.08277">
        <ele>1077.38</ele>
        <time>2016-01-17T11:33:27Z</time>
      </trkpt>
      <trkpt lat="45.79472" lon="6.08277">
        <ele>1077.38</ele>
        <time>2016-01-17T11:33:28Z</time>
      </trkpt>
      <trkpt lat="45.79472" lon="6.08277">
        <ele>1077.39</ele>
        <time>2016-01-17T11:33:29Z</time>
      </trkpt>
      <trkpt lat="45.79472" lon="6.08277">
        <ele>1077.39</ele>
        <time>2016-01-17T11:33:30Z</time>
      </trkpt>
      <trkpt lat="45.79472" lon="6.08276">
        <ele>1077.4</ele>
        <time>2016-01-17T11:33:31Z</time>
      </trkpt>
      <trkpt lat="45.79472" lon="6.08276">
        <ele>1077.4</ele>
        <time>2016-01-17T11:33:32Z</time>
      </trkpt>
      <trkpt lat="45.79472" lon="6.08276">
        <ele>1077.41</ele>
        <time>2016-01-17T11:33:33Z</time>
      </trkpt>
      <trkpt lat="45.79472" lon="6.08275">
        <ele>1077.41</ele>
        <time>2016-01-17T11:33:34Z</time>
      </trkpt>
      <trkpt lat="45.79472" lon="6.08275">
        <ele>1077.41</ele>
        <time>2016-01-17T11:33:35Z</time>
      </trkpt>
      <trkpt lat="45.79472" lon="6.08275">
        <ele>1077.42</ele>
        <time>2016-01-17T11:33:36Z</time>
      </trkpt>
      <trkpt lat="45.79472" lon="6.08275">
        <ele>1077.42</ele>
        <time>2016-01-17T11:33:37Z</time>
      </trkpt>
      <trkpt lat="45.79472" lon="6.08274">
        <ele>1077.43</ele>
        <time>2016-01-17T11:33:38Z</time>
      </trkpt>
      <trkpt lat="45.79472" lon="6.08275">
        <ele>1077.43</ele>
        <time>2016-01-17T11:33:39Z</time>
      </trkpt>
      <trkpt lat="45.79471" lon="6.08275">
        <ele>1077.44</ele>
        <time>2016-01-17T11:33:40Z</time>
      </trkpt>
      <trkpt lat="45.79471" lon="6.08275">
        <ele>1077.44</ele>
        <time>2016-01-17T11:33:41Z</time>
      </trkpt>
      <trkpt lat="45.79471" lon="6.08274">
        <ele>1077.42</ele>
        <time>2016-01-17T11:33:42Z</time>
      </trkpt>
      <trkpt lat="45.7947" lon="6.08275">
        <ele>1077.45</ele>
        <time>2016-01-17T11:33:43Z</time>
      </trkpt>
      <trkpt lat="45.7947" lon="6.08276">
        <ele>1077.46</ele>
        <time>2016-01-17T11:33:44Z</time>
      </trkpt>
      <trkpt lat="45.79469" lon="6.08276">
        <ele>1078.29</ele>
        <time>2016-01-17T11:33:45Z</time>
      </trkpt>
      <trkpt lat="45.79468" lon="6.08276">
        <ele>1078.28</ele>
        <time>2016-01-17T11:33:46Z</time>
      </trkpt>
      <trkpt lat="45.79468" lon="6.08276">
        <ele>1078.31</ele>
        <time>2016-01-17T11:33:47Z</time>
      </trkpt>
      <trkpt lat="45.79468" lon="6.08277">
        <ele>1078.33</ele>
        <time>2016-01-17T11:33:48Z</time>
      </trkpt>
      <trkpt lat="45.79467" lon="6.08277">
        <ele>1078.36</ele>
        <time>2016-01-17T11:33:49Z</time>
      </trkpt>
      <trkpt lat="45.79466" lon="6.08278">
        <ele>1078.36</ele>
        <time>2016-01-17T11:33:50Z</time>
      </trkpt>
      <trkpt lat="45.79466" lon="6.08278">
        <ele>1078.33</ele>
        <time>2016-01-17T11:33:51Z</time>
      </trkpt>
      <trkpt lat="45.79465" lon="6.08278">
        <ele>1078.36</ele>
        <time>2016-01-17T11:33:52Z</time>
      </trkpt>
      <trkpt lat="45.79465" lon="6.08278">
        <ele>1079.56</ele>
        <time>2016-01-17T11:33:53Z</time>
      </trkpt>
      <trkpt lat="45.79464" lon="6.08278">
        <ele>1079.57</ele>
        <time>2016-01-17T11:33:54Z</time>
      </trkpt>
      <trkpt lat="45.79463" lon="6.08279">
        <ele>1079.56</ele>
        <time>2016-01-17T11:33:55Z</time>
      </trkpt>
      <trkpt lat="45.79462" lon="6.08279">
        <ele>1079.57</ele>
        <time>2016-01-17T11:33:56Z</time>
      </trkpt>
      <trkpt lat="45.79462" lon="6.08279">
        <ele>1080.48</ele>
        <time>2016-01-17T11:33:57Z</time>
      </trkpt>
      <trkpt lat="45.79461" lon="6.08279">
        <ele>1080.49</ele>
        <time>2016-01-17T11:33:58Z</time>
      </trkpt>
      <trkpt lat="45.79461" lon="6.08279">
        <ele>1080.47</ele>
        <time>2016-01-17T11:33:59Z</time>
      </trkpt>
      <trkpt lat="45.79461" lon="6.08279">
        <ele>1080.47</ele>
        <time>2016-01-17T11:34:00Z</time>
      </trkpt>
      <trkpt lat="45.79461" lon="6.0828">
        <ele>1080.47</ele>
        <time>2016-01-17T11:34:01Z</time>
      </trkpt>
      <trkpt lat="45.79461" lon="6.08279">
        <ele>1080.43</ele>
        <time>2016-01-17T11:34:02Z</time>
      </trkpt>
      <trkpt lat="45.79461" lon="6.0828">
        <ele>1080.49</ele>
        <time>2016-01-17T11:34:03Z</time>
      </trkpt>
      <trkpt lat="45.79461" lon="6.08281">
        <ele>1081.58</ele>
        <time>2016-01-17T11:34:04Z</time>
      </trkpt>
      <trkpt lat="45.79461" lon="6.08282">
        <ele>1081.59</ele>
        <time>2016-01-17T11:34:05Z</time>
      </trkpt>
      <trkpt lat="45.79461" lon="6.08283">
        <ele>1081.59</ele>
        <time>2016-01-17T11:34:06Z</time>
      </trkpt>
      <trkpt lat="45.79461" lon="6.08284">
        <ele>1081.56</ele>
        <time>2016-01-17T11:34:07Z</time>
      </trkpt>
      <trkpt lat="45.79461" lon="6.08284">
        <ele>1082.73</ele>
        <time>2016-01-17T11:34:08Z</time>
      </trkpt>
      <trkpt lat="45.7946" lon="6.08284">
        <ele>1082.72</ele>
        <time>2016-01-17T11:34:09Z</time>
      </trkpt>
      <trkpt lat="45.7946" lon="6.08285">
        <ele>1082.74</ele>
        <time>2016-01-17T11:34:10Z</time>
      </trkpt>
      <trkpt lat="45.7946" lon="6.08286">
        <ele>1082.74</ele>
        <time>2016-01-17T11:34:11Z</time>
      </trkpt>
      <trkpt lat="45.7946" lon="6.08287">
        <ele>1082.75</ele>
        <time>2016-01-17T11:34:12Z</time>
      </trkpt>
      <trkpt lat="45.7946" lon="6.08288">
        <ele>1082.77</ele>
        <time>2016-01-17T11:34:13Z</time>
      </trkpt>
      <trkpt lat="45.79461" lon="6.08288">
        <ele>1082.79</ele>
        <time>2016-01-17T11:34:14Z</time>
      </trkpt>
      <trkpt lat="45.79461" lon="6.08289">
        <ele>1082.77</ele>
        <time>2016-01-17T11:34:15Z</time>
      </trkpt>
      <trkpt lat="45.79461" lon="6.0829">
        <ele>1082.75</ele>
        <time>2016-01-17T11:34:16Z</time>
      </trkpt>
      <trkpt lat="45.79461" lon="6.08291">
        <ele>1084.14</ele>
        <time>2016-01-17T11:34:17Z</time>
      </trkpt>
      <trkpt lat="45.79461" lon="6.08291">
        <ele>1084.14</ele>
        <time>2016-01-17T11:34:18Z</time>
      </trkpt>
      <trkpt lat="45.79461" lon="6.08291">
        <ele>1084.16</ele>
        <time>2016-01-17T11:34:19Z</time>
      </trkpt>
      <trkpt lat="45.79461" lon="6.08292">
        <ele>1084.18</ele>
        <time>2016-01-17T11:34:20Z</time>
      </trkpt>
      <trkpt lat="45.79461" lon="6.08292">
        <ele>1084.17</ele>
        <time>2016-01-17T11:34:21Z</time>
      </trkpt>
      <trkpt lat="45.79462" lon="6.08293">
        <ele>1084.96</ele>
        <time>2016-01-17T11:34:22Z</time>
      </trkpt>
      <trkpt lat="45.79462" lon="6.08294">
        <ele>1084.94</ele>
        <time>2016-01-17T11:34:23Z</time>
      </trkpt>
      <trkpt lat="45.79462" lon="6.08295">
        <ele>1084.97</ele>
        <time>2016-01-17T11:34:24Z</time>
      </trkpt>
      <trkpt lat="45.79462" lon="6.08296">
        <ele>1084.99</ele>
        <time>2016-01-17T11:34:25Z</time>
      </trkpt>
      <trkpt lat="45.79463" lon="6.08297">
        <ele>1086.04</ele>
        <time>2016-01-17T11:34:26Z</time>
      </trkpt>
      <trkpt lat="45.79463" lon="6.08297">
        <ele>1086</ele>
        <time>2016-01-17T11:34:27Z</time>
      </trkpt>
      <trkpt lat="45.79463" lon="6.08298">
        <ele>1086.04</ele>
        <time>2016-01-17T11:34:28Z</time>
      </trkpt>
      <trkpt lat="45.79464" lon="6.08299">
        <ele>1086.01</ele>
        <time>2016-01-17T11:34:29Z</time>
      </trkpt>
      <trkpt lat="45.79464" lon="6.083">
        <ele>1086.01</ele>
        <time>2016-01-17T11:34:30Z</time>
      </trkpt>
      <trkpt lat="45.79464" lon="6.083">
        <ele>1086</ele>
        <time>2016-01-17T11:34:31Z</time>
      </trkpt>
      <trkpt lat="45.79465" lon="6.08301">
        <ele>1087.09</ele>
        <time>2016-01-17T11:34:32Z</time>
      </trkpt>
      <trkpt lat="45.79465" lon="6.08302">
        <ele>1087.09</ele>
        <time>2016-01-17T11:34:33Z</time>
      </trkpt>
      <trkpt lat="45.79466" lon="6.08302">
        <ele>1087.08</ele>
        <time>2016-01-17T11:34:34Z</time>
      </trkpt>
      <trkpt lat="45.79466" lon="6.08303">
        <ele>1087.09</ele>
        <time>2016-01-17T11:34:35Z</time>
      </trkpt>
      <trkpt lat="45.79467" lon="6.08304">
        <ele>1087.07</ele>
        <time>2016-01-17T11:34:36Z</time>
      </trkpt>
      <trkpt lat="45.79467" lon="6.08305">
        <ele>1087.97</ele>
        <time>2016-01-17T11:34:37Z</time>
      </trkpt>
      <trkpt lat="45.79468" lon="6.08306">
        <ele>1088.01</ele>
        <time>2016-01-17T11:34:38Z</time>
      </trkpt>
      <trkpt lat="45.79468" lon="6.08306">
        <ele>1088.95</ele>
        <time>2016-01-17T11:34:39Z</time>
      </trkpt>
      <trkpt lat="45.79468" lon="6.08306">
        <ele>1088.94</ele>
        <time>2016-01-17T11:34:40Z</time>
      </trkpt>
      <trkpt lat="45.79469" lon="6.08307">
        <ele>1088.93</ele>
        <time>2016-01-17T11:34:41Z</time>
      </trkpt>
      <trkpt lat="45.79469" lon="6.08307">
        <ele>1088.94</ele>
        <time>2016-01-17T11:34:42Z</time>
      </trkpt>
      <trkpt lat="45.79471" lon="6.08308">
        <ele>1089.02</ele>
        <time>2016-01-17T11:34:43Z</time>
      </trkpt>
      <trkpt lat="45.79471" lon="6.08308">
        <ele>1088.93</ele>
        <time>2016-01-17T11:34:44Z</time>
      </trkpt>
      <trkpt lat="45.79472" lon="6.08309">
        <ele>1088.89</ele>
        <time>2016-01-17T11:34:45Z</time>
      </trkpt>
      <trkpt lat="45.79473" lon="6.08309">
        <ele>1090.19</ele>
        <time>2016-01-17T11:34:46Z</time>
      </trkpt>
      <trkpt lat="45.79473" lon="6.0831">
        <ele>1090.14</ele>
        <time>2016-01-17T11:34:47Z</time>
      </trkpt>
      <trkpt lat="45.79473" lon="6.0831">
        <ele>1090.16</ele>
        <time>2016-01-17T11:34:48Z</time>
      </trkpt>
      <trkpt lat="45.79473" lon="6.08311">
        <ele>1090.16</ele>
        <time>2016-01-17T11:34:49Z</time>
      </trkpt>
      <trkpt lat="45.79473" lon="6.08312">
        <ele>1090.16</ele>
        <time>2016-01-17T11:34:50Z</time>
      </trkpt>
      <trkpt lat="45.79474" lon="6.08312">
        <ele>1090.16</ele>
        <time>2016-01-17T11:34:51Z</time>
      </trkpt>
      <trkpt lat="45.79474" lon="6.08313">
        <ele>1090.14</ele>
        <time>2016-01-17T11:34:52Z</time>
      </trkpt>
      <trkpt lat="45.79474" lon="6.08313">
        <ele>1090.12</ele>
        <time>2016-01-17T11:34:53Z</time>
      </trkpt>
      <trkpt lat="45.79474" lon="6.08314">
        <ele>1090.09</ele>
        <time>2016-01-17T11:34:54Z</time>
      </trkpt>
      <trkpt lat="45.79475" lon="6.08314">
        <ele>1090.12</ele>
        <time>2016-01-17T11:34:55Z</time>
      </trkpt>
      <trkpt lat="45.79475" lon="6.08315">
        <ele>1090.11</ele>
        <time>2016-01-17T11:34:56Z</time>
      </trkpt>
      <trkpt lat="45.79475" lon="6.08315">
        <ele>1090.11</ele>
        <time>2016-01-17T11:34:57Z</time>
      </trkpt>
      <trkpt lat="45.79474" lon="6.08316">
        <ele>1090.91</ele>
        <time>2016-01-17T11:34:58Z</time>
      </trkpt>
      <trkpt lat="45.79475" lon="6.08317">
        <ele>1090.93</ele>
        <time>2016-01-17T11:34:59Z</time>
      </trkpt>
      <trkpt lat="45.79475" lon="6.08317">
        <ele>1090.93</ele>
        <time>2016-01-17T11:35:00Z</time>
      </trkpt>
      <trkpt lat="45.79475" lon="6.08318">
        <ele>1091.77</ele>
        <time>2016-01-17T11:35:01Z</time>
      </trkpt>
      <trkpt lat="45.79475" lon="6.08318">
        <ele>1091.76</ele>
        <time>2016-01-17T11:35:02Z</time>
      </trkpt>
      <trkpt lat="45.79475" lon="6.08319">
        <ele>1091.74</ele>
        <time>2016-01-17T11:35:03Z</time>
      </trkpt>
      <trkpt lat="45.79475" lon="6.0832">
        <ele>1091.77</ele>
        <time>2016-01-17T11:35:04Z</time>
      </trkpt>
      <trkpt lat="45.79476" lon="6.0832">
        <ele>1091.73</ele>
        <time>2016-01-17T11:35:05Z</time>
      </trkpt>
      <trkpt lat="45.79477" lon="6.08321">
        <ele>1091.73</ele>
        <time>2016-01-17T11:35:06Z</time>
      </trkpt>
      <trkpt lat="45.79478" lon="6.08321">
        <ele>1092.63</ele>
        <time>2016-01-17T11:35:07Z</time>
      </trkpt>
      <trkpt lat="45.79478" lon="6.08322">
        <ele>1092.56</ele>
        <time>2016-01-17T11:35:08Z</time>
      </trkpt>
      <trkpt lat="45.79479" lon="6.08323">
        <ele>1092.52</ele>
        <time>2016-01-17T11:35:09Z</time>
      </trkpt>
      <trkpt lat="45.7948" lon="6.08324">
        <ele>1092.52</ele>
        <time>2016-01-17T11:35:10Z</time>
      </trkpt>
      <trkpt lat="45.79481" lon="6.08325">
        <ele>1092.52</ele>
        <time>2016-01-17T11:35:11Z</time>
      </trkpt>
      <trkpt lat="45.79481" lon="6.08325">
        <ele>1093.37</ele>
        <time>2016-01-17T11:35:12Z</time>
      </trkpt>
      <trkpt lat="45.7948" lon="6.08326">
        <ele>1093.35</ele>
        <time>2016-01-17T11:35:13Z</time>
      </trkpt>
      <trkpt lat="45.79481" lon="6.08327">
        <ele>1094.94</ele>
        <time>2016-01-17T11:35:14Z</time>
      </trkpt>
      <trkpt lat="45.79482" lon="6.08327">
        <ele>1094.94</ele>
        <time>2016-01-17T11:35:15Z</time>
      </trkpt>
      <trkpt lat="45.79482" lon="6.08327">
        <ele>1094.92</ele>
        <time>2016-01-17T11:35:16Z</time>
      </trkpt>
      <trkpt lat="45.79482" lon="6.08327">
        <ele>1094.9</ele>
        <time>2016-01-17T11:35:17Z</time>
      </trkpt>
      <trkpt lat="45.79482" lon="6.08328">
        <ele>1094.9</ele>
        <time>2016-01-17T11:35:18Z</time>
      </trkpt>
      <trkpt lat="45.79483" lon="6.08328">
        <ele>1094.89</ele>
        <time>2016-01-17T11:35:19Z</time>
      </trkpt>
      <trkpt lat="45.79484" lon="6.08328">
        <ele>1094.86</ele>
        <time>2016-01-17T11:35:20Z</time>
      </trkpt>
      <trkpt lat="45.79484" lon="6.08328">
        <ele>1094.85</ele>
        <time>2016-01-17T11:35:21Z</time>
      </trkpt>
      <trkpt lat="45.79485" lon="6.08328">
        <ele>1094.86</ele>
        <time>2016-01-17T11:35:22Z</time>
      </trkpt>
      <trkpt lat="45.79485" lon="6.08328">
        <ele>1094.84</ele>
        <time>2016-01-17T11:35:23Z</time>
      </trkpt>
      <trkpt lat="45.79485" lon="6.08328">
        <ele>1094.79</ele>
        <time>2016-01-17T11:35:24Z</time>
      </trkpt>
      <trkpt lat="45.79485" lon="6.08328">
        <ele>1094.79</ele>
        <time>2016-01-17T11:35:25Z</time>
      </trkpt>
      <trkpt lat="45.79486" lon="6.08328">
        <ele>1094.79</ele>
        <time>2016-01-17T11:35:26Z</time>
      </trkpt>
      <trkpt lat="45.79486" lon="6.08329">
        <ele>1094.79</ele>
        <time>2016-01-17T11:35:27Z</time>
      </trkpt>
      <trkpt lat="45.79487" lon="6.08329">
        <ele>1094.79</ele>
        <time>2016-01-17T11:35:28Z</time>
      </trkpt>
      <trkpt lat="45.79487" lon="6.08329">
        <ele>1094.78</ele>
        <time>2016-01-17T11:35:29Z</time>
      </trkpt>
      <trkpt lat="45.79487" lon="6.08329">
        <ele>1094.78</ele>
        <time>2016-01-17T11:35:30Z</time>
      </trkpt>
      <trkpt lat="45.79488" lon="6.0833">
        <ele>1094.78</ele>
        <time>2016-01-17T11:35:31Z</time>
      </trkpt>
      <trkpt lat="45.79488" lon="6.0833">
        <ele>1094.78</ele>
        <time>2016-01-17T11:35:32Z</time>
      </trkpt>
      <trkpt lat="45.79488" lon="6.0833">
        <ele>1094.78</ele>
        <time>2016-01-17T11:35:33Z</time>
      </trkpt>
      <trkpt lat="45.79488" lon="6.0833">
        <ele>1094.78</ele>
        <time>2016-01-17T11:35:34Z</time>
      </trkpt>
      <trkpt lat="45.79488" lon="6.0833">
        <ele>1094.78</ele>
        <time>2016-01-17T11:35:35Z</time>
      </trkpt>
      <trkpt lat="45.79488" lon="6.08331">
        <ele>1094.77</ele>
        <time>2016-01-17T11:35:36Z</time>
      </trkpt>
      <trkpt lat="45.79489" lon="6.08331">
        <ele>1094.77</ele>
        <time>2016-01-17T11:35:37Z</time>
      </trkpt>
      <trkpt lat="45.79489" lon="6.08331">
        <ele>1094.78</ele>
        <time>2016-01-17T11:35:38Z</time>
      </trkpt>
      <trkpt lat="45.79489" lon="6.08332">
        <ele>1094.79</ele>
        <time>2016-01-17T11:35:39Z</time>
      </trkpt>
      <trkpt lat="45.79489" lon="6.08332">
        <ele>1094.8</ele>
        <time>2016-01-17T11:35:40Z</time>
      </trkpt>
      <trkpt lat="45.79489" lon="6.08333">
        <ele>1094.83</ele>
        <time>2016-01-17T11:35:41Z</time>
      </trkpt>
      <trkpt lat="45.7949" lon="6.08333">
        <ele>1094.8</ele>
        <time>2016-01-17T11:35:42Z</time>
      </trkpt>
      <trkpt lat="45.7949" lon="6.08334">
        <ele>1094.82</ele>
        <time>2016-01-17T11:35:43Z</time>
      </trkpt>
      <trkpt lat="45.7949" lon="6.08334">
        <ele>1094.82</ele>
        <time>2016-01-17T11:35:44Z</time>
      </trkpt>
      <trkpt lat="45.7949" lon="6.08334">
        <ele>1095.71</ele>
        <time>2016-01-17T11:35:45Z</time>
      </trkpt>
      <trkpt lat="45.7949" lon="6.08335">
        <ele>1095.73</ele>
        <time>2016-01-17T11:35:46Z</time>
      </trkpt>
      <trkpt lat="45.7949" lon="6.08335">
        <ele>1095.71</ele>
        <time>2016-01-17T11:35:47Z</time>
      </trkpt>
      <trkpt lat="45.7949" lon="6.08336">
        <ele>1095.7</ele>
        <time>2016-01-17T11:35:48Z</time>
      </trkpt>
      <trkpt lat="45.7949" lon="6.08336">
        <ele>1095.71</ele>
        <time>2016-01-17T11:35:49Z</time>
      </trkpt>
      <trkpt lat="45.7949" lon="6.08336">
        <ele>1095.72</ele>
        <time>2016-01-17T11:35:50Z</time>
      </trkpt>
      <trkpt lat="45.79491" lon="6.08336">
        <ele>1095.66</ele>
        <time>2016-01-17T11:35:51Z</time>
      </trkpt>
      <trkpt lat="45.79491" lon="6.08336">
        <ele>1097.11</ele>
        <time>2016-01-17T11:35:52Z</time>
      </trkpt>
      <trkpt lat="45.79491" lon="6.08337">
        <ele>1097.1</ele>
        <time>2016-01-17T11:35:53Z</time>
      </trkpt>
      <trkpt lat="45.7949" lon="6.08337">
        <ele>1097.1</ele>
        <time>2016-01-17T11:35:54Z</time>
      </trkpt>
      <trkpt lat="45.7949" lon="6.08338">
        <ele>1097.1</ele>
        <time>2016-01-17T11:35:55Z</time>
      </trkpt>
      <trkpt lat="45.79491" lon="6.08339">
        <ele>1097.12</ele>
        <time>2016-01-17T11:35:56Z</time>
      </trkpt>
      <trkpt lat="45.79491" lon="6.08339">
        <ele>1097.1</ele>
        <time>2016-01-17T11:35:57Z</time>
      </trkpt>
      <trkpt lat="45.79491" lon="6.08339">
        <ele>1097.1</ele>
        <time>2016-01-17T11:35:58Z</time>
      </trkpt>
      <trkpt lat="45.79491" lon="6.08339">
        <ele>1097.94</ele>
        <time>2016-01-17T11:35:59Z</time>
      </trkpt>
      <trkpt lat="45.79491" lon="6.08339">
        <ele>1097.89</ele>
        <time>2016-01-17T11:36:00Z</time>
      </trkpt>
      <trkpt lat="45.79491" lon="6.08339">
        <ele>1097.93</ele>
        <time>2016-01-17T11:36:01Z</time>
      </trkpt>
      <trkpt lat="45.7949" lon="6.0834">
        <ele>1097.95</ele>
        <time>2016-01-17T11:36:02Z</time>
      </trkpt>
      <trkpt lat="45.7949" lon="6.0834">
        <ele>1099.04</ele>
        <time>2016-01-17T11:36:03Z</time>
      </trkpt>
      <trkpt lat="45.7949" lon="6.0834">
        <ele>1099</ele>
        <time>2016-01-17T11:36:04Z</time>
      </trkpt>
      <trkpt lat="45.79489" lon="6.08341">
        <ele>1099.02</ele>
        <time>2016-01-17T11:36:05Z</time>
      </trkpt>
      <trkpt lat="45.79489" lon="6.08341">
        <ele>1099.04</ele>
        <time>2016-01-17T11:36:06Z</time>
      </trkpt>
      <trkpt lat="45.79489" lon="6.08341">
        <ele>1099.06</ele>
        <time>2016-01-17T11:36:07Z</time>
      </trkpt>
      <trkpt lat="45.79489" lon="6.08342">
        <ele>1099.05</ele>
        <time>2016-01-17T11:36:08Z</time>
      </trkpt>
      <trkpt lat="45.79489" lon="6.08342">
        <ele>1100.09</ele>
        <time>2016-01-17T11:36:09Z</time>
      </trkpt>
      <trkpt lat="45.79489" lon="6.08342">
        <ele>1100.21</ele>
        <time>2016-01-17T11:36:10Z</time>
      </trkpt>
      <trkpt lat="45.79488" lon="6.08343">
        <ele>1100.02</ele>
        <time>2016-01-17T11:36:11Z</time>
      </trkpt>
      <trkpt lat="45.79487" lon="6.08343">
        <ele>1100.02</ele>
        <time>2016-01-17T11:36:12Z</time>
      </trkpt>
      <trkpt lat="45.79487" lon="6.08344">
        <ele>1100.02</ele>
        <time>2016-01-17T11:36:13Z</time>
      </trkpt>
      <trkpt lat="45.79487" lon="6.08344">
        <ele>1100.1</ele>
        <time>2016-01-17T11:36:14Z</time>
      </trkpt>
      <trkpt lat="45.79487" lon="6.08345">
        <ele>1100.8</ele>
        <time>2016-01-17T11:36:15Z</time>
      </trkpt>
      <trkpt lat="45.79487" lon="6.08345">
        <ele>1100.89</ele>
        <time>2016-01-17T11:36:16Z</time>
      </trkpt>
      <trkpt lat="45.79486" lon="6.08345">
        <ele>1100.8</ele>
        <time>2016-01-17T11:36:17Z</time>
      </trkpt>
      <trkpt lat="45.79486" lon="6.08346">
        <ele>1101.76</ele>
        <time>2016-01-17T11:36:18Z</time>
      </trkpt>
      <trkpt lat="45.79486" lon="6.08346">
        <ele>1101.89</ele>
        <time>2016-01-17T11:36:19Z</time>
      </trkpt>
      <trkpt lat="45.79486" lon="6.08347">
        <ele>1101.76</ele>
        <time>2016-01-17T11:36:20Z</time>
      </trkpt>
      <trkpt lat="45.79485" lon="6.08347">
        <ele>1102.59</ele>
        <time>2016-01-17T11:36:21Z</time>
      </trkpt>
      <trkpt lat="45.79486" lon="6.08347">
        <ele>1102.57</ele>
        <time>2016-01-17T11:36:22Z</time>
      </trkpt>
      <trkpt lat="45.79486" lon="6.08347">
        <ele>1102.58</ele>
        <time>2016-01-17T11:36:23Z</time>
      </trkpt>
      <trkpt lat="45.79486" lon="6.08347">
        <ele>1102.7</ele>
        <time>2016-01-17T11:36:24Z</time>
      </trkpt>
      <trkpt lat="45.79486" lon="6.08348">
        <ele>1103.47</ele>
        <time>2016-01-17T11:36:25Z</time>
      </trkpt>
      <trkpt lat="45.79486" lon="6.08348">
        <ele>1103.47</ele>
        <time>2016-01-17T11:36:26Z</time>
      </trkpt>
      <trkpt lat="45.79486" lon="6.08349">
        <ele>1103.53</ele>
        <time>2016-01-17T11:36:27Z</time>
      </trkpt>
      <trkpt lat="45.79487" lon="6.0835">
        <ele>1103.66</ele>
        <time>2016-01-17T11:36:28Z</time>
      </trkpt>
      <trkpt lat="45.79486" lon="6.0835">
        <ele>1103.53</ele>
        <time>2016-01-17T11:36:29Z</time>
      </trkpt>
      <trkpt lat="45.79487" lon="6.08351">
        <ele>1103.53</ele>
        <time>2016-01-17T11:36:30Z</time>
      </trkpt>
      <trkpt lat="45.79487" lon="6.08351">
        <ele>1103.52</ele>
        <time>2016-01-17T11:36:31Z</time>
      </trkpt>
      <trkpt lat="45.79487" lon="6.08351">
        <ele>1103.63</ele>
        <time>2016-01-17T11:36:32Z</time>
      </trkpt>
      <trkpt lat="45.79487" lon="6.08353">
        <ele>1104.37</ele>
        <time>2016-01-17T11:36:33Z</time>
      </trkpt>
      <trkpt lat="45.79487" lon="6.08353">
        <ele>1104.47</ele>
        <time>2016-01-17T11:36:34Z</time>
      </trkpt>
      <trkpt lat="45.79488" lon="6.08355">
        <ele>1104.36</ele>
        <time>2016-01-17T11:36:35Z</time>
      </trkpt>
      <trkpt lat="45.79488" lon="6.08355">
        <ele>1104.46</ele>
        <time>2016-01-17T11:36:36Z</time>
      </trkpt>
      <trkpt lat="45.79488" lon="6.08356">
        <ele>1104.46</ele>
        <time>2016-01-17T11:36:37Z</time>
      </trkpt>
      <trkpt lat="45.79487" lon="6.08357">
        <ele>1104.45</ele>
        <time>2016-01-17T11:36:38Z</time>
      </trkpt>
      <trkpt lat="45.79488" lon="6.08359">
        <ele>1104.34</ele>
        <time>2016-01-17T11:36:39Z</time>
      </trkpt>
      <trkpt lat="45.79488" lon="6.0836">
        <ele>1104.39</ele>
        <time>2016-01-17T11:36:40Z</time>
      </trkpt>
      <trkpt lat="45.79489" lon="6.08361">
        <ele>1104.33</ele>
        <time>2016-01-17T11:36:41Z</time>
      </trkpt>
      <trkpt lat="45.79489" lon="6.08361">
        <ele>1104.38</ele>
        <time>2016-01-17T11:36:42Z</time>
      </trkpt>
      <trkpt lat="45.79488" lon="6.08362">
        <ele>1105.53</ele>
        <time>2016-01-17T11:36:43Z</time>
      </trkpt>
      <trkpt lat="45.79489" lon="6.08362">
        <ele>1105.61</ele>
        <time>2016-01-17T11:36:44Z</time>
      </trkpt>
      <trkpt lat="45.79489" lon="6.08364">
        <ele>1105.54</ele>
        <time>2016-01-17T11:36:45Z</time>
      </trkpt>
      <trkpt lat="45.79489" lon="6.08364">
        <ele>1105.62</ele>
        <time>2016-01-17T11:36:46Z</time>
      </trkpt>
      <trkpt lat="45.79489" lon="6.08365">
        <ele>1105.53</ele>
        <time>2016-01-17T11:36:47Z</time>
      </trkpt>
      <trkpt lat="45.79489" lon="6.08365">
        <ele>1106.3</ele>
        <time>2016-01-17T11:36:48Z</time>
      </trkpt>
      <trkpt lat="45.7949" lon="6.08366">
        <ele>1106.24</ele>
        <time>2016-01-17T11:36:49Z</time>
      </trkpt>
      <trkpt lat="45.7949" lon="6.08367">
        <ele>1106.28</ele>
        <time>2016-01-17T11:36:50Z</time>
      </trkpt>
      <trkpt lat="45.7949" lon="6.08367">
        <ele>1106.26</ele>
        <time>2016-01-17T11:36:51Z</time>
      </trkpt>
      <trkpt lat="45.7949" lon="6.08368">
        <ele>1106.27</ele>
        <time>2016-01-17T11:36:52Z</time>
      </trkpt>
      <trkpt lat="45.7949" lon="6.08368">
        <ele>1106.27</ele>
        <time>2016-01-17T11:36:53Z</time>
      </trkpt>
      <trkpt lat="45.79489" lon="6.08369">
        <ele>1107.3</ele>
        <time>2016-01-17T11:36:54Z</time>
      </trkpt>
      <trkpt lat="45.79489" lon="6.08369">
        <ele>1107.37</ele>
        <time>2016-01-17T11:36:55Z</time>
      </trkpt>
      <trkpt lat="45.79489" lon="6.0837">
        <ele>1107.29</ele>
        <time>2016-01-17T11:36:56Z</time>
      </trkpt>
      <trkpt lat="45.79489" lon="6.08371">
        <ele>1107.27</ele>
        <time>2016-01-17T11:36:57Z</time>
      </trkpt>
      <trkpt lat="45.79489" lon="6.08371">
        <ele>1107.34</ele>
        <time>2016-01-17T11:36:58Z</time>
      </trkpt>
      <trkpt lat="45.79489" lon="6.08371">
        <ele>1107.28</ele>
        <time>2016-01-17T11:36:59Z</time>
      </trkpt>
      <trkpt lat="45.79489" lon="6.08371">
        <ele>1107.35</ele>
        <time>2016-01-17T11:37:00Z</time>
      </trkpt>
      <trkpt lat="45.79488" lon="6.08372">
        <ele>1108.31</ele>
        <time>2016-01-17T11:37:01Z</time>
      </trkpt>
      <trkpt lat="45.79488" lon="6.08372">
        <ele>1108.38</ele>
        <time>2016-01-17T11:37:02Z</time>
      </trkpt>
      <trkpt lat="45.79488" lon="6.08373">
        <ele>1108.28</ele>
        <time>2016-01-17T11:37:03Z</time>
      </trkpt>
      <trkpt lat="45.79488" lon="6.08374">
        <ele>1108.38</ele>
        <time>2016-01-17T11:37:04Z</time>
      </trkpt>
      <trkpt lat="45.79488" lon="6.08374">
        <ele>1109.35</ele>
        <time>2016-01-17T11:37:05Z</time>
      </trkpt>
      <trkpt lat="45.79488" lon="6.08376">
        <ele>1109.23</ele>
        <time>2016-01-17T11:37:06Z</time>
      </trkpt>
      <trkpt lat="45.79488" lon="6.08376">
        <ele>1109.33</ele>
        <time>2016-01-17T11:37:07Z</time>
      </trkpt>
      <trkpt lat="45.79488" lon="6.08377">
        <ele>1110.2</ele>
        <time>2016-01-17T11:37:08Z</time>
      </trkpt>
      <trkpt lat="45.79487" lon="6.08379">
        <ele>1110.1</ele>
        <time>2016-01-17T11:37:09Z</time>
      </trkpt>
      <trkpt lat="45.79487" lon="6.0838">
        <ele>1110.07</ele>
        <time>2016-01-17T11:37:10Z</time>
      </trkpt>
      <trkpt lat="45.79487" lon="6.08381">
        <ele>1110.04</ele>
        <time>2016-01-17T11:37:11Z</time>
      </trkpt>
      <trkpt lat="45.79487" lon="6.08381">
        <ele>1110.06</ele>
        <time>2016-01-17T11:37:12Z</time>
      </trkpt>
      <trkpt lat="45.79487" lon="6.08383">
        <ele>1111.27</ele>
        <time>2016-01-17T11:37:13Z</time>
      </trkpt>
      <trkpt lat="45.79486" lon="6.08384">
        <ele>1111.28</ele>
        <time>2016-01-17T11:37:14Z</time>
      </trkpt>
      <trkpt lat="45.79487" lon="6.08385">
        <ele>1111.26</ele>
        <time>2016-01-17T11:37:15Z</time>
      </trkpt>
      <trkpt lat="45.79487" lon="6.08386">
        <ele>1111.28</ele>
        <time>2016-01-17T11:37:16Z</time>
      </trkpt>
      <trkpt lat="45.79487" lon="6.08386">
        <ele>1111.26</ele>
        <time>2016-01-17T11:37:17Z</time>
      </trkpt>
      <trkpt lat="45.79487" lon="6.08387">
        <ele>1112.17</ele>
        <time>2016-01-17T11:37:18Z</time>
      </trkpt>
      <trkpt lat="45.79487" lon="6.08388">
        <ele>1112.16</ele>
        <time>2016-01-17T11:37:19Z</time>
      </trkpt>
      <trkpt lat="45.79487" lon="6.08388">
        <ele>1112.18</ele>
        <time>2016-01-17T11:37:20Z</time>
      </trkpt>
      <trkpt lat="45.79487" lon="6.08389">
        <ele>1112.14</ele>
        <time>2016-01-17T11:37:21Z</time>
      </trkpt>
      <trkpt lat="45.79487" lon="6.08389">
        <ele>1112.14</ele>
        <time>2016-01-17T11:37:22Z</time>
      </trkpt>
      <trkpt lat="45.79487" lon="6.0839">
        <ele>1112.13</ele>
        <time>2016-01-17T11:37:23Z</time>
      </trkpt>
      <trkpt lat="45.79487" lon="6.08391">
        <ele>1113.24</ele>
        <time>2016-01-17T11:37:24Z</time>
      </trkpt>
      <trkpt lat="45.79487" lon="6.08391">
        <ele>1113.23</ele>
        <time>2016-01-17T11:37:25Z</time>
      </trkpt>
      <trkpt lat="45.79487" lon="6.08391">
        <ele>1113.22</ele>
        <time>2016-01-17T11:37:26Z</time>
      </trkpt>
      <trkpt lat="45.79486" lon="6.08391">
        <ele>1113.16</ele>
        <time>2016-01-17T11:37:27Z</time>
      </trkpt>
      <trkpt lat="45.79486" lon="6.08391">
        <ele>1113.17</ele>
        <time>2016-01-17T11:37:28Z</time>
      </trkpt>
      <trkpt lat="45.79486" lon="6.08391">
        <ele>1113.14</ele>
        <time>2016-01-17T11:37:29Z</time>
      </trkpt>
      <trkpt lat="45.79485" lon="6.08391">
        <ele>1113.15</ele>
        <time>2016-01-17T11:37:30Z</time>
      </trkpt>
      <trkpt lat="45.79485" lon="6.08391">
        <ele>1114.43</ele>
        <time>2016-01-17T11:37:31Z</time>
      </trkpt>
      <trkpt lat="45.79484" lon="6.08391">
        <ele>1114.43</ele>
        <time>2016-01-17T11:37:32Z</time>
      </trkpt>
      <trkpt lat="45.79484" lon="6.08391">
        <ele>1115.34</ele>
        <time>2016-01-17T11:37:33Z</time>
      </trkpt>
      <trkpt lat="45.79483" lon="6.08391">
        <ele>1115.34</ele>
        <time>2016-01-17T11:37:34Z</time>
      </trkpt>
      <trkpt lat="45.79483" lon="6.08392">
        <ele>1115.35</ele>
        <time>2016-01-17T11:37:35Z</time>
      </trkpt>
      <trkpt lat="45.79482" lon="6.08392">
        <ele>1115.34</ele>
        <time>2016-01-17T11:37:36Z</time>
      </trkpt>
      <trkpt lat="45.79482" lon="6.08392">
        <ele>1116.28</ele>
        <time>2016-01-17T11:37:37Z</time>
      </trkpt>
      <trkpt lat="45.79481" lon="6.08392">
        <ele>1116.3</ele>
        <time>2016-01-17T11:37:38Z</time>
      </trkpt>
      <trkpt lat="45.7948" lon="6.08392">
        <ele>1116.24</ele>
        <time>2016-01-17T11:37:39Z</time>
      </trkpt>
      <trkpt lat="45.79479" lon="6.08391">
        <ele>1116.26</ele>
        <time>2016-01-17T11:37:40Z</time>
      </trkpt>
      <trkpt lat="45.79479" lon="6.08391">
        <ele>1116.23</ele>
        <time>2016-01-17T11:37:41Z</time>
      </trkpt>
      <trkpt lat="45.79478" lon="6.08391">
        <ele>1116.24</ele>
        <time>2016-01-17T11:37:42Z</time>
      </trkpt>
      <trkpt lat="45.79478" lon="6.08391">
        <ele>1116.22</ele>
        <time>2016-01-17T11:37:43Z</time>
      </trkpt>
      <trkpt lat="45.79477" lon="6.0839">
        <ele>1116.23</ele>
        <time>2016-01-17T11:37:44Z</time>
      </trkpt>
      <trkpt lat="45.79477" lon="6.0839">
        <ele>1117.06</ele>
        <time>2016-01-17T11:37:45Z</time>
      </trkpt>
      <trkpt lat="45.79476" lon="6.0839">
        <ele>1117.1</ele>
        <time>2016-01-17T11:37:46Z</time>
      </trkpt>
      <trkpt lat="45.79475" lon="6.08389">
        <ele>1117.05</ele>
        <time>2016-01-17T11:37:47Z</time>
      </trkpt>
      <trkpt lat="45.79474" lon="6.08388">
        <ele>1117.07</ele>
        <time>2016-01-17T11:37:48Z</time>
      </trkpt>
      <trkpt lat="45.79474" lon="6.08388">
        <ele>1117.84</ele>
        <time>2016-01-17T11:37:49Z</time>
      </trkpt>
      <trkpt lat="45.79473" lon="6.08388">
        <ele>1117.79</ele>
        <time>2016-01-17T11:37:50Z</time>
      </trkpt>
      <trkpt lat="45.79472" lon="6.08389">
        <ele>1117.79</ele>
        <time>2016-01-17T11:37:51Z</time>
      </trkpt>
      <trkpt lat="45.79472" lon="6.08389">
        <ele>1118.67</ele>
        <time>2016-01-17T11:37:52Z</time>
      </trkpt>
      <trkpt lat="45.79471" lon="6.08389">
        <ele>1118.64</ele>
        <time>2016-01-17T11:37:53Z</time>
      </trkpt>
      <trkpt lat="45.79471" lon="6.0839">
        <ele>1118.63</ele>
        <time>2016-01-17T11:37:54Z</time>
      </trkpt>
      <trkpt lat="45.79471" lon="6.0839">
        <ele>1118.59</ele>
        <time>2016-01-17T11:37:55Z</time>
      </trkpt>
      <trkpt lat="45.7947" lon="6.0839">
        <ele>1118.57</ele>
        <time>2016-01-17T11:37:56Z</time>
      </trkpt>
      <trkpt lat="45.7947" lon="6.0839">
        <ele>1118.57</ele>
        <time>2016-01-17T11:37:57Z</time>
      </trkpt>
      <trkpt lat="45.79469" lon="6.0839">
        <ele>1118.56</ele>
        <time>2016-01-17T11:37:58Z</time>
      </trkpt>
      <trkpt lat="45.79468" lon="6.0839">
        <ele>1119.53</ele>
        <time>2016-01-17T11:37:59Z</time>
      </trkpt>
      <trkpt lat="45.79468" lon="6.0839">
        <ele>1119.53</ele>
        <time>2016-01-17T11:38:00Z</time>
      </trkpt>
      <trkpt lat="45.79469" lon="6.0839">
        <ele>1119.52</ele>
        <time>2016-01-17T11:38:01Z</time>
      </trkpt>
      <trkpt lat="45.79468" lon="6.0839">
        <ele>1119.55</ele>
        <time>2016-01-17T11:38:02Z</time>
      </trkpt>
      <trkpt lat="45.79467" lon="6.0839">
        <ele>1120.36</ele>
        <time>2016-01-17T11:38:03Z</time>
      </trkpt>
      <trkpt lat="45.79467" lon="6.08391">
        <ele>1120.33</ele>
        <time>2016-01-17T11:38:04Z</time>
      </trkpt>
      <trkpt lat="45.79467" lon="6.08391">
        <ele>1120.33</ele>
        <time>2016-01-17T11:38:05Z</time>
      </trkpt>
      <trkpt lat="45.79467" lon="6.08392">
        <ele>1120.3</ele>
        <time>2016-01-17T11:38:06Z</time>
      </trkpt>
      <trkpt lat="45.79467" lon="6.08391">
        <ele>1120.31</ele>
        <time>2016-01-17T11:38:07Z</time>
      </trkpt>
      <trkpt lat="45.79467" lon="6.08392">
        <ele>1120.3</ele>
        <time>2016-01-17T11:38:08Z</time>
      </trkpt>
      <trkpt lat="45.79466" lon="6.08393">
        <ele>1121.27</ele>
        <time>2016-01-17T11:38:09Z</time>
      </trkpt>
      <trkpt lat="45.79466" lon="6.08393">
        <ele>1121.19</ele>
        <time>2016-01-17T11:38:10Z</time>
      </trkpt>
      <trkpt lat="45.79466" lon="6.08394">
        <ele>1121.15</ele>
        <time>2016-01-17T11:38:11Z</time>
      </trkpt>
      <trkpt lat="45.79466" lon="6.08395">
        <ele>1122.08</ele>
        <time>2016-01-17T11:38:12Z</time>
      </trkpt>
      <trkpt lat="45.79466" lon="6.08395">
        <ele>1122.01</ele>
        <time>2016-01-17T11:38:13Z</time>
      </trkpt>
      <trkpt lat="45.79466" lon="6.08396">
        <ele>1122.08</ele>
        <time>2016-01-17T11:38:14Z</time>
      </trkpt>
      <trkpt lat="45.79466" lon="6.08397">
        <ele>1122.06</ele>
        <time>2016-01-17T11:38:15Z</time>
      </trkpt>
      <trkpt lat="45.79466" lon="6.08398">
        <ele>1122.05</ele>
        <time>2016-01-17T11:38:16Z</time>
      </trkpt>
      <trkpt lat="45.79465" lon="6.08398">
        <ele>1122.08</ele>
        <time>2016-01-17T11:38:17Z</time>
      </trkpt>
      <trkpt lat="45.79466" lon="6.08399">
        <ele>1122.02</ele>
        <time>2016-01-17T11:38:18Z</time>
      </trkpt>
      <trkpt lat="45.79466" lon="6.084">
        <ele>1122.02</ele>
        <time>2016-01-17T11:38:19Z</time>
      </trkpt>
      <trkpt lat="45.79466" lon="6.08401">
        <ele>1122.02</ele>
        <time>2016-01-17T11:38:20Z</time>
      </trkpt>
      <trkpt lat="45.79466" lon="6.08402">
        <ele>1123.15</ele>
        <time>2016-01-17T11:38:21Z</time>
      </trkpt>
      <trkpt lat="45.79466" lon="6.08402">
        <ele>1123.14</ele>
        <time>2016-01-17T11:38:22Z</time>
      </trkpt>
      <trkpt lat="45.79465" lon="6.08404">
        <ele>1123.14</ele>
        <time>2016-01-17T11:38:23Z</time>
      </trkpt>
      <trkpt lat="45.79465" lon="6.08404">
        <ele>1123.11</ele>
        <time>2016-01-17T11:38:24Z</time>
      </trkpt>
      <trkpt lat="45.79464" lon="6.08405">
        <ele>1123.11</ele>
        <time>2016-01-17T11:38:25Z</time>
      </trkpt>
      <trkpt lat="45.79464" lon="6.08405">
        <ele>1123.13</ele>
        <time>2016-01-17T11:38:26Z</time>
      </trkpt>
      <trkpt lat="45.79463" lon="6.08405">
        <ele>1124.35</ele>
        <time>2016-01-17T11:38:27Z</time>
      </trkpt>
      <trkpt lat="45.79462" lon="6.08405">
        <ele>1124.34</ele>
        <time>2016-01-17T11:38:28Z</time>
      </trkpt>
      <trkpt lat="45.79462" lon="6.08406">
        <ele>1124.3</ele>
        <time>2016-01-17T11:38:29Z</time>
      </trkpt>
      <trkpt lat="45.79461" lon="6.08406">
        <ele>1124.31</ele>
        <time>2016-01-17T11:38:30Z</time>
      </trkpt>
      <trkpt lat="45.7946" lon="6.08406">
        <ele>1124.3</ele>
        <time>2016-01-17T11:38:31Z</time>
      </trkpt>
      <trkpt lat="45.7946" lon="6.08406">
        <ele>1125.31</ele>
        <time>2016-01-17T11:38:32Z</time>
      </trkpt>
      <trkpt lat="45.7946" lon="6.08406">
        <ele>1125.29</ele>
        <time>2016-01-17T11:38:33Z</time>
      </trkpt>
      <trkpt lat="45.79459" lon="6.08406">
        <ele>1125.28</ele>
        <time>2016-01-17T11:38:34Z</time>
      </trkpt>
      <trkpt lat="45.79459" lon="6.08406">
        <ele>1125.28</ele>
        <time>2016-01-17T11:38:35Z</time>
      </trkpt>
      <trkpt lat="45.79458" lon="6.08406">
        <ele>1125.27</ele>
        <time>2016-01-17T11:38:36Z</time>
      </trkpt>
      <trkpt lat="45.79457" lon="6.08406">
        <ele>1125.26</ele>
        <time>2016-01-17T11:38:37Z</time>
      </trkpt>
      <trkpt lat="45.79457" lon="6.08406">
        <ele>1126.33</ele>
        <time>2016-01-17T11:38:38Z</time>
      </trkpt>
      <trkpt lat="45.79457" lon="6.08407">
        <ele>1126.3</ele>
        <time>2016-01-17T11:38:39Z</time>
      </trkpt>
      <trkpt lat="45.79456" lon="6.08407">
        <ele>1126.24</ele>
        <time>2016-01-17T11:38:40Z</time>
      </trkpt>
      <trkpt lat="45.79456" lon="6.08407">
        <ele>1126.28</ele>
        <time>2016-01-17T11:38:41Z</time>
      </trkpt>
      <trkpt lat="45.79456" lon="6.08407">
        <ele>1126.25</ele>
        <time>2016-01-17T11:38:42Z</time>
      </trkpt>
      <trkpt lat="45.79456" lon="6.08407">
        <ele>1127.09</ele>
        <time>2016-01-17T11:38:43Z</time>
      </trkpt>
      <trkpt lat="45.79455" lon="6.08406">
        <ele>1127.08</ele>
        <time>2016-01-17T11:38:44Z</time>
      </trkpt>
      <trkpt lat="45.79455" lon="6.08406">
        <ele>1127.06</ele>
        <time>2016-01-17T11:38:45Z</time>
      </trkpt>
      <trkpt lat="45.79455" lon="6.08406">
        <ele>1127.06</ele>
        <time>2016-01-17T11:38:46Z</time>
      </trkpt>
      <trkpt lat="45.79455" lon="6.08406">
        <ele>1127.04</ele>
        <time>2016-01-17T11:38:47Z</time>
      </trkpt>
      <trkpt lat="45.79454" lon="6.08406">
        <ele>1127.94</ele>
        <time>2016-01-17T11:38:48Z</time>
      </trkpt>
      <trkpt lat="45.79454" lon="6.08406">
        <ele>1127.93</ele>
        <time>2016-01-17T11:38:49Z</time>
      </trkpt>
      <trkpt lat="45.79454" lon="6.08406">
        <ele>1127.91</ele>
        <time>2016-01-17T11:38:50Z</time>
      </trkpt>
      <trkpt lat="45.79453" lon="6.08406">
        <ele>1127.9</ele>
        <time>2016-01-17T11:38:51Z</time>
      </trkpt>
      <trkpt lat="45.79453" lon="6.08407">
        <ele>1127.89</ele>
        <time>2016-01-17T11:38:52Z</time>
      </trkpt>
      <trkpt lat="45.79452" lon="6.08406">
        <ele>1128.79</ele>
        <time>2016-01-17T11:38:53Z</time>
      </trkpt>
      <trkpt lat="45.79452" lon="6.08407">
        <ele>1128.76</ele>
        <time>2016-01-17T11:38:54Z</time>
      </trkpt>
      <trkpt lat="45.79452" lon="6.08407">
        <ele>1128.77</ele>
        <time>2016-01-17T11:38:55Z</time>
      </trkpt>
      <trkpt lat="45.79452" lon="6.08407">
        <ele>1129.67</ele>
        <time>2016-01-17T11:38:56Z</time>
      </trkpt>
      <trkpt lat="45.79452" lon="6.08407">
        <ele>1129.58</ele>
        <time>2016-01-17T11:38:57Z</time>
      </trkpt>
      <trkpt lat="45.79451" lon="6.08408">
        <ele>1129.57</ele>
        <time>2016-01-17T11:38:58Z</time>
      </trkpt>
      <trkpt lat="45.79451" lon="6.08408">
        <ele>1129.61</ele>
        <time>2016-01-17T11:38:59Z</time>
      </trkpt>
      <trkpt lat="45.7945" lon="6.08408">
        <ele>1129.6</ele>
        <time>2016-01-17T11:39:00Z</time>
      </trkpt>
      <trkpt lat="45.7945" lon="6.08409">
        <ele>1130.59</ele>
        <time>2016-01-17T11:39:01Z</time>
      </trkpt>
      <trkpt lat="45.79449" lon="6.08409">
        <ele>1130.56</ele>
        <time>2016-01-17T11:39:02Z</time>
      </trkpt>
      <trkpt lat="45.79449" lon="6.08409">
        <ele>1130.54</ele>
        <time>2016-01-17T11:39:03Z</time>
      </trkpt>
      <trkpt lat="45.79448" lon="6.08409">
        <ele>1130.56</ele>
        <time>2016-01-17T11:39:04Z</time>
      </trkpt>
      <trkpt lat="45.79449" lon="6.08409">
        <ele>1130.52</ele>
        <time>2016-01-17T11:39:05Z</time>
      </trkpt>
      <trkpt lat="45.79449" lon="6.08409">
        <ele>1130.53</ele>
        <time>2016-01-17T11:39:06Z</time>
      </trkpt>
      <trkpt lat="45.79449" lon="6.0841">
        <ele>1131.3</ele>
        <time>2016-01-17T11:39:07Z</time>
      </trkpt>
      <trkpt lat="45.79449" lon="6.0841">
        <ele>1131.29</ele>
        <time>2016-01-17T11:39:08Z</time>
      </trkpt>
      <trkpt lat="45.79449" lon="6.08409">
        <ele>1131.22</ele>
        <time>2016-01-17T11:39:09Z</time>
      </trkpt>
      <trkpt lat="45.79449" lon="6.0841">
        <ele>1131.26</ele>
        <time>2016-01-17T11:39:10Z</time>
      </trkpt>
      <trkpt lat="45.79449" lon="6.0841">
        <ele>1131.26</ele>
        <time>2016-01-17T11:39:11Z</time>
      </trkpt>
      <trkpt lat="45.79448" lon="6.0841">
        <ele>1131.2</ele>
        <time>2016-01-17T11:39:12Z</time>
      </trkpt>
      <trkpt lat="45.79448" lon="6.0841">
        <ele>1131.19</ele>
        <time>2016-01-17T11:39:13Z</time>
      </trkpt>
      <trkpt lat="45.79448" lon="6.0841">
        <ele>1131.18</ele>
        <time>2016-01-17T11:39:14Z</time>
      </trkpt>
      <trkpt lat="45.79448" lon="6.0841">
        <ele>1131.17</ele>
        <time>2016-01-17T11:39:15Z</time>
      </trkpt>
      <trkpt lat="45.79445" lon="6.08415">
        <ele>1131.8</ele>
        <time>2016-01-17T11:39:36Z</time>
      </trkpt>
      <trkpt lat="45.79447" lon="6.08416">
        <ele>1131.63</ele>
        <time>2016-01-17T11:40:00Z</time>
      </trkpt>
      <trkpt lat="45.79444" lon="6.08418">
        <ele>1131.49</ele>
        <time>2016-01-17T11:40:25Z</time>
      </trkpt>
      <trkpt lat="45.79445" lon="6.08416">
        <ele>1131.37</ele>
        <time>2016-01-17T11:40:49Z</time>
      </trkpt>
      <trkpt lat="45.79443" lon="6.08412">
        <ele>1131.34</ele>
        <time>2016-01-17T11:41:09Z</time>
      </trkpt>
      <trkpt lat="45.79447" lon="6.08421">
        <ele>1133.39</ele>
        <time>2016-01-17T11:41:33Z</time>
      </trkpt>
      <trkpt lat="45.79449" lon="6.08434">
        <ele>1136.81</ele>
        <time>2016-01-17T11:41:51Z</time>
      </trkpt>
      <trkpt lat="45.79449" lon="6.08441">
        <ele>1139.83</ele>
        <time>2016-01-17T11:42:07Z</time>
      </trkpt>
      <trkpt lat="45.79448" lon="6.08445">
        <ele>1143.42</ele>
        <time>2016-01-17T11:42:27Z</time>
      </trkpt>
      <trkpt lat="45.79447" lon="6.08445">
        <ele>1144.25</ele>
        <time>2016-01-17T11:42:29Z</time>
      </trkpt>
      <trkpt lat="45.79448" lon="6.08445">
        <ele>1144.94</ele>
        <time>2016-01-17T11:42:35Z</time>
      </trkpt>
      <trkpt lat="45.79441" lon="6.0845">
        <ele>1147.91</ele>
        <time>2016-01-17T11:42:55Z</time>
      </trkpt>
      <trkpt lat="45.79434" lon="6.08459">
        <ele>1151.35</ele>
        <time>2016-01-17T11:43:14Z</time>
      </trkpt>
      <trkpt lat="45.79435" lon="6.08461">
        <ele>1151.34</ele>
        <time>2016-01-17T11:43:17Z</time>
      </trkpt>
      <trkpt lat="45.79434" lon="6.08463">
        <ele>1152.23</ele>
        <time>2016-01-17T11:43:20Z</time>
      </trkpt>
      <trkpt lat="45.79428" lon="6.08469">
        <ele>1155.21</ele>
        <time>2016-01-17T11:43:39Z</time>
      </trkpt>
      <trkpt lat="45.79427" lon="6.08469">
        <ele>1155.2</ele>
        <time>2016-01-17T11:43:40Z</time>
      </trkpt>
      <trkpt lat="45.79425" lon="6.08471">
        <ele>1155.78</ele>
        <time>2016-01-17T11:43:43Z</time>
      </trkpt>
      <trkpt lat="45.79417" lon="6.0848">
        <ele>1159.2</ele>
        <time>2016-01-17T11:44:02Z</time>
      </trkpt>
      <trkpt lat="45.79413" lon="6.08487">
        <ele>1162.32</ele>
        <time>2016-01-17T11:44:16Z</time>
      </trkpt>
      <trkpt lat="45.79417" lon="6.08506">
        <ele>1164.53</ele>
        <time>2016-01-17T11:44:39Z</time>
      </trkpt>
      <trkpt lat="45.79413" lon="6.08511">
        <ele>1168.15</ele>
        <time>2016-01-17T11:44:54Z</time>
      </trkpt>
      <trkpt lat="45.79411" lon="6.08511">
        <ele>1169.34</ele>
        <time>2016-01-17T11:45:01Z</time>
      </trkpt>
      <trkpt lat="45.79408" lon="6.08513">
        <ele>1172.59</ele>
        <time>2016-01-17T11:45:20Z</time>
      </trkpt>
      <trkpt lat="45.79406" lon="6.08514">
        <ele>1174.07</ele>
        <time>2016-01-17T11:45:31Z</time>
      </trkpt>
      <trkpt lat="45.79399" lon="6.08519">
        <ele>1176.3</ele>
        <time>2016-01-17T11:45:40Z</time>
      </trkpt>
      <trkpt lat="45.79398" lon="6.0852">
        <ele>1176.3</ele>
        <time>2016-01-17T11:45:41Z</time>
      </trkpt>
      <trkpt lat="45.79395" lon="6.08536">
        <ele>1179.82</ele>
        <time>2016-01-17T11:46:03Z</time>
      </trkpt>
      <trkpt lat="45.79395" lon="6.08542">
        <ele>1179.71</ele>
        <time>2016-01-17T11:46:09Z</time>
      </trkpt>
      <trkpt lat="45.79396" lon="6.0855">
        <ele>1183.29</ele>
        <time>2016-01-17T11:46:22Z</time>
      </trkpt>
      <trkpt lat="45.79395" lon="6.08552">
        <ele>1184.68</ele>
        <time>2016-01-17T11:46:30Z</time>
      </trkpt>
      <trkpt lat="45.79387" lon="6.08562">
        <ele>1186.97</ele>
        <time>2016-01-17T11:46:50Z</time>
      </trkpt>
      <trkpt lat="45.79383" lon="6.08564">
        <ele>1188.98</ele>
        <time>2016-01-17T11:46:58Z</time>
      </trkpt>
      <trkpt lat="45.79367" lon="6.0857">
        <ele>1191.07</ele>
        <time>2016-01-17T11:47:19Z</time>
      </trkpt>
      <trkpt lat="45.79366" lon="6.08571">
        <ele>1190.98</ele>
        <time>2016-01-17T11:47:24Z</time>
      </trkpt>
      <trkpt lat="45.79365" lon="6.08571">
        <ele>1190.91</ele>
        <time>2016-01-17T11:47:28Z</time>
      </trkpt>
      <trkpt lat="45.79359" lon="6.08572">
        <ele>1190.58</ele>
        <time>2016-01-17T11:47:53Z</time>
      </trkpt>
      <trkpt lat="45.79365" lon="6.0857">
        <ele>1190.39</ele>
        <time>2016-01-17T11:48:19Z</time>
      </trkpt>
      <trkpt lat="45.79363" lon="6.08569">
        <ele>1190.32</ele>
        <time>2016-01-17T11:48:43Z</time>
      </trkpt>
      <trkpt lat="45.79362" lon="6.08571">
        <ele>1190.3</ele>
        <time>2016-01-17T11:49:08Z</time>
      </trkpt>
      <trkpt lat="45.79361" lon="6.08569">
        <ele>1191.19</ele>
        <time>2016-01-17T11:49:31Z</time>
      </trkpt>
      <trkpt lat="45.79362" lon="6.08568">
        <ele>1191.16</ele>
        <time>2016-01-17T11:49:43Z</time>
      </trkpt>
      <trkpt lat="45.79362" lon="6.08568">
        <ele>1191.13</ele>
        <time>2016-01-17T11:49:44Z</time>
      </trkpt>
      <trkpt lat="45.79358" lon="6.08568">
        <ele>1191.21</ele>
        <time>2016-01-17T11:50:06Z</time>
      </trkpt>
      <trkpt lat="45.79362" lon="6.08568">
        <ele>1191.25</ele>
        <time>2016-01-17T11:50:21Z</time>
      </trkpt>
      <trkpt lat="45.79363" lon="6.08571">
        <ele>1191.26</ele>
        <time>2016-01-17T11:50:26Z</time>
      </trkpt>
      <trkpt lat="45.79355" lon="6.0858">
        <ele>1191.44</ele>
        <time>2016-01-17T11:50:45Z</time>
      </trkpt>
      <trkpt lat="45.7935" lon="6.0858">
        <ele>1193.68</ele>
        <time>2016-01-17T11:50:54Z</time>
      </trkpt>
      <trkpt lat="45.79346" lon="6.08586">
        <ele>1196.26</ele>
        <time>2016-01-17T11:51:08Z</time>
      </trkpt>
      <trkpt lat="45.79344" lon="6.08587">
        <ele>1197.25</ele>
        <time>2016-01-17T11:51:17Z</time>
      </trkpt>
      <trkpt lat="45.79334" lon="6.08592">
        <ele>1200.14</ele>
        <time>2016-01-17T11:51:31Z</time>
      </trkpt>
      <trkpt lat="45.79331" lon="6.08594">
        <ele>1200.75</ele>
        <time>2016-01-17T11:51:38Z</time>
      </trkpt>
      <trkpt lat="45.79325" lon="6.086">
        <ele>1202.52</ele>
        <time>2016-01-17T11:51:49Z</time>
      </trkpt>
      <trkpt lat="45.79322" lon="6.0861">
        <ele>1204.86</ele>
        <time>2016-01-17T11:52:05Z</time>
      </trkpt>
      <trkpt lat="45.79319" lon="6.08614">
        <ele>1207.19</ele>
        <time>2016-01-17T11:52:21Z</time>
      </trkpt>
      <trkpt lat="45.79315" lon="6.08617">
        <ele>1208.9</ele>
        <time>2016-01-17T11:52:30Z</time>
      </trkpt>
      <trkpt lat="45.7931" lon="6.08621">
        <ele>1211.52</ele>
        <time>2016-01-17T11:52:45Z</time>
      </trkpt>
      <trkpt lat="45.79308" lon="6.08627">
        <ele>1214.62</ele>
        <time>2016-01-17T11:53:03Z</time>
      </trkpt>
      <trkpt lat="45.79309" lon="6.0863">
        <ele>1214.56</ele>
        <time>2016-01-17T11:53:07Z</time>
      </trkpt>
      <trkpt lat="45.79314" lon="6.08634">
        <ele>1217.24</ele>
        <time>2016-01-17T11:53:15Z</time>
      </trkpt>
      <trkpt lat="45.79313" lon="6.08634">
        <ele>1217.24</ele>
        <time>2016-01-17T11:53:17Z</time>
      </trkpt>
      <trkpt lat="45.79313" lon="6.08645">
        <ele>1219.9</ele>
        <time>2016-01-17T11:53:35Z</time>
      </trkpt>
      <trkpt lat="45.79315" lon="6.08647">
        <ele>1219.81</ele>
        <time>2016-01-17T11:53:39Z</time>
      </trkpt>
      <trkpt lat="45.7932" lon="6.08651">
        <ele>1222.34</ele>
        <time>2016-01-17T11:53:48Z</time>
      </trkpt>
      <trkpt lat="45.79321" lon="6.08652">
        <ele>1222.31</ele>
        <time>2016-01-17T11:53:50Z</time>
      </trkpt>
      <trkpt lat="45.79322" lon="6.08653">
        <ele>1222.25</ele>
        <time>2016-01-17T11:53:52Z</time>
      </trkpt>
      <trkpt lat="45.79327" lon="6.08655">
        <ele>1222.21</ele>
        <time>2016-01-17T11:53:56Z</time>
      </trkpt>
      <trkpt lat="45.79327" lon="6.08657">
        <ele>1222.22</ele>
        <time>2016-01-17T11:53:58Z</time>
      </trkpt>
      <trkpt lat="45.79328" lon="6.0866">
        <ele>1222.16</ele>
        <time>2016-01-17T11:54:01Z</time>
      </trkpt>
      <trkpt lat="45.79329" lon="6.08667">
        <ele>1225.44</ele>
        <time>2016-01-17T11:54:18Z</time>
      </trkpt>
      <trkpt lat="45.79328" lon="6.08667">
        <ele>1225.44</ele>
        <time>2016-01-17T11:54:19Z</time>
      </trkpt>
      <trkpt lat="45.79332" lon="6.08674">
        <ele>1228.91</ele>
        <time>2016-01-17T11:54:39Z</time>
      </trkpt>
      <trkpt lat="45.79321" lon="6.08676">
        <ele>1231.32</ele>
        <time>2016-01-17T11:55:01Z</time>
      </trkpt>
      <trkpt lat="45.79322" lon="6.08677">
        <ele>1231.3</ele>
        <time>2016-01-17T11:55:03Z</time>
      </trkpt>
      <trkpt lat="45.79319" lon="6.08679">
        <ele>1232.94</ele>
        <time>2016-01-17T11:55:13Z</time>
      </trkpt>
      <trkpt lat="45.79319" lon="6.08683">
        <ele>1234.48</ele>
        <time>2016-01-17T11:55:21Z</time>
      </trkpt>
      <trkpt lat="45.79323" lon="6.08689">
        <ele>1237.56</ele>
        <time>2016-01-17T11:55:43Z</time>
      </trkpt>
      <trkpt lat="45.79326" lon="6.08697">
        <ele>1239.51</ele>
        <time>2016-01-17T11:55:57Z</time>
      </trkpt>
      <trkpt lat="45.79327" lon="6.08698">
        <ele>1239.5</ele>
        <time>2016-01-17T11:55:58Z</time>
      </trkpt>
      <trkpt lat="45.79331" lon="6.08702">
        <ele>1240.26</ele>
        <time>2016-01-17T11:56:06Z</time>
      </trkpt>
      <trkpt lat="45.79333" lon="6.08708">
        <ele>1242.87</ele>
        <time>2016-01-17T11:56:19Z</time>
      </trkpt>
      <trkpt lat="45.79333" lon="6.0871">
        <ele>1244.07</ele>
        <time>2016-01-17T11:56:25Z</time>
      </trkpt>
      <trkpt lat="45.79333" lon="6.08711">
        <ele>1243.97</ele>
        <time>2016-01-17T11:56:27Z</time>
      </trkpt>
      <trkpt lat="45.7933" lon="6.08718">
        <ele>1247</ele>
        <time>2016-01-17T11:56:43Z</time>
      </trkpt>
      <trkpt lat="45.79327" lon="6.08723">
        <ele>1248.77</ele>
        <time>2016-01-17T11:56:54Z</time>
      </trkpt>
      <trkpt lat="45.79326" lon="6.08725">
        <ele>1248.78</ele>
        <time>2016-01-17T11:56:56Z</time>
      </trkpt>
      <trkpt lat="45.79323" lon="6.08729">
        <ele>1249.75</ele>
        <time>2016-01-17T11:57:03Z</time>
      </trkpt>
      <trkpt lat="45.79321" lon="6.08732">
        <ele>1250.8</ele>
        <time>2016-01-17T11:57:09Z</time>
      </trkpt>
      <trkpt lat="45.79318" lon="6.0874">
        <ele>1253.26</ele>
        <time>2016-01-17T11:57:20Z</time>
      </trkpt>
      <trkpt lat="45.79319" lon="6.08743">
        <ele>1254.24</ele>
        <time>2016-01-17T11:57:26Z</time>
      </trkpt>
      <trkpt lat="45.79315" lon="6.08746">
        <ele>1255.98</ele>
        <time>2016-01-17T11:57:40Z</time>
      </trkpt>
      <trkpt lat="45.79311" lon="6.08751">
        <ele>1259.25</ele>
        <time>2016-01-17T11:57:56Z</time>
      </trkpt>
      <trkpt lat="45.7931" lon="6.08753">
        <ele>1259.15</ele>
        <time>2016-01-17T11:58:00Z</time>
      </trkpt>
      <trkpt lat="45.79311" lon="6.08756">
        <ele>1260.47</ele>
        <time>2016-01-17T11:58:08Z</time>
      </trkpt>
      <trkpt lat="45.79312" lon="6.08764">
        <ele>1262.72</ele>
        <time>2016-01-17T11:58:28Z</time>
      </trkpt>
      <trkpt lat="45.79311" lon="6.08765">
        <ele>1262.57</ele>
        <time>2016-01-17T11:58:31Z</time>
      </trkpt>
      <trkpt lat="45.7931" lon="6.08767">
        <ele>1263.73</ele>
        <time>2016-01-17T11:58:33Z</time>
      </trkpt>
      <trkpt lat="45.7931" lon="6.08778">
        <ele>1266.24</ele>
        <time>2016-01-17T11:58:56Z</time>
      </trkpt>
      <trkpt lat="45.79313" lon="6.08787">
        <ele>1269.93</ele>
        <time>2016-01-17T11:59:16Z</time>
      </trkpt>
      <trkpt lat="45.79313" lon="6.08796">
        <ele>1271.8</ele>
        <time>2016-01-17T11:59:40Z</time>
      </trkpt>
      <trkpt lat="45.79314" lon="6.08798">
        <ele>1271.77</ele>
        <time>2016-01-17T11:59:43Z</time>
      </trkpt>
      <trkpt lat="45.79314" lon="6.08803">
        <ele>1274.25</ele>
        <time>2016-01-17T12:00:06Z</time>
      </trkpt>
      <trkpt lat="45.79314" lon="6.08806">
        <ele>1274.58</ele>
        <time>2016-01-17T12:00:30Z</time>
      </trkpt>
      <trkpt lat="45.79315" lon="6.08808">
        <ele>1274.33</ele>
        <time>2016-01-17T12:00:54Z</time>
      </trkpt>
      <trkpt lat="45.79317" lon="6.08806">
        <ele>1274.13</ele>
        <time>2016-01-17T12:01:16Z</time>
      </trkpt>
      <trkpt lat="45.79317" lon="6.08802">
        <ele>1273.89</ele>
        <time>2016-01-17T12:01:41Z</time>
      </trkpt>
      <trkpt lat="45.79318" lon="6.08798">
        <ele>1273.8</ele>
        <time>2016-01-17T12:01:46Z</time>
      </trkpt>
      <trkpt lat="45.79321" lon="6.08782">
        <ele>1273.72</ele>
        <time>2016-01-17T12:02:10Z</time>
      </trkpt>
      <trkpt lat="45.79324" lon="6.08766">
        <ele>1273.63</ele>
        <time>2016-01-17T12:02:34Z</time>
      </trkpt>
      <trkpt lat="45.79324" lon="6.08769">
        <ele>1273.71</ele>
        <time>2016-01-17T12:03:02Z</time>
      </trkpt>
      <trkpt lat="45.79323" lon="6.0877">
        <ele>1273.66</ele>
        <time>2016-01-17T12:03:28Z</time>
      </trkpt>
      <trkpt lat="45.79324" lon="6.08786">
        <ele>1277.48</ele>
        <time>2016-01-17T12:03:48Z</time>
      </trkpt>
      <trkpt lat="45.79324" lon="6.08787">
        <ele>1277.38</ele>
        <time>2016-01-17T12:03:51Z</time>
      </trkpt>
      <trkpt lat="45.79326" lon="6.08789">
        <ele>1278.5</ele>
        <time>2016-01-17T12:03:53Z</time>
      </trkpt>
      <trkpt lat="45.79327" lon="6.08802">
        <ele>1281.15</ele>
        <time>2016-01-17T12:04:16Z</time>
      </trkpt>
      <trkpt lat="45.7933" lon="6.08807">
        <ele>1282.78</ele>
        <time>2016-01-17T12:04:22Z</time>
      </trkpt>
      <trkpt lat="45.79334" lon="6.0882">
        <ele>1286.68</ele>
        <time>2016-01-17T12:04:39Z</time>
      </trkpt>
      <trkpt lat="45.79334" lon="6.0882">
        <ele>1286.68</ele>
        <time>2016-01-17T12:04:40Z</time>
      </trkpt>
      <trkpt lat="45.79335" lon="6.08822">
        <ele>1286.56</ele>
        <time>2016-01-17T12:04:43Z</time>
      </trkpt>
      <trkpt lat="45.79336" lon="6.08824">
        <ele>1286.64</ele>
        <time>2016-01-17T12:04:45Z</time>
      </trkpt>
      <trkpt lat="45.79338" lon="6.08831">
        <ele>1287.46</ele>
        <time>2016-01-17T12:04:53Z</time>
      </trkpt>
      <trkpt lat="45.79341" lon="6.08842">
        <ele>1290.98</ele>
        <time>2016-01-17T12:05:11Z</time>
      </trkpt>
      <trkpt lat="45.79341" lon="6.08844">
        <ele>1293.68</ele>
        <time>2016-01-17T12:05:23Z</time>
      </trkpt>
      <trkpt lat="45.79334" lon="6.08846">
        <ele>1296.3</ele>
        <time>2016-01-17T12:05:46Z</time>
      </trkpt>
      <trkpt lat="45.79336" lon="6.08845">
        <ele>1297.15</ele>
        <time>2016-01-17T12:05:52Z</time>
      </trkpt>
      <trkpt lat="45.79335" lon="6.08847">
        <ele>1297.86</ele>
        <time>2016-01-17T12:06:14Z</time>
      </trkpt>
      <trkpt lat="45.79335" lon="6.08851">
        <ele>1297.84</ele>
        <time>2016-01-17T12:06:17Z</time>
      </trkpt>
      <trkpt lat="45.79333" lon="6.08856">
        <ele>1297.8</ele>
        <time>2016-01-17T12:06:28Z</time>
      </trkpt>
      <trkpt lat="45.79338" lon="6.08849">
        <ele>1297.83</ele>
        <time>2016-01-17T12:06:50Z</time>
      </trkpt>
      <trkpt lat="45.79333" lon="6.08849">
        <ele>1297.06</ele>
        <time>2016-01-17T12:07:15Z</time>
      </trkpt>
      <trkpt lat="45.79333" lon="6.08856">
        <ele>1297.15</ele>
        <time>2016-01-17T12:07:41Z</time>
      </trkpt>
      <trkpt lat="45.79334" lon="6.08854">
        <ele>1297.22</ele>
        <time>2016-01-17T12:07:57Z</time>
      </trkpt>
      <trkpt lat="45.79335" lon="6.08858">
        <ele>1297.27</ele>
        <time>2016-01-17T12:08:19Z</time>
      </trkpt>
      <trkpt lat="45.79336" lon="6.08856">
        <ele>1299.84</ele>
        <time>2016-01-17T12:08:21Z</time>
      </trkpt>
      <trkpt lat="45.79344" lon="6.08857">
        <ele>1300.88</ele>
        <time>2016-01-17T12:08:46Z</time>
      </trkpt>
      <trkpt lat="45.7935" lon="6.08854">
        <ele>1301.64</ele>
        <time>2016-01-17T12:09:05Z</time>
      </trkpt>
      <trkpt lat="45.79357" lon="6.08859">
        <ele>1301.74</ele>
        <time>2016-01-17T12:09:22Z</time>
      </trkpt>
      <trkpt lat="45.79361" lon="6.08858">
        <ele>1298.83</ele>
        <time>2016-01-17T12:09:31Z</time>
      </trkpt>
      <trkpt lat="45.79366" lon="6.0886">
        <ele>1297.17</ele>
        <time>2016-01-17T12:09:47Z</time>
      </trkpt>
      <trkpt lat="45.7937" lon="6.08858">
        <ele>1296.37</ele>
        <time>2016-01-17T12:09:59Z</time>
      </trkpt>
      <trkpt lat="45.79374" lon="6.08856">
        <ele>1295.35</ele>
        <time>2016-01-17T12:10:12Z</time>
      </trkpt>
      <trkpt lat="45.79375" lon="6.08857">
        <ele>1294.21</ele>
        <time>2016-01-17T12:10:16Z</time>
      </trkpt>
      <trkpt lat="45.79381" lon="6.08858">
        <ele>1293.42</ele>
        <time>2016-01-17T12:10:32Z</time>
      </trkpt>
      <trkpt lat="45.79384" lon="6.08861">
        <ele>1290.83</ele>
        <time>2016-01-17T12:10:41Z</time>
      </trkpt>
      <trkpt lat="45.79388" lon="6.08864">
        <ele>1289.07</ele>
        <time>2016-01-17T12:10:55Z</time>
      </trkpt>
      <trkpt lat="45.7939" lon="6.0886">
        <ele>1285.87</ele>
        <time>2016-01-17T12:11:05Z</time>
      </trkpt>
      <trkpt lat="45.7939" lon="6.0886">
        <ele>1284.15</ele>
        <time>2016-01-17T12:11:09Z</time>
      </trkpt>
      <trkpt lat="45.79391" lon="6.08859">
        <ele>1282.56</ele>
        <time>2016-01-17T12:11:14Z</time>
      </trkpt>
      <trkpt lat="45.79392" lon="6.0886">
        <ele>1282.5</ele>
        <time>2016-01-17T12:11:16Z</time>
      </trkpt>
      <trkpt lat="45.79397" lon="6.08863">
        <ele>1281.77</ele>
        <time>2016-01-17T12:11:25Z</time>
      </trkpt>
      <trkpt lat="45.794" lon="6.08859">
        <ele>1280.97</ele>
        <time>2016-01-17T12:11:34Z</time>
      </trkpt>
      <trkpt lat="45.79402" lon="6.0886">
        <ele>1281.03</ele>
        <time>2016-01-17T12:11:36Z</time>
      </trkpt>
      <trkpt lat="45.79407" lon="6.08862">
        <ele>1283.65</ele>
        <time>2016-01-17T12:11:58Z</time>
      </trkpt>
      <trkpt lat="45.79405" lon="6.08863">
        <ele>1286.91</ele>
        <time>2016-01-17T12:12:12Z</time>
      </trkpt>
      <trkpt lat="45.79409" lon="6.08872">
        <ele>1288.2</ele>
        <time>2016-01-17T12:12:29Z</time>
      </trkpt>
      <trkpt lat="45.79416" lon="6.08878">
        <ele>1290.15</ele>
        <time>2016-01-17T12:12:48Z</time>
      </trkpt>
      <trkpt lat="45.7942" lon="6.08882">
        <ele>1294.04</ele>
        <time>2016-01-17T12:13:09Z</time>
      </trkpt>
      <trkpt lat="45.79422" lon="6.08889">
        <ele>1296.23</ele>
        <time>2016-01-17T12:13:30Z</time>
      </trkpt>
      <trkpt lat="45.79426" lon="6.08894">
        <ele>1297.22</ele>
        <time>2016-01-17T12:13:51Z</time>
      </trkpt>
      <trkpt lat="45.79427" lon="6.08896">
        <ele>1298.25</ele>
        <time>2016-01-17T12:14:17Z</time>
      </trkpt>
      <trkpt lat="45.79425" lon="6.089">
        <ele>1299.38</ele>
        <time>2016-01-17T12:14:43Z</time>
      </trkpt>
      <trkpt lat="45.79424" lon="6.08905">
        <ele>1300.84</ele>
        <time>2016-01-17T12:14:55Z</time>
      </trkpt>
      <trkpt lat="45.79427" lon="6.08909">
        <ele>1301.78</ele>
        <time>2016-01-17T12:15:14Z</time>
      </trkpt>
      <trkpt lat="45.79427" lon="6.0891">
        <ele>1303.29</ele>
        <time>2016-01-17T12:15:17Z</time>
      </trkpt>
      <trkpt lat="45.79429" lon="6.08913">
        <ele>1304.46</ele>
        <time>2016-01-17T12:15:39Z</time>
      </trkpt>
      <trkpt lat="45.79426" lon="6.08915">
        <ele>1306.74</ele>
        <time>2016-01-17T12:15:59Z</time>
      </trkpt>
      <trkpt lat="45.79425" lon="6.08925">
        <ele>1307.62</ele>
        <time>2016-01-17T12:16:14Z</time>
      </trkpt>
      <trkpt lat="45.79425" lon="6.08927">
        <ele>1308.53</ele>
        <time>2016-01-17T12:16:17Z</time>
      </trkpt>
      <trkpt lat="45.79425" lon="6.08931">
        <ele>1309.89</ele>
        <time>2016-01-17T12:16:21Z</time>
      </trkpt>
      <trkpt lat="45.79423" lon="6.08934">
        <ele>1309.89</ele>
        <time>2016-01-17T12:16:34Z</time>
      </trkpt>
      <trkpt lat="45.79424" lon="6.08935">
        <ele>1310.69</ele>
        <time>2016-01-17T12:16:42Z</time>
      </trkpt>
      <trkpt lat="45.79427" lon="6.08923">
        <ele>1310.7</ele>
        <time>2016-01-17T12:16:52Z</time>
      </trkpt>
      <trkpt lat="45.79429" lon="6.08916">
        <ele>1310.83</ele>
        <time>2016-01-17T12:17:11Z</time>
      </trkpt>
      <trkpt lat="45.79428" lon="6.08919">
        <ele>1310.86</ele>
        <time>2016-01-17T12:17:22Z</time>
      </trkpt>
      <trkpt lat="45.79428" lon="6.08916">
        <ele>1310.9</ele>
        <time>2016-01-17T12:17:33Z</time>
      </trkpt>
      <trkpt lat="45.79435" lon="6.08921">
        <ele>1310.94</ele>
        <time>2016-01-17T12:17:40Z</time>
      </trkpt>
      <trkpt lat="45.79437" lon="6.08917">
        <ele>1311.13</ele>
        <time>2016-01-17T12:17:57Z</time>
      </trkpt>
      <trkpt lat="45.79437" lon="6.08917">
        <ele>1311.04</ele>
        <time>2016-01-17T12:17:58Z</time>
      </trkpt>
      <trkpt lat="45.79438" lon="6.08914">
        <ele>1311.14</ele>
        <time>2016-01-17T12:18:16Z</time>
      </trkpt>
      <trkpt lat="45.79439" lon="6.08908">
        <ele>1311.16</ele>
        <time>2016-01-17T12:18:20Z</time>
      </trkpt>
      <trkpt lat="45.79438" lon="6.08904">
        <ele>1311.14</ele>
        <time>2016-01-17T12:18:23Z</time>
      </trkpt>
      <trkpt lat="45.79434" lon="6.08894">
        <ele>1311.27</ele>
        <time>2016-01-17T12:18:42Z</time>
      </trkpt>
      <trkpt lat="45.79431" lon="6.08895">
        <ele>1311.35</ele>
        <time>2016-01-17T12:18:55Z</time>
      </trkpt>
      <trkpt lat="45.79431" lon="6.08909">
        <ele>1311.5</ele>
        <time>2016-01-17T12:19:17Z</time>
      </trkpt>
      <trkpt lat="45.79425" lon="6.08925">
        <ele>1309.33</ele>
        <time>2016-01-17T12:19:39Z</time>
      </trkpt>
      <trkpt lat="45.79425" lon="6.08924">
        <ele>1307.93</ele>
        <time>2016-01-17T12:19:41Z</time>
      </trkpt>
      <trkpt lat="45.79427" lon="6.08916">
        <ele>1306.61</ele>
        <time>2016-01-17T12:19:49Z</time>
      </trkpt>
      <trkpt lat="45.79428" lon="6.08905">
        <ele>1303.35</ele>
        <time>2016-01-17T12:20:13Z</time>
      </trkpt>
      <trkpt lat="45.79427" lon="6.08904">
        <ele>1301.35</ele>
        <time>2016-01-17T12:20:20Z</time>
      </trkpt>
      <trkpt lat="45.79426" lon="6.08902">
        <ele>1299.9</ele>
        <time>2016-01-17T12:20:23Z</time>
      </trkpt>
      <trkpt lat="45.79419" lon="6.08898">
        <ele>1297.4</ele>
        <time>2016-01-17T12:20:39Z</time>
      </trkpt>
      <trkpt lat="45.79417" lon="6.08895">
        <ele>1293.89</ele>
        <time>2016-01-17T12:20:48Z</time>
      </trkpt>
      <trkpt lat="45.79412" lon="6.08891">
        <ele>1290.54</ele>
        <time>2016-01-17T12:20:57Z</time>
      </trkpt>
      <trkpt lat="45.79412" lon="6.08891">
        <ele>1290.51</ele>
        <time>2016-01-17T12:20:58Z</time>
      </trkpt>
      <trkpt lat="45.79408" lon="6.0888">
        <ele>1287.36</ele>
        <time>2016-01-17T12:21:11Z</time>
      </trkpt>
      <trkpt lat="45.794" lon="6.08866">
        <ele>1285.66</ele>
        <time>2016-01-17T12:21:26Z</time>
      </trkpt>
      <trkpt lat="45.79394" lon="6.08865">
        <ele>1288.32</ele>
        <time>2016-01-17T12:21:36Z</time>
      </trkpt>
      <trkpt lat="45.79392" lon="6.08864">
        <ele>1289.56</ele>
        <time>2016-01-17T12:21:40Z</time>
      </trkpt>
      <trkpt lat="45.7939" lon="6.08859">
        <ele>1292.65</ele>
        <time>2016-01-17T12:21:59Z</time>
      </trkpt>
      <trkpt lat="45.79386" lon="6.08857">
        <ele>1295.72</ele>
        <time>2016-01-17T12:22:18Z</time>
      </trkpt>
      <trkpt lat="45.79384" lon="6.08858">
        <ele>1297.11</ele>
        <time>2016-01-17T12:22:24Z</time>
      </trkpt>
      <trkpt lat="45.79378" lon="6.08857">
        <ele>1300.02</ele>
        <time>2016-01-17T12:22:45Z</time>
      </trkpt>
      <trkpt lat="45.79374" lon="6.08857">
        <ele>1301.92</ele>
        <time>2016-01-17T12:23:02Z</time>
      </trkpt>
      <trkpt lat="45.79369" lon="6.08855">
        <ele>1303.78</ele>
        <time>2016-01-17T12:23:15Z</time>
      </trkpt>
      <trkpt lat="45.79362" lon="6.08855">
        <ele>1305.53</ele>
        <time>2016-01-17T12:23:32Z</time>
      </trkpt>
      <trkpt lat="45.79357" lon="6.08855">
        <ele>1308.04</ele>
        <time>2016-01-17T12:23:47Z</time>
      </trkpt>
      <trkpt lat="45.79348" lon="6.08854">
        <ele>1308.94</ele>
        <time>2016-01-17T12:24:03Z</time>
      </trkpt>
      <trkpt lat="45.79348" lon="6.08854">
        <ele>1308.94</ele>
        <time>2016-01-17T12:24:04Z</time>
      </trkpt>
      <trkpt lat="45.79341" lon="6.08851">
        <ele>1306.28</ele>
        <time>2016-01-17T12:24:24Z</time>
      </trkpt>
      <trkpt lat="45.79337" lon="6.08845">
        <ele>1306.52</ele>
        <time>2016-01-17T12:24:47Z</time>
      </trkpt>
      <trkpt lat="45.79333" lon="6.08838">
        <ele>1305.67</ele>
        <time>2016-01-17T12:25:08Z</time>
      </trkpt>
      <trkpt lat="45.79335" lon="6.08831">
        <ele>1301.73</ele>
        <time>2016-01-17T12:25:22Z</time>
      </trkpt>
      <trkpt lat="45.79335" lon="6.08831">
        <ele>1301.73</ele>
        <time>2016-01-17T12:25:23Z</time>
      </trkpt>
      <trkpt lat="45.79338" lon="6.08828">
        <ele>1298.37</ele>
        <time>2016-01-17T12:25:30Z</time>
      </trkpt>
      <trkpt lat="45.79336" lon="6.08819">
        <ele>1294.78</ele>
        <time>2016-01-17T12:25:44Z</time>
      </trkpt>
      <trkpt lat="45.79333" lon="6.08812">
        <ele>1292.37</ele>
        <time>2016-01-17T12:25:53Z</time>
      </trkpt>
      <trkpt lat="45.79329" lon="6.08805">
        <ele>1288.81</ele>
        <time>2016-01-17T12:26:01Z</time>
      </trkpt>
      <trkpt lat="45.79328" lon="6.08804">
        <ele>1288.82</ele>
        <time>2016-01-17T12:26:02Z</time>
      </trkpt>
      <trkpt lat="45.79326" lon="6.08797">
        <ele>1284.7</ele>
        <time>2016-01-17T12:26:11Z</time>
      </trkpt>
      <trkpt lat="45.79326" lon="6.08797">
        <ele>1284.72</ele>
        <time>2016-01-17T12:26:12Z</time>
      </trkpt>
      <trkpt lat="45.79325" lon="6.0879">
        <ele>1281.22</ele>
        <time>2016-01-17T12:26:25Z</time>
      </trkpt>
      <trkpt lat="45.79323" lon="6.08785">
        <ele>1278.61</ele>
        <time>2016-01-17T12:26:31Z</time>
      </trkpt>
      <trkpt lat="45.79322" lon="6.0878">
        <ele>1275.39</ele>
        <time>2016-01-17T12:26:40Z</time>
      </trkpt>
      <trkpt lat="45.79321" lon="6.08777">
        <ele>1274.46</ele>
        <time>2016-01-17T12:26:43Z</time>
      </trkpt>
      <trkpt lat="45.79319" lon="6.08771">
        <ele>1271.82</ele>
        <time>2016-01-17T12:26:50Z</time>
      </trkpt>
      <trkpt lat="45.79318" lon="6.08768">
        <ele>1269.41</ele>
        <time>2016-01-17T12:26:55Z</time>
      </trkpt>
      <trkpt lat="45.79318" lon="6.08763">
        <ele>1266.61</ele>
        <time>2016-01-17T12:26:59Z</time>
      </trkpt>
      <trkpt lat="45.79318" lon="6.08759">
        <ele>1264.76</ele>
        <time>2016-01-17T12:27:05Z</time>
      </trkpt>
      <trkpt lat="45.79318" lon="6.08756">
        <ele>1263.37</ele>
        <time>2016-01-17T12:27:08Z</time>
      </trkpt>
      <trkpt lat="45.7932" lon="6.08748">
        <ele>1259.03</ele>
        <time>2016-01-17T12:27:16Z</time>
      </trkpt>
      <trkpt lat="45.7932" lon="6.08748">
        <ele>1259.06</ele>
        <time>2016-01-17T12:27:17Z</time>
      </trkpt>
      <trkpt lat="45.79325" lon="6.08739">
        <ele>1255.32</ele>
        <time>2016-01-17T12:27:28Z</time>
      </trkpt>
      <trkpt lat="45.79332" lon="6.08733">
        <ele>1251.97</ele>
        <time>2016-01-17T12:27:38Z</time>
      </trkpt>
      <trkpt lat="45.79338" lon="6.0872">
        <ele>1248.45</ele>
        <time>2016-01-17T12:27:49Z</time>
      </trkpt>
      <trkpt lat="45.79341" lon="6.08707">
        <ele>1245.09</ele>
        <time>2016-01-17T12:28:00Z</time>
      </trkpt>
      <trkpt lat="45.79339" lon="6.08703">
        <ele>1243.32</ele>
        <time>2016-01-17T12:28:05Z</time>
      </trkpt>
      <trkpt lat="45.79338" lon="6.08698">
        <ele>1240.66</ele>
        <time>2016-01-17T12:28:12Z</time>
      </trkpt>
      <trkpt lat="45.79336" lon="6.08691">
        <ele>1237.57</ele>
        <time>2016-01-17T12:28:20Z</time>
      </trkpt>
      <trkpt lat="45.79336" lon="6.0869">
        <ele>1237.59</ele>
        <time>2016-01-17T12:28:21Z</time>
      </trkpt>
      <trkpt lat="45.79335" lon="6.08686">
        <ele>1233.66</ele>
        <time>2016-01-17T12:28:29Z</time>
      </trkpt>
      <trkpt lat="45.79335" lon="6.08686">
        <ele>1233.71</ele>
        <time>2016-01-17T12:28:30Z</time>
      </trkpt>
      <trkpt lat="45.79334" lon="6.08681">
        <ele>1230.39</ele>
        <time>2016-01-17T12:28:37Z</time>
      </trkpt>
      <trkpt lat="45.79335" lon="6.08681">
        <ele>1230.37</ele>
        <time>2016-01-17T12:28:38Z</time>
      </trkpt>
      <trkpt lat="45.79332" lon="6.08679">
        <ele>1226.99</ele>
        <time>2016-01-17T12:28:50Z</time>
      </trkpt>
      <trkpt lat="45.79332" lon="6.0868">
        <ele>1226.98</ele>
        <time>2016-01-17T12:28:51Z</time>
      </trkpt>
      <trkpt lat="45.7933" lon="6.08673">
        <ele>1224.11</ele>
        <time>2016-01-17T12:28:59Z</time>
      </trkpt>
      <trkpt lat="45.79327" lon="6.08665">
        <ele>1220.75</ele>
        <time>2016-01-17T12:29:08Z</time>
      </trkpt>
      <trkpt lat="45.79327" lon="6.08663">
        <ele>1219.34</ele>
        <time>2016-01-17T12:29:11Z</time>
      </trkpt>
      <trkpt lat="45.79327" lon="6.08659">
        <ele>1216.56</ele>
        <time>2016-01-17T12:29:17Z</time>
      </trkpt>
      <trkpt lat="45.79333" lon="6.08653">
        <ele>1213.35</ele>
        <time>2016-01-17T12:29:27Z</time>
      </trkpt>
      <trkpt lat="45.79335" lon="6.08644">
        <ele>1209.95</ele>
        <time>2016-01-17T12:29:35Z</time>
      </trkpt>
      <trkpt lat="45.79335" lon="6.08642">
        <ele>1209.98</ele>
        <time>2016-01-17T12:29:36Z</time>
      </trkpt>
      <trkpt lat="45.79332" lon="6.08621">
        <ele>1210.36</ele>
        <time>2016-01-17T12:29:49Z</time>
      </trkpt>
      <trkpt lat="45.79344" lon="6.08588">
        <ele>1207.3</ele>
        <time>2016-01-17T12:30:13Z</time>
      </trkpt>
      <trkpt lat="45.79355" lon="6.08576">
        <ele>1203.44</ele>
        <time>2016-01-17T12:30:27Z</time>
      </trkpt>
      <trkpt lat="45.79364" lon="6.0857">
        <ele>1200.76</ele>
        <time>2016-01-17T12:30:35Z</time>
      </trkpt>
      <trkpt lat="45.79374" lon="6.08564">
        <ele>1198.51</ele>
        <time>2016-01-17T12:30:50Z</time>
      </trkpt>
      <trkpt lat="45.79379" lon="6.0856">
        <ele>1196.26</ele>
        <time>2016-01-17T12:31:01Z</time>
      </trkpt>
      <trkpt lat="45.79384" lon="6.08556">
        <ele>1194.82</ele>
        <time>2016-01-17T12:31:05Z</time>
      </trkpt>
      <trkpt lat="45.7939" lon="6.08548">
        <ele>1191.54</ele>
        <time>2016-01-17T12:31:15Z</time>
      </trkpt>
      <trkpt lat="45.79392" lon="6.08547">
        <ele>1191.54</ele>
        <time>2016-01-17T12:31:16Z</time>
      </trkpt>
      <trkpt lat="45.79403" lon="6.08542">
        <ele>1187.38</ele>
        <time>2016-01-17T12:31:28Z</time>
      </trkpt>
      <trkpt lat="45.79406" lon="6.08539">
        <ele>1185.47</ele>
        <time>2016-01-17T12:31:32Z</time>
      </trkpt>
      <trkpt lat="45.79409" lon="6.08536">
        <ele>1182.86</ele>
        <time>2016-01-17T12:31:36Z</time>
      </trkpt>
      <trkpt lat="45.7941" lon="6.08533">
        <ele>1180.22</ele>
        <time>2016-01-17T12:31:40Z</time>
      </trkpt>
      <trkpt lat="45.79413" lon="6.08528">
        <ele>1177.07</ele>
        <time>2016-01-17T12:31:46Z</time>
      </trkpt>
      <trkpt lat="45.79416" lon="6.08525">
        <ele>1174.92</ele>
        <time>2016-01-17T12:31:49Z</time>
      </trkpt>
      <trkpt lat="45.79422" lon="6.08512">
        <ele>1171.1</ele>
        <time>2016-01-17T12:31:59Z</time>
      </trkpt>
      <trkpt lat="45.79423" lon="6.08511">
        <ele>1171.19</ele>
        <time>2016-01-17T12:32:00Z</time>
      </trkpt>
      <trkpt lat="45.79427" lon="6.08502">
        <ele>1167.65</ele>
        <time>2016-01-17T12:32:08Z</time>
      </trkpt>
      <trkpt lat="45.7943" lon="6.08499">
        <ele>1166.01</ele>
        <time>2016-01-17T12:32:13Z</time>
      </trkpt>
      <trkpt lat="45.79435" lon="6.08486">
        <ele>1162.33</ele>
        <time>2016-01-17T12:32:23Z</time>
      </trkpt>
      <trkpt lat="45.79436" lon="6.08485">
        <ele>1162.38</ele>
        <time>2016-01-17T12:32:24Z</time>
      </trkpt>
      <trkpt lat="45.79435" lon="6.08476">
        <ele>1161.09</ele>
        <time>2016-01-17T12:32:28Z</time>
      </trkpt>
      <trkpt lat="45.79436" lon="6.08471">
        <ele>1160.08</ele>
        <time>2016-01-17T12:32:33Z</time>
      </trkpt>
      <trkpt lat="45.79442" lon="6.08465">
        <ele>1156.35</ele>
        <time>2016-01-17T12:32:42Z</time>
      </trkpt>
      <trkpt lat="45.79442" lon="6.08465">
        <ele>1156.35</ele>
        <time>2016-01-17T12:32:43Z</time>
      </trkpt>
      <trkpt lat="45.79445" lon="6.08462">
        <ele>1153.28</ele>
        <time>2016-01-17T12:32:51Z</time>
      </trkpt>
      <trkpt lat="45.79448" lon="6.0846">
        <ele>1151.35</ele>
        <time>2016-01-17T12:32:56Z</time>
      </trkpt>
      <trkpt lat="45.79449" lon="6.08458">
        <ele>1149.75</ele>
        <time>2016-01-17T12:33:01Z</time>
      </trkpt>
      <trkpt lat="45.79456" lon="6.08452">
        <ele>1146.11</ele>
        <time>2016-01-17T12:33:09Z</time>
      </trkpt>
      <trkpt lat="45.79457" lon="6.08452">
        <ele>1146.06</ele>
        <time>2016-01-17T12:33:10Z</time>
      </trkpt>
      <trkpt lat="45.79462" lon="6.0844">
        <ele>1143.08</ele>
        <time>2016-01-17T12:33:19Z</time>
      </trkpt>
      <trkpt lat="45.79464" lon="6.08433">
        <ele>1140.38</ele>
        <time>2016-01-17T12:33:25Z</time>
      </trkpt>
      <trkpt lat="45.79463" lon="6.08416">
        <ele>1137.11</ele>
        <time>2016-01-17T12:33:35Z</time>
      </trkpt>
      <trkpt lat="45.79468" lon="6.0841">
        <ele>1133.84</ele>
        <time>2016-01-17T12:33:44Z</time>
      </trkpt>
      <trkpt lat="45.79469" lon="6.0841">
        <ele>1133.6</ele>
        <time>2016-01-17T12:33:45Z</time>
      </trkpt>
      <trkpt lat="45.79473" lon="6.08408">
        <ele>1132.21</ele>
        <time>2016-01-17T12:33:49Z</time>
      </trkpt>
      <trkpt lat="45.79475" lon="6.08406">
        <ele>1130.61</ele>
        <time>2016-01-17T12:33:53Z</time>
      </trkpt>
      <trkpt lat="45.79481" lon="6.08402">
        <ele>1128.28</ele>
        <time>2016-01-17T12:33:59Z</time>
      </trkpt>
      <trkpt lat="45.79483" lon="6.08398">
        <ele>1124.59</ele>
        <time>2016-01-17T12:34:07Z</time>
      </trkpt>
      <trkpt lat="45.79488" lon="6.08395">
        <ele>1123.06</ele>
        <time>2016-01-17T12:34:15Z</time>
      </trkpt>
      <trkpt lat="45.79492" lon="6.08387">
        <ele>1122.98</ele>
        <time>2016-01-17T12:34:42Z</time>
      </trkpt>
      <trkpt lat="45.7949" lon="6.08388">
        <ele>1123.28</ele>
        <time>2016-01-17T12:35:08Z</time>
      </trkpt>
      <trkpt lat="45.79494" lon="6.08376">
        <ele>1119.48</ele>
        <time>2016-01-17T12:35:24Z</time>
      </trkpt>
      <trkpt lat="45.79496" lon="6.08369">
        <ele>1117.24</ele>
        <time>2016-01-17T12:35:31Z</time>
      </trkpt>
      <trkpt lat="45.79496" lon="6.08359">
        <ele>1114.22</ele>
        <time>2016-01-17T12:35:42Z</time>
      </trkpt>
      <trkpt lat="45.79499" lon="6.08345">
        <ele>1110.97</ele>
        <time>2016-01-17T12:35:53Z</time>
      </trkpt>
      <trkpt lat="45.795" lon="6.08339">
        <ele>1107.33</ele>
        <time>2016-01-17T12:36:07Z</time>
      </trkpt>
      <trkpt lat="45.79494" lon="6.08325">
        <ele>1104.54</ele>
        <time>2016-01-17T12:36:28Z</time>
      </trkpt>
      <trkpt lat="45.7949" lon="6.08324">
        <ele>1104.2</ele>
        <time>2016-01-17T12:36:53Z</time>
      </trkpt>
      <trkpt lat="45.7949" lon="6.08321">
        <ele>1102.88</ele>
        <time>2016-01-17T12:36:58Z</time>
      </trkpt>
      <trkpt lat="45.79486" lon="6.08315">
        <ele>1099.22</ele>
        <time>2016-01-17T12:37:14Z</time>
      </trkpt>
      <trkpt lat="45.7948" lon="6.08309">
        <ele>1097.02</ele>
        <time>2016-01-17T12:37:31Z</time>
      </trkpt>
      <trkpt lat="45.79477" lon="6.08306">
        <ele>1094.98</ele>
        <time>2016-01-17T12:37:38Z</time>
      </trkpt>
      <trkpt lat="45.79472" lon="6.08297">
        <ele>1093.3</ele>
        <time>2016-01-17T12:37:46Z</time>
      </trkpt>
      <trkpt lat="45.7947" lon="6.08278">
        <ele>1090.03</ele>
        <time>2016-01-17T12:38:07Z</time>
      </trkpt>
      <trkpt lat="45.79474" lon="6.08273">
        <ele>1090.4</ele>
        <time>2016-01-17T12:38:31Z</time>
      </trkpt>
      <trkpt lat="45.79481" lon="6.08272">
        <ele>1088.9</ele>
        <time>2016-01-17T12:38:54Z</time>
      </trkpt>
      <trkpt lat="45.79483" lon="6.0827">
        <ele>1087.61</ele>
        <time>2016-01-17T12:38:58Z</time>
      </trkpt>
      <trkpt lat="45.79495" lon="6.08275">
        <ele>1086.41</ele>
        <time>2016-01-17T12:39:12Z</time>
      </trkpt>
      <trkpt lat="45.79502" lon="6.08278">
        <ele>1084.43</ele>
        <time>2016-01-17T12:39:18Z</time>
      </trkpt>
      <trkpt lat="45.79508" lon="6.0828">
        <ele>1082.97</ele>
        <time>2016-01-17T12:39:24Z</time>
      </trkpt>
      <trkpt lat="45.79516" lon="6.08282">
        <ele>1081.66</ele>
        <time>2016-01-17T12:39:45Z</time>
      </trkpt>
      <trkpt lat="45.79526" lon="6.08287">
        <ele>1078.11</ele>
        <time>2016-01-17T12:40:04Z</time>
      </trkpt>
      <trkpt lat="45.79526" lon="6.08288">
        <ele>1078.07</ele>
        <time>2016-01-17T12:40:05Z</time>
      </trkpt>
      <trkpt lat="45.79532" lon="6.083">
        <ele>1073.88</ele>
        <time>2016-01-17T12:40:24Z</time>
      </trkpt>
      <trkpt lat="45.79532" lon="6.08301">
        <ele>1073.85</ele>
        <time>2016-01-17T12:40:25Z</time>
      </trkpt>
      <trkpt lat="45.79535" lon="6.08305">
        <ele>1071.62</ele>
        <time>2016-01-17T12:40:32Z</time>
      </trkpt>
      <trkpt lat="45.79538" lon="6.08309">
        <ele>1070.37</ele>
        <time>2016-01-17T12:40:38Z</time>
      </trkpt>
      <trkpt lat="45.79542" lon="6.08314">
        <ele>1069.66</ele>
        <time>2016-01-17T12:40:48Z</time>
      </trkpt>
      <trkpt lat="45.79551" lon="6.08316">
        <ele>1066.95</ele>
        <time>2016-01-17T12:41:03Z</time>
      </trkpt>
      <trkpt lat="45.79559" lon="6.08321">
        <ele>1065.42</ele>
        <time>2016-01-17T12:41:24Z</time>
      </trkpt>
      <trkpt lat="45.79561" lon="6.08328">
        <ele>1063.18</ele>
        <time>2016-01-17T12:41:30Z</time>
      </trkpt>
      <trkpt lat="45.79567" lon="6.08342">
        <ele>1059.33</ele>
        <time>2016-01-17T12:41:46Z</time>
      </trkpt>
      <trkpt lat="45.79572" lon="6.08331">
        <ele>1055.8</ele>
        <time>2016-01-17T12:42:04Z</time>
      </trkpt>
      <trkpt lat="45.79578" lon="6.08339">
        <ele>1053.27</ele>
        <time>2016-01-17T12:42:18Z</time>
      </trkpt>
      <trkpt lat="45.79587" lon="6.08361">
        <ele>1050.43</ele>
        <time>2016-01-17T12:42:37Z</time>
      </trkpt>
      <trkpt lat="45.79593" lon="6.0837">
        <ele>1048.56</ele>
        <time>2016-01-17T12:42:45Z</time>
      </trkpt>
      <trkpt lat="45.79596" lon="6.08374">
        <ele>1046.79</ele>
        <time>2016-01-17T12:42:51Z</time>
      </trkpt>
      <trkpt lat="45.79609" lon="6.08382">
        <ele>1043.33</ele>
        <time>2016-01-17T12:43:08Z</time>
      </trkpt>
      <trkpt lat="45.79631" lon="6.08377">
        <ele>1040.79</ele>
        <time>2016-01-17T12:43:29Z</time>
      </trkpt>
      <trkpt lat="45.79637" lon="6.08374">
        <ele>1037.83</ele>
        <time>2016-01-17T12:43:37Z</time>
      </trkpt>
      <trkpt lat="45.7964" lon="6.08373">
        <ele>1036.29</ele>
        <time>2016-01-17T12:43:40Z</time>
      </trkpt>
      <trkpt lat="45.79649" lon="6.0837">
        <ele>1032.52</ele>
        <time>2016-01-17T12:43:53Z</time>
      </trkpt>
      <trkpt lat="45.79661" lon="6.08362">
        <ele>1028.75</ele>
        <time>2016-01-17T12:44:05Z</time>
      </trkpt>
      <trkpt lat="45.79673" lon="6.08353">
        <ele>1025.62</ele>
        <time>2016-01-17T12:44:17Z</time>
      </trkpt>
      <trkpt lat="45.79674" lon="6.08353">
        <ele>1025.42</ele>
        <time>2016-01-17T12:44:18Z</time>
      </trkpt>
      <trkpt lat="45.79674" lon="6.08351">
        <ele>1025.49</ele>
        <time>2016-01-17T12:44:20Z</time>
      </trkpt>
      <trkpt lat="45.79683" lon="6.08344">
        <ele>1025.82</ele>
        <time>2016-01-17T12:44:47Z</time>
      </trkpt>
      <trkpt lat="45.79683" lon="6.08351">
        <ele>1025.87</ele>
        <time>2016-01-17T12:45:16Z</time>
      </trkpt>
      <trkpt lat="45.79683" lon="6.08346">
        <ele>1026</ele>
        <time>2016-01-17T12:45:40Z</time>
      </trkpt>
      <trkpt lat="45.79685" lon="6.08348">
        <ele>1026.13</ele>
        <time>2016-01-17T12:46:04Z</time>
      </trkpt>
      <trkpt lat="45.79691" lon="6.08348">
        <ele>1025.53</ele>
        <time>2016-01-17T12:46:31Z</time>
      </trkpt>
      <trkpt lat="45.79692" lon="6.08349">
        <ele>1025.66</ele>
        <time>2016-01-17T12:46:51Z</time>
      </trkpt>
      <trkpt lat="45.79695" lon="6.0835">
        <ele>1025.84</ele>
        <time>2016-01-17T12:47:16Z</time>
      </trkpt>
      <trkpt lat="45.79702" lon="6.08348">
        <ele>1022.89</ele>
        <time>2016-01-17T12:47:34Z</time>
      </trkpt>
      <trkpt lat="45.79704" lon="6.08346">
        <ele>1021.22</ele>
        <time>2016-01-17T12:47:36Z</time>
      </trkpt>
      <trkpt lat="45.7971" lon="6.08343">
        <ele>1018.49</ele>
        <time>2016-01-17T12:47:47Z</time>
      </trkpt>
      <trkpt lat="45.79715" lon="6.08344">
        <ele>1014.74</ele>
        <time>2016-01-17T12:47:54Z</time>
      </trkpt>
      <trkpt lat="45.79716" lon="6.08344">
        <ele>1014.76</ele>
        <time>2016-01-17T12:47:55Z</time>
      </trkpt>
      <trkpt lat="45.79728" lon="6.08351">
        <ele>1012</ele>
        <time>2016-01-17T12:48:12Z</time>
      </trkpt>
      <trkpt lat="45.79729" lon="6.08352">
        <ele>1012.04</ele>
        <time>2016-01-17T12:48:13Z</time>
      </trkpt>
      <trkpt lat="45.79735" lon="6.08352">
        <ele>1010.27</ele>
        <time>2016-01-17T12:48:16Z</time>
      </trkpt>
      <trkpt lat="45.79755" lon="6.08337">
        <ele>1006.88</ele>
        <time>2016-01-17T12:48:30Z</time>
      </trkpt>
      <trkpt lat="45.79757" lon="6.08336">
        <ele>1006.98</ele>
        <time>2016-01-17T12:48:31Z</time>
      </trkpt>
      <trkpt lat="45.79765" lon="6.08334">
        <ele>1003.41</ele>
        <time>2016-01-17T12:48:37Z</time>
      </trkpt>
      <trkpt lat="45.79767" lon="6.08333">
        <ele>1003.38</ele>
        <time>2016-01-17T12:48:38Z</time>
      </trkpt>
      <trkpt lat="45.79772" lon="6.08332">
        <ele>1002.13</ele>
        <time>2016-01-17T12:48:40Z</time>
      </trkpt>
      <trkpt lat="45.79779" lon="6.08328">
        <ele>1000.2</ele>
        <time>2016-01-17T12:48:44Z</time>
      </trkpt>
      <trkpt lat="45.79786" lon="6.08322">
        <ele>998.18</ele>
        <time>2016-01-17T12:48:49Z</time>
      </trkpt>
      <trkpt lat="45.79793" lon="6.08313">
        <ele>994.8</ele>
        <time>2016-01-17T12:48:56Z</time>
      </trkpt>
      <trkpt lat="45.79796" lon="6.08308">
        <ele>993.53</ele>
        <time>2016-01-17T12:49:01Z</time>
      </trkpt>
      <trkpt lat="45.79805" lon="6.08296">
        <ele>990.21</ele>
        <time>2016-01-17T12:49:12Z</time>
      </trkpt>
      <trkpt lat="45.79809" lon="6.08291">
        <ele>988.23</ele>
        <time>2016-01-17T12:49:16Z</time>
      </trkpt>
      <trkpt lat="45.79818" lon="6.08282">
        <ele>986.59</ele>
        <time>2016-01-17T12:49:24Z</time>
      </trkpt>
      <trkpt lat="45.79819" lon="6.08279">
        <ele>985.09</ele>
        <time>2016-01-17T12:49:26Z</time>
      </trkpt>
      <trkpt lat="45.79823" lon="6.08273">
        <ele>982.87</ele>
        <time>2016-01-17T12:49:31Z</time>
      </trkpt>
      <trkpt lat="45.79827" lon="6.08271">
        <ele>981.36</ele>
        <time>2016-01-17T12:49:35Z</time>
      </trkpt>
      <trkpt lat="45.79829" lon="6.08269">
        <ele>980.11</ele>
        <time>2016-01-17T12:49:37Z</time>
      </trkpt>
      <trkpt lat="45.79837" lon="6.08261">
        <ele>977.29</ele>
        <time>2016-01-17T12:49:49Z</time>
      </trkpt>
      <trkpt lat="45.79847" lon="6.08247">
        <ele>973.12</ele>
        <time>2016-01-17T12:49:58Z</time>
      </trkpt>
      <trkpt lat="45.79853" lon="6.08238">
        <ele>971.05</ele>
        <time>2016-01-17T12:50:06Z</time>
      </trkpt>
      <trkpt lat="45.79865" lon="6.08228">
        <ele>968.31</ele>
        <time>2016-01-17T12:50:16Z</time>
      </trkpt>
      <trkpt lat="45.79867" lon="6.08224">
        <ele>966.55</ele>
        <time>2016-01-17T12:50:19Z</time>
      </trkpt>
      <trkpt lat="45.79867" lon="6.08222">
        <ele>966.57</ele>
        <time>2016-01-17T12:50:20Z</time>
      </trkpt>
      <trkpt lat="45.79875" lon="6.08216">
        <ele>963.3</ele>
        <time>2016-01-17T12:50:27Z</time>
      </trkpt>
      <trkpt lat="45.79877" lon="6.08214">
        <ele>962.01</ele>
        <time>2016-01-17T12:50:30Z</time>
      </trkpt>
      <trkpt lat="45.79881" lon="6.08211">
        <ele>960.53</ele>
        <time>2016-01-17T12:50:34Z</time>
      </trkpt>
      <trkpt lat="45.79882" lon="6.08209">
        <ele>959.31</ele>
        <time>2016-01-17T12:50:36Z</time>
      </trkpt>
      <trkpt lat="45.79884" lon="6.08204">
        <ele>957.75</ele>
        <time>2016-01-17T12:50:40Z</time>
      </trkpt>
      <trkpt lat="45.79886" lon="6.08202">
        <ele>956.57</ele>
        <time>2016-01-17T12:50:42Z</time>
      </trkpt>
      <trkpt lat="45.79888" lon="6.08197">
        <ele>955.32</ele>
        <time>2016-01-17T12:50:46Z</time>
      </trkpt>
      <trkpt lat="45.79898" lon="6.0818">
        <ele>952.36</ele>
        <time>2016-01-17T12:50:58Z</time>
      </trkpt>
      <trkpt lat="45.79905" lon="6.08168">
        <ele>948.87</ele>
        <time>2016-01-17T12:51:09Z</time>
      </trkpt>
      <trkpt lat="45.79909" lon="6.08163">
        <ele>947.66</ele>
        <time>2016-01-17T12:51:15Z</time>
      </trkpt>
      <trkpt lat="45.79913" lon="6.08161">
        <ele>946.11</ele>
        <time>2016-01-17T12:51:19Z</time>
      </trkpt>
      <trkpt lat="45.7992" lon="6.08159">
        <ele>943.1</ele>
        <time>2016-01-17T12:51:30Z</time>
      </trkpt>
      <trkpt lat="45.79928" lon="6.08156">
        <ele>940.91</ele>
        <time>2016-01-17T12:51:38Z</time>
      </trkpt>
      <trkpt lat="45.79935" lon="6.08153">
        <ele>938.14</ele>
        <time>2016-01-17T12:51:52Z</time>
      </trkpt>
      <trkpt lat="45.79945" lon="6.08151">
        <ele>935.22</ele>
        <time>2016-01-17T12:52:03Z</time>
      </trkpt>
      <trkpt lat="45.79959" lon="6.08146">
        <ele>932.58</ele>
        <time>2016-01-17T12:52:23Z</time>
      </trkpt>
      <trkpt lat="45.79962" lon="6.08147">
        <ele>931.31</ele>
        <time>2016-01-17T12:52:27Z</time>
      </trkpt>
      <trkpt lat="45.79971" lon="6.08148">
        <ele>929.43</ele>
        <time>2016-01-17T12:52:46Z</time>
      </trkpt>
      <trkpt lat="45.79983" lon="6.08143">
        <ele>927.26</ele>
        <time>2016-01-17T12:53:04Z</time>
      </trkpt>
      <trkpt lat="45.8" lon="6.08138">
        <ele>923.15</ele>
        <time>2016-01-17T12:53:24Z</time>
      </trkpt>
      <trkpt lat="45.80022" lon="6.0813">
        <ele>920.19</ele>
        <time>2016-01-17T12:53:41Z</time>
      </trkpt>
      <trkpt lat="45.80023" lon="6.08129">
        <ele>920.17</ele>
        <time>2016-01-17T12:53:42Z</time>
      </trkpt>
      <trkpt lat="45.8003" lon="6.08125">
        <ele>920.15</ele>
        <time>2016-01-17T12:53:47Z</time>
      </trkpt>
      <trkpt lat="45.80039" lon="6.0812">
        <ele>918.52</ele>
        <time>2016-01-17T12:53:54Z</time>
      </trkpt>
      <trkpt lat="45.80058" lon="6.08112">
        <ele>916.58</ele>
        <time>2016-01-17T12:54:07Z</time>
      </trkpt>
      <trkpt lat="45.80072" lon="6.08105">
        <ele>914.01</ele>
        <time>2016-01-17T12:54:20Z</time>
      </trkpt>
      <trkpt lat="45.80086" lon="6.08096">
        <ele>910.88</ele>
        <time>2016-01-17T12:54:34Z</time>
      </trkpt>
      <trkpt lat="45.80087" lon="6.08095">
        <ele>910.88</ele>
        <time>2016-01-17T12:54:35Z</time>
      </trkpt>
      <trkpt lat="45.80094" lon="6.08082">
        <ele>909.9</ele>
        <time>2016-01-17T12:54:46Z</time>
      </trkpt>
      <trkpt lat="45.80096" lon="6.08072">
        <ele>906.87</ele>
        <time>2016-01-17T12:54:57Z</time>
      </trkpt>
      <trkpt lat="45.80098" lon="6.08061">
        <ele>904.92</ele>
        <time>2016-01-17T12:55:03Z</time>
      </trkpt>
      <trkpt lat="45.80105" lon="6.08038">
        <ele>901.97</ele>
        <time>2016-01-17T12:55:20Z</time>
      </trkpt>
      <trkpt lat="45.80117" lon="6.08015">
        <ele>898.02</ele>
        <time>2016-01-17T12:55:35Z</time>
      </trkpt>
      <trkpt lat="45.80118" lon="6.08013">
        <ele>897.15</ele>
        <time>2016-01-17T12:55:37Z</time>
      </trkpt>
      <trkpt lat="45.80123" lon="6.08005">
        <ele>895.82</ele>
        <time>2016-01-17T12:55:44Z</time>
      </trkpt>
      <trkpt lat="45.80134" lon="6.07989">
        <ele>893.41</ele>
        <time>2016-01-17T12:55:56Z</time>
      </trkpt>
      <trkpt lat="45.80135" lon="6.07984">
        <ele>893.44</ele>
        <time>2016-01-17T12:55:59Z</time>
      </trkpt>
      <trkpt lat="45.80139" lon="6.07978">
        <ele>892.56</ele>
        <time>2016-01-17T12:56:02Z</time>
      </trkpt>
      <trkpt lat="45.80149" lon="6.07966">
        <ele>891.63</ele>
        <time>2016-01-17T12:56:11Z</time>
      </trkpt>
      <trkpt lat="45.80156" lon="6.07954">
        <ele>889.01</ele>
        <time>2016-01-17T12:56:20Z</time>
      </trkpt>
      <trkpt lat="45.80165" lon="6.07932">
        <ele>886.38</ele>
        <time>2016-01-17T12:56:33Z</time>
      </trkpt>
      <trkpt lat="45.8017" lon="6.07901">
        <ele>882.53</ele>
        <time>2016-01-17T12:56:50Z</time>
      </trkpt>
      <trkpt lat="45.80176" lon="6.07889">
        <ele>881.18</ele>
        <time>2016-01-17T12:57:02Z</time>
      </trkpt>
      <trkpt lat="45.8019" lon="6.07884">
        <ele>879.3</ele>
        <time>2016-01-17T12:57:18Z</time>
      </trkpt>
      <trkpt lat="45.80199" lon="6.07874">
        <ele>878.32</ele>
        <time>2016-01-17T12:57:34Z</time>
      </trkpt>
      <trkpt lat="45.80209" lon="6.07863">
        <ele>874.92</ele>
        <time>2016-01-17T12:57:50Z</time>
      </trkpt>
      <trkpt lat="45.80209" lon="6.07863">
        <ele>874.91</ele>
        <time>2016-01-17T12:57:51Z</time>
      </trkpt>
      <trkpt lat="45.80213" lon="6.07863">
        <ele>874.87</ele>
        <time>2016-01-17T12:57:58Z</time>
      </trkpt>
      <trkpt lat="45.80227" lon="6.07844">
        <ele>873.88</ele>
        <time>2016-01-17T12:58:13Z</time>
      </trkpt>
      <trkpt lat="45.80228" lon="6.07841">
        <ele>872.66</ele>
        <time>2016-01-17T12:58:15Z</time>
      </trkpt>
      <trkpt lat="45.80241" lon="6.07828">
        <ele>869.66</ele>
        <time>2016-01-17T12:58:30Z</time>
      </trkpt>
      <trkpt lat="45.80244" lon="6.07826">
        <ele>868.52</ele>
        <time>2016-01-17T12:58:33Z</time>
      </trkpt>
      <trkpt lat="45.80256" lon="6.07816">
        <ele>865.85</ele>
        <time>2016-01-17T12:58:48Z</time>
      </trkpt>
      <trkpt lat="45.80266" lon="6.07803">
        <ele>864.32</ele>
        <time>2016-01-17T12:59:08Z</time>
      </trkpt>
      <trkpt lat="45.80269" lon="6.07801">
        <ele>863.04</ele>
        <time>2016-01-17T12:59:11Z</time>
      </trkpt>
      <trkpt lat="45.80283" lon="6.0778">
        <ele>860.17</ele>
        <time>2016-01-17T12:59:29Z</time>
      </trkpt>
      <trkpt lat="45.80296" lon="6.07754">
        <ele>858.13</ele>
        <time>2016-01-17T12:59:47Z</time>
      </trkpt>
      <trkpt lat="45.80303" lon="6.07735">
        <ele>856.24</ele>
        <time>2016-01-17T12:59:58Z</time>
      </trkpt>
      <trkpt lat="45.80311" lon="6.07714">
        <ele>853.34</ele>
        <time>2016-01-17T13:00:12Z</time>
      </trkpt>
      <trkpt lat="45.80315" lon="6.07692">
        <ele>849.63</ele>
        <time>2016-01-17T13:00:28Z</time>
      </trkpt>
      <trkpt lat="45.80316" lon="6.07667">
        <ele>846.84</ele>
        <time>2016-01-17T13:00:44Z</time>
      </trkpt>
      <trkpt lat="45.80325" lon="6.07643">
        <ele>843.33</ele>
        <time>2016-01-17T13:00:59Z</time>
      </trkpt>
      <trkpt lat="45.80344" lon="6.07646">
        <ele>839.86</ele>
        <time>2016-01-17T13:01:17Z</time>
      </trkpt>
      <trkpt lat="45.80366" lon="6.07653">
        <ele>835.93</ele>
        <time>2016-01-17T13:01:36Z</time>
      </trkpt>
      <trkpt lat="45.80385" lon="6.07654">
        <ele>832.56</ele>
        <time>2016-01-17T13:01:54Z</time>
      </trkpt>
      <trkpt lat="45.80401" lon="6.07644">
        <ele>829.58</ele>
        <time>2016-01-17T13:02:10Z</time>
      </trkpt>
      <trkpt lat="45.80404" lon="6.07642">
        <ele>829.6</ele>
        <time>2016-01-17T13:02:13Z</time>
      </trkpt>
      <trkpt lat="45.80414" lon="6.07636">
        <ele>827.78</ele>
        <time>2016-01-17T13:02:30Z</time>
      </trkpt>
      <trkpt lat="45.80425" lon="6.07635">
        <ele>826.2</ele>
        <time>2016-01-17T13:02:49Z</time>
      </trkpt>
      <trkpt lat="45.80437" lon="6.07634">
        <ele>823.64</ele>
        <time>2016-01-17T13:03:08Z</time>
      </trkpt>
      <trkpt lat="45.80443" lon="6.07633">
        <ele>823.24</ele>
        <time>2016-01-17T13:03:32Z</time>
      </trkpt>
      <trkpt lat="45.80454" lon="6.07631">
        <ele>820.1</ele>
        <time>2016-01-17T13:03:48Z</time>
      </trkpt>
      <trkpt lat="45.80474" lon="6.07626">
        <ele>818.23</ele>
        <time>2016-01-17T13:04:07Z</time>
      </trkpt>
      <trkpt lat="45.80491" lon="6.07617">
        <ele>815.79</ele>
        <time>2016-01-17T13:04:25Z</time>
      </trkpt>
      <trkpt lat="45.80493" lon="6.07615">
        <ele>814.23</ele>
        <time>2016-01-17T13:04:27Z</time>
      </trkpt>
      <trkpt lat="45.80504" lon="6.07603">
        <ele>812.26</ele>
        <time>2016-01-17T13:04:44Z</time>
      </trkpt>
      <trkpt lat="45.80515" lon="6.07585">
        <ele>808.17</ele>
        <time>2016-01-17T13:05:01Z</time>
      </trkpt>
      <trkpt lat="45.80522" lon="6.07568">
        <ele>804.81</ele>
        <time>2016-01-17T13:05:18Z</time>
      </trkpt>
      <trkpt lat="45.80522" lon="6.07568">
        <ele>804.81</ele>
        <time>2016-01-17T13:05:19Z</time>
      </trkpt>
      <trkpt lat="45.80531" lon="6.07554">
        <ele>802.24</ele>
        <time>2016-01-17T13:05:37Z</time>
      </trkpt>
      <trkpt lat="45.80533" lon="6.07549">
        <ele>800.61</ele>
        <time>2016-01-17T13:05:42Z</time>
      </trkpt>
      <trkpt lat="45.80542" lon="6.07539">
        <ele>798.26</ele>
        <time>2016-01-17T13:05:55Z</time>
      </trkpt>
      <trkpt lat="45.8055" lon="6.0752">
        <ele>795.43</ele>
        <time>2016-01-17T13:06:11Z</time>
      </trkpt>
      <trkpt lat="45.8056" lon="6.07506">
        <ele>791.87</ele>
        <time>2016-01-17T13:06:28Z</time>
      </trkpt>
      <trkpt lat="45.80572" lon="6.07487">
        <ele>788.24</ele>
        <time>2016-01-17T13:06:45Z</time>
      </trkpt>
      <trkpt lat="45.80581" lon="6.07474">
        <ele>786.2</ele>
        <time>2016-01-17T13:06:57Z</time>
      </trkpt>
      <trkpt lat="45.80584" lon="6.07471">
        <ele>785.01</ele>
        <time>2016-01-17T13:07:00Z</time>
      </trkpt>
      <trkpt lat="45.80598" lon="6.07465">
        <ele>782.32</ele>
        <time>2016-01-17T13:07:16Z</time>
      </trkpt>
      <trkpt lat="45.8061" lon="6.07471">
        <ele>780.31</ele>
        <time>2016-01-17T13:07:32Z</time>
      </trkpt>
      <trkpt lat="45.80614" lon="6.07471">
        <ele>778.3</ele>
        <time>2016-01-17T13:07:39Z</time>
      </trkpt>
      <trkpt lat="45.80621" lon="6.07472">
        <ele>776.68</ele>
        <time>2016-01-17T13:07:47Z</time>
      </trkpt>
      <trkpt lat="45.80631" lon="6.07478">
        <ele>774.16</ele>
        <time>2016-01-17T13:07:58Z</time>
      </trkpt>
      <trkpt lat="45.80636" lon="6.07478">
        <ele>772.89</ele>
        <time>2016-01-17T13:08:02Z</time>
      </trkpt>
      <trkpt lat="45.80659" lon="6.0747">
        <ele>771.05</ele>
        <time>2016-01-17T13:08:21Z</time>
      </trkpt>
      <trkpt lat="45.80671" lon="6.07462">
        <ele>768.02</ele>
        <time>2016-01-17T13:08:35Z</time>
      </trkpt>
      <trkpt lat="45.80679" lon="6.07444">
        <ele>765.55</ele>
        <time>2016-01-17T13:08:49Z</time>
      </trkpt>
      <trkpt lat="45.80681" lon="6.07427">
        <ele>762.22</ele>
        <time>2016-01-17T13:09:02Z</time>
      </trkpt>
      <trkpt lat="45.80684" lon="6.07418">
        <ele>760.17</ele>
        <time>2016-01-17T13:09:12Z</time>
      </trkpt>
      <trkpt lat="45.80691" lon="6.07407">
        <ele>757.04</ele>
        <time>2016-01-17T13:09:26Z</time>
      </trkpt>
      <trkpt lat="45.80691" lon="6.07406">
        <ele>757.07</ele>
        <time>2016-01-17T13:09:27Z</time>
      </trkpt>
      <trkpt lat="45.80697" lon="6.07394">
        <ele>753.61</ele>
        <time>2016-01-17T13:09:45Z</time>
      </trkpt>
      <trkpt lat="45.80702" lon="6.07383">
        <ele>750.35</ele>
        <time>2016-01-17T13:09:56Z</time>
      </trkpt>
      <trkpt lat="45.80711" lon="6.07363">
        <ele>747.51</ele>
        <time>2016-01-17T13:10:13Z</time>
      </trkpt>
      <trkpt lat="45.8072" lon="6.07352">
        <ele>744.38</ele>
        <time>2016-01-17T13:10:31Z</time>
      </trkpt>
      <trkpt lat="45.80721" lon="6.07351">
        <ele>744.39</ele>
        <time>2016-01-17T13:10:32Z</time>
      </trkpt>
      <trkpt lat="45.80723" lon="6.07349">
        <ele>742.96</ele>
        <time>2016-01-17T13:10:35Z</time>
      </trkpt>
      <trkpt lat="45.80737" lon="6.07336">
        <ele>740.04</ele>
        <time>2016-01-17T13:10:52Z</time>
      </trkpt>
      <trkpt lat="45.80748" lon="6.07323">
        <ele>736.58</ele>
        <time>2016-01-17T13:11:10Z</time>
      </trkpt>
      <trkpt lat="45.80761" lon="6.07312">
        <ele>734.12</ele>
        <time>2016-01-17T13:11:27Z</time>
      </trkpt>
      <trkpt lat="45.8077" lon="6.07306">
        <ele>732.08</ele>
        <time>2016-01-17T13:11:35Z</time>
      </trkpt>
      <trkpt lat="45.80781" lon="6.07293">
        <ele>728.74</ele>
        <time>2016-01-17T13:11:50Z</time>
      </trkpt>
      <trkpt lat="45.80791" lon="6.07279">
        <ele>726.97</ele>
        <time>2016-01-17T13:12:05Z</time>
      </trkpt>
      <trkpt lat="45.80795" lon="6.07274">
        <ele>725.66</ele>
        <time>2016-01-17T13:12:10Z</time>
      </trkpt>
      <trkpt lat="45.80804" lon="6.07266">
        <ele>723.86</ele>
        <time>2016-01-17T13:12:24Z</time>
      </trkpt>
      <trkpt lat="45.80808" lon="6.07264">
        <ele>723.96</ele>
        <time>2016-01-17T13:12:43Z</time>
      </trkpt>
      <trkpt lat="45.80811" lon="6.07243">
        <ele>722.88</ele>
        <time>2016-01-17T13:12:58Z</time>
      </trkpt>
      <trkpt lat="45.80812" lon="6.0724">
        <ele>721.61</ele>
        <time>2016-01-17T13:13:00Z</time>
      </trkpt>
      <trkpt lat="45.80816" lon="6.07223">
        <ele>719.83</ele>
        <time>2016-01-17T13:13:11Z</time>
      </trkpt>
      <trkpt lat="45.80818" lon="6.07195">
        <ele>718.31</ele>
        <time>2016-01-17T13:13:26Z</time>
      </trkpt>
      <trkpt lat="45.80823" lon="6.07168">
        <ele>714.83</ele>
        <time>2016-01-17T13:13:42Z</time>
      </trkpt>
      <trkpt lat="45.80841" lon="6.07159">
        <ele>713.43</ele>
        <time>2016-01-17T13:13:55Z</time>
      </trkpt>
      <trkpt lat="45.80857" lon="6.07164">
        <ele>712.72</ele>
        <time>2016-01-17T13:14:09Z</time>
      </trkpt>
      <trkpt lat="45.8087" lon="6.07164">
        <ele>711.8</ele>
        <time>2016-01-17T13:14:22Z</time>
      </trkpt>
      <trkpt lat="45.80885" lon="6.07164">
        <ele>710.28</ele>
        <time>2016-01-17T13:14:37Z</time>
      </trkpt>
      <trkpt lat="45.80904" lon="6.07164">
        <ele>709.49</ele>
        <time>2016-01-17T13:14:53Z</time>
      </trkpt>
      <trkpt lat="45.80919" lon="6.07164">
        <ele>708.75</ele>
        <time>2016-01-17T13:15:07Z</time>
      </trkpt>
      <trkpt lat="45.80938" lon="6.07162">
        <ele>707.91</ele>
        <time>2016-01-17T13:15:21Z</time>
      </trkpt>
      <trkpt lat="45.80943" lon="6.07162">
        <ele>707.06</ele>
        <time>2016-01-17T13:15:25Z</time>
      </trkpt>
      <trkpt lat="45.8096" lon="6.07157">
        <ele>706.38</ele>
        <time>2016-01-17T13:15:39Z</time>
      </trkpt>
      <trkpt lat="45.80965" lon="6.07156">
        <ele>705.58</ele>
        <time>2016-01-17T13:15:44Z</time>
      </trkpt>
      <trkpt lat="45.80981" lon="6.07144">
        <ele>703.38</ele>
        <time>2016-01-17T13:15:59Z</time>
      </trkpt>
      <trkpt lat="45.80998" lon="6.07126">
        <ele>703.52</ele>
        <time>2016-01-17T13:16:16Z</time>
      </trkpt>
      <trkpt lat="45.80999" lon="6.07125">
        <ele>703.52</ele>
        <time>2016-01-17T13:16:17Z</time>
      </trkpt>
      <trkpt lat="45.81001" lon="6.0712">
        <ele>702.51</ele>
        <time>2016-01-17T13:16:21Z</time>
      </trkpt>
      <trkpt lat="45.81015" lon="6.07096">
        <ele>701.9</ele>
        <time>2016-01-17T13:16:38Z</time>
      </trkpt>
      <trkpt lat="45.81023" lon="6.07071">
        <ele>698.94</ele>
        <time>2016-01-17T13:16:55Z</time>
      </trkpt>
      <trkpt lat="45.81024" lon="6.07069">
        <ele>699.1</ele>
        <time>2016-01-17T13:16:56Z</time>
      </trkpt>
      <trkpt lat="45.81025" lon="6.07064">
        <ele>699.02</ele>
        <time>2016-01-17T13:16:59Z</time>
      </trkpt>
      <trkpt lat="45.81027" lon="6.07054">
        <ele>697.87</ele>
        <time>2016-01-17T13:17:05Z</time>
      </trkpt>
      <trkpt lat="45.8103" lon="6.07029">
        <ele>696.4</ele>
        <time>2016-01-17T13:17:20Z</time>
      </trkpt>
      <trkpt lat="45.81035" lon="6.06997">
        <ele>694.86</ele>
        <time>2016-01-17T13:17:39Z</time>
      </trkpt>
      <trkpt lat="45.81038" lon="6.0697">
        <ele>693.1</ele>
        <time>2016-01-17T13:17:56Z</time>
      </trkpt>
      <trkpt lat="45.81045" lon="6.06946">
        <ele>691.59</ele>
        <time>2016-01-17T13:18:11Z</time>
      </trkpt>
      <trkpt lat="45.81062" lon="6.06936">
        <ele>688.53</ele>
        <time>2016-01-17T13:18:27Z</time>
      </trkpt>
      <trkpt lat="45.81077" lon="6.06941">
        <ele>687.51</ele>
        <time>2016-01-17T13:18:41Z</time>
      </trkpt>
      <trkpt lat="45.81092" lon="6.06943">
        <ele>685.86</ele>
        <time>2016-01-17T13:18:55Z</time>
      </trkpt>
      <trkpt lat="45.81114" lon="6.06949">
        <ele>683.44</ele>
        <time>2016-01-17T13:19:13Z</time>
      </trkpt>
      <trkpt lat="45.81136" lon="6.06955">
        <ele>681.92</ele>
        <time>2016-01-17T13:19:31Z</time>
      </trkpt>
      <trkpt lat="45.81156" lon="6.0696">
        <ele>680.4</ele>
        <time>2016-01-17T13:19:48Z</time>
      </trkpt>
      <trkpt lat="45.81175" lon="6.06965">
        <ele>678.85</ele>
        <time>2016-01-17T13:20:05Z</time>
      </trkpt>
      <trkpt lat="45.81192" lon="6.06973">
        <ele>676.92</ele>
        <time>2016-01-17T13:20:21Z</time>
      </trkpt>
      <trkpt lat="45.812" lon="6.06979">
        <ele>675.57</ele>
        <time>2016-01-17T13:20:29Z</time>
      </trkpt>
      <trkpt lat="45.81215" lon="6.06991">
        <ele>673.84</ele>
        <time>2016-01-17T13:20:45Z</time>
      </trkpt>
      <trkpt lat="45.81229" lon="6.07005">
        <ele>671.78</ele>
        <time>2016-01-17T13:21:01Z</time>
      </trkpt>
      <trkpt lat="45.81251" lon="6.07009">
        <ele>669.99</ele>
        <time>2016-01-17T13:21:18Z</time>
      </trkpt>
      <trkpt lat="45.81254" lon="6.07009">
        <ele>670.03</ele>
        <time>2016-01-17T13:21:20Z</time>
      </trkpt>
      <trkpt lat="45.81264" lon="6.07027">
        <ele>670.02</ele>
        <time>2016-01-17T13:21:32Z</time>
      </trkpt>
      <trkpt lat="45.8127" lon="6.07034">
        <ele>670.12</ele>
        <time>2016-01-17T13:21:38Z</time>
      </trkpt>
      <trkpt lat="45.81275" lon="6.0704">
        <ele>672.66</ele>
        <time>2016-01-17T13:21:42Z</time>
      </trkpt>
      <trkpt lat="45.81285" lon="6.0706">
        <ele>674.4</ele>
        <time>2016-01-17T13:21:56Z</time>
      </trkpt>
      <trkpt lat="45.81292" lon="6.07083">
        <ele>676.78</ele>
        <time>2016-01-17T13:22:11Z</time>
      </trkpt>
      <trkpt lat="45.81311" lon="6.07083">
        <ele>679.14</ele>
        <time>2016-01-17T13:22:29Z</time>
      </trkpt>
      <trkpt lat="45.81312" lon="6.07083">
        <ele>679.13</ele>
        <time>2016-01-17T13:22:30Z</time>
      </trkpt>
      <trkpt lat="45.81326" lon="6.07079">
        <ele>682.19</ele>
        <time>2016-01-17T13:22:45Z</time>
      </trkpt>
      <trkpt lat="45.81338" lon="6.07078">
        <ele>685.58</ele>
        <time>2016-01-17T13:23:02Z</time>
      </trkpt>
      <trkpt lat="45.8135" lon="6.07082">
        <ele>688.93</ele>
        <time>2016-01-17T13:23:19Z</time>
      </trkpt>
      <trkpt lat="45.81357" lon="6.07092">
        <ele>692.05</ele>
        <time>2016-01-17T13:23:32Z</time>
      </trkpt>
      <trkpt lat="45.81365" lon="6.07107">
        <ele>694.17</ele>
        <time>2016-01-17T13:23:51Z</time>
      </trkpt>
      <trkpt lat="45.81378" lon="6.07122">
        <ele>696.21</ele>
        <time>2016-01-17T13:24:14Z</time>
      </trkpt>
      <trkpt lat="45.81387" lon="6.07132">
        <ele>697.13</ele>
        <time>2016-01-17T13:24:32Z</time>
      </trkpt>
      <trkpt lat="45.81397" lon="6.07147">
        <ele>698.03</ele>
        <time>2016-01-17T13:24:54Z</time>
      </trkpt>
      <trkpt lat="45.81399" lon="6.07151">
        <ele>698.06</ele>
        <time>2016-01-17T13:24:58Z</time>
      </trkpt>
      <trkpt lat="45.8141" lon="6.07174">
        <ele>698.07</ele>
        <time>2016-01-17T13:25:19Z</time>
      </trkpt>
      <trkpt lat="45.81416" lon="6.07198">
        <ele>698.19</ele>
        <time>2016-01-17T13:25:38Z</time>
      </trkpt>
      <trkpt lat="45.81436" lon="6.07228">
        <ele>698.18</ele>
        <time>2016-01-17T13:25:56Z</time>
      </trkpt>
      <trkpt lat="45.81451" lon="6.07242">
        <ele>699.82</ele>
        <time>2016-01-17T13:26:13Z</time>
      </trkpt>
      <trkpt lat="45.81465" lon="6.07227">
        <ele>699.61</ele>
        <time>2016-01-17T13:26:33Z</time>
      </trkpt>
      <trkpt lat="45.81467" lon="6.07222">
        <ele>696.93</ele>
        <time>2016-01-17T13:26:37Z</time>
      </trkpt>
      <trkpt lat="45.81469" lon="6.07217">
        <ele>695.46</ele>
        <time>2016-01-17T13:26:42Z</time>
      </trkpt>
      <trkpt lat="45.81469" lon="6.07209">
        <ele>693.89</ele>
        <time>2016-01-17T13:26:51Z</time>
      </trkpt>
      <trkpt lat="45.81474" lon="6.07185">
        <ele>690.44</ele>
        <time>2016-01-17T13:27:13Z</time>
      </trkpt>
      <trkpt lat="45.81477" lon="6.07168">
        <ele>686.81</ele>
        <time>2016-01-17T13:27:29Z</time>
      </trkpt>
      <trkpt lat="45.8148" lon="6.07159">
        <ele>685.16</ele>
        <time>2016-01-17T13:27:40Z</time>
      </trkpt>
      <trkpt lat="45.81491" lon="6.07143">
        <ele>681.32</ele>
        <time>2016-01-17T13:28:00Z</time>
      </trkpt>
      <trkpt lat="45.81508" lon="6.07136">
        <ele>680.65</ele>
        <time>2016-01-17T13:28:21Z</time>
      </trkpt>
      <trkpt lat="45.81528" lon="6.07123">
        <ele>680.58</ele>
        <time>2016-01-17T13:28:42Z</time>
      </trkpt>
      <trkpt lat="45.8154" lon="6.07117">
        <ele>680.53</ele>
        <time>2016-01-17T13:28:52Z</time>
      </trkpt>
      <trkpt lat="45.81548" lon="6.07115">
        <ele>680.48</ele>
        <time>2016-01-17T13:28:58Z</time>
      </trkpt>
      <trkpt lat="45.81558" lon="6.0711">
        <ele>680.41</ele>
        <time>2016-01-17T13:29:21Z</time>
      </trkpt>
      <trkpt lat="45.81561" lon="6.07107">
        <ele>682.95</ele>
        <time>2016-01-17T13:29:25Z</time>
      </trkpt>
      <trkpt lat="45.81579" lon="6.07091">
        <ele>682.82</ele>
        <time>2016-01-17T13:29:44Z</time>
      </trkpt>
      <trkpt lat="45.81582" lon="6.07089">
        <ele>680.25</ele>
        <time>2016-01-17T13:29:46Z</time>
      </trkpt>
      <trkpt lat="45.816" lon="6.0707">
        <ele>679.33</ele>
        <time>2016-01-17T13:30:04Z</time>
      </trkpt>
      <trkpt lat="45.81614" lon="6.07056">
        <ele>676.53</ele>
        <time>2016-01-17T13:30:20Z</time>
      </trkpt>
      <trkpt lat="45.81631" lon="6.0704">
        <ele>674.98</ele>
        <time>2016-01-17T13:30:38Z</time>
      </trkpt>
      <trkpt lat="45.81642" lon="6.07029">
        <ele>672.31</ele>
        <time>2016-01-17T13:30:57Z</time>
      </trkpt>
      <trkpt lat="45.81654" lon="6.07023">
        <ele>668.91</ele>
        <time>2016-01-17T13:31:13Z</time>
      </trkpt>
      <trkpt lat="45.81666" lon="6.07032">
        <ele>666.36</ele>
        <time>2016-01-17T13:31:35Z</time>
      </trkpt>
      <trkpt lat="45.81681" lon="6.07039">
        <ele>663.63</ele>
        <time>2016-01-17T13:31:57Z</time>
      </trkpt>
      <trkpt lat="45.81682" lon="6.07028">
        <ele>659.93</ele>
        <time>2016-01-17T13:32:11Z</time>
      </trkpt>
      <trkpt lat="45.81683" lon="6.07011">
        <ele>657.69</ele>
        <time>2016-01-17T13:32:29Z</time>
      </trkpt>
      <trkpt lat="45.81684" lon="6.06997">
        <ele>654.64</ele>
        <time>2016-01-17T13:32:39Z</time>
      </trkpt>
      <trkpt lat="45.81684" lon="6.06994">
        <ele>654.64</ele>
        <time>2016-01-17T13:32:40Z</time>
      </trkpt>
      <trkpt lat="45.81695" lon="6.06971">
        <ele>651.37</ele>
        <time>2016-01-17T13:32:58Z</time>
      </trkpt>
      <trkpt lat="45.81695" lon="6.06964">
        <ele>649.89</ele>
        <time>2016-01-17T13:33:04Z</time>
      </trkpt>
      <trkpt lat="45.81693" lon="6.06954">
        <ele>649.12</ele>
        <time>2016-01-17T13:33:12Z</time>
      </trkpt>
      <trkpt lat="45.8168" lon="6.06947">
        <ele>647.04</ele>
        <time>2016-01-17T13:33:26Z</time>
      </trkpt>
      <trkpt lat="45.81665" lon="6.0694">
        <ele>645.44</ele>
        <time>2016-01-17T13:33:42Z</time>
      </trkpt>
      <trkpt lat="45.81654" lon="6.06927">
        <ele>643.12</ele>
        <time>2016-01-17T13:33:56Z</time>
      </trkpt>
      <trkpt lat="45.81636" lon="6.06906">
        <ele>641.15</ele>
        <time>2016-01-17T13:34:13Z</time>
      </trkpt>
      <trkpt lat="45.81628" lon="6.0691">
        <ele>641.33</ele>
        <time>2016-01-17T13:34:30Z</time>
      </trkpt>
      <trkpt lat="45.81628" lon="6.06913">
        <ele>643.71</ele>
        <time>2016-01-17T13:34:35Z</time>
      </trkpt>
      <trkpt lat="45.81619" lon="6.06924">
        <ele>645.41</ele>
        <time>2016-01-17T13:34:50Z</time>
      </trkpt>
      <trkpt lat="45.81619" lon="6.06923">
        <ele>645.39</ele>
        <time>2016-01-17T13:35:13Z</time>
      </trkpt>
      <trkpt lat="45.81616" lon="6.06928">
        <ele>645.43</ele>
        <time>2016-01-17T13:35:40Z</time>
      </trkpt>
      <trkpt lat="45.81616" lon="6.06931">
        <ele>645.47</ele>
        <time>2016-01-17T13:36:08Z</time>
      </trkpt>
      <trkpt lat="45.81614" lon="6.06931">
        <ele>645.48</ele>
        <time>2016-01-17T13:36:22Z</time>
      </trkpt>
      <trkpt lat="45.81614" lon="6.06931">
        <ele>645.52</ele>
        <time>2016-01-17T13:36:23Z</time>
      </trkpt>
      <trkpt lat="45.81614" lon="6.06932">
        <ele>645.48</ele>
        <time>2016-01-17T13:36:26Z</time>
      </trkpt>
      <trkpt lat="45.81615" lon="6.06929">
        <ele>699.43</ele>
        <time>2016-01-17T13:36:30Z</time>
      </trkpt>
      <trkpt lat="45.81615" lon="6.06929">
        <ele>699.43</ele>
        <time>2016-01-17T13:36:31Z</time>
      </trkpt>
      <trkpt lat="45.81615" lon="6.06929">
        <ele>699.43</ele>
        <time>2016-01-17T13:36:32Z</time>
      </trkpt>
      <trkpt lat="45.81615" lon="6.06929">
        <ele>699.43</ele>
        <time>2016-01-17T13:36:33Z</time>
      </trkpt>
    </trkseg>
  </trk>
</gpx>